<?xml version='1.0' encoding='UTF-8'?><gpx version="1.1" creator="JPX - https://github.com/jenetics/jpx" xmlns="http://www.topografix.com/GPX/1/1"><trk><trkseg><trkpt lat="44.0374518254804" lon="10.842707628529332"><ele>795.9999999999999</ele><time>2026-04-06T12:11:05.01Z</time></trkpt><trkpt lat="44.03743104494947" lon="10.842809620172163"><ele>796.0</ele><time>2026-04-06T12:11:12.007Z</time></trkpt><trkpt lat="44.03737487323339" lon="10.842945534673598"><ele>796.0</ele><time>2026-04-06T12:11:27.003Z</time></trkpt><trkpt lat="44.03733431617298" lon="10.843043291076881"><ele>796.0</ele><time>2026-04-06T12:11:31.002Z</time></trkpt><trkpt lat="44.03738231511878" lon="10.842934685661856"><ele>795.9999999999999</ele><time>2026-04-06T12:13:44Z</time></trkpt><trkpt lat="44.037439083984545" lon="10.84288731462151"><ele>796.0</ele><time>2026-04-06T12:13:58Z</time></trkpt><trkpt lat="44.03749365024403" lon="10.842820000508425"><ele>794.4999999999999</ele><time>2026-04-06T12:14:23Z</time></trkpt><trkpt lat="44.03756561834078" lon="10.84281926132752"><ele>793.0</ele><time>2026-04-06T12:14:28Z</time></trkpt><trkpt lat="44.03761963521685" lon="10.842714436319213"><ele>791.5</ele><time>2026-04-06T12:14:33Z</time></trkpt><trkpt lat="44.03769691883753" lon="10.842640343206389"><ele>790.0</ele><time>2026-04-06T12:15:18.001Z</time></trkpt><trkpt lat="44.0377576464017" lon="10.842694838376403"><ele>788.4999999999999</ele><time>2026-04-06T12:16:14.001Z</time></trkpt><trkpt lat="44.03780816190647" lon="10.842634662111847"><ele>787.0</ele><time>2026-04-06T12:16:22.001Z</time></trkpt><trkpt lat="44.037864419473074" lon="10.842564254814606"><ele>786.9999999999999</ele><time>2026-04-06T12:16:26.001Z</time></trkpt><trkpt lat="44.037944570409834" lon="10.842619282412516"><ele>787.0</ele><time>2026-04-06T12:16:29.001Z</time></trkpt><trkpt lat="44.03799152308107" lon="10.842730016762598"><ele>787.0</ele><time>2026-04-06T12:16:31.001Z</time></trkpt><trkpt lat="44.03806061407379" lon="10.842807637290516"><ele>787.0</ele><time>2026-04-06T12:16:34.001Z</time></trkpt><trkpt lat="44.03813186118604" lon="10.8428690532016"><ele>786.9999999999999</ele><time>2026-04-06T12:16:37.001Z</time></trkpt><trkpt lat="44.03819400376183" lon="10.842949021345364"><ele>787.0</ele><time>2026-04-06T12:16:39.001Z</time></trkpt><trkpt lat="44.038263133209945" lon="10.842972038396915"><ele>783.8333333333333</ele><time>2026-04-06T12:16:41.001Z</time></trkpt><trkpt lat="44.038337954147785" lon="10.84296918239723"><ele>780.6666666666666</ele><time>2026-04-06T12:16:44.001Z</time></trkpt><trkpt lat="44.038405620488795" lon="10.842945725356937"><ele>777.5</ele><time>2026-04-06T12:16:47.001Z</time></trkpt><trkpt lat="44.038477168544084" lon="10.842929360263511"><ele>774.3333333333333</ele><time>2026-04-06T12:16:50.001Z</time></trkpt><trkpt lat="44.038559570182116" lon="10.842930855739137"><ele>771.1666666666666</ele><time>2026-04-06T12:16:53.001Z</time></trkpt><trkpt lat="44.03862660771516" lon="10.842892107179155"><ele>768.0</ele><time>2026-04-06T12:16:56.001Z</time></trkpt><trkpt lat="44.03871407161197" lon="10.842915047814255"><ele>767.9999999999999</ele><time>2026-04-06T12:16:59.001Z</time></trkpt><trkpt lat="44.038773670487224" lon="10.842946711978882"><ele>768.0</ele><time>2026-04-06T12:17:02.001Z</time></trkpt><trkpt lat="44.03884420137695" lon="10.842961845128402"><ele>768.0</ele><time>2026-04-06T12:17:05.001Z</time></trkpt><trkpt lat="44.038909791094326" lon="10.842976467188144"><ele>768.0</ele><time>2026-04-06T12:17:07.001Z</time></trkpt><trkpt lat="44.03897272482776" lon="10.84297366947331"><ele>768.0</ele><time>2026-04-06T12:17:09.001Z</time></trkpt><trkpt lat="44.03904300783342" lon="10.842987312652127"><ele>767.9999999999999</ele><time>2026-04-06T12:17:11.001Z</time></trkpt><trkpt lat="44.03913423151037" lon="10.843018189603177"><ele>768.0</ele><time>2026-04-06T12:17:13.001Z</time></trkpt><trkpt lat="44.0392306522393" lon="10.84305241636225"><ele>765.8333333333334</ele><time>2026-04-06T12:17:15.001Z</time></trkpt><trkpt lat="44.0393112332845" lon="10.843113837601702"><ele>763.6666666666666</ele><time>2026-04-06T12:17:17.001Z</time></trkpt><trkpt lat="44.03936562871175" lon="10.843189077933737"><ele>761.5</ele><time>2026-04-06T12:17:20.001Z</time></trkpt><trkpt lat="44.039423498670146" lon="10.843257641828957"><ele>759.3333333333333</ele><time>2026-04-06T12:17:23.001Z</time></trkpt><trkpt lat="44.03945187888496" lon="10.843346923709644"><ele>757.1666666666666</ele><time>2026-04-06T12:17:28.001Z</time></trkpt><trkpt lat="44.03950229480232" lon="10.843421996491875"><ele>755.0</ele><time>2026-04-06T12:17:31.001Z</time></trkpt><trkpt lat="44.03956041448477" lon="10.843490713988356"><ele>754.1428571428571</ele><time>2026-04-06T12:17:33.001Z</time></trkpt><trkpt lat="44.039630038257854" lon="10.843560140414047"><ele>753.2857142857143</ele><time>2026-04-06T12:17:36.001Z</time></trkpt><trkpt lat="44.03967637853679" lon="10.843625972921584"><ele>752.4285714285714</ele><time>2026-04-06T12:17:38.001Z</time></trkpt><trkpt lat="44.03972798464292" lon="10.843676949376658"><ele>751.5714285714286</ele><time>2026-04-06T12:17:40.001Z</time></trkpt><trkpt lat="44.039795198498034" lon="10.843742021639414"><ele>750.7142857142858</ele><time>2026-04-06T12:17:42.001Z</time></trkpt><trkpt lat="44.039851795056876" lon="10.843797639017042"><ele>749.8571428571429</ele><time>2026-04-06T12:17:44.001Z</time></trkpt><trkpt lat="44.03991961978455" lon="10.843861372410494"><ele>749.0</ele><time>2026-04-06T12:17:47.001Z</time></trkpt><trkpt lat="44.03998837727382" lon="10.843915262972777"><ele>746.6666666666666</ele><time>2026-04-06T12:17:50.001Z</time></trkpt><trkpt lat="44.04004348192957" lon="10.843963759092173"><ele>744.3333333333333</ele><time>2026-04-06T12:17:53.001Z</time></trkpt><trkpt lat="44.04011980062833" lon="10.843961766755482"><ele>742.0</ele><time>2026-04-06T12:17:56.001Z</time></trkpt><trkpt lat="44.040204649069096" lon="10.843951050148567"><ele>739.6666666666666</ele><time>2026-04-06T12:18:00.001Z</time></trkpt><trkpt lat="44.04027915392407" lon="10.843995966222405"><ele>737.3333333333334</ele><time>2026-04-06T12:18:04.001Z</time></trkpt><trkpt lat="44.04031282347689" lon="10.8441038563113"><ele>735.0</ele><time>2026-04-06T12:18:07.002Z</time></trkpt><trkpt lat="44.04036451377637" lon="10.844231683616556"><ele>734.4285714285714</ele><time>2026-04-06T12:18:10.002Z</time></trkpt><trkpt lat="44.04038844858751" lon="10.84432316031176"><ele>733.8571428571429</ele><time>2026-04-06T12:18:12.002Z</time></trkpt><trkpt lat="44.040395641952415" lon="10.844422681099319"><ele>733.2857142857142</ele><time>2026-04-06T12:18:14.002Z</time></trkpt><trkpt lat="44.04038215559327" lon="10.844517832402206"><ele>732.7142857142858</ele><time>2026-04-06T12:18:17.002Z</time></trkpt><trkpt lat="44.04037024645833" lon="10.84463925107462"><ele>732.1428571428571</ele><time>2026-04-06T12:18:20.002Z</time></trkpt><trkpt lat="44.0403656435642" lon="10.844732490274415"><ele>731.5714285714286</ele><time>2026-04-06T12:18:22.002Z</time></trkpt><trkpt lat="44.040339344359275" lon="10.844818605536615"><ele>731.0</ele><time>2026-04-06T12:18:24.002Z</time></trkpt><trkpt lat="44.04030441740421" lon="10.84495034364943"><ele>731.0</ele><time>2026-04-06T12:18:27.002Z</time></trkpt><trkpt lat="44.040268562827215" lon="10.845043913967846"><ele>731.0</ele><time>2026-04-06T12:18:29.002Z</time></trkpt><trkpt lat="44.04023073216393" lon="10.845144930352449"><ele>731.0</ele><time>2026-04-06T12:18:31.002Z</time></trkpt><trkpt lat="44.040188945199084" lon="10.845228316656858"><ele>731.0</ele><time>2026-04-06T12:18:33.002Z</time></trkpt><trkpt lat="44.040139272198296" lon="10.845318480799287"><ele>731.0</ele><time>2026-04-06T12:18:35.002Z</time></trkpt><trkpt lat="44.04009534458287" lon="10.845399600953108"><ele>731.0</ele><time>2026-04-06T12:18:37.002Z</time></trkpt><trkpt lat="44.040043033582656" lon="10.84547519788937"><ele>731.0</ele><time>2026-04-06T12:18:39.002Z</time></trkpt><trkpt lat="44.03999693044049" lon="10.845535048466592"><ele>731.0</ele><time>2026-04-06T12:18:41.002Z</time></trkpt><trkpt lat="44.039944238892595" lon="10.845633336154506"><ele>731.0</ele><time>2026-04-06T12:18:44.002Z</time></trkpt><trkpt lat="44.03991790747465" lon="10.845719951061199"><ele>731.0</ele><time>2026-04-06T12:18:46.002Z</time></trkpt><trkpt lat="44.039874503591335" lon="10.84581808058612"><ele>731.0</ele><time>2026-04-06T12:18:49.002Z</time></trkpt><trkpt lat="44.03982332009434" lon="10.84593420809916"><ele>731.0</ele><time>2026-04-06T12:18:52.002Z</time></trkpt><trkpt lat="44.03979025361239" lon="10.846048590660335"><ele>730.0</ele><time>2026-04-06T12:18:54.002Z</time></trkpt><trkpt lat="44.039750093319334" lon="10.846152899247727"><ele>729.0</ele><time>2026-04-06T12:18:56.002Z</time></trkpt><trkpt lat="44.03971126162003" lon="10.846266046690374"><ele>728.0</ele><time>2026-04-06T12:18:58.002Z</time></trkpt><trkpt lat="44.03966281722271" lon="10.846355713519173"><ele>727.0</ele><time>2026-04-06T12:19:00.002Z</time></trkpt><trkpt lat="44.03961035905211" lon="10.846459192631512"><ele>726.0</ele><time>2026-04-06T12:19:02.002Z</time></trkpt><trkpt lat="44.03956047552665" lon="10.846541937676568"><ele>725.0</ele><time>2026-04-06T12:19:04.002Z</time></trkpt><trkpt lat="44.03950645115095" lon="10.846644783287426"><ele>725.0</ele><time>2026-04-06T12:19:06.002Z</time></trkpt><trkpt lat="44.039440455895345" lon="10.846728602017103"><ele>725.0</ele><time>2026-04-06T12:19:08.002Z</time></trkpt><trkpt lat="44.03937886688293" lon="10.846819095186179"><ele>725.0</ele><time>2026-04-06T12:19:10.002Z</time></trkpt><trkpt lat="44.039327408698334" lon="10.846907159569819"><ele>725.0</ele><time>2026-04-06T12:19:12.002Z</time></trkpt><trkpt lat="44.03926327979563" lon="10.846991948784124"><ele>725.0</ele><time>2026-04-06T12:19:14.002Z</time></trkpt><trkpt lat="44.03920084208232" lon="10.847080465298118"><ele>725.0</ele><time>2026-04-06T12:19:16.002Z</time></trkpt><trkpt lat="44.03914365429013" lon="10.847161175778671"><ele>724.5</ele><time>2026-04-06T12:19:18.002Z</time></trkpt><trkpt lat="44.039088095342876" lon="10.847249821507233"><ele>724.0</ele><time>2026-04-06T12:19:20.002Z</time></trkpt><trkpt lat="44.0390412357916" lon="10.8473296309298"><ele>723.5</ele><time>2026-04-06T12:19:22.002Z</time></trkpt><trkpt lat="44.03900171024625" lon="10.847421200139237"><ele>723.0</ele><time>2026-04-06T12:19:24.002Z</time></trkpt><trkpt lat="44.03897147628145" lon="10.847511511459041"><ele>722.5</ele><time>2026-04-06T12:19:26.002Z</time></trkpt><trkpt lat="44.03895866081531" lon="10.847599291926837"><ele>722.0</ele><time>2026-04-06T12:19:28.002Z</time></trkpt><trkpt lat="44.038953707650364" lon="10.847715294337403"><ele>721.4000000000001</ele><time>2026-04-06T12:19:31.002Z</time></trkpt><trkpt lat="44.0389022001447" lon="10.847812813735052"><ele>720.8000000000001</ele><time>2026-04-06T12:19:34.002Z</time></trkpt><trkpt lat="44.03885181379052" lon="10.847898914323505"><ele>720.2</ele><time>2026-04-06T12:19:36.002Z</time></trkpt><trkpt lat="44.03880668164913" lon="10.848034945402933"><ele>719.6</ele><time>2026-04-06T12:19:38.002Z</time></trkpt><trkpt lat="44.03874108671141" lon="10.84817038801947"><ele>719.0</ele><time>2026-04-06T12:19:40.002Z</time></trkpt><trkpt lat="44.03867400140533" lon="10.84831191722687"><ele>718.9999999999999</ele><time>2026-04-06T12:19:42.002Z</time></trkpt><trkpt lat="44.0386397731393" lon="10.848389969245114"><ele>719.0</ele><time>2026-04-06T12:19:43.002Z</time></trkpt><trkpt lat="44.03860673041143" lon="10.848472113757895"><ele>719.0</ele><time>2026-04-06T12:19:44.002Z</time></trkpt><trkpt lat="44.03855945894925" lon="10.848557606089711"><ele>719.0</ele><time>2026-04-06T12:19:45.002Z</time></trkpt><trkpt lat="44.03851829014671" lon="10.848637683162302"><ele>719.0</ele><time>2026-04-06T12:19:46.002Z</time></trkpt><trkpt lat="44.03847626807105" lon="10.848729149223733"><ele>718.9999999999999</ele><time>2026-04-06T12:19:47.002Z</time></trkpt><trkpt lat="44.03843397225762" lon="10.848812917152665"><ele>719.0</ele><time>2026-04-06T12:19:48.002Z</time></trkpt><trkpt lat="44.03839053136699" lon="10.848911079457766"><ele>719.6666666666666</ele><time>2026-04-06T12:19:49.002Z</time></trkpt><trkpt lat="44.038341372298454" lon="10.849003704134777"><ele>720.3333333333333</ele><time>2026-04-06T12:19:50.002Z</time></trkpt><trkpt lat="44.03829069868991" lon="10.849095475391172"><ele>721.0</ele><time>2026-04-06T12:19:51.002Z</time></trkpt><trkpt lat="44.03824196955372" lon="10.849194989375606"><ele>721.6666666666666</ele><time>2026-04-06T12:19:52.002Z</time></trkpt><trkpt lat="44.038193822151094" lon="10.849298849273842"><ele>722.3333333333334</ele><time>2026-04-06T12:19:53.002Z</time></trkpt><trkpt lat="44.03814626534669" lon="10.84940408168683"><ele>723.0</ele><time>2026-04-06T12:19:54.002Z</time></trkpt><trkpt lat="44.03809269402585" lon="10.849502887490123"><ele>721.0</ele><time>2026-04-06T12:19:55.002Z</time></trkpt><trkpt lat="44.03804191474381" lon="10.849596863183383"><ele>719.0</ele><time>2026-04-06T12:19:56.002Z</time></trkpt><trkpt lat="44.03798732794749" lon="10.849701467250632"><ele>717.0</ele><time>2026-04-06T12:19:57.002Z</time></trkpt><trkpt lat="44.03793477399171" lon="10.84980469120479"><ele>715.0</ele><time>2026-04-06T12:19:58.002Z</time></trkpt><trkpt lat="44.03789044442794" lon="10.849922730710349"><ele>713.0</ele><time>2026-04-06T12:19:59.002Z</time></trkpt><trkpt lat="44.03784846718206" lon="10.850050083955406"><ele>713.0</ele><time>2026-04-06T12:20:00.002Z</time></trkpt><trkpt lat="44.03780985852789" lon="10.850182232076701"><ele>713.0</ele><time>2026-04-06T12:20:01.002Z</time></trkpt><trkpt lat="44.03776918581112" lon="10.85031423239232"><ele>713.0</ele><time>2026-04-06T12:20:02.002Z</time></trkpt><trkpt lat="44.0377301811386" lon="10.850439613479336"><ele>713.0</ele><time>2026-04-06T12:20:03.002Z</time></trkpt><trkpt lat="44.0376921298535" lon="10.85057790172852"><ele>713.0</ele><time>2026-04-06T12:20:04.002Z</time></trkpt><trkpt lat="44.03765695419324" lon="10.85072028272416"><ele>713.0</ele><time>2026-04-06T12:20:05.002Z</time></trkpt><trkpt lat="44.03762231142612" lon="10.85085198546113"><ele>713.0</ele><time>2026-04-06T12:20:06.002Z</time></trkpt><trkpt lat="44.03759356676282" lon="10.851003270851473"><ele>713.0</ele><time>2026-04-06T12:20:07.002Z</time></trkpt><trkpt lat="44.03756580188169" lon="10.851118811323719"><ele>713.0</ele><time>2026-04-06T12:20:08.002Z</time></trkpt><trkpt lat="44.03754564537566" lon="10.85124282712911"><ele>713.0</ele><time>2026-04-06T12:20:09.002Z</time></trkpt><trkpt lat="44.0375297765495" lon="10.851362376072776"><ele>712.8333333333333</ele><time>2026-04-06T12:20:10.002Z</time></trkpt><trkpt lat="44.03755177277287" lon="10.851480193139684"><ele>712.6666666666666</ele><time>2026-04-06T12:20:11.002Z</time></trkpt><trkpt lat="44.03756860671411" lon="10.85159494756745"><ele>712.5</ele><time>2026-04-06T12:20:12.002Z</time></trkpt><trkpt lat="44.037593387401095" lon="10.851705292178806"><ele>712.3333333333334</ele><time>2026-04-06T12:20:13.002Z</time></trkpt><trkpt lat="44.03761505128451" lon="10.851808152656018"><ele>712.1666666666667</ele><time>2026-04-06T12:20:14.002Z</time></trkpt><trkpt lat="44.03763334238941" lon="10.851911111302664"><ele>712.0</ele><time>2026-04-06T12:20:15.002Z</time></trkpt><trkpt lat="44.037669271940246" lon="10.852009170449833"><ele>711.9999999999999</ele><time>2026-04-06T12:20:16.002Z</time></trkpt><trkpt lat="44.037680233087706" lon="10.852109951297692"><ele>712.0</ele><time>2026-04-06T12:20:17.002Z</time></trkpt><trkpt lat="44.037689401007974" lon="10.852210275305788"><ele>712.0</ele><time>2026-04-06T12:20:18.002Z</time></trkpt><trkpt lat="44.03770747436013" lon="10.852303573635377"><ele>712.0</ele><time>2026-04-06T12:20:19.002Z</time></trkpt><trkpt lat="44.03772502800878" lon="10.852398318954267"><ele>712.0</ele><time>2026-04-06T12:20:20.002Z</time></trkpt><trkpt lat="44.037748326746154" lon="10.85248948526505"><ele>711.9999999999999</ele><time>2026-04-06T12:20:21.002Z</time></trkpt><trkpt lat="44.03776106109041" lon="10.85258134728425"><ele>712.0</ele><time>2026-04-06T12:20:22.002Z</time></trkpt><trkpt lat="44.03777690312399" lon="10.852668946344103"><ele>711.2</ele><time>2026-04-06T12:20:23.002Z</time></trkpt><trkpt lat="44.03779348230894" lon="10.852755822829181"><ele>710.4000000000001</ele><time>2026-04-06T12:20:24.002Z</time></trkpt><trkpt lat="44.03778905099877" lon="10.852927649208462"><ele>709.5999999999999</ele><time>2026-04-06T12:20:26.002Z</time></trkpt><trkpt lat="44.037745709916436" lon="10.853072080268392"><ele>708.8</ele><time>2026-04-06T12:20:28.002Z</time></trkpt><trkpt lat="44.03769112013761" lon="10.853210706176204"><ele>708.0</ele><time>2026-04-06T12:20:30.002Z</time></trkpt><trkpt lat="44.037627840298526" lon="10.85327611710839"><ele>708.0</ele><time>2026-04-06T12:20:31.002Z</time></trkpt><trkpt lat="44.037569458524246" lon="10.853326614935765"><ele>708.0</ele><time>2026-04-06T12:20:32.002Z</time></trkpt><trkpt lat="44.037515091091244" lon="10.853373468430828"><ele>708.0</ele><time>2026-04-06T12:20:33.002Z</time></trkpt><trkpt lat="44.037464546751494" lon="10.853436609549668"><ele>708.0</ele><time>2026-04-06T12:20:34.002Z</time></trkpt><trkpt lat="44.0373901514851" lon="10.853567957389208"><ele>708.0</ele><time>2026-04-06T12:20:36.002Z</time></trkpt><trkpt lat="44.03736130452583" lon="10.85373658236942"><ele>708.0</ele><time>2026-04-06T12:20:38.002Z</time></trkpt><trkpt lat="44.03733485067245" lon="10.853889608015502"><ele>709.0</ele><time>2026-04-06T12:20:40.002Z</time></trkpt><trkpt lat="44.03734983345256" lon="10.854050146935615"><ele>710.0</ele><time>2026-04-06T12:20:42.002Z</time></trkpt><trkpt lat="44.03738597166142" lon="10.854194168245163"><ele>711.0</ele><time>2026-04-06T12:20:44.002Z</time></trkpt><trkpt lat="44.03742044373806" lon="10.854272901835095"><ele>712.0</ele><time>2026-04-06T12:20:45.002Z</time></trkpt><trkpt lat="44.03748216767462" lon="10.854419936471391"><ele>713.0</ele><time>2026-04-06T12:20:47.002Z</time></trkpt><trkpt lat="44.03752246245719" lon="10.854494826458442"><ele>713.0</ele><time>2026-04-06T12:20:48.002Z</time></trkpt><trkpt lat="44.03758711814556" lon="10.854641409113201"><ele>713.0</ele><time>2026-04-06T12:20:50.002Z</time></trkpt><trkpt lat="44.03765169862805" lon="10.854794000048534"><ele>713.0</ele><time>2026-04-06T12:20:52.002Z</time></trkpt><trkpt lat="44.03768997333965" lon="10.854873444592398"><ele>713.0</ele><time>2026-04-06T12:20:53.002Z</time></trkpt><trkpt lat="44.03772095088635" lon="10.85503879364996"><ele>713.0</ele><time>2026-04-06T12:20:55.002Z</time></trkpt><trkpt lat="44.03773197171403" lon="10.855125913478687"><ele>713.4</ele><time>2026-04-06T12:20:56.002Z</time></trkpt><trkpt lat="44.03773884202592" lon="10.855213121241933"><ele>713.8</ele><time>2026-04-06T12:20:57.002Z</time></trkpt><trkpt lat="44.037747994431705" lon="10.8553728332719"><ele>714.2</ele><time>2026-04-06T12:20:59.002Z</time></trkpt><trkpt lat="44.0377582711822" lon="10.855531923932688"><ele>714.6</ele><time>2026-04-06T12:21:01.002Z</time></trkpt><trkpt lat="44.03776270156486" lon="10.85567987889156"><ele>715.0</ele><time>2026-04-06T12:21:03.002Z</time></trkpt><trkpt lat="44.03776064640571" lon="10.855813325975875"><ele>715.0</ele><time>2026-04-06T12:21:05.002Z</time></trkpt><trkpt lat="44.037773837654" lon="10.855971805970535"><ele>715.0</ele><time>2026-04-06T12:21:07.003Z</time></trkpt><trkpt lat="44.03777761582283" lon="10.856120159058632"><ele>715.0</ele><time>2026-04-06T12:21:09.003Z</time></trkpt><trkpt lat="44.03777856100903" lon="10.856214297912716"><ele>715.0</ele><time>2026-04-06T12:21:10.003Z</time></trkpt><trkpt lat="44.03778755282552" lon="10.856302376114147"><ele>715.0</ele><time>2026-04-06T12:21:11.003Z</time></trkpt><trkpt lat="44.03779292400172" lon="10.856395034600553"><ele>715.0</ele><time>2026-04-06T12:21:12.003Z</time></trkpt><trkpt lat="44.03780680669255" lon="10.856495156240845"><ele>715.0</ele><time>2026-04-06T12:21:13.003Z</time></trkpt><trkpt lat="44.03781871948101" lon="10.856584442224143"><ele>715.0</ele><time>2026-04-06T12:21:14.003Z</time></trkpt><trkpt lat="44.03785821815643" lon="10.856753220703279"><ele>715.0</ele><time>2026-04-06T12:21:16.003Z</time></trkpt><trkpt lat="44.037888183033175" lon="10.856839138704236"><ele>715.0</ele><time>2026-04-06T12:21:17.003Z</time></trkpt><trkpt lat="44.03793328221001" lon="10.856919594562587"><ele>715.0</ele><time>2026-04-06T12:21:18.003Z</time></trkpt><trkpt lat="44.037984692494014" lon="10.856979890559558"><ele>715.0</ele><time>2026-04-06T12:21:19.003Z</time></trkpt><trkpt lat="44.038034880755724" lon="10.857035037957566"><ele>715.3333333333334</ele><time>2026-04-06T12:21:20.003Z</time></trkpt><trkpt lat="44.038142112408686" lon="10.857113404195925"><ele>715.6666666666667</ele><time>2026-04-06T12:21:22.003Z</time></trkpt><trkpt lat="44.038200596361534" lon="10.85717406220837"><ele>716.0</ele><time>2026-04-06T12:21:23.003Z</time></trkpt><trkpt lat="44.03826005416437" lon="10.85724601193377"><ele>716.3333333333334</ele><time>2026-04-06T12:21:24.003Z</time></trkpt><trkpt lat="44.03830694734461" lon="10.857309847909852"><ele>716.6666666666666</ele><time>2026-04-06T12:21:25.003Z</time></trkpt><trkpt lat="44.03834357096432" lon="10.85739796473706"><ele>717.0</ele><time>2026-04-06T12:21:26.003Z</time></trkpt><trkpt lat="44.03839069473596" lon="10.857564181799704"><ele>715.5</ele><time>2026-04-06T12:21:28.003Z</time></trkpt><trkpt lat="44.03840803409655" lon="10.857651440124354"><ele>714.0</ele><time>2026-04-06T12:21:29.003Z</time></trkpt><trkpt lat="44.038434861781866" lon="10.85781253572245"><ele>712.5</ele><time>2026-04-06T12:21:31.003Z</time></trkpt><trkpt lat="44.03846938466736" lon="10.857967882129847"><ele>711.0</ele><time>2026-04-06T12:21:33.003Z</time></trkpt><trkpt lat="44.03849113142687" lon="10.858051044533244"><ele>709.5</ele><time>2026-04-06T12:21:34.003Z</time></trkpt><trkpt lat="44.03850969416024" lon="10.858139200286631"><ele>708.0</ele><time>2026-04-06T12:21:35.003Z</time></trkpt><trkpt lat="44.03854576270963" lon="10.858295849209913"><ele>708.2</ele><time>2026-04-06T12:21:37.003Z</time></trkpt><trkpt lat="44.03857754530649" lon="10.858461672717855"><ele>708.4</ele><time>2026-04-06T12:21:39.003Z</time></trkpt><trkpt lat="44.038598795140096" lon="10.85854465959378"><ele>708.6</ele><time>2026-04-06T12:21:40.003Z</time></trkpt><trkpt lat="44.0386280291515" lon="10.85869993852249"><ele>708.8000000000001</ele><time>2026-04-06T12:21:42.003Z</time></trkpt><trkpt lat="44.038650338208875" lon="10.858784352738358"><ele>709.0</ele><time>2026-04-06T12:21:43.003Z</time></trkpt><trkpt lat="44.03868949381767" lon="10.858951126272595"><ele>709.0</ele><time>2026-04-06T12:21:45.003Z</time></trkpt><trkpt lat="44.038701207036986" lon="10.859121828163527"><ele>709.0</ele><time>2026-04-06T12:21:47.003Z</time></trkpt><trkpt lat="44.03871973049718" lon="10.859209350312735"><ele>709.0</ele><time>2026-04-06T12:21:48.003Z</time></trkpt><trkpt lat="44.03872877274863" lon="10.859297409761341"><ele>709.0</ele><time>2026-04-06T12:21:49.003Z</time></trkpt><trkpt lat="44.03873214567661" lon="10.859385777698717"><ele>709.0</ele><time>2026-04-06T12:21:50.003Z</time></trkpt><trkpt lat="44.03874255823345" lon="10.859472721685899"><ele>709.0</ele><time>2026-04-06T12:21:51.003Z</time></trkpt><trkpt lat="44.03875407091276" lon="10.859631908739349"><ele>707.5</ele><time>2026-04-06T12:21:53.003Z</time></trkpt><trkpt lat="44.03873762286186" lon="10.859808001741518"><ele>706.0</ele><time>2026-04-06T12:21:55.003Z</time></trkpt><trkpt lat="44.03873731120168" lon="10.859896517069293"><ele>704.5</ele><time>2026-04-06T12:21:56.003Z</time></trkpt><trkpt lat="44.03874253831371" lon="10.859996945071106"><ele>703.0</ele><time>2026-04-06T12:21:57.003Z</time></trkpt><trkpt lat="44.03874186112238" lon="10.860089950210057"><ele>701.5</ele><time>2026-04-06T12:21:58.003Z</time></trkpt><trkpt lat="44.03875481430368" lon="10.860175736901175"><ele>700.0</ele><time>2026-04-06T12:21:59.003Z</time></trkpt><trkpt lat="44.03876620172868" lon="10.860267832028443"><ele>698.8333333333334</ele><time>2026-04-06T12:22:00.003Z</time></trkpt><trkpt lat="44.038782892654055" lon="10.860357668635848"><ele>697.6666666666667</ele><time>2026-04-06T12:22:01.003Z</time></trkpt><trkpt lat="44.03880355370432" lon="10.86045231418367"><ele>696.5</ele><time>2026-04-06T12:22:02.003Z</time></trkpt><trkpt lat="44.03883001612406" lon="10.860538859461366"><ele>695.3333333333334</ele><time>2026-04-06T12:22:03.003Z</time></trkpt><trkpt lat="44.03885702933001" lon="10.860620803644062"><ele>694.1666666666666</ele><time>2026-04-06T12:22:04.003Z</time></trkpt><trkpt lat="44.038880702080334" lon="10.860708476835867"><ele>693.0</ele><time>2026-04-06T12:22:05.003Z</time></trkpt><trkpt lat="44.03889351747465" lon="10.860880476804295"><ele>693.0</ele><time>2026-04-06T12:22:07.003Z</time></trkpt><trkpt lat="44.03885023626397" lon="10.861030860525439"><ele>693.0</ele><time>2026-04-06T12:22:09.003Z</time></trkpt><trkpt lat="44.038792084977224" lon="10.861169379050052"><ele>693.0</ele><time>2026-04-06T12:22:11.003Z</time></trkpt><trkpt lat="44.038738032520016" lon="10.861293588421253"><ele>693.0</ele><time>2026-04-06T12:22:13.003Z</time></trkpt><trkpt lat="44.03869088800657" lon="10.8614177454038"><ele>693.0</ele><time>2026-04-06T12:22:15.003Z</time></trkpt><trkpt lat="44.03865270807087" lon="10.861546838317969"><ele>693.0</ele><time>2026-04-06T12:22:17.003Z</time></trkpt><trkpt lat="44.038621754490315" lon="10.861668748616177"><ele>693.0</ele><time>2026-04-06T12:22:19.003Z</time></trkpt><trkpt lat="44.03860631649352" lon="10.861783412363717"><ele>693.0</ele><time>2026-04-06T12:22:21.003Z</time></trkpt><trkpt lat="44.03859831713213" lon="10.861914001827566"><ele>693.0</ele><time>2026-04-06T12:22:23.003Z</time></trkpt><trkpt lat="44.0386022006845" lon="10.862038302888937"><ele>693.0</ele><time>2026-04-06T12:22:25.003Z</time></trkpt><trkpt lat="44.03861403756928" lon="10.862172918368394"><ele>693.2</ele><time>2026-04-06T12:22:27.003Z</time></trkpt><trkpt lat="44.03861642827719" lon="10.862293622989766"><ele>693.4</ele><time>2026-04-06T12:22:29.003Z</time></trkpt><trkpt lat="44.03865416360241" lon="10.862462854859562"><ele>693.6</ele><time>2026-04-06T12:22:31.003Z</time></trkpt><trkpt lat="44.03867604502513" lon="10.862603413900326"><ele>693.8000000000001</ele><time>2026-04-06T12:22:33.003Z</time></trkpt><trkpt lat="44.03868838353094" lon="10.862760821492438"><ele>694.0</ele><time>2026-04-06T12:22:35.003Z</time></trkpt><trkpt lat="44.03870159335068" lon="10.862910250783944"><ele>694.4000000000001</ele><time>2026-04-06T12:22:37.003Z</time></trkpt><trkpt lat="44.038713234217546" lon="10.863038702627803"><ele>694.8</ele><time>2026-04-06T12:22:39.003Z</time></trkpt><trkpt lat="44.03871804987188" lon="10.863177174717498"><ele>695.2</ele><time>2026-04-06T12:22:41.003Z</time></trkpt><trkpt lat="44.03870132040879" lon="10.863305945905596"><ele>695.5999999999999</ele><time>2026-04-06T12:22:43.003Z</time></trkpt><trkpt lat="44.038675077880555" lon="10.863416239191222"><ele>696.0</ele><time>2026-04-06T12:22:45.003Z</time></trkpt><trkpt lat="44.038679443359804" lon="10.863573640694367"><ele>696.3333333333334</ele><time>2026-04-06T12:22:47.003Z</time></trkpt><trkpt lat="44.03866715798503" lon="10.863693747286005"><ele>696.6666666666666</ele><time>2026-04-06T12:22:49.003Z</time></trkpt><trkpt lat="44.03864630283614" lon="10.863819761769607"><ele>697.0</ele><time>2026-04-06T12:22:51.003Z</time></trkpt><trkpt lat="44.0386331229538" lon="10.863933326416937"><ele>697.3333333333333</ele><time>2026-04-06T12:22:53.003Z</time></trkpt><trkpt lat="44.03861855933678" lon="10.864056909390543"><ele>697.6666666666666</ele><time>2026-04-06T12:22:55.003Z</time></trkpt><trkpt lat="44.03860229763906" lon="10.864172356542301"><ele>698.0</ele><time>2026-04-06T12:22:57.003Z</time></trkpt><trkpt lat="44.03858213091401" lon="10.864291560837696"><ele>698.0</ele><time>2026-04-06T12:22:59.003Z</time></trkpt><trkpt lat="44.0385782242099" lon="10.864421115203138"><ele>698.0</ele><time>2026-04-06T12:23:01.003Z</time></trkpt><trkpt lat="44.038563082869615" lon="10.864543180667873"><ele>698.0</ele><time>2026-04-06T12:23:03.003Z</time></trkpt><trkpt lat="44.038538840931444" lon="10.864653316353975"><ele>698.0</ele><time>2026-04-06T12:23:05.003Z</time></trkpt><trkpt lat="44.03852413500015" lon="10.864781878485232"><ele>698.0</ele><time>2026-04-06T12:23:07.003Z</time></trkpt><trkpt lat="44.03850721376968" lon="10.864908176042704"><ele>698.0</ele><time>2026-04-06T12:23:09.003Z</time></trkpt><trkpt lat="44.03849220164566" lon="10.865059315117362"><ele>698.0</ele><time>2026-04-06T12:23:11.003Z</time></trkpt><trkpt lat="44.03847468268123" lon="10.86520408176947"><ele>698.0</ele><time>2026-04-06T12:23:13.003Z</time></trkpt><trkpt lat="44.03845959966483" lon="10.865357515307764"><ele>698.0</ele><time>2026-04-06T12:23:15.003Z</time></trkpt><trkpt lat="44.03844346420819" lon="10.865510443584927"><ele>698.0</ele><time>2026-04-06T12:23:17.003Z</time></trkpt><trkpt lat="44.03841656548157" lon="10.865651848326152"><ele>698.0</ele><time>2026-04-06T12:23:19.003Z</time></trkpt><trkpt lat="44.03840624191229" lon="10.865818889632179"><ele>698.0</ele><time>2026-04-06T12:23:21.003Z</time></trkpt><trkpt lat="44.03839272326656" lon="10.865967775296276"><ele>698.0</ele><time>2026-04-06T12:23:23.003Z</time></trkpt><trkpt lat="44.038378653371126" lon="10.866120940283668"><ele>698.0</ele><time>2026-04-06T12:23:25.003Z</time></trkpt><trkpt lat="44.038361090166404" lon="10.866266016883069"><ele>698.0</ele><time>2026-04-06T12:23:27.003Z</time></trkpt><trkpt lat="44.03834745860174" lon="10.86641581127564"><ele>698.2</ele><time>2026-04-06T12:23:29.003Z</time></trkpt><trkpt lat="44.03833822325482" lon="10.866502534908657"><ele>698.4</ele><time>2026-04-06T12:23:30.003Z</time></trkpt><trkpt lat="44.03832779747425" lon="10.866662229947632"><ele>698.6</ele><time>2026-04-06T12:23:32.003Z</time></trkpt><trkpt lat="44.03831315849342" lon="10.866814770931335"><ele>698.8000000000001</ele><time>2026-04-06T12:23:34.003Z</time></trkpt><trkpt lat="44.038301863310274" lon="10.866971377488115"><ele>699.0</ele><time>2026-04-06T12:23:36.003Z</time></trkpt><trkpt lat="44.038284139551166" lon="10.867137243905667"><ele>699.0</ele><time>2026-04-06T12:23:38.003Z</time></trkpt><trkpt lat="44.038270472197475" lon="10.86722665902494"><ele>699.0</ele><time>2026-04-06T12:23:39.003Z</time></trkpt><trkpt lat="44.03826187475385" lon="10.867313464461757"><ele>699.0</ele><time>2026-04-06T12:23:40.003Z</time></trkpt><trkpt lat="44.038235819697206" lon="10.867475568306828"><ele>699.0</ele><time>2026-04-06T12:23:42.003Z</time></trkpt><trkpt lat="44.03821059954133" lon="10.867578619552104"><ele>699.0</ele><time>2026-04-06T12:23:43.003Z</time></trkpt><trkpt lat="44.038177998623695" lon="10.867759406414768"><ele>697.5</ele><time>2026-04-06T12:23:45.003Z</time></trkpt><trkpt lat="44.038161744026425" lon="10.867853587034414"><ele>696.0</ele><time>2026-04-06T12:23:46.003Z</time></trkpt><trkpt lat="44.03814457200957" lon="10.868024771218813"><ele>694.5</ele><time>2026-04-06T12:23:48.003Z</time></trkpt><trkpt lat="44.03812945843388" lon="10.86812134204272"><ele>693.0</ele><time>2026-04-06T12:23:49.003Z</time></trkpt><trkpt lat="44.03811629974494" lon="10.868217365018262"><ele>691.5</ele><time>2026-04-06T12:23:50.003Z</time></trkpt><trkpt lat="44.03810588370105" lon="10.868321356514839"><ele>690.0</ele><time>2026-04-06T12:23:51.003Z</time></trkpt><trkpt lat="44.03809292909838" lon="10.868420546460747"><ele>689.4285714285714</ele><time>2026-04-06T12:23:52.003Z</time></trkpt><trkpt lat="44.03808396125471" lon="10.868527402422002"><ele>688.8571428571429</ele><time>2026-04-06T12:23:53.003Z</time></trkpt><trkpt lat="44.038075308907175" lon="10.868625976910385"><ele>688.2857142857142</ele><time>2026-04-06T12:23:54.003Z</time></trkpt><trkpt lat="44.03806759917717" lon="10.868725244418725"><ele>687.7142857142858</ele><time>2026-04-06T12:23:55.003Z</time></trkpt><trkpt lat="44.03805479892644" lon="10.868822966930203"><ele>687.1428571428571</ele><time>2026-04-06T12:23:56.003Z</time></trkpt><trkpt lat="44.038047561139905" lon="10.868919869958619"><ele>686.5714285714286</ele><time>2026-04-06T12:23:57.003Z</time></trkpt><trkpt lat="44.03804027668187" lon="10.86901431456116"><ele>686.0</ele><time>2026-04-06T12:23:58.003Z</time></trkpt><trkpt lat="44.03803538907957" lon="10.869185478733735"><ele>685.4</ele><time>2026-04-06T12:24:00.003Z</time></trkpt><trkpt lat="44.038045730084924" lon="10.869276684346982"><ele>684.8</ele><time>2026-04-06T12:24:01.003Z</time></trkpt><trkpt lat="44.03806815570388" lon="10.869439617703323"><ele>684.1999999999999</ele><time>2026-04-06T12:24:03.003Z</time></trkpt><trkpt lat="44.038090439160406" lon="10.869597404919979"><ele>683.5999999999999</ele><time>2026-04-06T12:24:05.004Z</time></trkpt><trkpt lat="44.0381076862562" lon="10.869734851509495"><ele>683.0</ele><time>2026-04-06T12:24:07.004Z</time></trkpt><trkpt lat="44.038114459707096" lon="10.869877628931865"><ele>683.0</ele><time>2026-04-06T12:24:09.004Z</time></trkpt><trkpt lat="44.03809899718938" lon="10.87001343142933"><ele>683.0</ele><time>2026-04-06T12:24:11.004Z</time></trkpt><trkpt lat="44.03807929844684" lon="10.870159996880544"><ele>683.0</ele><time>2026-04-06T12:24:13.004Z</time></trkpt><trkpt lat="44.03807415610804" lon="10.870306868923935"><ele>683.0</ele><time>2026-04-06T12:24:15.004Z</time></trkpt><trkpt lat="44.03806297315316" lon="10.870451295166404"><ele>683.0</ele><time>2026-04-06T12:24:17.004Z</time></trkpt><trkpt lat="44.038050580627576" lon="10.870601118887894"><ele>682.2</ele><time>2026-04-06T12:24:19.004Z</time></trkpt><trkpt lat="44.038028662867184" lon="10.870738521205976"><ele>681.4</ele><time>2026-04-06T12:24:21.004Z</time></trkpt><trkpt lat="44.038019820070225" lon="10.870887555244778"><ele>680.6</ele><time>2026-04-06T12:24:23.004Z</time></trkpt><trkpt lat="44.03802531214871" lon="10.871044865604913"><ele>679.8000000000001</ele><time>2026-04-06T12:24:25.004Z</time></trkpt><trkpt lat="44.03803556101372" lon="10.871205245802017"><ele>679.0</ele><time>2026-04-06T12:24:27.004Z</time></trkpt><trkpt lat="44.03806372538424" lon="10.871293338022323"><ele>678.8000000000001</ele><time>2026-04-06T12:24:28.004Z</time></trkpt><trkpt lat="44.03811843214024" lon="10.871437019484484"><ele>678.6</ele><time>2026-04-06T12:24:30.004Z</time></trkpt><trkpt lat="44.038147981840446" lon="10.871588202975785"><ele>678.4</ele><time>2026-04-06T12:24:32.004Z</time></trkpt><trkpt lat="44.038188953766046" lon="10.871713020712784"><ele>678.2</ele><time>2026-04-06T12:24:34.004Z</time></trkpt><trkpt lat="44.03824908366984" lon="10.87184743651671"><ele>678.0</ele><time>2026-04-06T12:24:36.004Z</time></trkpt><trkpt lat="44.03829764508097" lon="10.871975423255694"><ele>679.5999999999999</ele><time>2026-04-06T12:24:38.004Z</time></trkpt><trkpt lat="44.038347718197706" lon="10.872100589032364"><ele>681.1999999999999</ele><time>2026-04-06T12:24:40.004Z</time></trkpt><trkpt lat="44.038397723043545" lon="10.872225295935019"><ele>682.8</ele><time>2026-04-06T12:24:42.004Z</time></trkpt><trkpt lat="44.03843258422754" lon="10.872347456540037"><ele>684.4</ele><time>2026-04-06T12:24:44.004Z</time></trkpt><trkpt lat="44.03847147964902" lon="10.87246176389428"><ele>686.0</ele><time>2026-04-06T12:24:46.004Z</time></trkpt><trkpt lat="44.03853228781438" lon="10.872552657126395"><ele>685.3333333333333</ele><time>2026-04-06T12:24:48.004Z</time></trkpt><trkpt lat="44.03859660395922" lon="10.872616127187753"><ele>684.6666666666666</ele><time>2026-04-06T12:24:50.004Z</time></trkpt><trkpt lat="44.03866387331552" lon="10.872666269213545"><ele>684.0</ele><time>2026-04-06T12:24:52.004Z</time></trkpt><trkpt lat="44.03871908683385" lon="10.87271751562443"><ele>683.3333333333334</ele><time>2026-04-06T12:24:54.004Z</time></trkpt><trkpt lat="44.038748002027084" lon="10.872818007731524"><ele>682.6666666666667</ele><time>2026-04-06T12:24:57.004Z</time></trkpt><trkpt lat="44.038754978022126" lon="10.872917301601522"><ele>682.0</ele><time>2026-04-06T12:25:00.004Z</time></trkpt><trkpt lat="44.03871499723842" lon="10.873043246282492"><ele>682.0</ele><time>2026-04-06T12:25:03.004Z</time></trkpt><trkpt lat="44.038667353231524" lon="10.873134074631052"><ele>682.0</ele><time>2026-04-06T12:25:05.004Z</time></trkpt><trkpt lat="44.03862033514189" lon="10.87321532639855"><ele>682.0</ele><time>2026-04-06T12:25:07.004Z</time></trkpt><trkpt lat="44.038563128485045" lon="10.87330949309381"><ele>682.0</ele><time>2026-04-06T12:25:09.004Z</time></trkpt><trkpt lat="44.038518371752936" lon="10.873389242749814"><ele>682.0</ele><time>2026-04-06T12:25:11.004Z</time></trkpt><trkpt lat="44.0384585807308" lon="10.873477596566092"><ele>682.0</ele><time>2026-04-06T12:25:13.004Z</time></trkpt><trkpt lat="44.0384084207485" lon="10.873563170346639"><ele>680.8</ele><time>2026-04-06T12:25:15.004Z</time></trkpt><trkpt lat="44.03837439566626" lon="10.873694642266274"><ele>679.6</ele><time>2026-04-06T12:25:17.004Z</time></trkpt><trkpt lat="44.0383814867026" lon="10.873812405782264"><ele>678.4</ele><time>2026-04-06T12:25:19.004Z</time></trkpt><trkpt lat="44.03845331284312" lon="10.873936172350186"><ele>677.1999999999999</ele><time>2026-04-06T12:25:21.004Z</time></trkpt><trkpt lat="44.03851840126312" lon="10.874000526213967"><ele>676.0</ele><time>2026-04-06T12:25:23.004Z</time></trkpt><trkpt lat="44.03857225265894" lon="10.874076506613125"><ele>676.0</ele><time>2026-04-06T12:25:26.004Z</time></trkpt><trkpt lat="44.038582102317434" lon="10.874175058904909"><ele>676.0</ele><time>2026-04-06T12:25:30.004Z</time></trkpt><trkpt lat="44.03853503351614" lon="10.874236174958757"><ele>676.0</ele><time>2026-04-06T12:25:32.004Z</time></trkpt><trkpt lat="44.03847924817831" lon="10.87433420481212"><ele>676.0</ele><time>2026-04-06T12:25:34.004Z</time></trkpt><trkpt lat="44.03850290689163" lon="10.874488652595959"><ele>676.0</ele><time>2026-04-06T12:25:36.004Z</time></trkpt><trkpt lat="44.03854898872506" lon="10.874565300443683"><ele>676.0</ele><time>2026-04-06T12:25:37.004Z</time></trkpt><trkpt lat="44.03863118879119" lon="10.874648498459974"><ele>675.6666666666667</ele><time>2026-04-06T12:25:39.004Z</time></trkpt><trkpt lat="44.03868660369844" lon="10.874721787294412"><ele>675.3333333333334</ele><time>2026-04-06T12:25:41.004Z</time></trkpt><trkpt lat="44.03873763824613" lon="10.874824035271892"><ele>675.0</ele><time>2026-04-06T12:25:44.004Z</time></trkpt><trkpt lat="44.038751968817394" lon="10.874916453723014"><ele>674.6666666666666</ele><time>2026-04-06T12:25:46.004Z</time></trkpt><trkpt lat="44.03874000041195" lon="10.875011841545168"><ele>674.3333333333333</ele><time>2026-04-06T12:25:48.004Z</time></trkpt><trkpt lat="44.03876014189634" lon="10.875117361468535"><ele>674.0</ele><time>2026-04-06T12:25:50.004Z</time></trkpt><trkpt lat="44.03882701749171" lon="10.875226723869059"><ele>673.5</ele><time>2026-04-06T12:25:52.004Z</time></trkpt><trkpt lat="44.03887952226942" lon="10.875323431198789"><ele>673.0</ele><time>2026-04-06T12:25:54.004Z</time></trkpt><trkpt lat="44.038930888323605" lon="10.875409075856432"><ele>672.5</ele><time>2026-04-06T12:25:56.004Z</time></trkpt><trkpt lat="44.03898051099627" lon="10.875493435134759"><ele>672.0</ele><time>2026-04-06T12:25:58.004Z</time></trkpt><trkpt lat="44.03901814676843" lon="10.875578545396264"><ele>671.5</ele><time>2026-04-06T12:26:01.004Z</time></trkpt><trkpt lat="44.03904615080465" lon="10.875675243657998"><ele>671.0</ele><time>2026-04-06T12:26:04.004Z</time></trkpt><trkpt lat="44.03900719185723" lon="10.87576012115934"><ele>671.0</ele><time>2026-04-06T12:26:06.004Z</time></trkpt><trkpt lat="44.03893102744341" lon="10.875842820464099"><ele>671.0</ele><time>2026-04-06T12:26:08.004Z</time></trkpt><trkpt lat="44.038843535739176" lon="10.875932252202126"><ele>671.0</ele><time>2026-04-06T12:26:10.004Z</time></trkpt><trkpt lat="44.03879148548787" lon="10.875994488198533"><ele>671.0</ele><time>2026-04-06T12:26:12.004Z</time></trkpt><trkpt lat="44.03873700063771" lon="10.876051724400185"><ele>671.0</ele><time>2026-04-06T12:26:14.004Z</time></trkpt><trkpt lat="44.038724617139735" lon="10.876162187768378"><ele>671.0</ele><time>2026-04-06T12:26:18.004Z</time></trkpt><trkpt lat="44.03877642511655" lon="10.876238868057921"><ele>671.0</ele><time>2026-04-06T12:26:20.004Z</time></trkpt><trkpt lat="44.03882463433796" lon="10.876323135927315"><ele>671.0</ele><time>2026-04-06T12:26:22.004Z</time></trkpt><trkpt lat="44.03887082482318" lon="10.876405604247823"><ele>671.0</ele><time>2026-04-06T12:26:24.004Z</time></trkpt><trkpt lat="44.03892079657958" lon="10.876488363350036"><ele>671.0</ele><time>2026-04-06T12:26:26.004Z</time></trkpt><trkpt lat="44.03896544209057" lon="10.876582043692261"><ele>671.0</ele><time>2026-04-06T12:26:28.004Z</time></trkpt><trkpt lat="44.03901068271365" lon="10.876659272420737"><ele>671.0</ele><time>2026-04-06T12:26:30.004Z</time></trkpt><trkpt lat="44.03904981876955" lon="10.87674259642651"><ele>672.0</ele><time>2026-04-06T12:26:32.004Z</time></trkpt><trkpt lat="44.03908498243979" lon="10.876829867518964"><ele>673.0</ele><time>2026-04-06T12:26:34.004Z</time></trkpt><trkpt lat="44.03909079098745" lon="10.87693308361553"><ele>674.0</ele><time>2026-04-06T12:26:36.004Z</time></trkpt><trkpt lat="44.03905429703825" lon="10.877036581895029"><ele>675.0</ele><time>2026-04-06T12:26:38.004Z</time></trkpt><trkpt lat="44.03902150922271" lon="10.877136567711883"><ele>676.0</ele><time>2026-04-06T12:26:40.004Z</time></trkpt><trkpt lat="44.039009109389866" lon="10.87726076180998"><ele>677.0</ele><time>2026-04-06T12:26:42.004Z</time></trkpt><trkpt lat="44.03900623395141" lon="10.877391024120687"><ele>677.0</ele><time>2026-04-06T12:26:44.004Z</time></trkpt><trkpt lat="44.0390116543641" lon="10.877511098039314"><ele>677.0</ele><time>2026-04-06T12:26:46.004Z</time></trkpt><trkpt lat="44.03901880997952" lon="10.877619097979725"><ele>677.0</ele><time>2026-04-06T12:26:48.004Z</time></trkpt><trkpt lat="44.03903265654699" lon="10.877721172992441"><ele>677.0</ele><time>2026-04-06T12:26:50.004Z</time></trkpt><trkpt lat="44.03904660424226" lon="10.877832256805036"><ele>677.0</ele><time>2026-04-06T12:26:52.004Z</time></trkpt><trkpt lat="44.039051687648545" lon="10.877946089169306"><ele>677.0</ele><time>2026-04-06T12:26:54.004Z</time></trkpt><trkpt lat="44.039044194673835" lon="10.878041490173606"><ele>676.9999999999999</ele><time>2026-04-06T12:26:56.004Z</time></trkpt><trkpt lat="44.039034090655825" lon="10.878171795946391"><ele>677.0</ele><time>2026-04-06T12:26:58.004Z</time></trkpt><trkpt lat="44.03899902033593" lon="10.87827214246376"><ele>677.0</ele><time>2026-04-06T12:27:00.004Z</time></trkpt><trkpt lat="44.03898637626594" lon="10.878361486015983"><ele>677.0</ele><time>2026-04-06T12:27:02.004Z</time></trkpt><trkpt lat="44.03896805263374" lon="10.878462283664854"><ele>677.0</ele><time>2026-04-06T12:27:04.005Z</time></trkpt><trkpt lat="44.038969919327016" lon="10.878552266742208"><ele>676.9999999999999</ele><time>2026-04-06T12:27:06.005Z</time></trkpt><trkpt lat="44.03896535270391" lon="10.878648210527691"><ele>677.0</ele><time>2026-04-06T12:27:08.005Z</time></trkpt><trkpt lat="44.03896634745192" lon="10.87877409000809"><ele>677.0</ele><time>2026-04-06T12:27:11.005Z</time></trkpt><trkpt lat="44.03896580315033" lon="10.878892211434055"><ele>677.0</ele><time>2026-04-06T12:27:13.005Z</time></trkpt><trkpt lat="44.03896120122232" lon="10.879001686096158"><ele>677.0</ele><time>2026-04-06T12:27:15.005Z</time></trkpt><trkpt lat="44.038958035406694" lon="10.879119336626625"><ele>677.0</ele><time>2026-04-06T12:27:17.005Z</time></trkpt><trkpt lat="44.0389268301368" lon="10.879234870464952"><ele>677.0</ele><time>2026-04-06T12:27:19.005Z</time></trkpt><trkpt lat="44.03891218113763" lon="10.879370152406704"><ele>677.0</ele><time>2026-04-06T12:27:21.005Z</time></trkpt><trkpt lat="44.038924803748664" lon="10.879471923267461"><ele>675.5</ele><time>2026-04-06T12:27:22.005Z</time></trkpt><trkpt lat="44.03892826139785" lon="10.87965679480646"><ele>674.0</ele><time>2026-04-06T12:27:24.005Z</time></trkpt><trkpt lat="44.03899261976804" lon="10.879742446849644"><ele>672.5</ele><time>2026-04-06T12:27:25.005Z</time></trkpt><trkpt lat="44.03899195918353" lon="10.879920835138373"><ele>671.0</ele><time>2026-04-06T12:27:27.005Z</time></trkpt><trkpt lat="44.03899266632772" lon="10.880089541185708"><ele>670.1666666666666</ele><time>2026-04-06T12:27:29.005Z</time></trkpt><trkpt lat="44.0389931788738" lon="10.88021182007669"><ele>669.3333333333333</ele><time>2026-04-06T12:27:30.005Z</time></trkpt><trkpt lat="44.03899365684883" lon="10.88032585233092"><ele>668.5</ele><time>2026-04-06T12:27:31.005Z</time></trkpt><trkpt lat="44.03899411431788" lon="10.880434991464217"><ele>667.6666666666666</ele><time>2026-04-06T12:27:32.005Z</time></trkpt><trkpt lat="44.03899453307602" lon="10.88053489620285"><ele>666.8333333333334</ele><time>2026-04-06T12:27:33.005Z</time></trkpt><trkpt lat="44.03899397533481" lon="10.880696798625623"><ele>666.0</ele><time>2026-04-06T12:27:35.005Z</time></trkpt><trkpt lat="44.038978330336214" lon="10.88081819366178"><ele>666.0</ele><time>2026-04-06T12:27:36.005Z</time></trkpt><trkpt lat="44.03900766084598" lon="10.880916928670965"><ele>666.0</ele><time>2026-04-06T12:27:37.005Z</time></trkpt><trkpt lat="44.03904608546103" lon="10.881024550348945"><ele>666.0</ele><time>2026-04-06T12:27:38.005Z</time></trkpt><trkpt lat="44.03908907076977" lon="10.88113657225341"><ele>666.0</ele><time>2026-04-06T12:27:39.005Z</time></trkpt><trkpt lat="44.03911680759764" lon="10.881224821602519"><ele>666.0</ele><time>2026-04-06T12:27:40.005Z</time></trkpt><trkpt lat="44.03914396412784" lon="10.88132235476623"><ele>666.0</ele><time>2026-04-06T12:27:41.005Z</time></trkpt><trkpt lat="44.03919154946274" lon="10.88141258989055"><ele>666.1999999999999</ele><time>2026-04-06T12:27:42.005Z</time></trkpt><trkpt lat="44.03920536170505" lon="10.881517213625726"><ele>666.4</ele><time>2026-04-06T12:27:43.005Z</time></trkpt><trkpt lat="44.03919218300824" lon="10.881621877056874"><ele>666.6</ele><time>2026-04-06T12:27:44.005Z</time></trkpt><trkpt lat="44.03917945369644" lon="10.881792461246746"><ele>666.8</ele><time>2026-04-06T12:27:46.005Z</time></trkpt><trkpt lat="44.03918037469102" lon="10.881958763579442"><ele>667.0</ele><time>2026-04-06T12:27:48.005Z</time></trkpt><trkpt lat="44.03920811053062" lon="10.882095461788783"><ele>665.8</ele><time>2026-04-06T12:27:50.005Z</time></trkpt><trkpt lat="44.03923435696829" lon="10.88222259199622"><ele>664.6</ele><time>2026-04-06T12:27:52.005Z</time></trkpt><trkpt lat="44.03927629110326" lon="10.882361184639253"><ele>663.4</ele><time>2026-04-06T12:27:54.005Z</time></trkpt><trkpt lat="44.03930104244076" lon="10.88246197904522"><ele>662.1999999999999</ele><time>2026-04-06T12:27:55.005Z</time></trkpt><trkpt lat="44.0393358103917" lon="10.882601406128439"><ele>661.0</ele><time>2026-04-06T12:27:57.005Z</time></trkpt><trkpt lat="44.03935331851386" lon="10.882750528582879"><ele>660.4</ele><time>2026-04-06T12:27:59.005Z</time></trkpt><trkpt lat="44.03936369807661" lon="10.882837435503095"><ele>659.8</ele><time>2026-04-06T12:28:00.005Z</time></trkpt><trkpt lat="44.03943422828424" lon="10.882967260937109"><ele>659.1999999999999</ele><time>2026-04-06T12:28:02.005Z</time></trkpt><trkpt lat="44.03951129893959" lon="10.883055299792828"><ele>658.5999999999999</ele><time>2026-04-06T12:28:04.005Z</time></trkpt><trkpt lat="44.039577192131375" lon="10.883146496167361"><ele>658.0</ele><time>2026-04-06T12:28:06.005Z</time></trkpt><trkpt lat="44.03961941609723" lon="10.883245432712366"><ele>658.0</ele><time>2026-04-06T12:28:08.005Z</time></trkpt><trkpt lat="44.03967029896139" lon="10.883334905699881"><ele>658.0</ele><time>2026-04-06T12:28:10.005Z</time></trkpt><trkpt lat="44.039712745501205" lon="10.883434470825682"><ele>658.0</ele><time>2026-04-06T12:28:12.005Z</time></trkpt><trkpt lat="44.03975619851244" lon="10.883532031662943"><ele>658.0</ele><time>2026-04-06T12:28:14.005Z</time></trkpt><trkpt lat="44.039795182410664" lon="10.88362557541586"><ele>658.0</ele><time>2026-04-06T12:28:16.005Z</time></trkpt><trkpt lat="44.03983330429187" lon="10.88372499075736"><ele>658.0</ele><time>2026-04-06T12:28:18.005Z</time></trkpt><trkpt lat="44.039855917533366" lon="10.883837665124242"><ele>658.0</ele><time>2026-04-06T12:28:20.005Z</time></trkpt><trkpt lat="44.03988191826917" lon="10.883929520948941"><ele>658.0</ele><time>2026-04-06T12:28:22.005Z</time></trkpt><trkpt lat="44.03991019318964" lon="10.884021317449818"><ele>658.0</ele><time>2026-04-06T12:28:24.005Z</time></trkpt><trkpt lat="44.03994002994793" lon="10.884113178210523"><ele>658.0</ele><time>2026-04-06T12:28:26.005Z</time></trkpt><trkpt lat="44.039964946120826" lon="10.884204131502889"><ele>658.0</ele><time>2026-04-06T12:28:28.005Z</time></trkpt><trkpt lat="44.04000264082956" lon="10.884296535495729"><ele>658.0</ele><time>2026-04-06T12:28:30.005Z</time></trkpt><trkpt lat="44.04003303022018" lon="10.884386877793732"><ele>658.0</ele><time>2026-04-06T12:28:33.005Z</time></trkpt><trkpt lat="44.040081477615956" lon="10.884518116067852"><ele>658.0</ele><time>2026-04-06T12:28:36.005Z</time></trkpt><trkpt lat="44.04014584802163" lon="10.884633787252216"><ele>658.0</ele><time>2026-04-06T12:28:38.005Z</time></trkpt><trkpt lat="44.040191878282094" lon="10.88474937068442"><ele>658.0</ele><time>2026-04-06T12:28:40.005Z</time></trkpt><trkpt lat="44.04019477352138" lon="10.884870944042317"><ele>658.0</ele><time>2026-04-06T12:28:42.005Z</time></trkpt><trkpt lat="44.04019450880097" lon="10.884983065989289"><ele>658.0</ele><time>2026-04-06T12:28:44.005Z</time></trkpt><trkpt lat="44.0402040952984" lon="10.885099261226904"><ele>658.0</ele><time>2026-04-06T12:28:46.005Z</time></trkpt><trkpt lat="44.04021429735615" lon="10.885235897778974"><ele>658.0</ele><time>2026-04-06T12:28:48.005Z</time></trkpt><trkpt lat="44.040240394706416" lon="10.88535973588581"><ele>658.0</ele><time>2026-04-06T12:28:50.005Z</time></trkpt><trkpt lat="44.040276793999915" lon="10.885500229366555"><ele>658.0</ele><time>2026-04-06T12:28:52.005Z</time></trkpt><trkpt lat="44.04032145173625" lon="10.8856320542301"><ele>658.0</ele><time>2026-04-06T12:28:54.005Z</time></trkpt><trkpt lat="44.04039043169055" lon="10.885756396055514"><ele>658.0</ele><time>2026-04-06T12:28:56.005Z</time></trkpt><trkpt lat="44.040478179191574" lon="10.88585002051067"><ele>658.0</ele><time>2026-04-06T12:28:58.005Z</time></trkpt><trkpt lat="44.04057933786471" lon="10.885914532449783"><ele>658.0</ele><time>2026-04-06T12:29:00.005Z</time></trkpt><trkpt lat="44.040676874262" lon="10.88595759268315"><ele>658.0</ele><time>2026-04-06T12:29:02.005Z</time></trkpt><trkpt lat="44.040782442115905" lon="10.886003517233226"><ele>658.0</ele><time>2026-04-06T12:29:04.005Z</time></trkpt><trkpt lat="44.040877283619594" lon="10.886070019853705"><ele>659.0</ele><time>2026-04-06T12:29:06.005Z</time></trkpt><trkpt lat="44.040980072686125" lon="10.88612847017187"><ele>660.0</ele><time>2026-04-06T12:29:08.005Z</time></trkpt><trkpt lat="44.04108296324343" lon="10.886160955474924"><ele>661.0</ele><time>2026-04-06T12:29:10.005Z</time></trkpt><trkpt lat="44.041167273432116" lon="10.886213488867885"><ele>662.0</ele><time>2026-04-06T12:29:12.005Z</time></trkpt><trkpt lat="44.0412421134163" lon="10.886249613157666"><ele>663.0</ele><time>2026-04-06T12:29:14.005Z</time></trkpt><trkpt lat="44.04133310046585" lon="10.886330039419741"><ele>663.0</ele><time>2026-04-06T12:29:17.005Z</time></trkpt><trkpt lat="44.0413979299275" lon="10.886403727539316"><ele>663.0</ele><time>2026-04-06T12:29:18.005Z</time></trkpt><trkpt lat="44.041476703" lon="10.886522311272394"><ele>663.0</ele><time>2026-04-06T12:29:20.005Z</time></trkpt><trkpt lat="44.04156692895799" lon="10.88662804667697"><ele>663.0</ele><time>2026-04-06T12:29:22.005Z</time></trkpt><trkpt lat="44.04166462719039" lon="10.886741627369826"><ele>663.0</ele><time>2026-04-06T12:29:24.005Z</time></trkpt><trkpt lat="44.04171228969133" lon="10.886801331526048"><ele>661.8333333333334</ele><time>2026-04-06T12:29:25.005Z</time></trkpt><trkpt lat="44.041811781478586" lon="10.886921152373176"><ele>660.6666666666666</ele><time>2026-04-06T12:29:27.005Z</time></trkpt><trkpt lat="44.04186029997646" lon="10.886992496132358"><ele>659.5</ele><time>2026-04-06T12:29:28.005Z</time></trkpt><trkpt lat="44.04190913996188" lon="10.887057997745076"><ele>658.3333333333333</ele><time>2026-04-06T12:29:29.005Z</time></trkpt><trkpt lat="44.04195970132069" lon="10.887130374072829"><ele>657.1666666666666</ele><time>2026-04-06T12:29:30.005Z</time></trkpt><trkpt lat="44.04200365923627" lon="10.887209807798369"><ele>656.0</ele><time>2026-04-06T12:29:31.005Z</time></trkpt><trkpt lat="44.042046779718" lon="10.887283386092072"><ele>655.9999999999999</ele><time>2026-04-06T12:29:32.005Z</time></trkpt><trkpt lat="44.042085581808124" lon="10.887366869474086"><ele>656.0</ele><time>2026-04-06T12:29:33.005Z</time></trkpt><trkpt lat="44.042134008986366" lon="10.887436989148194"><ele>656.0</ele><time>2026-04-06T12:29:34.005Z</time></trkpt><trkpt lat="44.04217896798599" lon="10.887514970897062"><ele>656.0</ele><time>2026-04-06T12:29:35.005Z</time></trkpt><trkpt lat="44.04221915249658" lon="10.88759001102127"><ele>656.0</ele><time>2026-04-06T12:29:36.005Z</time></trkpt><trkpt lat="44.042259200420546" lon="10.887671744100425"><ele>655.9999999999999</ele><time>2026-04-06T12:29:37.005Z</time></trkpt><trkpt lat="44.042299521565944" lon="10.887751175254852"><ele>656.0</ele><time>2026-04-06T12:29:38.005Z</time></trkpt><trkpt lat="44.04233687529651" lon="10.887826339371019"><ele>655.5999999999999</ele><time>2026-04-06T12:29:39.005Z</time></trkpt><trkpt lat="44.04237820218087" lon="10.887897599566461"><ele>655.2</ele><time>2026-04-06T12:29:40.005Z</time></trkpt><trkpt lat="44.04245522534695" lon="10.888046125169321"><ele>654.8</ele><time>2026-04-06T12:29:42.005Z</time></trkpt><trkpt lat="44.04249199321252" lon="10.888118015572704"><ele>654.4000000000001</ele><time>2026-04-06T12:29:43.005Z</time></trkpt><trkpt lat="44.04256219505238" lon="10.888264713029319"><ele>654.0</ele><time>2026-04-06T12:29:45.005Z</time></trkpt><trkpt lat="44.042600335991374" lon="10.888336869522734"><ele>653.25</ele><time>2026-04-06T12:29:46.005Z</time></trkpt><trkpt lat="44.04266930632551" lon="10.888477279368168"><ele>652.5</ele><time>2026-04-06T12:29:48.005Z</time></trkpt><trkpt lat="44.04271983621008" lon="10.888623463442057"><ele>651.75</ele><time>2026-04-06T12:29:50.005Z</time></trkpt><trkpt lat="44.04274861926577" lon="10.888773156249574"><ele>651.0</ele><time>2026-04-06T12:29:52.005Z</time></trkpt><trkpt lat="44.042777215816194" lon="10.888914029031582"><ele>651.0</ele><time>2026-04-06T12:29:54.005Z</time></trkpt><trkpt lat="44.04280552090516" lon="10.889041820456882"><ele>651.0</ele><time>2026-04-06T12:29:56.005Z</time></trkpt><trkpt lat="44.04283262155665" lon="10.889189918300525"><ele>651.0</ele><time>2026-04-06T12:29:58.005Z</time></trkpt><trkpt lat="44.042853068322636" lon="10.88933983053826"><ele>651.0</ele><time>2026-04-06T12:30:00.005Z</time></trkpt><trkpt lat="44.04285209080463" lon="10.889453850119981"><ele>651.0</ele><time>2026-04-06T12:30:02.005Z</time></trkpt><trkpt lat="44.04285226090507" lon="10.889580377521243"><ele>651.1999999999999</ele><time>2026-04-06T12:30:04.006Z</time></trkpt><trkpt lat="44.04281997016711" lon="10.889699894493997"><ele>651.4</ele><time>2026-04-06T12:30:06.006Z</time></trkpt><trkpt lat="44.04278932203659" lon="10.88981440084824"><ele>651.6</ele><time>2026-04-06T12:30:08.006Z</time></trkpt><trkpt lat="44.042751596048646" lon="10.889933091204876"><ele>651.8</ele><time>2026-04-06T12:30:10.006Z</time></trkpt><trkpt lat="44.042723216562585" lon="10.890063172485172"><ele>652.0</ele><time>2026-04-06T12:30:12.006Z</time></trkpt><trkpt lat="44.04269921817318" lon="10.890190422030562"><ele>651.5</ele><time>2026-04-06T12:30:14.006Z</time></trkpt><trkpt lat="44.04264451881002" lon="10.890280311402774"><ele>651.0</ele><time>2026-04-06T12:30:16.006Z</time></trkpt><trkpt lat="44.04261406425286" lon="10.890394329070174"><ele>650.5</ele><time>2026-04-06T12:30:18.006Z</time></trkpt><trkpt lat="44.04256211177399" lon="10.890507183614895"><ele>650.0</ele><time>2026-04-06T12:30:20.006Z</time></trkpt><trkpt lat="44.042517249782904" lon="10.890574100938709"><ele>649.5</ele><time>2026-04-06T12:30:22.006Z</time></trkpt><trkpt lat="44.042458165206426" lon="10.890673482813124"><ele>649.0</ele><time>2026-04-06T12:30:24.006Z</time></trkpt><trkpt lat="44.04243584574507" lon="10.890782201726898"><ele>649.0</ele><time>2026-04-06T12:30:25.006Z</time></trkpt><trkpt lat="44.04238354811148" lon="10.890906989832722"><ele>649.0</ele><time>2026-04-06T12:30:27.006Z</time></trkpt><trkpt lat="44.04234017020057" lon="10.89102050168141"><ele>649.0</ele><time>2026-04-06T12:30:29.006Z</time></trkpt><trkpt lat="44.04231565191738" lon="10.89114700318653"><ele>649.0</ele><time>2026-04-06T12:30:31.006Z</time></trkpt><trkpt lat="44.04231355123158" lon="10.891290652019682"><ele>649.0</ele><time>2026-04-06T12:30:33.006Z</time></trkpt><trkpt lat="44.04233245010204" lon="10.891436396507794"><ele>649.25</ele><time>2026-04-06T12:30:35.006Z</time></trkpt><trkpt lat="44.04238366150811" lon="10.891588696154221"><ele>649.5</ele><time>2026-04-06T12:30:37.006Z</time></trkpt><trkpt lat="44.042455736970155" lon="10.891746611669003"><ele>649.75</ele><time>2026-04-06T12:30:39.006Z</time></trkpt><trkpt lat="44.04251192085798" lon="10.891873068438075"><ele>650.0</ele><time>2026-04-06T12:30:41.006Z</time></trkpt><trkpt lat="44.042592795458894" lon="10.891998001969869"><ele>650.0</ele><time>2026-04-06T12:30:43.006Z</time></trkpt><trkpt lat="44.042685317367386" lon="10.892121878325822"><ele>650.0</ele><time>2026-04-06T12:30:45.006Z</time></trkpt><trkpt lat="44.04274694860398" lon="10.892189541914544"><ele>650.0</ele><time>2026-04-06T12:30:46.006Z</time></trkpt><trkpt lat="44.04280664450109" lon="10.89225728783789"><ele>650.0</ele><time>2026-04-06T12:30:47.006Z</time></trkpt><trkpt lat="44.04286501885366" lon="10.892322665146136"><ele>650.0</ele><time>2026-04-06T12:30:48.006Z</time></trkpt><trkpt lat="44.042907210134814" lon="10.89239336822581"><ele>650.0</ele><time>2026-04-06T12:30:49.006Z</time></trkpt><trkpt lat="44.04296320310287" lon="10.892465636524875"><ele>650.0</ele><time>2026-04-06T12:30:50.006Z</time></trkpt><trkpt lat="44.043026106536495" lon="10.892545008992116"><ele>650.0</ele><time>2026-04-06T12:30:51.006Z</time></trkpt><trkpt lat="44.04308527486684" lon="10.892625157848538"><ele>650.0</ele><time>2026-04-06T12:30:52.006Z</time></trkpt><trkpt lat="44.04313948531858" lon="10.892710726056029"><ele>650.0</ele><time>2026-04-06T12:30:53.006Z</time></trkpt><trkpt lat="44.04318778286245" lon="10.892800939699754"><ele>650.0</ele><time>2026-04-06T12:30:54.006Z</time></trkpt><trkpt lat="44.04323183089689" lon="10.892888676148111"><ele>650.0</ele><time>2026-04-06T12:30:55.006Z</time></trkpt><trkpt lat="44.043284850596045" lon="10.892979581132622"><ele>649.8333333333333</ele><time>2026-04-06T12:30:56.006Z</time></trkpt><trkpt lat="44.04334106885018" lon="10.893068642507835"><ele>649.6666666666666</ele><time>2026-04-06T12:30:57.006Z</time></trkpt><trkpt lat="44.04338929991993" lon="10.893161637227369"><ele>649.5</ele><time>2026-04-06T12:30:58.006Z</time></trkpt><trkpt lat="44.04343472633898" lon="10.893251274445062"><ele>649.3333333333334</ele><time>2026-04-06T12:30:59.006Z</time></trkpt><trkpt lat="44.04348940410591" lon="10.893330609949407"><ele>649.1666666666667</ele><time>2026-04-06T12:31:00.006Z</time></trkpt><trkpt lat="44.04353548408993" lon="10.893406300661828"><ele>649.0</ele><time>2026-04-06T12:31:01.006Z</time></trkpt><trkpt lat="44.043598411356896" lon="10.89345608063067"><ele>649.0</ele><time>2026-04-06T12:31:02.006Z</time></trkpt><trkpt lat="44.04366473184824" lon="10.893534737013189"><ele>649.0</ele><time>2026-04-06T12:31:03.006Z</time></trkpt><trkpt lat="44.04373694502718" lon="10.89359839753509"><ele>649.0</ele><time>2026-04-06T12:31:04.006Z</time></trkpt><trkpt lat="44.04379869201937" lon="10.8936563866979"><ele>649.0</ele><time>2026-04-06T12:31:05.006Z</time></trkpt><trkpt lat="44.04386315094846" lon="10.893711162368302"><ele>649.0</ele><time>2026-04-06T12:31:06.006Z</time></trkpt><trkpt lat="44.043919737189434" lon="10.893776692507664"><ele>649.0</ele><time>2026-04-06T12:31:07.006Z</time></trkpt><trkpt lat="44.043981770945074" lon="10.893834038722249"><ele>649.0</ele><time>2026-04-06T12:31:08.006Z</time></trkpt><trkpt lat="44.044039978454805" lon="10.893883100225326"><ele>649.0</ele><time>2026-04-06T12:31:09.006Z</time></trkpt><trkpt lat="44.044097574528166" lon="10.893944309886232"><ele>649.0</ele><time>2026-04-06T12:31:10.006Z</time></trkpt><trkpt lat="44.044145712063234" lon="10.894004469868365"><ele>649.0</ele><time>2026-04-06T12:31:11.006Z</time></trkpt><trkpt lat="44.04419335158957" lon="10.894067397949605"><ele>649.0</ele><time>2026-04-06T12:31:12.006Z</time></trkpt><trkpt lat="44.044240469914364" lon="10.89412875909097"><ele>649.0</ele><time>2026-04-06T12:31:13.006Z</time></trkpt><trkpt lat="44.0443249633479" lon="10.894236462386996"><ele>648.6</ele><time>2026-04-06T12:31:15.006Z</time></trkpt><trkpt lat="44.04440651832894" lon="10.894343215898045"><ele>648.2</ele><time>2026-04-06T12:31:17.006Z</time></trkpt><trkpt lat="44.04448654600016" lon="10.894451613729606"><ele>647.8000000000001</ele><time>2026-04-06T12:31:19.006Z</time></trkpt><trkpt lat="44.04456862925893" lon="10.894570408030013"><ele>647.4000000000001</ele><time>2026-04-06T12:31:21.006Z</time></trkpt><trkpt lat="44.044621903139884" lon="10.894619584662625"><ele>647.0</ele><time>2026-04-06T12:31:22.006Z</time></trkpt><trkpt lat="44.04468600126203" lon="10.894749678555083"><ele>647.0</ele><time>2026-04-06T12:31:24.006Z</time></trkpt><trkpt lat="44.044726042792426" lon="10.894817512533486"><ele>647.0</ele><time>2026-04-06T12:31:25.006Z</time></trkpt><trkpt lat="44.04475520199176" lon="10.89489678721125"><ele>647.0</ele><time>2026-04-06T12:31:26.006Z</time></trkpt><trkpt lat="44.04478325577467" lon="10.89498211483136"><ele>647.0</ele><time>2026-04-06T12:31:27.006Z</time></trkpt><trkpt lat="44.044806391789024" lon="10.895069471316964"><ele>647.0</ele><time>2026-04-06T12:31:28.006Z</time></trkpt><trkpt lat="44.04486398135573" lon="10.895224744688216"><ele>647.0</ele><time>2026-04-06T12:31:30.006Z</time></trkpt><trkpt lat="44.04491581692354" lon="10.895375986389189"><ele>648.0</ele><time>2026-04-06T12:31:32.006Z</time></trkpt><trkpt lat="44.044975754701234" lon="10.895511695162819"><ele>649.0</ele><time>2026-04-06T12:31:34.006Z</time></trkpt><trkpt lat="44.045052543399144" lon="10.895648103785831"><ele>650.0</ele><time>2026-04-06T12:31:36.006Z</time></trkpt><trkpt lat="44.04513741261602" lon="10.895776205804673"><ele>651.0</ele><time>2026-04-06T12:31:38.006Z</time></trkpt><trkpt lat="44.04522772481413" lon="10.895860028780298"><ele>653.4</ele><time>2026-04-06T12:31:40.006Z</time></trkpt><trkpt lat="44.0453114777032" lon="10.895942291917946"><ele>655.8</ele><time>2026-04-06T12:31:42.006Z</time></trkpt><trkpt lat="44.04538034518883" lon="10.896013939279477"><ele>658.1999999999999</ele><time>2026-04-06T12:31:44.006Z</time></trkpt><trkpt lat="44.04546872390361" lon="10.896079120799728"><ele>660.5999999999999</ele><time>2026-04-06T12:31:46.006Z</time></trkpt><trkpt lat="44.045559367932455" lon="10.896177497635206"><ele>663.0</ele><time>2026-04-06T12:31:48.006Z</time></trkpt><trkpt lat="44.04565496786794" lon="10.896268061021107"><ele>663.0</ele><time>2026-04-06T12:31:50.006Z</time></trkpt><trkpt lat="44.045733810074154" lon="10.896366372520811"><ele>663.0</ele><time>2026-04-06T12:31:52.006Z</time></trkpt><trkpt lat="44.045813580803205" lon="10.896487340022206"><ele>663.0</ele><time>2026-04-06T12:31:54.006Z</time></trkpt><trkpt lat="44.04589590868809" lon="10.896611811633727"><ele>663.0</ele><time>2026-04-06T12:31:56.006Z</time></trkpt><trkpt lat="44.045969632336735" lon="10.896731243084128"><ele>658.5999999999999</ele><time>2026-04-06T12:31:58.006Z</time></trkpt><trkpt lat="44.04603954198196" lon="10.89685257277975"><ele>654.1999999999999</ele><time>2026-04-06T12:32:00.006Z</time></trkpt><trkpt lat="44.04610440367319" lon="10.896986148054111"><ele>649.8</ele><time>2026-04-06T12:32:02.006Z</time></trkpt><trkpt lat="44.04617248231089" lon="10.897134046194562"><ele>645.4</ele><time>2026-04-06T12:32:04.006Z</time></trkpt><trkpt lat="44.04620508475365" lon="10.897214227029131"><ele>641.0</ele><time>2026-04-06T12:32:05.006Z</time></trkpt><trkpt lat="44.046255032334955" lon="10.897369614329785"><ele>641.0</ele><time>2026-04-06T12:32:07.006Z</time></trkpt><trkpt lat="44.04627724747735" lon="10.897454417405417"><ele>641.0</ele><time>2026-04-06T12:32:08.006Z</time></trkpt><trkpt lat="44.04631512105256" lon="10.897607247341535"><ele>641.0</ele><time>2026-04-06T12:32:10.006Z</time></trkpt><trkpt lat="44.04633671523739" lon="10.897762981471276"><ele>641.0</ele><time>2026-04-06T12:32:12.006Z</time></trkpt><trkpt lat="44.046342814603165" lon="10.897918586318884"><ele>641.0</ele><time>2026-04-06T12:32:14.006Z</time></trkpt><trkpt lat="44.04633368527725" lon="10.898074318005522"><ele>641.1999999999999</ele><time>2026-04-06T12:32:16.006Z</time></trkpt><trkpt lat="44.04632630341977" lon="10.898222473992753"><ele>641.4</ele><time>2026-04-06T12:32:18.006Z</time></trkpt><trkpt lat="44.04631186049666" lon="10.898356358412611"><ele>641.6</ele><time>2026-04-06T12:32:20.006Z</time></trkpt><trkpt lat="44.046304321422284" lon="10.898517416545005"><ele>641.8</ele><time>2026-04-06T12:32:22.006Z</time></trkpt><trkpt lat="44.04629162432931" lon="10.898680236816375"><ele>642.0</ele><time>2026-04-06T12:32:24.006Z</time></trkpt><trkpt lat="44.046280156857506" lon="10.898814172506848"><ele>643.2</ele><time>2026-04-06T12:32:26.006Z</time></trkpt><trkpt lat="44.04626843449716" lon="10.898960028749892"><ele>644.4000000000001</ele><time>2026-04-06T12:32:28.006Z</time></trkpt><trkpt lat="44.046252806288656" lon="10.899092572370826"><ele>645.5999999999999</ele><time>2026-04-06T12:32:30.006Z</time></trkpt><trkpt lat="44.04626954751453" lon="10.899252242194489"><ele>646.8</ele><time>2026-04-06T12:32:32.006Z</time></trkpt><trkpt lat="44.04629490379801" lon="10.899337341025461"><ele>648.0</ele><time>2026-04-06T12:32:33.006Z</time></trkpt><trkpt lat="44.046349903987704" lon="10.899499707795378"><ele>647.0</ele><time>2026-04-06T12:32:35.006Z</time></trkpt><trkpt lat="44.04638845308624" lon="10.899581610450317"><ele>646.0</ele><time>2026-04-06T12:32:36.006Z</time></trkpt><trkpt lat="44.046429019156285" lon="10.89965381451732"><ele>645.0</ele><time>2026-04-06T12:32:37.006Z</time></trkpt><trkpt lat="44.046469346242766" lon="10.899723948684464"><ele>644.0</ele><time>2026-04-06T12:32:38.006Z</time></trkpt><trkpt lat="44.04655927900017" lon="10.899824706071499"><ele>643.0</ele><time>2026-04-06T12:32:40.006Z</time></trkpt><trkpt lat="44.04664144290252" lon="10.899932433530964"><ele>642.0</ele><time>2026-04-06T12:32:42.006Z</time></trkpt><trkpt lat="44.04675049059045" lon="10.900006266517705"><ele>642.0</ele><time>2026-04-06T12:32:44.006Z</time></trkpt><trkpt lat="44.04686097992578" lon="10.900069336523456"><ele>642.0</ele><time>2026-04-06T12:32:46.006Z</time></trkpt><trkpt lat="44.046978081039846" lon="10.900140626599264"><ele>642.0</ele><time>2026-04-06T12:32:48.006Z</time></trkpt><trkpt lat="44.047039943381506" lon="10.900180777579001"><ele>642.0</ele><time>2026-04-06T12:32:49.006Z</time></trkpt><trkpt lat="44.04716290645671" lon="10.900238648286443"><ele>642.0</ele><time>2026-04-06T12:32:51.006Z</time></trkpt><trkpt lat="44.047284915818956" lon="10.900286033455231"><ele>641.0</ele><time>2026-04-06T12:32:53.006Z</time></trkpt><trkpt lat="44.04734597563971" lon="10.900315286768969"><ele>640.0</ele><time>2026-04-06T12:32:54.006Z</time></trkpt><trkpt lat="44.0474061082226" lon="10.900341680281237"><ele>639.0</ele><time>2026-04-06T12:32:55.006Z</time></trkpt><trkpt lat="44.04752195791884" lon="10.90038870737362"><ele>638.0</ele><time>2026-04-06T12:32:57.006Z</time></trkpt><trkpt lat="44.047645842867546" lon="10.900429150414299"><ele>637.0</ele><time>2026-04-06T12:32:59.006Z</time></trkpt><trkpt lat="44.04771062698771" lon="10.90044888105872"><ele>636.0</ele><time>2026-04-06T12:33:00.006Z</time></trkpt><trkpt lat="44.04777385745063" lon="10.90046876011366"><ele>636.0</ele><time>2026-04-06T12:33:01.006Z</time></trkpt><trkpt lat="44.04784457933263" lon="10.900490237630953"><ele>636.0</ele><time>2026-04-06T12:33:02.007Z</time></trkpt><trkpt lat="44.04791700821048" lon="10.900520666171973"><ele>636.0</ele><time>2026-04-06T12:33:03.007Z</time></trkpt><trkpt lat="44.04798893091068" lon="10.900531580814441"><ele>636.0</ele><time>2026-04-06T12:33:04.007Z</time></trkpt><trkpt lat="44.04804840883945" lon="10.900572141839069"><ele>636.0</ele><time>2026-04-06T12:33:05.007Z</time></trkpt><trkpt lat="44.04811122925585" lon="10.900599758292662"><ele>636.0</ele><time>2026-04-06T12:33:06.007Z</time></trkpt><trkpt lat="44.04822087425515" lon="10.90063644299968"><ele>635.3333333333334</ele><time>2026-04-06T12:33:08.007Z</time></trkpt><trkpt lat="44.0483148817485" lon="10.900683253761429"><ele>634.6666666666666</ele><time>2026-04-06T12:33:10.007Z</time></trkpt><trkpt lat="44.04838463885337" lon="10.900716460636449"><ele>634.0</ele><time>2026-04-06T12:33:11.007Z</time></trkpt><trkpt lat="44.04845983283879" lon="10.900759216870547"><ele>633.3333333333333</ele><time>2026-04-06T12:33:12.007Z</time></trkpt><trkpt lat="44.04853364299951" lon="10.900803304836447"><ele>632.6666666666666</ele><time>2026-04-06T12:33:13.007Z</time></trkpt><trkpt lat="44.048592492549425" lon="10.900838369924948"><ele>632.0</ele><time>2026-04-06T12:33:14.007Z</time></trkpt><trkpt lat="44.04870582004974" lon="10.900911780667471"><ele>632.8333333333333</ele><time>2026-04-06T12:33:16.007Z</time></trkpt><trkpt lat="44.04876729265108" lon="10.900944360595298"><ele>633.6666666666666</ele><time>2026-04-06T12:33:17.007Z</time></trkpt><trkpt lat="44.048825671727556" lon="10.901001741388857"><ele>634.5</ele><time>2026-04-06T12:33:18.007Z</time></trkpt><trkpt lat="44.048920511637114" lon="10.901064889176732"><ele>635.3333333333334</ele><time>2026-04-06T12:33:20.007Z</time></trkpt><trkpt lat="44.04899441639331" lon="10.901085237391895"><ele>636.1666666666667</ele><time>2026-04-06T12:33:21.007Z</time></trkpt><trkpt lat="44.04905540575035" lon="10.901151724431895"><ele>637.0</ele><time>2026-04-06T12:33:22.007Z</time></trkpt><trkpt lat="44.04911721258642" lon="10.901202906686557"><ele>635.6666666666667</ele><time>2026-04-06T12:33:23.007Z</time></trkpt><trkpt lat="44.0491787179804" lon="10.90126486532018"><ele>634.3333333333334</ele><time>2026-04-06T12:33:24.007Z</time></trkpt><trkpt lat="44.04924527025755" lon="10.901349848959773"><ele>633.0</ele><time>2026-04-06T12:33:25.007Z</time></trkpt><trkpt lat="44.04929627617926" lon="10.901427683638813"><ele>631.6666666666666</ele><time>2026-04-06T12:33:26.007Z</time></trkpt><trkpt lat="44.04934330122" lon="10.901502440326684"><ele>630.3333333333333</ele><time>2026-04-06T12:33:27.007Z</time></trkpt><trkpt lat="44.04940265829682" lon="10.90156625098429"><ele>629.0</ele><time>2026-04-06T12:33:28Z</time></trkpt><trkpt lat="44.049450706300796" lon="10.901645186310004"><ele>629.0</ele><time>2026-04-06T12:33:29Z</time></trkpt><trkpt lat="44.04950855535756" lon="10.901717705425565"><ele>629.0</ele><time>2026-04-06T12:33:30Z</time></trkpt><trkpt lat="44.049561881683566" lon="10.90179435475253"><ele>629.0</ele><time>2026-04-06T12:33:31Z</time></trkpt><trkpt lat="44.04962048195682" lon="10.901873667949273"><ele>629.0</ele><time>2026-04-06T12:33:32Z</time></trkpt><trkpt lat="44.04967738159877" lon="10.901948917913463"><ele>629.0</ele><time>2026-04-06T12:33:33Z</time></trkpt><trkpt lat="44.049722138967574" lon="10.902026191343207"><ele>629.0</ele><time>2026-04-06T12:33:34Z</time></trkpt><trkpt lat="44.049767632443235" lon="10.902108580258108"><ele>629.1666666666666</ele><time>2026-04-06T12:33:35Z</time></trkpt><trkpt lat="44.04983802648172" lon="10.902164340136203"><ele>629.3333333333333</ele><time>2026-04-06T12:33:36Z</time></trkpt><trkpt lat="44.04988494435664" lon="10.90223693770935"><ele>629.5</ele><time>2026-04-06T12:33:37Z</time></trkpt><trkpt lat="44.04993239612545" lon="10.902316214828373"><ele>629.6666666666666</ele><time>2026-04-06T12:33:38Z</time></trkpt><trkpt lat="44.049975866916135" lon="10.902407184630746"><ele>629.8333333333334</ele><time>2026-04-06T12:33:39Z</time></trkpt><trkpt lat="44.05002442413333" lon="10.902487436006314"><ele>630.0</ele><time>2026-04-06T12:33:40Z</time></trkpt><trkpt lat="44.050059713536" lon="10.902572706047751"><ele>630.5714285714286</ele><time>2026-04-06T12:33:41Z</time></trkpt><trkpt lat="44.05010300423718" lon="10.902646988287238"><ele>631.1428571428571</ele><time>2026-04-06T12:33:42Z</time></trkpt><trkpt lat="44.05014875829645" lon="10.902733542472959"><ele>631.7142857142858</ele><time>2026-04-06T12:33:43Z</time></trkpt><trkpt lat="44.05019428371659" lon="10.902819369842922"><ele>632.2857142857142</ele><time>2026-04-06T12:33:44Z</time></trkpt><trkpt lat="44.05023605990211" lon="10.902904289985646"><ele>632.8571428571429</ele><time>2026-04-06T12:33:45Z</time></trkpt><trkpt lat="44.0502802230325" lon="10.902987493253645"><ele>633.4285714285714</ele><time>2026-04-06T12:33:46Z</time></trkpt><trkpt lat="44.05033137879478" lon="10.903068764353547"><ele>634.0</ele><time>2026-04-06T12:33:47Z</time></trkpt><trkpt lat="44.05037471513252" lon="10.903152151775725"><ele>634.0</ele><time>2026-04-06T12:33:48Z</time></trkpt><trkpt lat="44.05045978220725" lon="10.903258151529524"><ele>634.0</ele><time>2026-04-06T12:33:50Z</time></trkpt><trkpt lat="44.05048331767058" lon="10.90336688966272"><ele>634.0</ele><time>2026-04-06T12:33:52Z</time></trkpt><trkpt lat="44.05051161768146" lon="10.9034710694787"><ele>634.0</ele><time>2026-04-06T12:33:54Z</time></trkpt><trkpt lat="44.050559952417736" lon="10.903615976087657"><ele>634.0</ele><time>2026-04-06T12:33:56Z</time></trkpt><trkpt lat="44.05062897797757" lon="10.903742562506462"><ele>634.3333333333334</ele><time>2026-04-06T12:33:58Z</time></trkpt><trkpt lat="44.050686948130874" lon="10.903820007997249"><ele>634.6666666666667</ele><time>2026-04-06T12:34:00Z</time></trkpt><trkpt lat="44.050748295890955" lon="10.903852465595897"><ele>635.0</ele><time>2026-04-06T12:34:02Z</time></trkpt><trkpt lat="44.05084165588074" lon="10.90387996253868"><ele>635.3333333333334</ele><time>2026-04-06T12:34:04Z</time></trkpt><trkpt lat="44.05092980895883" lon="10.903914405187544"><ele>635.6666666666666</ele><time>2026-04-06T12:34:06Z</time></trkpt><trkpt lat="44.05103392121554" lon="10.903931650530385"><ele>636.0</ele><time>2026-04-06T12:34:08Z</time></trkpt><trkpt lat="44.051103092311585" lon="10.904009676784241"><ele>636.0</ele><time>2026-04-06T12:34:10Z</time></trkpt><trkpt lat="44.051195759862594" lon="10.904036434142995"><ele>636.0</ele><time>2026-04-06T12:34:12Z</time></trkpt><trkpt lat="44.051286582257035" lon="10.90408354680871"><ele>636.0</ele><time>2026-04-06T12:34:14Z</time></trkpt><trkpt lat="44.051388961924445" lon="10.904111263728907"><ele>636.0</ele><time>2026-04-06T12:34:16Z</time></trkpt><trkpt lat="44.051477204662405" lon="10.904138876867878"><ele>636.0</ele><time>2026-04-06T12:34:17.999Z</time></trkpt><trkpt lat="44.05156399141252" lon="10.904179676536355"><ele>634.0</ele><time>2026-04-06T12:34:20Z</time></trkpt><trkpt lat="44.05165660220828" lon="10.904204849217573"><ele>632.0</ele><time>2026-04-06T12:34:22Z</time></trkpt><trkpt lat="44.05174749221789" lon="10.90423048831877"><ele>630.0</ele><time>2026-04-06T12:34:24Z</time></trkpt><trkpt lat="44.051856646321816" lon="10.904283801210841"><ele>628.0</ele><time>2026-04-06T12:34:26Z</time></trkpt><trkpt lat="44.051934008829825" lon="10.904291891117717"><ele>626.0</ele><time>2026-04-06T12:34:27.999Z</time></trkpt><trkpt lat="44.052013657354365" lon="10.904338016338862"><ele>626.0</ele><time>2026-04-06T12:34:29.999Z</time></trkpt><trkpt lat="44.05210011611178" lon="10.904371835208945"><ele>626.0</ele><time>2026-04-06T12:34:31.999Z</time></trkpt><trkpt lat="44.05219348843424" lon="10.90443970433234"><ele>626.0</ele><time>2026-04-06T12:34:33.999Z</time></trkpt><trkpt lat="44.05230278214922" lon="10.904493675580945"><ele>626.0</ele><time>2026-04-06T12:34:35.999Z</time></trkpt><trkpt lat="44.05240199134377" lon="10.904532803997029"><ele>626.0</ele><time>2026-04-06T12:34:37.999Z</time></trkpt><trkpt lat="44.05245736020413" lon="10.904577642364679"><ele>626.0</ele><time>2026-04-06T12:34:39.999Z</time></trkpt><trkpt lat="44.0525334578391" lon="10.904602788598371"><ele>626.0</ele><time>2026-04-06T12:34:41.999Z</time></trkpt><trkpt lat="44.052612605809" lon="10.90463579511494"><ele>626.0</ele><time>2026-04-06T12:34:43.999Z</time></trkpt><trkpt lat="44.052694020634895" lon="10.904694948557024"><ele>626.0</ele><time>2026-04-06T12:34:45.999Z</time></trkpt><trkpt lat="44.0527701327618" lon="10.904759685154412"><ele>626.0</ele><time>2026-04-06T12:34:47.999Z</time></trkpt><trkpt lat="44.05283940730143" lon="10.904844769708612"><ele>626.0</ele><time>2026-04-06T12:34:49.999Z</time></trkpt><trkpt lat="44.05290756372534" lon="10.90487567504309"><ele>626.0</ele><time>2026-04-06T12:34:50.999Z</time></trkpt><trkpt lat="44.05297039384777" lon="10.904929763472744"><ele>626.0</ele><time>2026-04-06T12:34:51.999Z</time></trkpt><trkpt lat="44.05307657387598" lon="10.90500918486646"><ele>626.0</ele><time>2026-04-06T12:34:53.999Z</time></trkpt><trkpt lat="44.05316932727736" lon="10.905065583376349"><ele>626.0</ele><time>2026-04-06T12:34:55.999Z</time></trkpt><trkpt lat="44.053266589156394" lon="10.905149140082317"><ele>626.0</ele><time>2026-04-06T12:34:57.999Z</time></trkpt><trkpt lat="44.0533543204694" lon="10.905206604683922"><ele>624.6666666666666</ele><time>2026-04-06T12:34:59.999Z</time></trkpt><trkpt lat="44.05342449742664" lon="10.905273923350697"><ele>623.3333333333333</ele><time>2026-04-06T12:35:01.999Z</time></trkpt><trkpt lat="44.05349508521217" lon="10.905325880569816"><ele>622.0</ele><time>2026-04-06T12:35:03.999Z</time></trkpt><trkpt lat="44.05356902570106" lon="10.905380664964927"><ele>620.6666666666666</ele><time>2026-04-06T12:35:05.999Z</time></trkpt><trkpt lat="44.053648734096015" lon="10.905452053470896"><ele>619.3333333333334</ele><time>2026-04-06T12:35:07.999Z</time></trkpt><trkpt lat="44.05373759096804" lon="10.90553004864428"><ele>618.0</ele><time>2026-04-06T12:35:09.999Z</time></trkpt><trkpt lat="44.05382730589598" lon="10.905602283394417"><ele>618.0</ele><time>2026-04-06T12:35:11.999Z</time></trkpt><trkpt lat="44.053891665276055" lon="10.905653473597889"><ele>618.0</ele><time>2026-04-06T12:35:13.999Z</time></trkpt><trkpt lat="44.05395610529294" lon="10.90572897761278"><ele>618.0</ele><time>2026-04-06T12:35:15.999Z</time></trkpt><trkpt lat="44.054043224119766" lon="10.90579375234023"><ele>618.0</ele><time>2026-04-06T12:35:17.999Z</time></trkpt><trkpt lat="44.0541055256453" lon="10.90586265868904"><ele>618.0</ele><time>2026-04-06T12:35:19.999Z</time></trkpt><trkpt lat="44.05418508192961" lon="10.905938676902974"><ele>618.0</ele><time>2026-04-06T12:35:21.999Z</time></trkpt><trkpt lat="44.054270484763855" lon="10.905995034088093"><ele>617.6666666666666</ele><time>2026-04-06T12:35:24Z</time></trkpt><trkpt lat="44.054350592382185" lon="10.906066380034936"><ele>617.3333333333334</ele><time>2026-04-06T12:35:26Z</time></trkpt><trkpt lat="44.05442817569789" lon="10.906138168905889"><ele>617.0</ele><time>2026-04-06T12:35:28Z</time></trkpt><trkpt lat="44.05450745793539" lon="10.906210447277202"><ele>616.6666666666667</ele><time>2026-04-06T12:35:30Z</time></trkpt><trkpt lat="44.05457760335522" lon="10.906288395172737"><ele>616.3333333333334</ele><time>2026-04-06T12:35:32Z</time></trkpt><trkpt lat="44.05461924696564" lon="10.906356255626028"><ele>616.0</ele><time>2026-04-06T12:35:34Z</time></trkpt><trkpt lat="44.05467917563302" lon="10.906436898067414"><ele>616.0</ele><time>2026-04-06T12:35:37Z</time></trkpt><trkpt lat="44.054745389297686" lon="10.906494607174853"><ele>616.0</ele><time>2026-04-06T12:35:40Z</time></trkpt><trkpt lat="44.05481014479815" lon="10.9065666529911"><ele>616.0</ele><time>2026-04-06T12:35:42Z</time></trkpt><trkpt lat="44.05487632881329" lon="10.906622862274496"><ele>616.0</ele><time>2026-04-06T12:35:44Z</time></trkpt><trkpt lat="44.05494012372788" lon="10.906683587732134"><ele>616.0</ele><time>2026-04-06T12:35:46Z</time></trkpt><trkpt lat="44.05501847625868" lon="10.90675292826304"><ele>616.0</ele><time>2026-04-06T12:35:48Z</time></trkpt><trkpt lat="44.05510603463374" lon="10.906809014932717"><ele>616.0</ele><time>2026-04-06T12:35:50Z</time></trkpt><trkpt lat="44.05520012844053" lon="10.906812485625153"><ele>616.0</ele><time>2026-04-06T12:35:52Z</time></trkpt><trkpt lat="44.05528278362866" lon="10.90681754799801"><ele>616.0</ele><time>2026-04-06T12:35:54Z</time></trkpt><trkpt lat="44.05537614168255" lon="10.906833672713635"><ele>616.0</ele><time>2026-04-06T12:35:56Z</time></trkpt><trkpt lat="44.05546269333299" lon="10.906879056933864"><ele>616.0</ele><time>2026-04-06T12:35:58Z</time></trkpt><trkpt lat="44.055553994710785" lon="10.906924458201255"><ele>616.0</ele><time>2026-04-06T12:36:00Z</time></trkpt><trkpt lat="44.055641865566585" lon="10.906989936504198"><ele>616.0</ele><time>2026-04-06T12:36:02Z</time></trkpt><trkpt lat="44.05573668153502" lon="10.907056029655775"><ele>616.0</ele><time>2026-04-06T12:36:04Z</time></trkpt><trkpt lat="44.05582830777466" lon="10.907129844161012"><ele>616.0</ele><time>2026-04-06T12:36:06Z</time></trkpt><trkpt lat="44.05592953632799" lon="10.907203215232473"><ele>616.0</ele><time>2026-04-06T12:36:08Z</time></trkpt><trkpt lat="44.05602206224126" lon="10.907266424248316"><ele>615.5</ele><time>2026-04-06T12:36:10Z</time></trkpt><trkpt lat="44.056081981133" lon="10.907304726726467"><ele>615.0</ele><time>2026-04-06T12:36:11Z</time></trkpt><trkpt lat="44.05613877610301" lon="10.907346989922658"><ele>614.5</ele><time>2026-04-06T12:36:12Z</time></trkpt><trkpt lat="44.056249499056975" lon="10.907425662821053"><ele>614.0</ele><time>2026-04-06T12:36:14Z</time></trkpt><trkpt lat="44.056309293148914" lon="10.907469511517014"><ele>613.5</ele><time>2026-04-06T12:36:15Z</time></trkpt><trkpt lat="44.05636783540392" lon="10.907522604270756"><ele>613.0</ele><time>2026-04-06T12:36:16Z</time></trkpt><trkpt lat="44.05642410138434" lon="10.907566279741967"><ele>613.0</ele><time>2026-04-06T12:36:17Z</time></trkpt><trkpt lat="44.05647732451086" lon="10.907615065639828"><ele>613.0</ele><time>2026-04-06T12:36:18Z</time></trkpt><trkpt lat="44.05653168975678" lon="10.907659712531387"><ele>613.0</ele><time>2026-04-06T12:36:19Z</time></trkpt><trkpt lat="44.056631091226265" lon="10.907770967016402"><ele>613.0</ele><time>2026-04-06T12:36:21Z</time></trkpt><trkpt lat="44.056725383728725" lon="10.907885895075152"><ele>613.0</ele><time>2026-04-06T12:36:22.999Z</time></trkpt><trkpt lat="44.05677563795477" lon="10.907947910339402"><ele>613.0</ele><time>2026-04-06T12:36:24Z</time></trkpt><trkpt lat="44.056868217613506" lon="10.908066726924902"><ele>613.0</ele><time>2026-04-06T12:36:26Z</time></trkpt><trkpt lat="44.056956321096266" lon="10.908160812186065"><ele>613.0</ele><time>2026-04-06T12:36:27.999Z</time></trkpt><trkpt lat="44.05703750400272" lon="10.908254702491545"><ele>613.0</ele><time>2026-04-06T12:36:30Z</time></trkpt><trkpt lat="44.057108400488765" lon="10.908348905987951"><ele>613.0</ele><time>2026-04-06T12:36:31.999Z</time></trkpt><trkpt lat="44.05718828126906" lon="10.908439309819148"><ele>613.0</ele><time>2026-04-06T12:36:34Z</time></trkpt><trkpt lat="44.057265530322596" lon="10.908542470689634"><ele>613.1999999999999</ele><time>2026-04-06T12:36:36Z</time></trkpt><trkpt lat="44.057344045106674" lon="10.90863701956951"><ele>613.4</ele><time>2026-04-06T12:36:38Z</time></trkpt><trkpt lat="44.0574223539857" lon="10.908688812353612"><ele>613.5999999999999</ele><time>2026-04-06T12:36:40Z</time></trkpt><trkpt lat="44.05750395745882" lon="10.908753446108841"><ele>613.8</ele><time>2026-04-06T12:36:42Z</time></trkpt><trkpt lat="44.05754703913724" lon="10.908825221115297"><ele>614.0</ele><time>2026-04-06T12:36:43Z</time></trkpt><trkpt lat="44.057634610582106" lon="10.90894996250928"><ele>614.0</ele><time>2026-04-06T12:36:45Z</time></trkpt><trkpt lat="44.05768226707964" lon="10.909011595826605"><ele>614.0</ele><time>2026-04-06T12:36:46Z</time></trkpt><trkpt lat="44.05776437826133" lon="10.909134807540644"><ele>614.0</ele><time>2026-04-06T12:36:48Z</time></trkpt><trkpt lat="44.05784361283221" lon="10.909253154400288"><ele>614.0</ele><time>2026-04-06T12:36:50Z</time></trkpt><trkpt lat="44.057905155089564" lon="10.909366159305623"><ele>614.0</ele><time>2026-04-06T12:36:52Z</time></trkpt><trkpt lat="44.057977633724875" lon="10.90948220231825"><ele>617.2</ele><time>2026-04-06T12:36:54Z</time></trkpt><trkpt lat="44.05803605430289" lon="10.90960781197534"><ele>620.4</ele><time>2026-04-06T12:36:56Z</time></trkpt><trkpt lat="44.05809858121256" lon="10.909710255539204"><ele>623.6</ele><time>2026-04-06T12:36:58Z</time></trkpt><trkpt lat="44.05816108101968" lon="10.909849020718063"><ele>626.8</ele><time>2026-04-06T12:37:00Z</time></trkpt><trkpt lat="44.058230862439416" lon="10.909985784314099"><ele>630.0</ele><time>2026-04-06T12:37:02Z</time></trkpt><trkpt lat="44.05826441777268" lon="10.910062823610028"><ele>626.4</ele><time>2026-04-06T12:37:03Z</time></trkpt><trkpt lat="44.05828846179811" lon="10.910144609504282"><ele>622.8</ele><time>2026-04-06T12:37:04Z</time></trkpt><trkpt lat="44.05833808488581" lon="10.910294064954813"><ele>619.2</ele><time>2026-04-06T12:37:06Z</time></trkpt><trkpt lat="44.05837278537508" lon="10.910450884140957"><ele>615.6</ele><time>2026-04-06T12:37:08Z</time></trkpt><trkpt lat="44.05842879255118" lon="10.910588554871964"><ele>612.0</ele><time>2026-04-06T12:37:10Z</time></trkpt><trkpt lat="44.05846358912631" lon="10.910726913756887"><ele>612.0</ele><time>2026-04-06T12:37:12Z</time></trkpt><trkpt lat="44.05849805095291" lon="10.910809048783523"><ele>612.0</ele><time>2026-04-06T12:37:14Z</time></trkpt><trkpt lat="44.058529561722736" lon="10.91091377587103"><ele>612.0</ele><time>2026-04-06T12:37:16Z</time></trkpt><trkpt lat="44.058558540039144" lon="10.911013101774657"><ele>612.0</ele><time>2026-04-06T12:37:19Z</time></trkpt><trkpt lat="44.05859421834404" lon="10.911100641971803"><ele>612.0</ele><time>2026-04-06T12:37:23Z</time></trkpt><trkpt lat="44.058516049061794" lon="10.911165458759127"><ele>612.0</ele><time>2026-04-06T12:37:28Z</time></trkpt><trkpt lat="44.05846080895117" lon="10.911119073184244"><ele>612.1666666666666</ele><time>2026-04-06T12:37:32Z</time></trkpt><trkpt lat="44.05838787202434" lon="10.911108063724834"><ele>612.3333333333334</ele><time>2026-04-06T12:37:38Z</time></trkpt><trkpt lat="44.05832542941735" lon="10.91114484088257"><ele>612.5</ele><time>2026-04-06T12:37:43Z</time></trkpt><trkpt lat="44.05830522707301" lon="10.911230467488577"><ele>612.6666666666667</ele><time>2026-04-06T12:37:46Z</time></trkpt><trkpt lat="44.05829690314801" lon="10.9113415694487"><ele>612.8333333333334</ele><time>2026-04-06T12:37:53Z</time></trkpt><trkpt lat="44.05830770552011" lon="10.911469503507185"><ele>613.0</ele><time>2026-04-06T12:38:05Z</time></trkpt><trkpt lat="44.05834667490098" lon="10.91160470832667"><ele>613.0</ele><time>2026-04-06T12:38:07Z</time></trkpt><trkpt lat="44.05836517901051" lon="10.911690970645484"><ele>613.0</ele><time>2026-04-06T12:38:10Z</time></trkpt><trkpt lat="44.05837189533294" lon="10.911805646633905"><ele>613.0</ele><time>2026-04-06T12:38:14Z</time></trkpt><trkpt lat="44.058389580630624" lon="10.911909601128725"><ele>613.0</ele><time>2026-04-06T12:38:17Z</time></trkpt><trkpt lat="44.058412095169466" lon="10.911995593061436"><ele>613.0</ele><time>2026-04-06T12:38:19Z</time></trkpt><trkpt lat="44.05843541608244" lon="10.912110685408397"><ele>613.0</ele><time>2026-04-06T12:38:22Z</time></trkpt><trkpt lat="44.05845947759572" lon="10.912194397259285"><ele>613.0</ele><time>2026-04-06T12:38:24Z</time></trkpt><trkpt lat="44.05849036573114" lon="10.91231407966604"><ele>613.5</ele><time>2026-04-06T12:38:27Z</time></trkpt><trkpt lat="44.05852723227074" lon="10.912429289085663"><ele>614.0</ele><time>2026-04-06T12:38:30Z</time></trkpt><trkpt lat="44.05856443291945" lon="10.912529924754633"><ele>614.5</ele><time>2026-04-06T12:38:34Z</time></trkpt><trkpt lat="44.058615647917385" lon="10.912607586890054"><ele>615.0</ele><time>2026-04-06T12:38:38Z</time></trkpt><trkpt lat="44.058659546153216" lon="10.912684412942667"><ele>615.5</ele><time>2026-04-06T12:38:41Z</time></trkpt><trkpt lat="44.05870039197279" lon="10.912773540506835"><ele>616.0</ele><time>2026-04-06T12:38:44Z</time></trkpt><trkpt lat="44.058735643228054" lon="10.912875909548838"><ele>618.4285714285714</ele><time>2026-04-06T12:38:47Z</time></trkpt><trkpt lat="44.058762133848575" lon="10.912976682728045"><ele>620.8571428571429</ele><time>2026-04-06T12:38:50Z</time></trkpt><trkpt lat="44.058802208437804" lon="10.913052610320447"><ele>623.2857142857142</ele><time>2026-04-06T12:38:53Z</time></trkpt><trkpt lat="44.05883016733942" lon="10.913137173451751"><ele>625.7142857142858</ele><time>2026-04-06T12:38:56Z</time></trkpt><trkpt lat="44.058858243159406" lon="10.913229315637958"><ele>628.1428571428571</ele><time>2026-04-06T12:39:00Z</time></trkpt><trkpt lat="44.058899203099834" lon="10.91331036149281"><ele>630.5714285714286</ele><time>2026-04-06T12:39:03Z</time></trkpt><trkpt lat="44.05894489600234" lon="10.913393646954773"><ele>633.0</ele><time>2026-04-06T12:39:06Z</time></trkpt><trkpt lat="44.05898554347177" lon="10.913479202618356"><ele>631.1428571428571</ele><time>2026-04-06T12:39:09Z</time></trkpt><trkpt lat="44.05901961883178" lon="10.913583200340769"><ele>629.2857142857143</ele><time>2026-04-06T12:39:13Z</time></trkpt><trkpt lat="44.059036596345024" lon="10.913669807752028"><ele>627.4285714285714</ele><time>2026-04-06T12:39:16Z</time></trkpt><trkpt lat="44.05906151054631" lon="10.91377062614947"><ele>625.5714285714286</ele><time>2026-04-06T12:39:19Z</time></trkpt><trkpt lat="44.0591032237112" lon="10.913850637828414"><ele>623.7142857142857</ele><time>2026-04-06T12:39:24Z</time></trkpt><trkpt lat="44.05914696515897" lon="10.91391689508318"><ele>621.8571428571429</ele><time>2026-04-06T12:39:27Z</time></trkpt><trkpt lat="44.05920058083045" lon="10.913995216246297"><ele>620.0</ele><time>2026-04-06T12:39:30Z</time></trkpt><trkpt lat="44.05925533862484" lon="10.914057978994661"><ele>620.0</ele><time>2026-04-06T12:39:33Z</time></trkpt><trkpt lat="44.05929958989621" lon="10.91413718074788"><ele>620.0</ele><time>2026-04-06T12:39:35Z</time></trkpt><trkpt lat="44.059354559608956" lon="10.914229448364997"><ele>620.0</ele><time>2026-04-06T12:39:38.001Z</time></trkpt><trkpt lat="44.05939564540831" lon="10.91432926417424"><ele>620.0</ele><time>2026-04-06T12:39:41.001Z</time></trkpt><trkpt lat="44.05943639946031" lon="10.9144337377767"><ele>620.0</ele><time>2026-04-06T12:39:44.001Z</time></trkpt><trkpt lat="44.05942892549601" lon="10.914528702659624"><ele>620.0</ele><time>2026-04-06T12:39:47.001Z</time></trkpt><trkpt lat="44.05943793795903" lon="10.914618773241585"><ele>622.8571428571429</ele><time>2026-04-06T12:39:51.001Z</time></trkpt><trkpt lat="44.05942184659441" lon="10.91471755197049"><ele>625.7142857142857</ele><time>2026-04-06T12:39:54.001Z</time></trkpt><trkpt lat="44.05939825598754" lon="10.914809077336084"><ele>628.5714285714286</ele><time>2026-04-06T12:39:56.001Z</time></trkpt><trkpt lat="44.05934300318602" lon="10.914884334787976"><ele>631.4285714285714</ele><time>2026-04-06T12:39:58.001Z</time></trkpt><trkpt lat="44.059322042195866" lon="10.914967503179986"><ele>634.2857142857143</ele><time>2026-04-06T12:40:02.001Z</time></trkpt><trkpt lat="44.05931653072003" lon="10.915054991296646"><ele>637.1428571428571</ele><time>2026-04-06T12:40:06.001Z</time></trkpt><trkpt lat="44.059366077977316" lon="10.91514234053584"><ele>640.0</ele><time>2026-04-06T12:40:10.001Z</time></trkpt><trkpt lat="44.05942946141783" lon="10.915174470828592"><ele>643.0</ele><time>2026-04-06T12:40:14.001Z</time></trkpt><trkpt lat="44.059490756491506" lon="10.915212382630495"><ele>646.0</ele><time>2026-04-06T12:40:18.001Z</time></trkpt><trkpt lat="44.05956365151493" lon="10.915199672216128"><ele>649.0</ele><time>2026-04-06T12:40:24.001Z</time></trkpt><trkpt lat="44.05963613052413" lon="10.915215822781889"><ele>652.0</ele><time>2026-04-06T12:40:28.001Z</time></trkpt><trkpt lat="44.059703921456766" lon="10.915300216989225"><ele>655.0</ele><time>2026-04-06T12:40:32.001Z</time></trkpt><trkpt lat="44.05976573907569" lon="10.915367006082972"><ele>658.0</ele><time>2026-04-06T12:40:35Z</time></trkpt><trkpt lat="44.0598126381133" lon="10.915433393227383"><ele>658.0</ele><time>2026-04-06T12:40:38Z</time></trkpt><trkpt lat="44.05987050669372" lon="10.915511956616953"><ele>658.0</ele><time>2026-04-06T12:40:41Z</time></trkpt><trkpt lat="44.059905417652836" lon="10.9155897253905"><ele>658.0</ele><time>2026-04-06T12:40:44Z</time></trkpt><trkpt lat="44.05995816099642" lon="10.91569388068581"><ele>658.0</ele><time>2026-04-06T12:40:47Z</time></trkpt><trkpt lat="44.05997936274066" lon="10.915789548647286"><ele>658.0</ele><time>2026-04-06T12:40:49Z</time></trkpt><trkpt lat="44.06001293757108" lon="10.915869714713333"><ele>658.0</ele><time>2026-04-06T12:40:51Z</time></trkpt><trkpt lat="44.0600233135977" lon="10.915972125467334"><ele>656.0</ele><time>2026-04-06T12:40:53Z</time></trkpt><trkpt lat="44.06002583184778" lon="10.916087448546202"><ele>654.0</ele><time>2026-04-06T12:40:55Z</time></trkpt><trkpt lat="44.06002469406427" lon="10.916251229731355"><ele>652.0</ele><time>2026-04-06T12:40:57Z</time></trkpt><trkpt lat="44.060032761422924" lon="10.91640693294195"><ele>650.0</ele><time>2026-04-06T12:40:59Z</time></trkpt><trkpt lat="44.06005195034171" lon="10.916497617772334"><ele>648.0</ele><time>2026-04-06T12:41:00Z</time></trkpt><trkpt lat="44.06008886627158" lon="10.916631621249167"><ele>652.5999999999999</ele><time>2026-04-06T12:41:02Z</time></trkpt><trkpt lat="44.06008326304471" lon="10.916817035173345"><ele>657.1999999999999</ele><time>2026-04-06T12:41:04Z</time></trkpt><trkpt lat="44.0600857128807" lon="10.916926785135237"><ele>661.8</ele><time>2026-04-06T12:41:06Z</time></trkpt><trkpt lat="44.06014798477855" lon="10.916985663905614"><ele>666.4</ele><time>2026-04-06T12:41:09Z</time></trkpt><trkpt lat="44.06022943456119" lon="10.916974647161265"><ele>671.0</ele><time>2026-04-06T12:41:11Z</time></trkpt><trkpt lat="44.0603055920349" lon="10.917012061856562"><ele>671.0</ele><time>2026-04-06T12:41:14Z</time></trkpt><trkpt lat="44.06037934753415" lon="10.917067472212219"><ele>671.0</ele><time>2026-04-06T12:41:17Z</time></trkpt><trkpt lat="44.060440645430276" lon="10.917136154018223"><ele>671.0</ele><time>2026-04-06T12:41:20Z</time></trkpt><trkpt lat="44.06049807402162" lon="10.917175355547668"><ele>671.0</ele><time>2026-04-06T12:41:22Z</time></trkpt><trkpt lat="44.060559361569915" lon="10.91723942742073"><ele>671.0</ele><time>2026-04-06T12:41:25Z</time></trkpt><trkpt lat="44.060623219372324" lon="10.917310538313266"><ele>671.0</ele><time>2026-04-06T12:41:28Z</time></trkpt><trkpt lat="44.06068617273912" lon="10.917352937573977"><ele>671.0</ele><time>2026-04-06T12:41:31Z</time></trkpt><trkpt lat="44.06075367740759" lon="10.91736481982513"><ele>671.0</ele><time>2026-04-06T12:41:33Z</time></trkpt><trkpt lat="44.060822285268095" lon="10.917404479759206"><ele>671.0</ele><time>2026-04-06T12:41:35Z</time></trkpt><trkpt lat="44.06088503075306" lon="10.917466011001295"><ele>671.0</ele><time>2026-04-06T12:41:37Z</time></trkpt><trkpt lat="44.06095323595302" lon="10.91749724769395"><ele>671.0</ele><time>2026-04-06T12:41:39Z</time></trkpt><trkpt lat="44.06104353022945" lon="10.917530125200223"><ele>671.0</ele><time>2026-04-06T12:41:42Z</time></trkpt><trkpt lat="44.06114318865001" lon="10.917566285074257"><ele>667.0</ele><time>2026-04-06T12:41:44Z</time></trkpt><trkpt lat="44.06119062831929" lon="10.917633103903082"><ele>663.0</ele><time>2026-04-06T12:41:45Z</time></trkpt><trkpt lat="44.06123747685304" lon="10.917711660706525"><ele>659.0</ele><time>2026-04-06T12:41:46Z</time></trkpt><trkpt lat="44.06120455395432" lon="10.917847019544864"><ele>655.0</ele><time>2026-04-06T12:41:48Z</time></trkpt><trkpt lat="44.061180540599274" lon="10.917978852093189"><ele>651.0</ele><time>2026-04-06T12:41:50Z</time></trkpt><trkpt lat="44.06116335261158" lon="10.918117240462111"><ele>647.0</ele><time>2026-04-06T12:41:52Z</time></trkpt><trkpt lat="44.061138410831" lon="10.918213777889484"><ele>647.0</ele><time>2026-04-06T12:41:54Z</time></trkpt><trkpt lat="44.06111411795047" lon="10.918307150596002"><ele>647.0</ele><time>2026-04-06T12:41:56Z</time></trkpt><trkpt lat="44.061109327400935" lon="10.91840005358036"><ele>647.0</ele><time>2026-04-06T12:41:59Z</time></trkpt><trkpt lat="44.0611699553245" lon="10.918478846892315"><ele>647.0</ele><time>2026-04-06T12:42:01Z</time></trkpt><trkpt lat="44.061243085496905" lon="10.918484091183323"><ele>647.0</ele><time>2026-04-06T12:42:03Z</time></trkpt><trkpt lat="44.06131240520944" lon="10.91850693611536"><ele>647.0</ele><time>2026-04-06T12:42:04Z</time></trkpt><trkpt lat="44.061406729734834" lon="10.918442567685297"><ele>647.0</ele><time>2026-04-06T12:42:06Z</time></trkpt><trkpt lat="44.06150387126737" lon="10.918361206806816"><ele>647.0</ele><time>2026-04-06T12:42:08Z</time></trkpt><trkpt lat="44.06158458777808" lon="10.91832369593302"><ele>647.0</ele><time>2026-04-06T12:42:10Z</time></trkpt><trkpt lat="44.06164200482395" lon="10.918286406782501"><ele>647.0</ele><time>2026-04-06T12:42:13Z</time></trkpt><trkpt lat="44.06171754639858" lon="10.918258079707517"><ele>647.0</ele><time>2026-04-06T12:42:16Z</time></trkpt><trkpt lat="44.06177349651537" lon="10.918217242994357"><ele>647.0</ele><time>2026-04-06T12:42:19Z</time></trkpt><trkpt lat="44.06183584446068" lon="10.918184201557528"><ele>642.6666666666666</ele><time>2026-04-06T12:42:22Z</time></trkpt><trkpt lat="44.06191411251879" lon="10.918134761985094"><ele>638.3333333333333</ele><time>2026-04-06T12:42:25Z</time></trkpt><trkpt lat="44.062001768425795" lon="10.91809591506094"><ele>634.0</ele><time>2026-04-06T12:42:28Z</time></trkpt><trkpt lat="44.062084254508726" lon="10.918047446132837"><ele>629.6666666666666</ele><time>2026-04-06T12:42:32Z</time></trkpt><trkpt lat="44.06215810205178" lon="10.917997140249227"><ele>625.3333333333334</ele><time>2026-04-06T12:42:35Z</time></trkpt><trkpt lat="44.06221485848469" lon="10.917948141537652"><ele>621.0</ele><time>2026-04-06T12:42:38Z</time></trkpt><trkpt lat="44.062278804364965" lon="10.917901675068013"><ele>621.0</ele><time>2026-04-06T12:42:41Z</time></trkpt><trkpt lat="44.06235184055661" lon="10.917894782135466"><ele>621.0</ele><time>2026-04-06T12:42:44Z</time></trkpt><trkpt lat="44.06244184461375" lon="10.917920933671098"><ele>621.0</ele><time>2026-04-06T12:42:48.001Z</time></trkpt><trkpt lat="44.06250851974629" lon="10.917954570951308"><ele>621.0</ele><time>2026-04-06T12:42:51.001Z</time></trkpt><trkpt lat="44.06257734310873" lon="10.917989842128557"><ele>621.0</ele><time>2026-04-06T12:42:55.001Z</time></trkpt><trkpt lat="44.062652369975005" lon="10.918003388857793"><ele>621.0</ele><time>2026-04-06T12:43:00.001Z</time></trkpt><trkpt lat="44.062718650555155" lon="10.918059383893503"><ele>621.5714285714286</ele><time>2026-04-06T12:43:04.001Z</time></trkpt><trkpt lat="44.062775392159885" lon="10.918125720729225"><ele>622.1428571428571</ele><time>2026-04-06T12:43:09.001Z</time></trkpt><trkpt lat="44.06281896737057" lon="10.91819193357084"><ele>622.7142857142858</ele><time>2026-04-06T12:43:12.001Z</time></trkpt><trkpt lat="44.06286867378044" lon="10.918263552625714"><ele>623.2857142857142</ele><time>2026-04-06T12:43:17.001Z</time></trkpt><trkpt lat="44.062919934611166" lon="10.91833436821066"><ele>623.8571428571429</ele><time>2026-04-06T12:43:21.001Z</time></trkpt><trkpt lat="44.062968108862876" lon="10.91840615169047"><ele>624.4285714285714</ele><time>2026-04-06T12:43:24.001Z</time></trkpt><trkpt lat="44.06302141239167" lon="10.918476174458599"><ele>625.0</ele><time>2026-04-06T12:43:28.001Z</time></trkpt><trkpt lat="44.06307886474921" lon="10.918560330066578"><ele>628.2857142857143</ele><time>2026-04-06T12:43:33.001Z</time></trkpt><trkpt lat="44.06314597515551" lon="10.918598351047109"><ele>631.5714285714286</ele><time>2026-04-06T12:43:37.001Z</time></trkpt><trkpt lat="44.06320397487811" lon="10.918647957207925"><ele>634.8571428571429</ele><time>2026-04-06T12:43:42.001Z</time></trkpt><trkpt lat="44.06326841905358" lon="10.918675348145909"><ele>638.1428571428571</ele><time>2026-04-06T12:43:45.001Z</time></trkpt><trkpt lat="44.0633239388006" lon="10.918736722908907"><ele>641.4285714285714</ele><time>2026-04-06T12:43:48.001Z</time></trkpt><trkpt lat="44.06337939589589" lon="10.918819196657301"><ele>644.7142857142858</ele><time>2026-04-06T12:43:51.001Z</time></trkpt><trkpt lat="44.06342989021623" lon="10.918893482541026"><ele>648.0</ele><time>2026-04-06T12:43:54.001Z</time></trkpt><trkpt lat="44.06348964324305" lon="10.918964394378436"><ele>648.0</ele><time>2026-04-06T12:43:57.001Z</time></trkpt><trkpt lat="44.06354667758353" lon="10.919014498905014"><ele>648.0</ele><time>2026-04-06T12:44:00.001Z</time></trkpt><trkpt lat="44.06359567159823" lon="10.919103411258877"><ele>648.0</ele><time>2026-04-06T12:44:04.001Z</time></trkpt><trkpt lat="44.06366660089115" lon="10.91916089916025"><ele>648.0</ele><time>2026-04-06T12:44:08.001Z</time></trkpt><trkpt lat="44.063709609159595" lon="10.91922605722979"><ele>648.0</ele><time>2026-04-06T12:44:11.001Z</time></trkpt><trkpt lat="44.06376093740582" lon="10.919280020807369"><ele>648.0</ele><time>2026-04-06T12:44:14.001Z</time></trkpt><trkpt lat="44.06382690485148" lon="10.919347824787534"><ele>648.0</ele><time>2026-04-06T12:44:17.001Z</time></trkpt><trkpt lat="44.0638831331704" lon="10.919430100660488"><ele>647.8571428571429</ele><time>2026-04-06T12:44:20.001Z</time></trkpt><trkpt lat="44.06394157825841" lon="10.919499357941136"><ele>647.7142857142857</ele><time>2026-04-06T12:44:23.002Z</time></trkpt><trkpt lat="44.06399656068023" lon="10.919542070445436"><ele>647.5714285714286</ele><time>2026-04-06T12:44:26.002Z</time></trkpt><trkpt lat="44.06406215110421" lon="10.919590556241696"><ele>647.4285714285714</ele><time>2026-04-06T12:44:29.002Z</time></trkpt><trkpt lat="44.064113676297346" lon="10.919643192054767"><ele>647.2857142857143</ele><time>2026-04-06T12:44:32.002Z</time></trkpt><trkpt lat="44.064156837051684" lon="10.91975099427879"><ele>647.1428571428571</ele><time>2026-04-06T12:44:36.002Z</time></trkpt><trkpt lat="44.06414884385037" lon="10.919852077630933"><ele>647.0</ele><time>2026-04-06T12:44:39.002Z</time></trkpt><trkpt lat="44.064170202691564" lon="10.919951039517958"><ele>647.0</ele><time>2026-04-06T12:44:42.002Z</time></trkpt><trkpt lat="44.06425200736749" lon="10.920016468423716"><ele>647.0</ele><time>2026-04-06T12:44:46.001Z</time></trkpt><trkpt lat="44.06433963257507" lon="10.920047221067422"><ele>647.0</ele><time>2026-04-06T12:44:50.001Z</time></trkpt><trkpt lat="44.06440270850484" lon="10.920104785293397"><ele>647.0</ele><time>2026-04-06T12:44:53Z</time></trkpt><trkpt lat="44.06446038671497" lon="10.920187592651772"><ele>647.0</ele><time>2026-04-06T12:44:56.001Z</time></trkpt><trkpt lat="44.064492678049135" lon="10.920292893690684"><ele>647.0</ele><time>2026-04-06T12:44:59Z</time></trkpt><trkpt lat="44.06451187410836" lon="10.920393887525508"><ele>652.0</ele><time>2026-04-06T12:45:02Z</time></trkpt><trkpt lat="44.06451315557423" lon="10.920510691538437"><ele>657.0</ele><time>2026-04-06T12:45:06Z</time></trkpt><trkpt lat="44.064537642215434" lon="10.92061607569853"><ele>662.0</ele><time>2026-04-06T12:45:10Z</time></trkpt><trkpt lat="44.06455102435868" lon="10.920728276682125"><ele>667.0</ele><time>2026-04-06T12:45:13Z</time></trkpt><trkpt lat="44.06453163468757" lon="10.920825668431908"><ele>672.0</ele><time>2026-04-06T12:45:16Z</time></trkpt><trkpt lat="44.06456142192179" lon="10.920918592193024"><ele>677.0</ele><time>2026-04-06T12:45:18Z</time></trkpt><trkpt lat="44.06461847390048" lon="10.920992992135565"><ele>675.1666666666666</ele><time>2026-04-06T12:45:22.001Z</time></trkpt><trkpt lat="44.06468699344956" lon="10.921066209269371"><ele>673.3333333333333</ele><time>2026-04-06T12:45:26.001Z</time></trkpt><trkpt lat="44.06474127495862" lon="10.921137850790588"><ele>671.5</ele><time>2026-04-06T12:45:29.001Z</time></trkpt><trkpt lat="44.064787307999296" lon="10.921201311544268"><ele>669.6666666666666</ele><time>2026-04-06T12:45:32.001Z</time></trkpt><trkpt lat="44.06485319182272" lon="10.921285996032566"><ele>667.8333333333334</ele><time>2026-04-06T12:45:36.001Z</time></trkpt><trkpt lat="44.06491672626143" lon="10.921349007772662"><ele>666.0</ele><time>2026-04-06T12:45:39.001Z</time></trkpt><trkpt lat="44.064989676817625" lon="10.921392537535784"><ele>666.0</ele><time>2026-04-06T12:45:43.001Z</time></trkpt><trkpt lat="44.065063031049355" lon="10.92138901490265"><ele>666.0</ele><time>2026-04-06T12:45:47.001Z</time></trkpt><trkpt lat="44.06513689802896" lon="10.921406586082727"><ele>666.0</ele><time>2026-04-06T12:45:50.001Z</time></trkpt><trkpt lat="44.06521151047104" lon="10.921435610706759"><ele>666.0</ele><time>2026-04-06T12:45:53.001Z</time></trkpt><trkpt lat="44.06527460500568" lon="10.921464072607568"><ele>666.0</ele><time>2026-04-06T12:45:55.001Z</time></trkpt><trkpt lat="44.06533597404877" lon="10.92152452943256"><ele>666.0</ele><time>2026-04-06T12:45:57.001Z</time></trkpt><trkpt lat="44.06538980917275" lon="10.921583058265451"><ele>666.0</ele><time>2026-04-06T12:45:59.001Z</time></trkpt><trkpt lat="44.065438051726574" lon="10.92164351831287"><ele>666.0</ele><time>2026-04-06T12:46:01.001Z</time></trkpt><trkpt lat="44.06550316979787" lon="10.921728584819732"><ele>666.0</ele><time>2026-04-06T12:46:04.001Z</time></trkpt><trkpt lat="44.06556819594071" lon="10.921814357670549"><ele>666.0</ele><time>2026-04-06T12:46:08.001Z</time></trkpt><trkpt lat="44.06562711921225" lon="10.921874642399535"><ele>666.0</ele><time>2026-04-06T12:46:11.001Z</time></trkpt><trkpt lat="44.06569515918921" lon="10.921920502051993"><ele>666.0</ele><time>2026-04-06T12:46:14.001Z</time></trkpt><trkpt lat="44.06575808364092" lon="10.921972513965335"><ele>666.0</ele><time>2026-04-06T12:46:17.001Z</time></trkpt><trkpt lat="44.06581394529667" lon="10.922052604887602"><ele>667.6666666666666</ele><time>2026-04-06T12:46:20.001Z</time></trkpt><trkpt lat="44.06586955309652" lon="10.922123386255405"><ele>669.3333333333334</ele><time>2026-04-06T12:46:22.001Z</time></trkpt><trkpt lat="44.06590336724169" lon="10.922212218894986"><ele>671.0</ele><time>2026-04-06T12:46:25.001Z</time></trkpt><trkpt lat="44.06589673354589" lon="10.922303377124951"><ele>672.6666666666667</ele><time>2026-04-06T12:46:28.001Z</time></trkpt><trkpt lat="44.06593271894424" lon="10.922409685204622"><ele>674.3333333333334</ele><time>2026-04-06T12:46:32.001Z</time></trkpt><trkpt lat="44.06599812846491" lon="10.922455530033847"><ele>676.0</ele><time>2026-04-06T12:46:35.001Z</time></trkpt><trkpt lat="44.066083122283494" lon="10.92248103347096"><ele>676.0</ele><time>2026-04-06T12:46:39.001Z</time></trkpt><trkpt lat="44.06615071446867" lon="10.922524917609874"><ele>676.0</ele><time>2026-04-06T12:46:42.001Z</time></trkpt><trkpt lat="44.066235046625394" lon="10.922568977268648"><ele>676.0</ele><time>2026-04-06T12:46:45.001Z</time></trkpt><trkpt lat="44.066301190263886" lon="10.922604485921877"><ele>676.0</ele><time>2026-04-06T12:46:47.001Z</time></trkpt><trkpt lat="44.06636416824933" lon="10.922651038666414"><ele>676.0</ele><time>2026-04-06T12:46:50.001Z</time></trkpt><trkpt lat="44.06642668009867" lon="10.922689889613581"><ele>676.0</ele><time>2026-04-06T12:46:54.001Z</time></trkpt><trkpt lat="44.06648520550459" lon="10.922735926878856"><ele>676.0</ele><time>2026-04-06T12:46:56.001Z</time></trkpt><trkpt lat="44.06656171204598" lon="10.922773681897954"><ele>678.6666666666667</ele><time>2026-04-06T12:46:59.001Z</time></trkpt><trkpt lat="44.06664240638966" lon="10.922828570415515"><ele>681.3333333333334</ele><time>2026-04-06T12:47:02.001Z</time></trkpt><trkpt lat="44.066717783194264" lon="10.92289204545247"><ele>684.0</ele><time>2026-04-06T12:47:05.001Z</time></trkpt><trkpt lat="44.06679065593801" lon="10.922941572442344"><ele>686.6666666666666</ele><time>2026-04-06T12:47:08.001Z</time></trkpt><trkpt lat="44.06685196067555" lon="10.92297636345751"><ele>689.3333333333333</ele><time>2026-04-06T12:47:11.001Z</time></trkpt><trkpt lat="44.066921172333046" lon="10.923014773337476"><ele>692.0</ele><time>2026-04-06T12:47:15.001Z</time></trkpt><trkpt lat="44.06699585441368" lon="10.923019608110147"><ele>692.0</ele><time>2026-04-06T12:47:17.001Z</time></trkpt><trkpt lat="44.067076550598266" lon="10.923040701563837"><ele>692.0</ele><time>2026-04-06T12:47:20.001Z</time></trkpt><trkpt lat="44.06716176638621" lon="10.92309137884452"><ele>692.0</ele><time>2026-04-06T12:47:23.001Z</time></trkpt><trkpt lat="44.06723392360597" lon="10.923161248126872"><ele>692.0</ele><time>2026-04-06T12:47:26.001Z</time></trkpt><trkpt lat="44.06730928369859" lon="10.923228700752253"><ele>692.0</ele><time>2026-04-06T12:47:29.001Z</time></trkpt><trkpt lat="44.06737492720947" lon="10.923270998166545"><ele>692.0</ele><time>2026-04-06T12:47:32.001Z</time></trkpt><trkpt lat="44.06744017688616" lon="10.923342377180154"><ele>694.2857142857142</ele><time>2026-04-06T12:47:35.001Z</time></trkpt><trkpt lat="44.067501841611694" lon="10.92341496786205"><ele>696.5714285714287</ele><time>2026-04-06T12:47:38.001Z</time></trkpt><trkpt lat="44.067545775448636" lon="10.923488369198182"><ele>698.8571428571429</ele><time>2026-04-06T12:47:41.001Z</time></trkpt><trkpt lat="44.06760010328258" lon="10.923560278316936"><ele>701.1428571428571</ele><time>2026-04-06T12:47:44.001Z</time></trkpt><trkpt lat="44.06764000760101" lon="10.92363289262771"><ele>703.4285714285713</ele><time>2026-04-06T12:47:47.001Z</time></trkpt><trkpt lat="44.06769338389962" lon="10.923712213197796"><ele>705.7142857142858</ele><time>2026-04-06T12:47:51.001Z</time></trkpt><trkpt lat="44.06776232146065" lon="10.923759051626618"><ele>708.0</ele><time>2026-04-06T12:47:54.001Z</time></trkpt><trkpt lat="44.06782865681466" lon="10.923820291356346"><ele>708.0</ele><time>2026-04-06T12:47:57.001Z</time></trkpt><trkpt lat="44.06786821156355" lon="10.923924391789662"><ele>708.0</ele><time>2026-04-06T12:48:00.001Z</time></trkpt><trkpt lat="44.06792590125031" lon="10.924016829416253"><ele>708.0</ele><time>2026-04-06T12:48:03.001Z</time></trkpt><trkpt lat="44.06795419228757" lon="10.924111853412452"><ele>708.0</ele><time>2026-04-06T12:48:06.001Z</time></trkpt><trkpt lat="44.06800497456091" lon="10.924218502071836"><ele>708.0</ele><time>2026-04-06T12:48:10.001Z</time></trkpt><trkpt lat="44.06805521365392" lon="10.924276985766769"><ele>708.0</ele><time>2026-04-06T12:48:13.001Z</time></trkpt><trkpt lat="44.06809638067254" lon="10.924343655609453"><ele>707.7142857142858</ele><time>2026-04-06T12:48:16.001Z</time></trkpt><trkpt lat="44.0681356530566" lon="10.924416224952916"><ele>707.4285714285713</ele><time>2026-04-06T12:48:19.001Z</time></trkpt><trkpt lat="44.06817140501877" lon="10.924490313868839"><ele>707.1428571428571</ele><time>2026-04-06T12:48:21.001Z</time></trkpt><trkpt lat="44.0682234104166" lon="10.924587784732058"><ele>706.8571428571429</ele><time>2026-04-06T12:48:24.001Z</time></trkpt><trkpt lat="44.068266479046805" lon="10.92467218350312"><ele>706.5714285714287</ele><time>2026-04-06T12:48:27.001Z</time></trkpt><trkpt lat="44.06829174919242" lon="10.924754168837387"><ele>706.2857142857142</ele><time>2026-04-06T12:48:29.001Z</time></trkpt><trkpt lat="44.06833213627679" lon="10.924846372463037"><ele>706.0</ele><time>2026-04-06T12:48:32.001Z</time></trkpt><trkpt lat="44.06838993817974" lon="10.924898637432728"><ele>706.0</ele><time>2026-04-06T12:48:36.001Z</time></trkpt><trkpt lat="44.06845277338358" lon="10.924972949649328"><ele>706.0</ele><time>2026-04-06T12:48:40.001Z</time></trkpt><trkpt lat="44.06850500822521" lon="10.92503250080371"><ele>706.0</ele><time>2026-04-06T12:48:43.001Z</time></trkpt><trkpt lat="44.06855467731416" lon="10.925096558358941"><ele>706.0</ele><time>2026-04-06T12:48:45.001Z</time></trkpt><trkpt lat="44.0686083023907" lon="10.925176156764179"><ele>706.0</ele><time>2026-04-06T12:48:47.001Z</time></trkpt><trkpt lat="44.0686475391658" lon="10.925290997401554"><ele>706.0</ele><time>2026-04-06T12:48:50.001Z</time></trkpt><trkpt lat="44.06868831400784" lon="10.925386452519936"><ele>708.7142857142857</ele><time>2026-04-06T12:48:52.001Z</time></trkpt><trkpt lat="44.06872995095414" lon="10.925481237834186"><ele>711.4285714285714</ele><time>2026-04-06T12:48:54.001Z</time></trkpt><trkpt lat="44.06874263451489" lon="10.925575148460752"><ele>714.1428571428571</ele><time>2026-04-06T12:48:56.001Z</time></trkpt><trkpt lat="44.06877457544095" lon="10.925651446961934"><ele>716.8571428571429</ele><time>2026-04-06T12:48:58.001Z</time></trkpt><trkpt lat="44.06879947771585" lon="10.925732269526238"><ele>719.5714285714287</ele><time>2026-04-06T12:49:00.001Z</time></trkpt><trkpt lat="44.06882594850847" lon="10.925816251177306"><ele>722.2857142857143</ele><time>2026-04-06T12:49:02.001Z</time></trkpt><trkpt lat="44.06887915304172" lon="10.925873272355377"><ele>725.0</ele><time>2026-04-06T12:49:05.001Z</time></trkpt><trkpt lat="44.06895049299976" lon="10.925944188106358"><ele>725.0</ele><time>2026-04-06T12:49:08.001Z</time></trkpt><trkpt lat="44.06902076246538" lon="10.925975926651377"><ele>725.0</ele><time>2026-04-06T12:49:12.001Z</time></trkpt><trkpt lat="44.06909246971802" lon="10.92598174486724"><ele>725.0</ele><time>2026-04-06T12:49:16.001Z</time></trkpt><trkpt lat="44.0691557932968" lon="10.925983181463705"><ele>725.0</ele><time>2026-04-06T12:49:19.001Z</time></trkpt><trkpt lat="44.069227893655366" lon="10.926012800663976"><ele>725.0</ele><time>2026-04-06T12:49:22.001Z</time></trkpt><trkpt lat="44.06928700125537" lon="10.92604834092749"><ele>725.0</ele><time>2026-04-06T12:49:24.001Z</time></trkpt><trkpt lat="44.069357806668" lon="10.926078544082092"><ele>725.0</ele><time>2026-04-06T12:49:26.001Z</time></trkpt><trkpt lat="44.06944087931126" lon="10.9261399178614"><ele>725.0</ele><time>2026-04-06T12:49:29.001Z</time></trkpt><trkpt lat="44.069501817552464" lon="10.92618201425155"><ele>725.0</ele><time>2026-04-06T12:49:31.001Z</time></trkpt><trkpt lat="44.06956290108399" lon="10.926237982186612"><ele>725.0</ele><time>2026-04-06T12:49:33.001Z</time></trkpt><trkpt lat="44.06960002216913" lon="10.926310421457575"><ele>725.0</ele><time>2026-04-06T12:49:35.001Z</time></trkpt><trkpt lat="44.06963349580408" lon="10.926411918227872"><ele>725.0</ele><time>2026-04-06T12:49:38.001Z</time></trkpt><trkpt lat="44.06966968737149" lon="10.92651582416385"><ele>725.0</ele><time>2026-04-06T12:49:42.002Z</time></trkpt><trkpt lat="44.06968650554439" lon="10.926618248809651"><ele>725.0</ele><time>2026-04-06T12:49:45.002Z</time></trkpt><trkpt lat="44.069671672113344" lon="10.926756037950081"><ele>727.5</ele><time>2026-04-06T12:49:49.002Z</time></trkpt><trkpt lat="44.06966586675127" lon="10.926846865583904"><ele>730.0</ele><time>2026-04-06T12:49:52.002Z</time></trkpt><trkpt lat="44.06967464238927" lon="10.92696308317346"><ele>732.5</ele><time>2026-04-06T12:49:56.002Z</time></trkpt><trkpt lat="44.069695064657445" lon="10.927072968847458"><ele>735.0</ele><time>2026-04-06T12:50:00.002Z</time></trkpt><trkpt lat="44.06971434210127" lon="10.927187930709145"><ele>737.5</ele><time>2026-04-06T12:50:05.002Z</time></trkpt><trkpt lat="44.06971499200256" lon="10.92729775940265"><ele>740.0</ele><time>2026-04-06T12:50:08.002Z</time></trkpt><trkpt lat="44.06972570892358" lon="10.92742118313553"><ele>740.0</ele><time>2026-04-06T12:50:11.002Z</time></trkpt><trkpt lat="44.0697366393176" lon="10.927541440045376"><ele>740.0</ele><time>2026-04-06T12:50:14.002Z</time></trkpt><trkpt lat="44.069742853763266" lon="10.927673726515192"><ele>740.0</ele><time>2026-04-06T12:50:17.002Z</time></trkpt><trkpt lat="44.069724829000805" lon="10.927776515127626"><ele>740.0</ele><time>2026-04-06T12:50:19.002Z</time></trkpt><trkpt lat="44.06971072105842" lon="10.927865560153716"><ele>740.0</ele><time>2026-04-06T12:50:21.002Z</time></trkpt><trkpt lat="44.069687802346856" lon="10.927984805604726"><ele>740.0</ele><time>2026-04-06T12:50:24.002Z</time></trkpt><trkpt lat="44.06967767114265" lon="10.92808194869439"><ele>741.3333333333333</ele><time>2026-04-06T12:50:26.002Z</time></trkpt><trkpt lat="44.06965027481752" lon="10.928195406965024"><ele>742.6666666666666</ele><time>2026-04-06T12:50:29.002Z</time></trkpt><trkpt lat="44.06963895746531" lon="10.928321234066253"><ele>744.0</ele><time>2026-04-06T12:50:32.002Z</time></trkpt><trkpt lat="44.06962214923654" lon="10.928433956967666"><ele>745.3333333333334</ele><time>2026-04-06T12:50:35.002Z</time></trkpt><trkpt lat="44.069604428697964" lon="10.928529150011116"><ele>746.6666666666667</ele><time>2026-04-06T12:50:38.002Z</time></trkpt><trkpt lat="44.06957727099517" lon="10.92862340695266"><ele>748.0</ele><time>2026-04-06T12:50:41.002Z</time></trkpt><trkpt lat="44.06956425296564" lon="10.928733574090149"><ele>749.0</ele><time>2026-04-06T12:50:44.002Z</time></trkpt><trkpt lat="44.069539554121754" lon="10.928842576983342"><ele>750.0</ele><time>2026-04-06T12:50:47.002Z</time></trkpt><trkpt lat="44.06951721192446" lon="10.928948839812792"><ele>751.0</ele><time>2026-04-06T12:50:50.002Z</time></trkpt><trkpt lat="44.06949910925949" lon="10.929067243743065"><ele>752.0</ele><time>2026-04-06T12:50:53.002Z</time></trkpt><trkpt lat="44.0694766650062" lon="10.929161504091029"><ele>753.0</ele><time>2026-04-06T12:50:56.002Z</time></trkpt><trkpt lat="44.06946363439549" lon="10.929255514799065"><ele>754.0</ele><time>2026-04-06T12:50:59.002Z</time></trkpt><trkpt lat="44.06946049327395" lon="10.929349185346224"><ele>755.5</ele><time>2026-04-06T12:51:03.001Z</time></trkpt><trkpt lat="44.06948330271355" lon="10.929459016253222"><ele>757.0</ele><time>2026-04-06T12:51:07.001Z</time></trkpt><trkpt lat="44.069511716191165" lon="10.929546302760674"><ele>758.5</ele><time>2026-04-06T12:51:09.001Z</time></trkpt><trkpt lat="44.06958064232461" lon="10.92959353428579"><ele>760.0</ele><time>2026-04-06T12:51:12.001Z</time></trkpt><trkpt lat="44.069644906544774" lon="10.929568524085852"><ele>761.5</ele><time>2026-04-06T12:51:16.001Z</time></trkpt><trkpt lat="44.06970433046494" lon="10.929519706054759"><ele>763.0</ele><time>2026-04-06T12:51:19.001Z</time></trkpt><trkpt lat="44.06979368901212" lon="10.929510372177425"><ele>763.0</ele><time>2026-04-06T12:51:22.001Z</time></trkpt><trkpt lat="44.06986483212647" lon="10.929493071520993"><ele>763.0</ele><time>2026-04-06T12:51:24.001Z</time></trkpt><trkpt lat="44.0699273597175" lon="10.92944163689086"><ele>763.0</ele><time>2026-04-06T12:51:28.001Z</time></trkpt><trkpt lat="44.07000531232243" lon="10.92938872628265"><ele>763.0</ele><time>2026-04-06T12:51:31.001Z</time></trkpt><trkpt lat="44.0700763666278" lon="10.929336573100436"><ele>763.0</ele><time>2026-04-06T12:51:34.001Z</time></trkpt><trkpt lat="44.07014301831963" lon="10.929329878679638"><ele>763.0</ele><time>2026-04-06T12:51:37.001Z</time></trkpt><trkpt lat="44.070209039418515" lon="10.929331135636279"><ele>763.0</ele><time>2026-04-06T12:51:39.001Z</time></trkpt><trkpt lat="44.070293406808915" lon="10.929365771950284"><ele>760.0</ele><time>2026-04-06T12:51:42.001Z</time></trkpt><trkpt lat="44.070364789668126" lon="10.92939312794652"><ele>757.0</ele><time>2026-04-06T12:51:44.001Z</time></trkpt><trkpt lat="44.07044143793761" lon="10.929426609132856"><ele>754.0</ele><time>2026-04-06T12:51:46.001Z</time></trkpt><trkpt lat="44.0705366089243" lon="10.929426489511332"><ele>751.0</ele><time>2026-04-06T12:51:48.001Z</time></trkpt><trkpt lat="44.07064360315891" lon="10.92948158936979"><ele>748.0</ele><time>2026-04-06T12:51:50.001Z</time></trkpt><trkpt lat="44.070748081707684" lon="10.929546928123528"><ele>746.6666666666667</ele><time>2026-04-06T12:51:52.001Z</time></trkpt><trkpt lat="44.07084373204485" lon="10.92961630898957"><ele>745.3333333333334</ele><time>2026-04-06T12:51:54.001Z</time></trkpt><trkpt lat="44.0709320474281" lon="10.929674597690326"><ele>744.0</ele><time>2026-04-06T12:51:56.001Z</time></trkpt><trkpt lat="44.071012714507866" lon="10.929724846243023"><ele>742.6666666666666</ele><time>2026-04-06T12:51:58.001Z</time></trkpt><trkpt lat="44.071071360944686" lon="10.929767352915416"><ele>741.3333333333333</ele><time>2026-04-06T12:52:00.001Z</time></trkpt><trkpt lat="44.07111782938801" lon="10.929826659080783"><ele>740.0</ele><time>2026-04-06T12:52:02.001Z</time></trkpt><trkpt lat="44.07115454212346" lon="10.929906477989293"><ele>740.0</ele><time>2026-04-06T12:52:04.001Z</time></trkpt><trkpt lat="44.0712088970207" lon="10.929983990576682"><ele>740.0</ele><time>2026-04-06T12:52:06.001Z</time></trkpt><trkpt lat="44.07125334869099" lon="10.930086720892948"><ele>740.0</ele><time>2026-04-06T12:52:08.001Z</time></trkpt><trkpt lat="44.07131930925106" lon="10.930191281949654"><ele>740.0</ele><time>2026-04-06T12:52:10.001Z</time></trkpt><trkpt lat="44.07139865070905" lon="10.93029974600497"><ele>740.0</ele><time>2026-04-06T12:52:12.001Z</time></trkpt><trkpt lat="44.071443579792366" lon="10.930413534028624"><ele>742.0</ele><time>2026-04-06T12:52:14.001Z</time></trkpt><trkpt lat="44.071483495839" lon="10.930552751088976"><ele>744.0</ele><time>2026-04-06T12:52:16.001Z</time></trkpt><trkpt lat="44.07152836199652" lon="10.93063413836773"><ele>746.0</ele><time>2026-04-06T12:52:18.001Z</time></trkpt><trkpt lat="44.07152708965501" lon="10.930742157113908"><ele>748.0</ele><time>2026-04-06T12:52:21.001Z</time></trkpt><trkpt lat="44.071520924336276" lon="10.930837589847856"><ele>750.0</ele><time>2026-04-06T12:52:23.001Z</time></trkpt><trkpt lat="44.071549269594094" lon="10.93093962625562"><ele>752.0</ele><time>2026-04-06T12:52:25.001Z</time></trkpt><trkpt lat="44.07163324424472" lon="10.930939824054176"><ele>747.6</ele><time>2026-04-06T12:52:28.001Z</time></trkpt><trkpt lat="44.0717096991198" lon="10.930870056119867"><ele>743.2</ele><time>2026-04-06T12:52:31.001Z</time></trkpt><trkpt lat="44.07177912437132" lon="10.930762094055256"><ele>738.8</ele><time>2026-04-06T12:52:33.001Z</time></trkpt><trkpt lat="44.071861848204726" lon="10.930655782295526"><ele>734.4</ele><time>2026-04-06T12:52:35.001Z</time></trkpt><trkpt lat="44.07194117565934" lon="10.930573007842723"><ele>730.0</ele><time>2026-04-06T12:52:37.001Z</time></trkpt><trkpt lat="44.07198826966771" lon="10.930502288002888"><ele>730.0</ele><time>2026-04-06T12:52:39.001Z</time></trkpt><trkpt lat="44.07203321980478" lon="10.930426572729077"><ele>730.0</ele><time>2026-04-06T12:52:41.001Z</time></trkpt><trkpt lat="44.072056889643704" lon="10.930332613299756"><ele>730.0</ele><time>2026-04-06T12:52:43.001Z</time></trkpt><trkpt lat="44.07211342357576" lon="10.930287872199834"><ele>730.0</ele><time>2026-04-06T12:52:45.001Z</time></trkpt><trkpt lat="44.072192389855" lon="10.930216427339548"><ele>730.0</ele><time>2026-04-06T12:52:47.001Z</time></trkpt><trkpt lat="44.07228743695989" lon="10.930167857206541"><ele>730.0</ele><time>2026-04-06T12:52:49.001Z</time></trkpt><trkpt lat="44.072380743408765" lon="10.93015398104063"><ele>729.0</ele><time>2026-04-06T12:52:51.001Z</time></trkpt><trkpt lat="44.07244489190959" lon="10.930138724401704"><ele>728.0</ele><time>2026-04-06T12:52:53.001Z</time></trkpt><trkpt lat="44.072513511506735" lon="10.930162753596475"><ele>727.0</ele><time>2026-04-06T12:52:55.001Z</time></trkpt><trkpt lat="44.072578730870795" lon="10.9302467635324"><ele>726.0</ele><time>2026-04-06T12:52:57.001Z</time></trkpt><trkpt lat="44.072591943902" lon="10.930333666938143"><ele>725.0</ele><time>2026-04-06T12:52:59.001Z</time></trkpt><trkpt lat="44.07257403618637" lon="10.93045116832181"><ele>724.0</ele><time>2026-04-06T12:53:02.001Z</time></trkpt><trkpt lat="44.07259732033281" lon="10.930551107550045"><ele>724.0</ele><time>2026-04-06T12:53:05.001Z</time></trkpt><trkpt lat="44.072649197341406" lon="10.930605093905223"><ele>724.0</ele><time>2026-04-06T12:53:07.002Z</time></trkpt><trkpt lat="44.0727182889728" lon="10.930655642603396"><ele>724.0</ele><time>2026-04-06T12:53:09.001Z</time></trkpt><trkpt lat="44.072801223230115" lon="10.930707023391777"><ele>724.0</ele><time>2026-04-06T12:53:11.001Z</time></trkpt><trkpt lat="44.07288497693822" lon="10.930727195183435"><ele>724.0</ele><time>2026-04-06T12:53:13.001Z</time></trkpt><trkpt lat="44.07298010163916" lon="10.93072702166209"><ele>724.0</ele><time>2026-04-06T12:53:15.002Z</time></trkpt><trkpt lat="44.07304702652409" lon="10.930763821607766"><ele>724.0</ele><time>2026-04-06T12:53:17.001Z</time></trkpt><trkpt lat="44.073111308041106" lon="10.930774364887917"><ele>724.0</ele><time>2026-04-06T12:53:19.001Z</time></trkpt><trkpt lat="44.07317118714881" lon="10.930825958813244"><ele>724.0</ele><time>2026-04-06T12:53:22.002Z</time></trkpt><trkpt lat="44.07326088243391" lon="10.930869293922589"><ele>724.0</ele><time>2026-04-06T12:53:25.002Z</time></trkpt><trkpt lat="44.07333353428475" lon="10.93092812328497"><ele>724.0</ele><time>2026-04-06T12:53:28.002Z</time></trkpt><trkpt lat="44.073406588530624" lon="10.930947947738547"><ele>724.0</ele><time>2026-04-06T12:53:31.002Z</time></trkpt><trkpt lat="44.073467793519676" lon="10.930992449475657"><ele>724.5</ele><time>2026-04-06T12:53:33.002Z</time></trkpt><trkpt lat="44.07354392752891" lon="10.931043672669244"><ele>725.0</ele><time>2026-04-06T12:53:36.002Z</time></trkpt><trkpt lat="44.07357745281266" lon="10.93113487431383"><ele>725.5</ele><time>2026-04-06T12:53:40.002Z</time></trkpt><trkpt lat="44.07359774524148" lon="10.931240262739394"><ele>726.0</ele><time>2026-04-06T12:53:44.002Z</time></trkpt><trkpt lat="44.07361737248893" lon="10.931328002366707"><ele>726.5</ele><time>2026-04-06T12:53:50.002Z</time></trkpt><trkpt lat="44.073617256353465" lon="10.931459822975416"><ele>727.0</ele><time>2026-04-06T12:53:55.002Z</time></trkpt><trkpt lat="44.073618287871874" lon="10.931555480043862"><ele>727.0</ele><time>2026-04-06T12:53:58.002Z</time></trkpt><trkpt lat="44.07360387888731" lon="10.931643333858501"><ele>727.0</ele><time>2026-04-06T12:54:02.002Z</time></trkpt><trkpt lat="44.073639482533586" lon="10.931752429528512"><ele>727.0</ele><time>2026-04-06T12:54:06.002Z</time></trkpt><trkpt lat="44.07367777323793" lon="10.93183380118963"><ele>727.0</ele><time>2026-04-06T12:54:10.002Z</time></trkpt><trkpt lat="44.07367690752399" lon="10.931924839915444"><ele>727.0</ele><time>2026-04-06T12:54:15.002Z</time></trkpt><trkpt lat="44.07371605951335" lon="10.93200615818973"><ele>727.0</ele><time>2026-04-06T12:54:34.002Z</time></trkpt><trkpt lat="44.07378748814456" lon="10.932061645467119"><ele>727.0</ele><time>2026-04-06T12:54:56.002Z</time></trkpt><trkpt lat="44.07374271648095" lon="10.931987549205585"><ele>727.0</ele><time>2026-04-06T12:56:27Z</time></trkpt><trkpt lat="44.07374201659439" lon="10.931887829420425"><ele>727.0</ele><time>2026-04-06T12:56:31Z</time></trkpt><trkpt lat="44.0737572800877" lon="10.931802685239335"><ele>727.0</ele><time>2026-04-06T12:56:34Z</time></trkpt><trkpt lat="44.07371047954507" lon="10.931722654437843"><ele>727.0</ele><time>2026-04-06T12:56:40Z</time></trkpt><trkpt lat="44.0736662893753" lon="10.931626291757851"><ele>727.0</ele><time>2026-04-06T12:56:45Z</time></trkpt><trkpt lat="44.07362625599168" lon="10.931538183400239"><ele>727.0</ele><time>2026-04-06T12:56:49Z</time></trkpt><trkpt lat="44.07359961449151" lon="10.93143306572463"><ele>727.0</ele><time>2026-04-06T12:56:52Z</time></trkpt><trkpt lat="44.07357657581011" lon="10.931333409733595"><ele>727.0</ele><time>2026-04-06T12:56:55Z</time></trkpt><trkpt lat="44.073526570151635" lon="10.931257880328838"><ele>727.0</ele><time>2026-04-06T12:56:57Z</time></trkpt><trkpt lat="44.07349308737836" lon="10.931164235893633"><ele>727.0</ele><time>2026-04-06T12:57:00Z</time></trkpt><trkpt lat="44.07344088739483" lon="10.93106320722807"><ele>727.0</ele><time>2026-04-06T12:57:03Z</time></trkpt><trkpt lat="44.073388957590765" lon="10.930998536945484"><ele>727.0</ele><time>2026-04-06T12:57:05Z</time></trkpt><trkpt lat="44.07334831338544" lon="10.930931525121979"><ele>727.0</ele><time>2026-04-06T12:57:06Z</time></trkpt><trkpt lat="44.07327149097726" lon="10.930844425794339"><ele>726.5</ele><time>2026-04-06T12:57:08Z</time></trkpt><trkpt lat="44.07320753668504" lon="10.930808138587182"><ele>726.0</ele><time>2026-04-06T12:57:10Z</time></trkpt><trkpt lat="44.073128037565326" lon="10.930802992126555"><ele>725.5</ele><time>2026-04-06T12:57:13Z</time></trkpt><trkpt lat="44.07303544996119" lon="10.930784620982696"><ele>725.0</ele><time>2026-04-06T12:57:16Z</time></trkpt><trkpt lat="44.072948819587964" lon="10.930747631968494"><ele>724.5</ele><time>2026-04-06T12:57:19Z</time></trkpt><trkpt lat="44.07286793784958" lon="10.930693379666128"><ele>724.0</ele><time>2026-04-06T12:57:22Z</time></trkpt><trkpt lat="44.07279944391385" lon="10.930680094841406"><ele>724.0</ele><time>2026-04-06T12:57:25Z</time></trkpt><trkpt lat="44.07273214182617" lon="10.930633345799679"><ele>724.0</ele><time>2026-04-06T12:57:28Z</time></trkpt><trkpt lat="44.07274770214697" lon="10.930534315942237"><ele>724.0</ele><time>2026-04-06T12:57:32Z</time></trkpt><trkpt lat="44.072736056247436" lon="10.930398469095078"><ele>724.0</ele><time>2026-04-06T12:57:35.999Z</time></trkpt><trkpt lat="44.07273769710111" lon="10.930303801696448"><ele>724.0</ele><time>2026-04-06T12:57:38.999Z</time></trkpt><trkpt lat="44.0726816345315" lon="10.930242602480515"><ele>724.0</ele><time>2026-04-06T12:57:41.999Z</time></trkpt><trkpt lat="44.07261878711426" lon="10.930188673704768"><ele>724.0</ele><time>2026-04-06T12:57:46.999Z</time></trkpt><trkpt lat="44.07270832385417" lon="10.93021673687063"><ele>724.0</ele><time>2026-04-06T12:57:53.999Z</time></trkpt><trkpt lat="44.07274020444368" lon="10.930306635242793"><ele>724.0</ele><time>2026-04-06T12:57:55.999Z</time></trkpt><trkpt lat="44.07274831467615" lon="10.930425915355922"><ele>724.0</ele><time>2026-04-06T12:57:58.999Z</time></trkpt><trkpt lat="44.072816464077704" lon="10.930424633183303"><ele>724.0</ele><time>2026-04-06T12:58:04Z</time></trkpt><trkpt lat="44.07289757647436" lon="10.930411405261783"><ele>724.0</ele><time>2026-04-06T12:58:08Z</time></trkpt><trkpt lat="44.07293168270603" lon="10.930328387355818"><ele>724.0</ele><time>2026-04-06T12:58:12Z</time></trkpt><trkpt lat="44.072993839793845" lon="10.930273807146666"><ele>724.0</ele><time>2026-04-06T12:58:15Z</time></trkpt><trkpt lat="44.073052430568" lon="10.930231338305202"><ele>724.0</ele><time>2026-04-06T13:01:10Z</time></trkpt><trkpt lat="44.07298547979219" lon="10.930303189920023"><ele>724.0</ele><time>2026-04-06T13:02:00Z</time></trkpt><trkpt lat="44.072959698521856" lon="10.93039609261414"><ele>724.0</ele><time>2026-04-06T13:02:03Z</time></trkpt><trkpt lat="44.0728928100965" lon="10.930405129097275"><ele>724.0</ele><time>2026-04-06T13:02:09Z</time></trkpt><trkpt lat="44.07284301227622" lon="10.930334598903432"><ele>724.0</ele><time>2026-04-06T13:02:12Z</time></trkpt><trkpt lat="44.0728134612481" lon="10.93023942146268"><ele>724.0</ele><time>2026-04-06T13:02:16Z</time></trkpt><trkpt lat="44.07276981496174" lon="10.930168825699633"><ele>724.0</ele><time>2026-04-06T13:02:19Z</time></trkpt><trkpt lat="44.07271251200072" lon="10.930114859828135"><ele>724.0</ele><time>2026-04-06T13:02:22Z</time></trkpt><trkpt lat="44.07262812920436" lon="10.93009362610655"><ele>724.0</ele><time>2026-04-06T13:02:25Z</time></trkpt><trkpt lat="44.072563742434006" lon="10.93010461682647"><ele>724.0</ele><time>2026-04-06T13:02:28Z</time></trkpt><trkpt lat="44.07249060493096" lon="10.930116080931807"><ele>724.0</ele><time>2026-04-06T13:02:31Z</time></trkpt><trkpt lat="44.07242228056012" lon="10.930134313812218"><ele>724.0</ele><time>2026-04-06T13:02:34Z</time></trkpt><trkpt lat="44.0723528292847" lon="10.93014532103854"><ele>724.8571428571429</ele><time>2026-04-06T13:02:37Z</time></trkpt><trkpt lat="44.0722739991897" lon="10.930165818980614"><ele>725.7142857142857</ele><time>2026-04-06T13:02:41Z</time></trkpt><trkpt lat="44.07221061852464" lon="10.930210694068357"><ele>726.5714285714287</ele><time>2026-04-06T13:02:44Z</time></trkpt><trkpt lat="44.07217375434358" lon="10.93028472523847"><ele>727.4285714285714</ele><time>2026-04-06T13:02:47Z</time></trkpt><trkpt lat="44.072147230418395" lon="10.930366092031983"><ele>728.2857142857143</ele><time>2026-04-06T13:02:50Z</time></trkpt><trkpt lat="44.07211903147095" lon="10.930468364484835"><ele>729.1428571428572</ele><time>2026-04-06T13:02:54Z</time></trkpt><trkpt lat="44.072088395973914" lon="10.930556225901213"><ele>730.0</ele><time>2026-04-06T13:02:58Z</time></trkpt><trkpt lat="44.072024042354215" lon="10.930629334874402"><ele>730.0000000000001</ele><time>2026-04-06T13:03:02Z</time></trkpt><trkpt lat="44.07198275543632" lon="10.930699601889826"><ele>730.0</ele><time>2026-04-06T13:03:05Z</time></trkpt><trkpt lat="44.07193286332661" lon="10.930786802323208"><ele>730.0</ele><time>2026-04-06T13:03:09Z</time></trkpt><trkpt lat="44.07189258933636" lon="10.930879276276567"><ele>730.0</ele><time>2026-04-06T13:03:12Z</time></trkpt><trkpt lat="44.071848491866874" lon="10.93095372911627"><ele>730.0</ele><time>2026-04-06T13:03:15Z</time></trkpt><trkpt lat="44.07179986395352" lon="10.931028310141299"><ele>730.0000000000001</ele><time>2026-04-06T13:03:19Z</time></trkpt><trkpt lat="44.07173040334272" lon="10.931081853615686"><ele>730.0</ele><time>2026-04-06T13:03:23Z</time></trkpt><trkpt lat="44.071766379860286" lon="10.93100008796886"><ele>730.0</ele><time>2026-04-06T13:03:32Z</time></trkpt><trkpt lat="44.07180667111795" lon="10.930910596437933"><ele>730.0</ele><time>2026-04-06T13:03:38Z</time></trkpt><trkpt lat="44.0717927724914" lon="10.930818606109515"><ele>730.0</ele><time>2026-04-06T13:03:42Z</time></trkpt><trkpt lat="44.07174733680913" lon="10.930727520217705"><ele>730.0</ele><time>2026-04-06T13:03:45.001Z</time></trkpt><trkpt lat="44.071671609718095" lon="10.930630368904348"><ele>730.0</ele><time>2026-04-06T13:03:47Z</time></trkpt><trkpt lat="44.07162551208587" lon="10.930550092742818"><ele>730.0</ele><time>2026-04-06T13:03:50.001Z</time></trkpt><trkpt lat="44.07158130379679" lon="10.930467455294488"><ele>731.6666666666667</ele><time>2026-04-06T13:03:53Z</time></trkpt><trkpt lat="44.07152460408193" lon="10.93037950190731"><ele>733.3333333333334</ele><time>2026-04-06T13:03:57Z</time></trkpt><trkpt lat="44.07146825747326" lon="10.930307440122652"><ele>735.0</ele><time>2026-04-06T13:04:00Z</time></trkpt><trkpt lat="44.07143279231341" lon="10.930219123726566"><ele>736.6666666666666</ele><time>2026-04-06T13:04:03Z</time></trkpt><trkpt lat="44.07140056799534" lon="10.930118275500561"><ele>738.3333333333333</ele><time>2026-04-06T13:04:07Z</time></trkpt><trkpt lat="44.07136932534575" lon="10.930013156280582"><ele>740.0</ele><time>2026-04-06T13:04:11Z</time></trkpt><trkpt lat="44.07130093275429" lon="10.929944107607499"><ele>739.9999999999999</ele><time>2026-04-06T13:04:14Z</time></trkpt><trkpt lat="44.07124569776762" lon="10.92986544776034"><ele>740.0</ele><time>2026-04-06T13:04:17Z</time></trkpt><trkpt lat="44.07119154621416" lon="10.929806504535453"><ele>740.0</ele><time>2026-04-06T13:04:20Z</time></trkpt><trkpt lat="44.07113297543217" lon="10.929765527270481"><ele>740.0</ele><time>2026-04-06T13:04:23Z</time></trkpt><trkpt lat="44.07106940932732" lon="10.929713542992525"><ele>740.0</ele><time>2026-04-06T13:04:26Z</time></trkpt><trkpt lat="44.07107462639042" lon="10.929801738873172"><ele>739.9999999999999</ele><time>2026-04-06T13:04:37Z</time></trkpt><trkpt lat="44.07112016969109" lon="10.929867979231636"><ele>740.0</ele><time>2026-04-06T13:04:42Z</time></trkpt><trkpt lat="44.07113324225248" lon="10.929957048790893"><ele>743.2857142857142</ele><time>2026-04-06T13:04:47Z</time></trkpt><trkpt lat="44.07111870383675" lon="10.930061399642623"><ele>746.5714285714286</ele><time>2026-04-06T13:04:53Z</time></trkpt><trkpt lat="44.071132612627274" lon="10.93014882614414"><ele>749.8571428571429</ele><time>2026-04-06T13:04:59Z</time></trkpt><trkpt lat="44.07116053135542" lon="10.930241668839566"><ele>753.1428571428571</ele><time>2026-04-06T13:05:04Z</time></trkpt><trkpt lat="44.071187113006644" lon="10.930343081500254"><ele>756.4285714285714</ele><time>2026-04-06T13:05:08Z</time></trkpt><trkpt lat="44.071221380508646" lon="10.930424282462086"><ele>759.7142857142857</ele><time>2026-04-06T13:05:11Z</time></trkpt><trkpt lat="44.071260454569334" lon="10.930526483098136"><ele>763.0</ele><time>2026-04-06T13:05:15Z</time></trkpt><trkpt lat="44.07127358970078" lon="10.930632722063331"><ele>763.0</ele><time>2026-04-06T13:05:19Z</time></trkpt><trkpt lat="44.071287281172516" lon="10.93073314579206"><ele>763.0</ele><time>2026-04-06T13:05:23Z</time></trkpt><trkpt lat="44.07129286291219" lon="10.930836905166526"><ele>763.0</ele><time>2026-04-06T13:05:27Z</time></trkpt><trkpt lat="44.071296117822165" lon="10.930950023703238"><ele>763.0</ele><time>2026-04-06T13:05:31Z</time></trkpt><trkpt lat="44.071299211117974" lon="10.931040740105088"><ele>763.0</ele><time>2026-04-06T13:05:34Z</time></trkpt><trkpt lat="44.071281466448674" lon="10.931136287267481"><ele>763.0</ele><time>2026-04-06T13:05:38Z</time></trkpt><trkpt lat="44.07126465163172" lon="10.93122527999245"><ele>763.0</ele><time>2026-04-06T13:05:41Z</time></trkpt><trkpt lat="44.07126299289188" lon="10.931326048219358"><ele>765.1428571428571</ele><time>2026-04-06T13:05:45Z</time></trkpt><trkpt lat="44.07123703862274" lon="10.931426519293522"><ele>767.2857142857142</ele><time>2026-04-06T13:05:49Z</time></trkpt><trkpt lat="44.071202722262925" lon="10.931511554698229"><ele>769.4285714285714</ele><time>2026-04-06T13:05:53Z</time></trkpt><trkpt lat="44.071178415215385" lon="10.931592597637195"><ele>771.5714285714286</ele><time>2026-04-06T13:05:58Z</time></trkpt><trkpt lat="44.0711707241243" lon="10.93168622766429"><ele>773.7142857142857</ele><time>2026-04-06T13:06:02Z</time></trkpt><trkpt lat="44.071146896643015" lon="10.931789730762663"><ele>775.8571428571429</ele><time>2026-04-06T13:06:06Z</time></trkpt><trkpt lat="44.07110773664505" lon="10.931892336953553"><ele>778.0</ele><time>2026-04-06T13:06:09Z</time></trkpt><trkpt lat="44.071161365559384" lon="10.931944824790577"><ele>777.9999999999999</ele><time>2026-04-06T13:06:14Z</time></trkpt><trkpt lat="44.071224787547834" lon="10.931956803349129"><ele>778.0</ele><time>2026-04-06T13:06:22Z</time></trkpt><trkpt lat="44.0713035745894" lon="10.9319532226011"><ele>778.0</ele><time>2026-04-06T13:06:27Z</time></trkpt><trkpt lat="44.071371072709894" lon="10.931927307942916"><ele>778.0</ele><time>2026-04-06T13:06:31Z</time></trkpt><trkpt lat="44.07144755138503" lon="10.9319446098633"><ele>777.9999999999999</ele><time>2026-04-06T13:06:35Z</time></trkpt><trkpt lat="44.07152693308992" lon="10.931970576246538"><ele>778.0</ele><time>2026-04-06T13:06:39Z</time></trkpt><trkpt lat="44.07161171457292" lon="10.93198738700088"><ele>777.9999999999999</ele><time>2026-04-06T13:06:43Z</time></trkpt><trkpt lat="44.07169420492187" lon="10.931974471426827"><ele>778.0</ele><time>2026-04-06T13:06:46Z</time></trkpt><trkpt lat="44.071779130037726" lon="10.931970484760356"><ele>778.0</ele><time>2026-04-06T13:06:49Z</time></trkpt><trkpt lat="44.071867872003516" lon="10.931962078121233"><ele>778.0</ele><time>2026-04-06T13:06:53Z</time></trkpt><trkpt lat="44.071947976447895" lon="10.931965614439713"><ele>777.9999999999999</ele><time>2026-04-06T13:06:56Z</time></trkpt><trkpt lat="44.07202116100823" lon="10.9319589220657"><ele>778.0</ele><time>2026-04-06T13:06:59Z</time></trkpt><trkpt lat="44.07211086982851" lon="10.932000490148653"><ele>778.0</ele><time>2026-04-06T13:07:03Z</time></trkpt><trkpt lat="44.07217803131653" lon="10.93204969713384"><ele>778.0</ele><time>2026-04-06T13:07:06Z</time></trkpt><trkpt lat="44.07223463269369" lon="10.932094000378086"><ele>778.0</ele><time>2026-04-06T13:07:09Z</time></trkpt><trkpt lat="44.072310972776684" lon="10.932159165749438"><ele>778.0</ele><time>2026-04-06T13:07:13Z</time></trkpt><trkpt lat="44.072357999666856" lon="10.932225963176025"><ele>778.0</ele><time>2026-04-06T13:07:16Z</time></trkpt><trkpt lat="44.072404529298936" lon="10.932294244866863"><ele>778.0</ele><time>2026-04-06T13:07:19Z</time></trkpt><trkpt lat="44.072452841057945" lon="10.932357780721002"><ele>778.0</ele><time>2026-04-06T13:07:23Z</time></trkpt><trkpt lat="44.07248948691396" lon="10.932467657279853"><ele>777.1428571428572</ele><time>2026-04-06T13:07:27Z</time></trkpt><trkpt lat="44.07251845313575" lon="10.93255109285674"><ele>776.2857142857142</ele><time>2026-04-06T13:07:30Z</time></trkpt><trkpt lat="44.0725498748297" lon="10.932630879239268"><ele>775.4285714285714</ele><time>2026-04-06T13:07:33Z</time></trkpt><trkpt lat="44.072589708716116" lon="10.932707806171864"><ele>774.5714285714287</ele><time>2026-04-06T13:07:36Z</time></trkpt><trkpt lat="44.07262760339509" lon="10.932804961923017"><ele>773.7142857142858</ele><time>2026-04-06T13:07:39Z</time></trkpt><trkpt lat="44.07264852533577" lon="10.932915726371796"><ele>772.8571428571429</ele><time>2026-04-06T13:07:43Z</time></trkpt><trkpt lat="44.072661599444345" lon="10.933010335670188"><ele>772.0</ele><time>2026-04-06T13:07:46Z</time></trkpt><trkpt lat="44.07269444094408" lon="10.933111083293076"><ele>774.7142857142858</ele><time>2026-04-06T13:07:50Z</time></trkpt><trkpt lat="44.07270534583802" lon="10.933198590678929"><ele>777.4285714285714</ele><time>2026-04-06T13:07:53Z</time></trkpt><trkpt lat="44.07271091436299" lon="10.933290549567772"><ele>780.1428571428571</ele><time>2026-04-06T13:07:56Z</time></trkpt><trkpt lat="44.072728094486266" lon="10.933386151465015"><ele>782.8571428571429</ele><time>2026-04-06T13:08:00.001Z</time></trkpt><trkpt lat="44.07276345091689" lon="10.933464510445491"><ele>785.5714285714286</ele><time>2026-04-06T13:08:03.001Z</time></trkpt><trkpt lat="44.07280054055821" lon="10.933542367552487"><ele>788.2857142857143</ele><time>2026-04-06T13:08:06Z</time></trkpt><trkpt lat="44.072836843272576" lon="10.933627197040892"><ele>791.0</ele><time>2026-04-06T13:08:09Z</time></trkpt><trkpt lat="44.0728737083224" lon="10.933716138075694"><ele>793.5000000000001</ele><time>2026-04-06T13:08:12Z</time></trkpt><trkpt lat="44.07289416857731" lon="10.933822646478594"><ele>796.0</ele><time>2026-04-06T13:08:15Z</time></trkpt><trkpt lat="44.07289810445787" lon="10.933918482360562"><ele>798.5</ele><time>2026-04-06T13:08:18Z</time></trkpt><trkpt lat="44.07290772898311" lon="10.93403402432142"><ele>801.0</ele><time>2026-04-06T13:08:21Z</time></trkpt><trkpt lat="44.072924059668786" lon="10.934133177823046"><ele>803.5000000000001</ele><time>2026-04-06T13:08:24.001Z</time></trkpt><trkpt lat="44.07297515877856" lon="10.934223316294426"><ele>806.0</ele><time>2026-04-06T13:08:27.001Z</time></trkpt><trkpt lat="44.07303694098157" lon="10.934294932506456"><ele>804.1666666666667</ele><time>2026-04-06T13:08:30.001Z</time></trkpt><trkpt lat="44.07308653248478" lon="10.934354502344567"><ele>802.3333333333334</ele><time>2026-04-06T13:08:33.001Z</time></trkpt><trkpt lat="44.073151127497255" lon="10.934442157849219"><ele>800.5</ele><time>2026-04-06T13:08:36.001Z</time></trkpt><trkpt lat="44.07320369677486" lon="10.934524516117246"><ele>798.6666666666667</ele><time>2026-04-06T13:08:39.001Z</time></trkpt><trkpt lat="44.07324425297673" lon="10.934597949573314"><ele>796.8333333333334</ele><time>2026-04-06T13:08:42.001Z</time></trkpt><trkpt lat="44.07332275993942" lon="10.934627633120824"><ele>795.0</ele><time>2026-04-06T13:08:46.001Z</time></trkpt><trkpt lat="44.073393926298415" lon="10.934653491027506"><ele>795.0</ele><time>2026-04-06T13:08:50.001Z</time></trkpt><trkpt lat="44.07343710796381" lon="10.934776727825772"><ele>795.0</ele><time>2026-04-06T13:09:14.001Z</time></trkpt><trkpt lat="44.07338411517908" lon="10.934856222974"><ele>795.0</ele><time>2026-04-06T13:10:27.001Z</time></trkpt><trkpt lat="44.07334386775269" lon="10.934786501654903"><ele>795.0</ele><time>2026-04-06T13:10:34.001Z</time></trkpt><trkpt lat="44.07332142389674" lon="10.934696351839687"><ele>795.0</ele><time>2026-04-06T13:10:38.001Z</time></trkpt><trkpt lat="44.07328080330403" lon="10.934622470583614"><ele>795.0</ele><time>2026-04-06T13:10:42.001Z</time></trkpt><trkpt lat="44.07320649253343" lon="10.93458767695806"><ele>797.2</ele><time>2026-04-06T13:10:46.001Z</time></trkpt><trkpt lat="44.073172183240814" lon="10.934488189188652"><ele>799.4</ele><time>2026-04-06T13:10:49.001Z</time></trkpt><trkpt lat="44.07317783939818" lon="10.934354838359795"><ele>801.5999999999999</ele><time>2026-04-06T13:10:52.001Z</time></trkpt><trkpt lat="44.07319716420518" lon="10.934233495564044"><ele>803.8</ele><time>2026-04-06T13:10:55.001Z</time></trkpt><trkpt lat="44.07317489519048" lon="10.93409719251129"><ele>806.0</ele><time>2026-04-06T13:10:59.001Z</time></trkpt><trkpt lat="44.07311974776787" lon="10.934000910406024"><ele>806.0</ele><time>2026-04-06T13:11:01.001Z</time></trkpt><trkpt lat="44.07308305682707" lon="10.933900616239196"><ele>806.0</ele><time>2026-04-06T13:11:03.001Z</time></trkpt><trkpt lat="44.07305663766313" lon="10.933809057486537"><ele>806.0</ele><time>2026-04-06T13:11:05.001Z</time></trkpt><trkpt lat="44.07304410193858" lon="10.933720573975766"><ele>806.0</ele><time>2026-04-06T13:11:07.001Z</time></trkpt><trkpt lat="44.073023645595946" lon="10.933625958101176"><ele>806.0</ele><time>2026-04-06T13:11:09.001Z</time></trkpt><trkpt lat="44.07301264348295" lon="10.933536496573822"><ele>806.0</ele><time>2026-04-06T13:11:11.001Z</time></trkpt><trkpt lat="44.07299520513776" lon="10.933450328765373"><ele>806.0</ele><time>2026-04-06T13:11:13.001Z</time></trkpt><trkpt lat="44.072980239601705" lon="10.933339393343848"><ele>803.5000000000001</ele><time>2026-04-06T13:11:15.001Z</time></trkpt><trkpt lat="44.07295014773043" lon="10.93323350262662"><ele>801.0</ele><time>2026-04-06T13:11:17.001Z</time></trkpt><trkpt lat="44.07293984209942" lon="10.933143559379037"><ele>798.5</ele><time>2026-04-06T13:11:19.001Z</time></trkpt><trkpt lat="44.07288717443819" lon="10.933079837165396"><ele>796.0</ele><time>2026-04-06T13:11:20.001Z</time></trkpt><trkpt lat="44.07282547521448" lon="10.932927490640603"><ele>793.5000000000001</ele><time>2026-04-06T13:11:22.001Z</time></trkpt><trkpt lat="44.07280290382925" lon="10.932820213704908"><ele>791.0</ele><time>2026-04-06T13:11:24.001Z</time></trkpt><trkpt lat="44.07275480244659" lon="10.93270894818696"><ele>791.0</ele><time>2026-04-06T13:11:26.001Z</time></trkpt><trkpt lat="44.07272033672124" lon="10.932608150883286"><ele>791.0</ele><time>2026-04-06T13:11:28.001Z</time></trkpt><trkpt lat="44.07266108773646" lon="10.93251468544437"><ele>791.0</ele><time>2026-04-06T13:11:30.001Z</time></trkpt><trkpt lat="44.072618754052534" lon="10.932417805667493"><ele>791.0</ele><time>2026-04-06T13:11:32.001Z</time></trkpt><trkpt lat="44.072527195072276" lon="10.93231506043375"><ele>791.0</ele><time>2026-04-06T13:11:34.001Z</time></trkpt><trkpt lat="44.072425163380444" lon="10.93223678990437"><ele>788.8333333333334</ele><time>2026-04-06T13:11:36.001Z</time></trkpt><trkpt lat="44.07234507671056" lon="10.932182183497293"><ele>786.6666666666667</ele><time>2026-04-06T13:11:38.001Z</time></trkpt><trkpt lat="44.07225770130709" lon="10.932140660982684"><ele>784.5</ele><time>2026-04-06T13:11:40.001Z</time></trkpt><trkpt lat="44.07214972506001" lon="10.93213857584928"><ele>782.3333333333333</ele><time>2026-04-06T13:11:42.001Z</time></trkpt><trkpt lat="44.072087187813594" lon="10.93215711242398"><ele>780.1666666666666</ele><time>2026-04-06T13:11:43.001Z</time></trkpt><trkpt lat="44.072014422514336" lon="10.932164837701905"><ele>778.0</ele><time>2026-04-06T13:11:44.001Z</time></trkpt><trkpt lat="44.071948108227524" lon="10.932170126980898"><ele>778.0</ele><time>2026-04-06T13:11:45.001Z</time></trkpt><trkpt lat="44.07183424219875" lon="10.932167210085655"><ele>778.0</ele><time>2026-04-06T13:11:47.001Z</time></trkpt><trkpt lat="44.07176757519651" lon="10.93216878207285"><ele>778.0</ele><time>2026-04-06T13:11:48.001Z</time></trkpt><trkpt lat="44.07164390662699" lon="10.932190521655725"><ele>778.0</ele><time>2026-04-06T13:11:50.001Z</time></trkpt><trkpt lat="44.07157691644844" lon="10.9322040399568"><ele>778.0</ele><time>2026-04-06T13:11:51.001Z</time></trkpt><trkpt lat="44.071479488742035" lon="10.932211340076007"><ele>779.6666666666666</ele><time>2026-04-06T13:11:53.001Z</time></trkpt><trkpt lat="44.07139990973416" lon="10.932227009516122"><ele>781.3333333333333</ele><time>2026-04-06T13:11:55.001Z</time></trkpt><trkpt lat="44.07130370246821" lon="10.93223294643794"><ele>783.0</ele><time>2026-04-06T13:11:58.001Z</time></trkpt><trkpt lat="44.07128339419091" lon="10.932131557174081"><ele>784.6666666666667</ele><time>2026-04-06T13:12:02.001Z</time></trkpt><trkpt lat="44.071343227818204" lon="10.932051470249036"><ele>786.3333333333334</ele><time>2026-04-06T13:12:06.001Z</time></trkpt><trkpt lat="44.071390321756056" lon="10.931962656223416"><ele>788.0</ele><time>2026-04-06T13:12:09Z</time></trkpt><trkpt lat="44.07140464186068" lon="10.931863083891713"><ele>788.0000000000001</ele><time>2026-04-06T13:12:12.001Z</time></trkpt><trkpt lat="44.0714272769836" lon="10.93177168645584"><ele>788.0</ele><time>2026-04-06T13:12:15.001Z</time></trkpt><trkpt lat="44.0714326117659" lon="10.931665173601651"><ele>788.0</ele><time>2026-04-06T13:12:17.001Z</time></trkpt><trkpt lat="44.07145866354097" lon="10.93153286517384"><ele>788.0</ele><time>2026-04-06T13:12:20.001Z</time></trkpt><trkpt lat="44.071435350224675" lon="10.931405335603557"><ele>788.0000000000001</ele><time>2026-04-06T13:12:23.001Z</time></trkpt><trkpt lat="44.07145154841738" lon="10.93127832647769"><ele>788.0</ele><time>2026-04-06T13:12:26.001Z</time></trkpt><trkpt lat="44.071455486336525" lon="10.931188831467134"><ele>786.3333333333334</ele><time>2026-04-06T13:12:32.001Z</time></trkpt><trkpt lat="44.07140502436155" lon="10.931131734743564"><ele>784.6666666666667</ele><time>2026-04-06T13:12:39.001Z</time></trkpt><trkpt lat="44.07140271786164" lon="10.930994389484468"><ele>783.0</ele><time>2026-04-06T13:13:05.001Z</time></trkpt><trkpt lat="44.071396424805535" lon="10.930863848530507"><ele>781.3333333333333</ele><time>2026-04-06T13:13:09.001Z</time></trkpt><trkpt lat="44.0713661878235" lon="10.930775624965701"><ele>779.6666666666666</ele><time>2026-04-06T13:13:11.001Z</time></trkpt><trkpt lat="44.07136811834671" lon="10.930673883716114"><ele>778.0</ele><time>2026-04-06T13:13:13.001Z</time></trkpt><trkpt lat="44.07135273356854" lon="10.93055828700095"><ele>775.4999999999999</ele><time>2026-04-06T13:13:15.001Z</time></trkpt><trkpt lat="44.07132316267979" lon="10.930476666897848"><ele>773.0</ele><time>2026-04-06T13:13:17.001Z</time></trkpt><trkpt lat="44.071307822325785" lon="10.930353255140425"><ele>770.5</ele><time>2026-04-06T13:13:19.001Z</time></trkpt><trkpt lat="44.07128925765052" lon="10.930220559601054"><ele>768.0</ele><time>2026-04-06T13:13:21.001Z</time></trkpt><trkpt lat="44.07125753958926" lon="10.930100425556615"><ele>765.5</ele><time>2026-04-06T13:13:23.001Z</time></trkpt><trkpt lat="44.0712179990774" lon="10.930027931877724"><ele>763.0</ele><time>2026-04-06T13:13:24.001Z</time></trkpt><trkpt lat="44.071186587714614" lon="10.929941576599031"><ele>759.1666666666667</ele><time>2026-04-06T13:13:25.001Z</time></trkpt><trkpt lat="44.0711295817733" lon="10.929850244818569"><ele>755.3333333333334</ele><time>2026-04-06T13:13:26.001Z</time></trkpt><trkpt lat="44.07108204833042" lon="10.929769487706919"><ele>751.5</ele><time>2026-04-06T13:13:27.001Z</time></trkpt><trkpt lat="44.07102586252892" lon="10.929712275382625"><ele>747.6666666666666</ele><time>2026-04-06T13:13:28.001Z</time></trkpt><trkpt lat="44.070941083167334" lon="10.929635451218648"><ele>743.8333333333333</ele><time>2026-04-06T13:13:30.001Z</time></trkpt><trkpt lat="44.07086555358147" lon="10.929563825663111"><ele>740.0</ele><time>2026-04-06T13:13:32.001Z</time></trkpt><trkpt lat="44.07080965280101" lon="10.929519151433297"><ele>741.3333333333333</ele><time>2026-04-06T13:13:34.001Z</time></trkpt><trkpt lat="44.07074370719121" lon="10.929483128016066"><ele>742.6666666666666</ele><time>2026-04-06T13:13:36.001Z</time></trkpt><trkpt lat="44.070663196138405" lon="10.92945023516993"><ele>744.0</ele><time>2026-04-06T13:13:39.001Z</time></trkpt><trkpt lat="44.070584748787276" lon="10.92941824302095"><ele>745.3333333333334</ele><time>2026-04-06T13:13:42.001Z</time></trkpt><trkpt lat="44.07051512245392" lon="10.929399323236488"><ele>746.6666666666667</ele><time>2026-04-06T13:13:45.002Z</time></trkpt><trkpt lat="44.070437327904756" lon="10.929366204229217"><ele>748.0</ele><time>2026-04-06T13:13:49.002Z</time></trkpt><trkpt lat="44.07037674602682" lon="10.929336768056181"><ele>748.0</ele><time>2026-04-06T13:13:52.002Z</time></trkpt><trkpt lat="44.070299225091496" lon="10.929305409116033"><ele>748.0</ele><time>2026-04-06T13:13:56.002Z</time></trkpt><trkpt lat="44.07023544399199" lon="10.92928852673174"><ele>748.0</ele><time>2026-04-06T13:14:01.002Z</time></trkpt><trkpt lat="44.07017190591104" lon="10.929309930816745"><ele>748.0</ele><time>2026-04-06T13:14:05.002Z</time></trkpt><trkpt lat="44.07008905737986" lon="10.929340932669742"><ele>748.0</ele><time>2026-04-06T13:14:08.002Z</time></trkpt><trkpt lat="44.070002504023655" lon="10.9293962607341"><ele>748.0</ele><time>2026-04-06T13:14:11.001Z</time></trkpt><trkpt lat="44.06995632639568" lon="10.92946341047293"><ele>751.0</ele><time>2026-04-06T13:14:13.001Z</time></trkpt><trkpt lat="44.06987967538151" lon="10.929531279318647"><ele>754.0</ele><time>2026-04-06T13:14:16.001Z</time></trkpt><trkpt lat="44.069801066442814" lon="10.92963973870215"><ele>757.0</ele><time>2026-04-06T13:14:18Z</time></trkpt><trkpt lat="44.069706215772925" lon="10.929695828989852"><ele>760.0</ele><time>2026-04-06T13:14:20Z</time></trkpt><trkpt lat="44.069626472336694" lon="10.929690734626938"><ele>763.0</ele><time>2026-04-06T13:14:22.001Z</time></trkpt><trkpt lat="44.06957519269303" lon="10.929597347805608"><ele>763.0</ele><time>2026-04-06T13:14:24.001Z</time></trkpt><trkpt lat="44.06956163654445" lon="10.92950786445201"><ele>763.0</ele><time>2026-04-06T13:14:29.001Z</time></trkpt><trkpt lat="44.069572373117296" lon="10.929412323225026"><ele>763.0</ele><time>2026-04-06T13:14:37.001Z</time></trkpt><trkpt lat="44.069559196760515" lon="10.929310494632306"><ele>763.0</ele><time>2026-04-06T13:14:48.001Z</time></trkpt><trkpt lat="44.06957888424463" lon="10.929199982110354"><ele>763.0</ele><time>2026-04-06T13:14:52.001Z</time></trkpt><trkpt lat="44.0696051261127" lon="10.929085629000202"><ele>763.0</ele><time>2026-04-06T13:14:55.001Z</time></trkpt><trkpt lat="44.069622795019704" lon="10.92898607513361"><ele>761.5</ele><time>2026-04-06T13:14:57.001Z</time></trkpt><trkpt lat="44.06964392765899" lon="10.928894646928097"><ele>760.0</ele><time>2026-04-06T13:14:59.001Z</time></trkpt><trkpt lat="44.06965864160967" lon="10.928772728280823"><ele>758.5</ele><time>2026-04-06T13:15:02.001Z</time></trkpt><trkpt lat="44.06966966770048" lon="10.928658058481275"><ele>757.0</ele><time>2026-04-06T13:15:05.001Z</time></trkpt><trkpt lat="44.06967138574756" lon="10.928559528946286"><ele>755.5</ele><time>2026-04-06T13:15:07.001Z</time></trkpt><trkpt lat="44.069711163390316" lon="10.928451323600003"><ele>754.0</ele><time>2026-04-06T13:15:09.001Z</time></trkpt><trkpt lat="44.06973509559158" lon="10.928319837922894"><ele>753.0</ele><time>2026-04-06T13:15:11.001Z</time></trkpt><trkpt lat="44.06973390922948" lon="10.928227009264203"><ele>752.0</ele><time>2026-04-06T13:15:13.001Z</time></trkpt><trkpt lat="44.069739696047805" lon="10.928103034228169"><ele>751.0</ele><time>2026-04-06T13:15:16.001Z</time></trkpt><trkpt lat="44.069748628659745" lon="10.92799863159693"><ele>750.0</ele><time>2026-04-06T13:15:19.001Z</time></trkpt><trkpt lat="44.069732206267766" lon="10.927860141952097"><ele>749.0</ele><time>2026-04-06T13:15:22.001Z</time></trkpt><trkpt lat="44.06972749916009" lon="10.927745944468413"><ele>748.0</ele><time>2026-04-06T13:15:24.001Z</time></trkpt><trkpt lat="44.06970008310598" lon="10.92764462718936"><ele>746.6666666666667</ele><time>2026-04-06T13:15:26.001Z</time></trkpt><trkpt lat="44.0697083890134" lon="10.927535080430795"><ele>745.3333333333334</ele><time>2026-04-06T13:15:28.001Z</time></trkpt><trkpt lat="44.06972570675105" lon="10.927392141785976"><ele>744.0</ele><time>2026-04-06T13:15:30.001Z</time></trkpt><trkpt lat="44.06974798728328" lon="10.927263326843219"><ele>742.6666666666666</ele><time>2026-04-06T13:15:33.001Z</time></trkpt><trkpt lat="44.06975353346828" lon="10.92717302884576"><ele>741.3333333333333</ele><time>2026-04-06T13:15:35.001Z</time></trkpt><trkpt lat="44.06974437043734" lon="10.92708319742448"><ele>740.0</ele><time>2026-04-06T13:15:37.001Z</time></trkpt><trkpt lat="44.06976383558579" lon="10.926927934511879"><ele>740.0</ele><time>2026-04-06T13:15:39.001Z</time></trkpt><trkpt lat="44.06973742347001" lon="10.926821819571977"><ele>740.0</ele><time>2026-04-06T13:15:41.001Z</time></trkpt><trkpt lat="44.06968595989003" lon="10.92672426451503"><ele>740.0</ele><time>2026-04-06T13:15:43.001Z</time></trkpt><trkpt lat="44.06968042867318" lon="10.926593692506222"><ele>740.0</ele><time>2026-04-06T13:15:45.001Z</time></trkpt><trkpt lat="44.06959695642177" lon="10.926491802965176"><ele>740.0</ele><time>2026-04-06T13:15:47.001Z</time></trkpt><trkpt lat="44.06949673624053" lon="10.926442207378184"><ele>740.1666666666666</ele><time>2026-04-06T13:15:49.001Z</time></trkpt><trkpt lat="44.069426814725766" lon="10.926438802590623"><ele>740.3333333333333</ele><time>2026-04-06T13:15:51.001Z</time></trkpt><trkpt lat="44.06935550885721" lon="10.92640299243066"><ele>740.5</ele><time>2026-04-06T13:15:53.001Z</time></trkpt><trkpt lat="44.069250188495545" lon="10.926390976500079"><ele>740.6666666666666</ele><time>2026-04-06T13:15:55.001Z</time></trkpt><trkpt lat="44.069138507885626" lon="10.926367637958764"><ele>740.8333333333334</ele><time>2026-04-06T13:15:57.001Z</time></trkpt><trkpt lat="44.069078959046095" lon="10.926302985220026"><ele>741.0</ele><time>2026-04-06T13:15:59.001Z</time></trkpt><trkpt lat="44.06905449479537" lon="10.926153134227711"><ele>741.0</ele><time>2026-04-06T13:16:01.001Z</time></trkpt><trkpt lat="44.06904673427184" lon="10.925998285230058"><ele>741.0</ele><time>2026-04-06T13:16:03.001Z</time></trkpt><trkpt lat="44.069014661462276" lon="10.925866240674369"><ele>741.0</ele><time>2026-04-06T13:16:05.001Z</time></trkpt><trkpt lat="44.06898105928806" lon="10.925780835404137"><ele>741.0</ele><time>2026-04-06T13:16:07.001Z</time></trkpt><trkpt lat="44.06892649252358" lon="10.92564213577475"><ele>741.0</ele><time>2026-04-06T13:16:09.001Z</time></trkpt><trkpt lat="44.068869050398376" lon="10.92557476083855"><ele>737.8</ele><time>2026-04-06T13:16:10.001Z</time></trkpt><trkpt lat="44.06881896816156" lon="10.925510387410787"><ele>734.5999999999999</ele><time>2026-04-06T13:16:11.001Z</time></trkpt><trkpt lat="44.0687317075341" lon="10.92542673789464"><ele>731.4</ele><time>2026-04-06T13:16:13.001Z</time></trkpt><trkpt lat="44.068668643824026" lon="10.925311947296372"><ele>728.2</ele><time>2026-04-06T13:16:15.001Z</time></trkpt><trkpt lat="44.06860498219153" lon="10.925214944460494"><ele>725.0</ele><time>2026-04-06T13:16:17.001Z</time></trkpt><trkpt lat="44.06853114329532" lon="10.925102713304268"><ele>725.8333333333333</ele><time>2026-04-06T13:16:19.001Z</time></trkpt><trkpt lat="44.06849560521859" lon="10.924988301645675"><ele>726.6666666666666</ele><time>2026-04-06T13:16:21.001Z</time></trkpt><trkpt lat="44.068448364680286" lon="10.92489213828885"><ele>727.5</ele><time>2026-04-06T13:16:23.001Z</time></trkpt><trkpt lat="44.06840395286337" lon="10.924800315336318"><ele>728.3333333333334</ele><time>2026-04-06T13:16:25.001Z</time></trkpt><trkpt lat="44.06834329263252" lon="10.924698722348925"><ele>729.1666666666667</ele><time>2026-04-06T13:16:27.001Z</time></trkpt><trkpt lat="44.06827880866642" lon="10.924602980376264"><ele>730.0</ele><time>2026-04-06T13:16:29.001Z</time></trkpt><trkpt lat="44.06823547983083" lon="10.924510384032926"><ele>730.0</ele><time>2026-04-06T13:16:31.001Z</time></trkpt><trkpt lat="44.068197663138974" lon="10.924398056204586"><ele>730.0</ele><time>2026-04-06T13:16:34.001Z</time></trkpt><trkpt lat="44.06812313299697" lon="10.924270462949535"><ele>730.0</ele><time>2026-04-06T13:16:37.001Z</time></trkpt><trkpt lat="44.06804038928627" lon="10.924167167241894"><ele>730.0</ele><time>2026-04-06T13:16:39.001Z</time></trkpt><trkpt lat="44.06797589091421" lon="10.924078660469876"><ele>730.0</ele><time>2026-04-06T13:16:41.001Z</time></trkpt><trkpt lat="44.06792768461493" lon="10.923992397614166"><ele>726.3333333333334</ele><time>2026-04-06T13:16:43.001Z</time></trkpt><trkpt lat="44.06791010809646" lon="10.923892038342112"><ele>722.6666666666667</ele><time>2026-04-06T13:16:45.001Z</time></trkpt><trkpt lat="44.06788124971203" lon="10.923772829109753"><ele>719.0</ele><time>2026-04-06T13:16:47.001Z</time></trkpt><trkpt lat="44.067838169661854" lon="10.92370504467617"><ele>715.3333333333334</ele><time>2026-04-06T13:16:48.001Z</time></trkpt><trkpt lat="44.06778292755692" lon="10.923619428119611"><ele>711.6666666666666</ele><time>2026-04-06T13:16:50.001Z</time></trkpt><trkpt lat="44.067687670542895" lon="10.92351407141974"><ele>708.0</ele><time>2026-04-06T13:16:52.001Z</time></trkpt><trkpt lat="44.06758847979462" lon="10.923413137753245"><ele>704.8</ele><time>2026-04-06T13:16:54.001Z</time></trkpt><trkpt lat="44.06753345254335" lon="10.923360823106204"><ele>701.5999999999999</ele><time>2026-04-06T13:16:55.001Z</time></trkpt><trkpt lat="44.06741858252475" lon="10.923283971417764"><ele>698.4000000000001</ele><time>2026-04-06T13:16:57.001Z</time></trkpt><trkpt lat="44.067315437483146" lon="10.923216865450465"><ele>695.2</ele><time>2026-04-06T13:16:59.001Z</time></trkpt><trkpt lat="44.06725369360119" lon="10.923199701269262"><ele>692.0</ele><time>2026-04-06T13:17:00.001Z</time></trkpt><trkpt lat="44.06717024428694" lon="10.92318214161522"><ele>692.0</ele><time>2026-04-06T13:17:02.001Z</time></trkpt><trkpt lat="44.06706930914041" lon="10.923128302846429"><ele>692.0</ele><time>2026-04-06T13:17:04.001Z</time></trkpt><trkpt lat="44.06698938832504" lon="10.923088260784294"><ele>692.0</ele><time>2026-04-06T13:17:06.001Z</time></trkpt><trkpt lat="44.06690065675909" lon="10.923032578545975"><ele>692.0</ele><time>2026-04-06T13:17:08.001Z</time></trkpt><trkpt lat="44.06679321431575" lon="10.922990608571464"><ele>692.0</ele><time>2026-04-06T13:17:10.001Z</time></trkpt><trkpt lat="44.06671380258472" lon="10.922940644789252"><ele>692.0</ele><time>2026-04-06T13:17:12.001Z</time></trkpt><trkpt lat="44.06662910473252" lon="10.92288923177489"><ele>692.0</ele><time>2026-04-06T13:17:14.001Z</time></trkpt><trkpt lat="44.066547338277054" lon="10.922858750775038"><ele>692.0</ele><time>2026-04-06T13:17:16.001Z</time></trkpt><trkpt lat="44.06645538635952" lon="10.922810583464457"><ele>692.0</ele><time>2026-04-06T13:17:18.001Z</time></trkpt><trkpt lat="44.06639121918071" lon="10.922805649745376"><ele>692.0</ele><time>2026-04-06T13:17:19.001Z</time></trkpt><trkpt lat="44.06629225235053" lon="10.922786923921905"><ele>692.0</ele><time>2026-04-06T13:17:21.001Z</time></trkpt><trkpt lat="44.066206298811565" lon="10.922736248339115"><ele>693.0</ele><time>2026-04-06T13:17:23.001Z</time></trkpt><trkpt lat="44.06614652306773" lon="10.922667481654237"><ele>694.0</ele><time>2026-04-06T13:17:25.001Z</time></trkpt><trkpt lat="44.06614236766572" lon="10.922534949649291"><ele>695.0</ele><time>2026-04-06T13:17:27.001Z</time></trkpt><trkpt lat="44.06611954358926" lon="10.92244479471241"><ele>696.0</ele><time>2026-04-06T13:17:29.001Z</time></trkpt><trkpt lat="44.066053765451045" lon="10.922315112491406"><ele>697.0</ele><time>2026-04-06T13:17:32.001Z</time></trkpt><trkpt lat="44.065992632286594" lon="10.92221077614952"><ele>696.2</ele><time>2026-04-06T13:17:34.001Z</time></trkpt><trkpt lat="44.06590663823184" lon="10.922127841656888"><ele>695.4000000000001</ele><time>2026-04-06T13:17:36.001Z</time></trkpt><trkpt lat="44.0658509740963" lon="10.922036162660019"><ele>694.5999999999999</ele><time>2026-04-06T13:17:39.001Z</time></trkpt><trkpt lat="44.065797352517485" lon="10.921957298768076"><ele>693.8</ele><time>2026-04-06T13:17:41.001Z</time></trkpt><trkpt lat="44.06573232406927" lon="10.921891379457417"><ele>693.0</ele><time>2026-04-06T13:17:43.001Z</time></trkpt><trkpt lat="44.065642758855056" lon="10.921803512041542"><ele>693.0</ele><time>2026-04-06T13:17:45.001Z</time></trkpt><trkpt lat="44.065539511004545" lon="10.921721183831087"><ele>693.0</ele><time>2026-04-06T13:17:47.001Z</time></trkpt><trkpt lat="44.0654752340213" lon="10.92170077827497"><ele>693.0</ele><time>2026-04-06T13:17:48.001Z</time></trkpt><trkpt lat="44.06536732333998" lon="10.92168963404781"><ele>693.0</ele><time>2026-04-06T13:17:50.001Z</time></trkpt><trkpt lat="44.065267924064095" lon="10.921708827700725"><ele>693.0</ele><time>2026-04-06T13:17:52.001Z</time></trkpt><trkpt lat="44.065177349278265" lon="10.921738865418142"><ele>695.5999999999999</ele><time>2026-04-06T13:17:54.001Z</time></trkpt><trkpt lat="44.06511787056881" lon="10.921692175863758"><ele>698.1999999999999</ele><time>2026-04-06T13:17:56.001Z</time></trkpt><trkpt lat="44.06508012328433" lon="10.92161769149978"><ele>700.8</ele><time>2026-04-06T13:17:58.001Z</time></trkpt><trkpt lat="44.06501970568481" lon="10.921504098546261"><ele>703.4</ele><time>2026-04-06T13:18:01.001Z</time></trkpt><trkpt lat="44.064947080554795" lon="10.92138367601511"><ele>706.0</ele><time>2026-04-06T13:18:04.001Z</time></trkpt><trkpt lat="44.06487238226116" lon="10.92127160900111"><ele>706.0</ele><time>2026-04-06T13:18:06.001Z</time></trkpt><trkpt lat="44.06483791450752" lon="10.921189873052109"><ele>706.0</ele><time>2026-04-06T13:18:08.001Z</time></trkpt><trkpt lat="44.06484572535603" lon="10.92106103818984"><ele>706.0</ele><time>2026-04-06T13:18:10.001Z</time></trkpt><trkpt lat="44.064804155964346" lon="10.920973654839656"><ele>706.0</ele><time>2026-04-06T13:18:12.001Z</time></trkpt><trkpt lat="44.06479509361364" lon="10.920874398213595"><ele>706.0</ele><time>2026-04-06T13:18:14.001Z</time></trkpt><trkpt lat="44.06476410121571" lon="10.920769370185347"><ele>706.0</ele><time>2026-04-06T13:18:16.001Z</time></trkpt><trkpt lat="44.064756481229026" lon="10.920659788820762"><ele>700.1999999999999</ele><time>2026-04-06T13:18:18.001Z</time></trkpt><trkpt lat="44.06473202483616" lon="10.920557530567686"><ele>694.4</ele><time>2026-04-06T13:18:20.001Z</time></trkpt><trkpt lat="44.06459238467484" lon="10.920494037510062"><ele>688.6</ele><time>2026-04-06T13:18:22.001Z</time></trkpt><trkpt lat="44.06451210622866" lon="10.92042786634855"><ele>682.8</ele><time>2026-04-06T13:18:24.001Z</time></trkpt><trkpt lat="44.06443780034345" lon="10.920333338229081"><ele>677.0</ele><time>2026-04-06T13:18:26.001Z</time></trkpt><trkpt lat="44.06442856178657" lon="10.920234202594813"><ele>677.0</ele><time>2026-04-06T13:18:28.001Z</time></trkpt><trkpt lat="44.06439786751945" lon="10.920088033513803"><ele>677.0</ele><time>2026-04-06T13:18:30.001Z</time></trkpt><trkpt lat="44.06431765696533" lon="10.919961707903747"><ele>677.0</ele><time>2026-04-06T13:18:32.001Z</time></trkpt><trkpt lat="44.06426506378445" lon="10.919905936561301"><ele>677.0</ele><time>2026-04-06T13:18:33.001Z</time></trkpt><trkpt lat="44.06417118919279" lon="10.919829448365055"><ele>677.0</ele><time>2026-04-06T13:18:35.001Z</time></trkpt><trkpt lat="44.06406839489552" lon="10.919709103633052"><ele>678.8</ele><time>2026-04-06T13:18:37.001Z</time></trkpt><trkpt lat="44.06402848764576" lon="10.919636213393998"><ele>680.6</ele><time>2026-04-06T13:18:38.001Z</time></trkpt><trkpt lat="44.06395736766602" lon="10.919502738002906"><ele>682.4</ele><time>2026-04-06T13:18:40.001Z</time></trkpt><trkpt lat="44.06392126522983" lon="10.919430408800443"><ele>684.1999999999999</ele><time>2026-04-06T13:18:41.001Z</time></trkpt><trkpt lat="44.06385602294579" lon="10.919316879545871"><ele>686.0</ele><time>2026-04-06T13:18:43.001Z</time></trkpt><trkpt lat="44.06378334130999" lon="10.919217569254872"><ele>679.6666666666666</ele><time>2026-04-06T13:18:45.001Z</time></trkpt><trkpt lat="44.063692429813955" lon="10.919146622795445"><ele>673.3333333333333</ele><time>2026-04-06T13:18:47.001Z</time></trkpt><trkpt lat="44.0636296797113" lon="10.919065810757733"><ele>667.0</ele><time>2026-04-06T13:18:49.001Z</time></trkpt><trkpt lat="44.06357550301281" lon="10.919012570052818"><ele>660.6666666666666</ele><time>2026-04-06T13:18:50.001Z</time></trkpt><trkpt lat="44.06350969757253" lon="10.91896595927078"><ele>654.3333333333334</ele><time>2026-04-06T13:18:51.001Z</time></trkpt><trkpt lat="44.06344895004105" lon="10.918927970532556"><ele>648.0</ele><time>2026-04-06T13:18:52.001Z</time></trkpt><trkpt lat="44.06337645460355" lon="10.918893895662785"><ele>648.0</ele><time>2026-04-06T13:18:53.001Z</time></trkpt><trkpt lat="44.06330027755475" lon="10.91885809232192"><ele>648.0</ele><time>2026-04-06T13:18:54.001Z</time></trkpt><trkpt lat="44.063231829950176" lon="10.918797902886334"><ele>648.0</ele><time>2026-04-06T13:18:55.001Z</time></trkpt><trkpt lat="44.06319204268798" lon="10.918720284181125"><ele>648.0</ele><time>2026-04-06T13:18:56.001Z</time></trkpt><trkpt lat="44.063140711477175" lon="10.918654805983422"><ele>648.0</ele><time>2026-04-06T13:18:57.001Z</time></trkpt><trkpt lat="44.06307152434911" lon="10.918525528484455"><ele>648.0</ele><time>2026-04-06T13:18:59.001Z</time></trkpt><trkpt lat="44.063049922642584" lon="10.918425034291998"><ele>643.4</ele><time>2026-04-06T13:19:01.001Z</time></trkpt><trkpt lat="44.0630094029064" lon="10.918312571353827"><ele>638.8</ele><time>2026-04-06T13:19:04.001Z</time></trkpt><trkpt lat="44.06292739122771" lon="10.91820385535728"><ele>634.2</ele><time>2026-04-06T13:19:06.001Z</time></trkpt><trkpt lat="44.06286511917709" lon="10.918141807682282"><ele>629.6</ele><time>2026-04-06T13:19:07.001Z</time></trkpt><trkpt lat="44.06278715074648" lon="10.918102753508185"><ele>625.0</ele><time>2026-04-06T13:19:08.001Z</time></trkpt><trkpt lat="44.06268922622046" lon="10.918048222244341"><ele>625.0</ele><time>2026-04-06T13:19:10.001Z</time></trkpt><trkpt lat="44.06261074374266" lon="10.917975225877658"><ele>625.0</ele><time>2026-04-06T13:19:12.001Z</time></trkpt><trkpt lat="44.06252494707882" lon="10.918000971151486"><ele>625.0</ele><time>2026-04-06T13:19:14.001Z</time></trkpt><trkpt lat="44.06246976090903" lon="10.918044695866152"><ele>625.0</ele><time>2026-04-06T13:19:15.001Z</time></trkpt><trkpt lat="44.06237876642481" lon="10.918087779739766"><ele>625.0</ele><time>2026-04-06T13:19:17.001Z</time></trkpt><trkpt lat="44.06231520069201" lon="10.918132942984938"><ele>625.0</ele><time>2026-04-06T13:19:18.001Z</time></trkpt><trkpt lat="44.06223522223305" lon="10.91821176474818"><ele>624.3333333333334</ele><time>2026-04-06T13:19:20.001Z</time></trkpt><trkpt lat="44.06215015169974" lon="10.918240054543148"><ele>623.6666666666667</ele><time>2026-04-06T13:19:22.001Z</time></trkpt><trkpt lat="44.06206619389621" lon="10.918276221584811"><ele>623.0</ele><time>2026-04-06T13:19:24.001Z</time></trkpt><trkpt lat="44.061966166704536" lon="10.918300610943616"><ele>622.3333333333334</ele><time>2026-04-06T13:19:26.001Z</time></trkpt><trkpt lat="44.061901022006666" lon="10.918332837369158"><ele>621.6666666666666</ele><time>2026-04-06T13:19:28.001Z</time></trkpt><trkpt lat="44.06182570635821" lon="10.91837133858729"><ele>621.0</ele><time>2026-04-06T13:19:30.001Z</time></trkpt><trkpt lat="44.061750733860045" lon="10.918429951055405"><ele>620.9999999999999</ele><time>2026-04-06T13:19:33.001Z</time></trkpt><trkpt lat="44.0616906299022" lon="10.918402576786026"><ele>621.0</ele><time>2026-04-06T13:19:37.001Z</time></trkpt><trkpt lat="44.06174657901333" lon="10.918324555845864"><ele>621.0</ele><time>2026-04-06T13:19:43.001Z</time></trkpt><trkpt lat="44.061815221602764" lon="10.91828109223041"><ele>621.0</ele><time>2026-04-06T13:19:48.001Z</time></trkpt><trkpt lat="44.06185779198697" lon="10.918216424007067"><ele>621.0</ele><time>2026-04-06T13:19:52.001Z</time></trkpt><trkpt lat="44.06191092741924" lon="10.918159709230293"><ele>620.9999999999999</ele><time>2026-04-06T13:19:56.001Z</time></trkpt><trkpt lat="44.061957737961414" lon="10.91806185620527"><ele>621.0</ele><time>2026-04-06T13:19:58.001Z</time></trkpt><trkpt lat="44.0620224886719" lon="10.917977937994728"><ele>621.0</ele><time>2026-04-06T13:20:00.001Z</time></trkpt><trkpt lat="44.06207541301877" lon="10.91787506667956"><ele>621.0</ele><time>2026-04-06T13:20:02.001Z</time></trkpt><trkpt lat="44.062126758702654" lon="10.917777685494627"><ele>621.0</ele><time>2026-04-06T13:20:06.001Z</time></trkpt><trkpt lat="44.06217724814506" lon="10.917707390071394"><ele>621.0</ele><time>2026-04-06T13:20:08.001Z</time></trkpt><trkpt lat="44.062238332927436" lon="10.917597902901388"><ele>621.0</ele><time>2026-04-06T13:20:10.001Z</time></trkpt><trkpt lat="44.062298297721895" lon="10.917494100649645"><ele>621.0</ele><time>2026-04-06T13:20:12.001Z</time></trkpt><trkpt lat="44.062345706116005" lon="10.917409299382783"><ele>618.9999999999999</ele><time>2026-04-06T13:20:14.001Z</time></trkpt><trkpt lat="44.06239375358295" lon="10.917301841691447"><ele>617.0</ele><time>2026-04-06T13:20:17.001Z</time></trkpt><trkpt lat="44.06245444981244" lon="10.917263291419932"><ele>615.0</ele><time>2026-04-06T13:20:20.001Z</time></trkpt><trkpt lat="44.062518825623314" lon="10.917300078535712"><ele>613.0</ele><time>2026-04-06T13:20:22.001Z</time></trkpt><trkpt lat="44.062585618229775" lon="10.917337906737993"><ele>611.0</ele><time>2026-04-06T13:20:25.001Z</time></trkpt><trkpt lat="44.06265302821749" lon="10.91738858842857"><ele>608.9999999999999</ele><time>2026-04-06T13:20:29.001Z</time></trkpt><trkpt lat="44.062710603651496" lon="10.917443092755185"><ele>607.0</ele><time>2026-04-06T13:20:32.001Z</time></trkpt><trkpt lat="44.06276370022386" lon="10.917490866333369"><ele>606.5</ele><time>2026-04-06T13:20:35.001Z</time></trkpt><trkpt lat="44.06283600911027" lon="10.917418883739327"><ele>606.0</ele><time>2026-04-06T13:20:49.001Z</time></trkpt><trkpt lat="44.06290309253494" lon="10.917445377484063"><ele>605.5</ele><time>2026-04-06T13:21:06.001Z</time></trkpt><trkpt lat="44.062917145520146" lon="10.917324957519254"><ele>605.0</ele><time>2026-04-06T13:21:10.001Z</time></trkpt><trkpt lat="44.06291711707541" lon="10.91722768389761"><ele>604.5</ele><time>2026-04-06T13:21:12.001Z</time></trkpt><trkpt lat="44.06293159171846" lon="10.917120823092791"><ele>604.0</ele><time>2026-04-06T13:21:15.001Z</time></trkpt><trkpt lat="44.06298120597086" lon="10.917065604319436"><ele>604.0000000000001</ele><time>2026-04-06T13:21:18.001Z</time></trkpt><trkpt lat="44.06305760067275" lon="10.917025264274615"><ele>604.0</ele><time>2026-04-06T13:21:21.001Z</time></trkpt><trkpt lat="44.06312330045855" lon="10.91700773434169"><ele>604.0</ele><time>2026-04-06T13:21:25.001Z</time></trkpt><trkpt lat="44.06314249027616" lon="10.917099250793044"><ele>604.0</ele><time>2026-04-06T13:21:30.001Z</time></trkpt><trkpt lat="44.06316836189862" lon="10.917185210142438"><ele>604.0</ele><time>2026-04-06T13:21:37.001Z</time></trkpt><trkpt lat="44.06320314354532" lon="10.917283443210232"><ele>604.0000000000001</ele><time>2026-04-06T13:21:43.001Z</time></trkpt><trkpt lat="44.06326464426098" lon="10.917352531611709"><ele>604.0</ele><time>2026-04-06T13:21:49.001Z</time></trkpt><trkpt lat="44.06333362133354" lon="10.917380392644697"><ele>603.5714285714287</ele><time>2026-04-06T13:21:55.001Z</time></trkpt><trkpt lat="44.06340906246151" lon="10.917428760305688"><ele>603.1428571428571</ele><time>2026-04-06T13:22:01.001Z</time></trkpt><trkpt lat="44.063468275507546" lon="10.917459521817017"><ele>602.7142857142858</ele><time>2026-04-06T13:22:04.001Z</time></trkpt><trkpt lat="44.06352271743178" lon="10.917535453222559"><ele>602.2857142857143</ele><time>2026-04-06T13:22:08.001Z</time></trkpt><trkpt lat="44.063569527675284" lon="10.917604249938169"><ele>601.8571428571429</ele><time>2026-04-06T13:22:11.001Z</time></trkpt><trkpt lat="44.06362654247341" lon="10.917668314337433"><ele>601.4285714285714</ele><time>2026-04-06T13:22:14.001Z</time></trkpt><trkpt lat="44.06369803591504" lon="10.917731516319757"><ele>601.0</ele><time>2026-04-06T13:22:17.001Z</time></trkpt><trkpt lat="44.063782818969855" lon="10.917780587595432"><ele>602.1666666666667</ele><time>2026-04-06T13:22:20.001Z</time></trkpt><trkpt lat="44.06386445177176" lon="10.917839371024735"><ele>603.3333333333334</ele><time>2026-04-06T13:22:23.001Z</time></trkpt><trkpt lat="44.06393401374196" lon="10.917879565099028"><ele>604.5</ele><time>2026-04-06T13:22:26.001Z</time></trkpt><trkpt lat="44.064009070073816" lon="10.91792532642538"><ele>605.6666666666666</ele><time>2026-04-06T13:22:29.001Z</time></trkpt><trkpt lat="44.064089547484855" lon="10.917983612312467"><ele>606.8333333333333</ele><time>2026-04-06T13:22:32.001Z</time></trkpt><trkpt lat="44.064145122722486" lon="10.918028054932877"><ele>608.0</ele><time>2026-04-06T13:22:34.001Z</time></trkpt><trkpt lat="44.064216252141236" lon="10.918081150682003"><ele>605.6666666666666</ele><time>2026-04-06T13:22:36.002Z</time></trkpt><trkpt lat="44.06428462563136" lon="10.918121492866693"><ele>603.3333333333333</ele><time>2026-04-06T13:22:38.001Z</time></trkpt><trkpt lat="44.06434464573203" lon="10.918170015438294"><ele>601.0</ele><time>2026-04-06T13:22:40.001Z</time></trkpt><trkpt lat="44.06441383634842" lon="10.918206163314967"><ele>598.6666666666666</ele><time>2026-04-06T13:22:42.001Z</time></trkpt><trkpt lat="44.064481677706496" lon="10.918247143389465"><ele>596.3333333333334</ele><time>2026-04-06T13:22:44.001Z</time></trkpt><trkpt lat="44.064570356402854" lon="10.91828783752657"><ele>594.0</ele><time>2026-04-06T13:22:46.001Z</time></trkpt><trkpt lat="44.0646524706495" lon="10.918321171385807"><ele>594.0</ele><time>2026-04-06T13:22:48.001Z</time></trkpt><trkpt lat="44.06473381168471" lon="10.91835937489594"><ele>594.0</ele><time>2026-04-06T13:22:50.001Z</time></trkpt><trkpt lat="44.06484131825038" lon="10.91841926923909"><ele>594.0</ele><time>2026-04-06T13:22:52.001Z</time></trkpt><trkpt lat="44.06492757067413" lon="10.91845684356437"><ele>594.0</ele><time>2026-04-06T13:22:54.001Z</time></trkpt><trkpt lat="44.06499849900804" lon="10.918502901573872"><ele>594.0</ele><time>2026-04-06T13:22:56.001Z</time></trkpt><trkpt lat="44.06508638245372" lon="10.91859879752512"><ele>594.3333333333334</ele><time>2026-04-06T13:22:58.001Z</time></trkpt><trkpt lat="44.06515877746807" lon="10.918682129014078"><ele>594.6666666666666</ele><time>2026-04-06T13:23:00.001Z</time></trkpt><trkpt lat="44.065218456467505" lon="10.91873988954865"><ele>595.0</ele><time>2026-04-06T13:23:02.001Z</time></trkpt><trkpt lat="44.0653010139498" lon="10.918808324426895"><ele>595.3333333333333</ele><time>2026-04-06T13:23:04.001Z</time></trkpt><trkpt lat="44.065382193603085" lon="10.918846274482773"><ele>595.6666666666666</ele><time>2026-04-06T13:23:06.001Z</time></trkpt><trkpt lat="44.06546841634375" lon="10.918910330403186"><ele>596.0</ele><time>2026-04-06T13:23:08.001Z</time></trkpt><trkpt lat="44.065565151212276" lon="10.91895782475809"><ele>596.0</ele><time>2026-04-06T13:23:10.001Z</time></trkpt><trkpt lat="44.06566717723218" lon="10.919021126532177"><ele>596.0</ele><time>2026-04-06T13:23:12.001Z</time></trkpt><trkpt lat="44.065765416790896" lon="10.91909433497294"><ele>596.0</ele><time>2026-04-06T13:23:14.001Z</time></trkpt><trkpt lat="44.06584525237924" lon="10.919198126473383"><ele>596.0</ele><time>2026-04-06T13:23:16.001Z</time></trkpt><trkpt lat="44.06592096125241" lon="10.91931385598559"><ele>596.0</ele><time>2026-04-06T13:23:18.001Z</time></trkpt><trkpt lat="44.06599701225244" lon="10.919402433520826"><ele>597.4285714285714</ele><time>2026-04-06T13:23:20.001Z</time></trkpt><trkpt lat="44.066040394439185" lon="10.919480799436117"><ele>598.8571428571428</ele><time>2026-04-06T13:23:22.001Z</time></trkpt><trkpt lat="44.06609019830668" lon="10.919558934811562"><ele>600.2857142857142</ele><time>2026-04-06T13:23:25.001Z</time></trkpt><trkpt lat="44.06612874908113" lon="10.919632162538718"><ele>601.7142857142857</ele><time>2026-04-06T13:23:29.001Z</time></trkpt><trkpt lat="44.066162965475364" lon="10.919710770217096"><ele>603.1428571428571</ele><time>2026-04-06T13:23:37.002Z</time></trkpt><trkpt lat="44.066212085536236" lon="10.919775459010172"><ele>604.5714285714286</ele><time>2026-04-06T13:23:41.002Z</time></trkpt><trkpt lat="44.06626167573139" lon="10.919854556363251"><ele>606.0</ele><time>2026-04-06T13:23:45.002Z</time></trkpt><trkpt lat="44.06631563692399" lon="10.919943774698847"><ele>606.0</ele><time>2026-04-06T13:23:48.002Z</time></trkpt><trkpt lat="44.06637389160332" lon="10.919992254767138"><ele>606.0</ele><time>2026-04-06T13:23:50.002Z</time></trkpt><trkpt lat="44.06645302733262" lon="10.920060796684478"><ele>606.0</ele><time>2026-04-06T13:23:54.002Z</time></trkpt><trkpt lat="44.06654429255424" lon="10.920114031806737"><ele>606.0</ele><time>2026-04-06T13:23:57.002Z</time></trkpt><trkpt lat="44.066636889175285" lon="10.920128198249643"><ele>606.0</ele><time>2026-04-06T13:24:00.002Z</time></trkpt><trkpt lat="44.06670746862776" lon="10.920159999658036"><ele>606.0</ele><time>2026-04-06T13:24:02.002Z</time></trkpt><trkpt lat="44.06678150188387" lon="10.920188130947416"><ele>605.8333333333334</ele><time>2026-04-06T13:24:04.002Z</time></trkpt><trkpt lat="44.066866689049895" lon="10.92020334185278"><ele>605.6666666666666</ele><time>2026-04-06T13:24:06.002Z</time></trkpt><trkpt lat="44.06695372275537" lon="10.920202533482412"><ele>605.5</ele><time>2026-04-06T13:24:08.002Z</time></trkpt><trkpt lat="44.067046186260725" lon="10.920179699330165"><ele>605.3333333333333</ele><time>2026-04-06T13:24:10.002Z</time></trkpt><trkpt lat="44.06714685833899" lon="10.92017926120262"><ele>605.1666666666666</ele><time>2026-04-06T13:24:12.002Z</time></trkpt><trkpt lat="44.06721785020441" lon="10.920195663475356"><ele>605.0</ele><time>2026-04-06T13:24:14.002Z</time></trkpt><trkpt lat="44.06730493515573" lon="10.920201082285487"><ele>605.0</ele><time>2026-04-06T13:24:16.002Z</time></trkpt><trkpt lat="44.06738723831371" lon="10.920211042956186"><ele>605.0</ele><time>2026-04-06T13:24:18.002Z</time></trkpt><trkpt lat="44.06747784667514" lon="10.920225714752045"><ele>605.0</ele><time>2026-04-06T13:24:20.002Z</time></trkpt><trkpt lat="44.06757905634723" lon="10.92024762251676"><ele>605.0</ele><time>2026-04-06T13:24:22.002Z</time></trkpt><trkpt lat="44.06765254040471" lon="10.920263476507394"><ele>605.0</ele><time>2026-04-06T13:24:24.002Z</time></trkpt><trkpt lat="44.067756968216976" lon="10.920304093366125"><ele>603.0</ele><time>2026-04-06T13:24:26.002Z</time></trkpt><trkpt lat="44.06782612524151" lon="10.920318138297423"><ele>601.0</ele><time>2026-04-06T13:24:28.002Z</time></trkpt><trkpt lat="44.067914156828444" lon="10.920382300858222"><ele>599.0</ele><time>2026-04-06T13:24:30.002Z</time></trkpt><trkpt lat="44.06799401143172" lon="10.920447287347505"><ele>597.0</ele><time>2026-04-06T13:24:32.002Z</time></trkpt><trkpt lat="44.06805290639887" lon="10.920512032894676"><ele>595.0</ele><time>2026-04-06T13:24:34.002Z</time></trkpt><trkpt lat="44.06813783292994" lon="10.920596845545997"><ele>593.0</ele><time>2026-04-06T13:24:36.002Z</time></trkpt><trkpt lat="44.06821368184763" lon="10.920680435691922"><ele>593.0</ele><time>2026-04-06T13:24:38.002Z</time></trkpt><trkpt lat="44.06826792894785" lon="10.920728808556998"><ele>593.0</ele><time>2026-04-06T13:24:39.001Z</time></trkpt><trkpt lat="44.06834150403055" lon="10.920800437568497"><ele>593.0</ele><time>2026-04-06T13:24:41Z</time></trkpt><trkpt lat="44.0684345065012" lon="10.920889321838112"><ele>593.0</ele><time>2026-04-06T13:24:42.996Z</time></trkpt><trkpt lat="44.06853459397018" lon="10.920983845813147"><ele>593.0</ele><time>2026-04-06T13:24:44.992Z</time></trkpt><trkpt lat="44.06862436794594" lon="10.921077070975002"><ele>594.0</ele><time>2026-04-06T13:24:46.989Z</time></trkpt><trkpt lat="44.068750742511696" lon="10.92115109992367"><ele>595.0</ele><time>2026-04-06T13:24:48.986Z</time></trkpt><trkpt lat="44.06885100879339" lon="10.921253315911436"><ele>596.0</ele><time>2026-04-06T13:24:50.983Z</time></trkpt><trkpt lat="44.06889849314286" lon="10.921321977567114"><ele>597.0</ele><time>2026-04-06T13:24:51.982Z</time></trkpt><trkpt lat="44.06893934415155" lon="10.921394378469909"><ele>598.0</ele><time>2026-04-06T13:24:52.981Z</time></trkpt><trkpt lat="44.06897877334954" lon="10.9214641456906"><ele>598.0</ele><time>2026-04-06T13:24:53.981Z</time></trkpt><trkpt lat="44.06902201913164" lon="10.921540066090342"><ele>598.0</ele><time>2026-04-06T13:24:54.98Z</time></trkpt><trkpt lat="44.06906161176714" lon="10.92160957315229"><ele>598.0</ele><time>2026-04-06T13:24:55.979Z</time></trkpt><trkpt lat="44.06910508837537" lon="10.921687000985791"><ele>598.0</ele><time>2026-04-06T13:24:56.978Z</time></trkpt><trkpt lat="44.06913495170116" lon="10.921777816573481"><ele>598.0</ele><time>2026-04-06T13:24:57.977Z</time></trkpt><trkpt lat="44.06918455778378" lon="10.921848201034337"><ele>598.0</ele><time>2026-04-06T13:24:58.977Z</time></trkpt><trkpt lat="44.069228120360336" lon="10.921930738311652"><ele>598.0</ele><time>2026-04-06T13:24:59.976Z</time></trkpt><trkpt lat="44.06928190005431" lon="10.922004978134083"><ele>596.8333333333334</ele><time>2026-04-06T13:25:00.975Z</time></trkpt><trkpt lat="44.06932412208036" lon="10.92209022454609"><ele>595.6666666666667</ele><time>2026-04-06T13:25:01.975Z</time></trkpt><trkpt lat="44.06937354528596" lon="10.922181672322182"><ele>594.5</ele><time>2026-04-06T13:25:02.974Z</time></trkpt><trkpt lat="44.06943077716199" lon="10.922248199123413"><ele>593.3333333333334</ele><time>2026-04-06T13:25:03.974Z</time></trkpt><trkpt lat="44.0694833812333" lon="10.922315106384001"><ele>592.1666666666666</ele><time>2026-04-06T13:25:04.973Z</time></trkpt><trkpt lat="44.06954905427116" lon="10.922377581297118"><ele>591.0</ele><time>2026-04-06T13:25:05.973Z</time></trkpt><trkpt lat="44.06965041268555" lon="10.922472036928674"><ele>591.0</ele><time>2026-04-06T13:25:07.972Z</time></trkpt><trkpt lat="44.06970911200956" lon="10.922528216533257"><ele>591.0</ele><time>2026-04-06T13:25:08.972Z</time></trkpt><trkpt lat="44.06976693757005" lon="10.922574440292898"><ele>591.0</ele><time>2026-04-06T13:25:09.971Z</time></trkpt><trkpt lat="44.06986948345842" lon="10.922659122291499"><ele>591.0</ele><time>2026-04-06T13:25:11.971Z</time></trkpt><trkpt lat="44.069965131375355" lon="10.922731413390265"><ele>591.0</ele><time>2026-04-06T13:25:13.97Z</time></trkpt><trkpt lat="44.07006215643706" lon="10.922787398207264"><ele>591.0</ele><time>2026-04-06T13:25:15.97Z</time></trkpt><trkpt lat="44.07015792502223" lon="10.922845367747199"><ele>591.0</ele><time>2026-04-06T13:25:17.969Z</time></trkpt><trkpt lat="44.07024389909506" lon="10.922905785277225"><ele>591.0</ele><time>2026-04-06T13:25:19.969Z</time></trkpt><trkpt lat="44.070325618915945" lon="10.922956212765753"><ele>591.0</ele><time>2026-04-06T13:25:21.968Z</time></trkpt><trkpt lat="44.07039300304932" lon="10.923002281979315"><ele>591.0</ele><time>2026-04-06T13:25:23.968Z</time></trkpt><trkpt lat="44.07047730767766" lon="10.923054727577965"><ele>591.0</ele><time>2026-04-06T13:25:25.968Z</time></trkpt><trkpt lat="44.07055544717758" lon="10.923118728216552"><ele>591.0</ele><time>2026-04-06T13:25:27.968Z</time></trkpt><trkpt lat="44.07063888260622" lon="10.923187681203325"><ele>591.0</ele><time>2026-04-06T13:25:29.967Z</time></trkpt><trkpt lat="44.07070865736868" lon="10.923261679364176"><ele>591.0</ele><time>2026-04-06T13:25:31.967Z</time></trkpt><trkpt lat="44.070793695903745" lon="10.923294843692972"><ele>591.0</ele><time>2026-04-06T13:25:33.967Z</time></trkpt><trkpt lat="44.07087049459623" lon="10.923340642694054"><ele>591.0</ele><time>2026-04-06T13:25:35.967Z</time></trkpt><trkpt lat="44.070939705865065" lon="10.923381916925074"><ele>593.0</ele><time>2026-04-06T13:25:37.967Z</time></trkpt><trkpt lat="44.07099326551534" lon="10.923469492557158"><ele>595.0</ele><time>2026-04-06T13:25:39.967Z</time></trkpt><trkpt lat="44.071096859898496" lon="10.923512074110697"><ele>597.0</ele><time>2026-04-06T13:25:41.967Z</time></trkpt><trkpt lat="44.07117771602588" lon="10.923564645369709"><ele>599.0</ele><time>2026-04-06T13:25:43.967Z</time></trkpt><trkpt lat="44.071259088612535" lon="10.923625740866918"><ele>601.0</ele><time>2026-04-06T13:25:45.966Z</time></trkpt><trkpt lat="44.07136153806643" lon="10.92366606261878"><ele>601.0</ele><time>2026-04-06T13:25:47.966Z</time></trkpt><trkpt lat="44.07147621245012" lon="10.923725741324217"><ele>601.0</ele><time>2026-04-06T13:25:49.966Z</time></trkpt><trkpt lat="44.07154000370133" lon="10.92376367197641"><ele>601.0</ele><time>2026-04-06T13:25:50.966Z</time></trkpt><trkpt lat="44.07160185873206" lon="10.923789635850557"><ele>601.0</ele><time>2026-04-06T13:25:51.966Z</time></trkpt><trkpt lat="44.071658289836584" lon="10.923828959361492"><ele>601.0</ele><time>2026-04-06T13:25:52.966Z</time></trkpt><trkpt lat="44.07177961868176" lon="10.92388726984842"><ele>601.0</ele><time>2026-04-06T13:25:54.966Z</time></trkpt><trkpt lat="44.07183643960377" lon="10.923942430030298"><ele>600.5714285714286</ele><time>2026-04-06T13:25:55.966Z</time></trkpt><trkpt lat="44.07189525659226" lon="10.923984803776264"><ele>600.1428571428572</ele><time>2026-04-06T13:25:56.966Z</time></trkpt><trkpt lat="44.0719537433617" lon="10.924028436575648"><ele>599.7142857142858</ele><time>2026-04-06T13:25:57.966Z</time></trkpt><trkpt lat="44.07201367137455" lon="10.924072873917302"><ele>599.2857142857142</ele><time>2026-04-06T13:25:58.966Z</time></trkpt><trkpt lat="44.07207403545118" lon="10.924119230055615"><ele>598.8571428571429</ele><time>2026-04-06T13:25:59.966Z</time></trkpt><trkpt lat="44.072134789576324" lon="10.924165893953258"><ele>598.4285714285714</ele><time>2026-04-06T13:26:00.966Z</time></trkpt><trkpt lat="44.07218992549057" lon="10.924222904645308"><ele>598.0</ele><time>2026-04-06T13:26:01.966Z</time></trkpt><trkpt lat="44.07224882346904" lon="10.924272237071845"><ele>598.0</ele><time>2026-04-06T13:26:02.966Z</time></trkpt><trkpt lat="44.07230982888341" lon="10.924314937364283"><ele>598.0</ele><time>2026-04-06T13:26:03.966Z</time></trkpt><trkpt lat="44.072361671826044" lon="10.924368899971276"><ele>598.0</ele><time>2026-04-06T13:26:04.966Z</time></trkpt><trkpt lat="44.07242074330211" lon="10.924426596646276"><ele>598.0</ele><time>2026-04-06T13:26:05.966Z</time></trkpt><trkpt lat="44.072478865188934" lon="10.924483623853321"><ele>598.0</ele><time>2026-04-06T13:26:06.966Z</time></trkpt><trkpt lat="44.072529671671234" lon="10.92453894699644"><ele>598.0</ele><time>2026-04-06T13:26:07.966Z</time></trkpt><trkpt lat="44.07262485374915" lon="10.92462901303998"><ele>597.1999999999999</ele><time>2026-04-06T13:26:09.966Z</time></trkpt><trkpt lat="44.07270148548517" lon="10.924719848730067"><ele>596.4</ele><time>2026-04-06T13:26:11.966Z</time></trkpt><trkpt lat="44.07279516658557" lon="10.924825755701361"><ele>595.5999999999999</ele><time>2026-04-06T13:26:13.966Z</time></trkpt><trkpt lat="44.07286243287405" lon="10.924912317464267"><ele>594.8</ele><time>2026-04-06T13:26:15.966Z</time></trkpt><trkpt lat="44.072934343010864" lon="10.925007350264426"><ele>594.0</ele><time>2026-04-06T13:26:17.966Z</time></trkpt><trkpt lat="44.073013523201034" lon="10.92510983510935"><ele>594.0</ele><time>2026-04-06T13:26:19.966Z</time></trkpt><trkpt lat="44.073094878531876" lon="10.925187644341007"><ele>594.0</ele><time>2026-04-06T13:26:21.966Z</time></trkpt><trkpt lat="44.07317534400281" lon="10.925262061413333"><ele>594.0</ele><time>2026-04-06T13:26:23.966Z</time></trkpt><trkpt lat="44.073231491839756" lon="10.925365114476893"><ele>594.0</ele><time>2026-04-06T13:26:25.966Z</time></trkpt><trkpt lat="44.07330103718432" lon="10.925453301642602"><ele>594.0</ele><time>2026-04-06T13:26:27.966Z</time></trkpt><trkpt lat="44.07337712136172" lon="10.925517792081443"><ele>591.0</ele><time>2026-04-06T13:26:29.966Z</time></trkpt><trkpt lat="44.073451161789606" lon="10.925565675331159"><ele>588.0</ele><time>2026-04-06T13:26:31.966Z</time></trkpt><trkpt lat="44.07352093682188" lon="10.925564553020466"><ele>585.0</ele><time>2026-04-06T13:26:33.966Z</time></trkpt><trkpt lat="44.07361380546" lon="10.925573818228534"><ele>582.0</ele><time>2026-04-06T13:26:35.966Z</time></trkpt><trkpt lat="44.073683413886734" lon="10.92557640146"><ele>579.0</ele><time>2026-04-06T13:26:37.966Z</time></trkpt><trkpt lat="44.0737541101076" lon="10.92561070415265"><ele>576.0</ele><time>2026-04-06T13:26:39.966Z</time></trkpt><trkpt lat="44.07382107270356" lon="10.925644059248368"><ele>576.0</ele><time>2026-04-06T13:26:41.966Z</time></trkpt><trkpt lat="44.07391172929478" lon="10.92565064659283"><ele>576.0</ele><time>2026-04-06T13:26:43.966Z</time></trkpt><trkpt lat="44.07398695873218" lon="10.925654254369313"><ele>576.0</ele><time>2026-04-06T13:26:45.965Z</time></trkpt><trkpt lat="44.0740640902703" lon="10.925672980127333"><ele>576.0</ele><time>2026-04-06T13:26:47.965Z</time></trkpt><trkpt lat="44.07415480751817" lon="10.925647467616495"><ele>576.0</ele><time>2026-04-06T13:26:49.965Z</time></trkpt><trkpt lat="44.07423586760163" lon="10.925649401325813"><ele>576.0</ele><time>2026-04-06T13:26:51.965Z</time></trkpt><trkpt lat="44.0743226931447" lon="10.925687686690528"><ele>576.1666666666666</ele><time>2026-04-06T13:26:54.965Z</time></trkpt><trkpt lat="44.07440677885512" lon="10.925687613326938"><ele>576.3333333333334</ele><time>2026-04-06T13:26:56.965Z</time></trkpt><trkpt lat="44.07448955661121" lon="10.925669276253418"><ele>576.5</ele><time>2026-04-06T13:26:58.965Z</time></trkpt><trkpt lat="44.07458242709517" lon="10.925669462725544"><ele>576.6666666666667</ele><time>2026-04-06T13:27:01.965Z</time></trkpt><trkpt lat="44.07466265968711" lon="10.925670314378118"><ele>576.8333333333334</ele><time>2026-04-06T13:27:03.965Z</time></trkpt><trkpt lat="44.07473072206828" lon="10.925690772371206"><ele>577.0</ele><time>2026-04-06T13:27:05.965Z</time></trkpt><trkpt lat="44.07479624059134" lon="10.925722442906672"><ele>577.0</ele><time>2026-04-06T13:27:07.965Z</time></trkpt><trkpt lat="44.07486109247182" lon="10.925734009042921"><ele>577.0</ele><time>2026-04-06T13:27:09.965Z</time></trkpt><trkpt lat="44.074926515592196" lon="10.925756232346048"><ele>577.0</ele><time>2026-04-06T13:27:11.965Z</time></trkpt><trkpt lat="44.07501145331915" lon="10.925766415773566"><ele>577.0</ele><time>2026-04-06T13:27:13.965Z</time></trkpt><trkpt lat="44.075088040427836" lon="10.925771934188306"><ele>577.0</ele><time>2026-04-06T13:27:15.965Z</time></trkpt><trkpt lat="44.075162019957965" lon="10.925766234427197"><ele>577.0</ele><time>2026-04-06T13:27:17.965Z</time></trkpt><trkpt lat="44.07525226464307" lon="10.925725093177393"><ele>576.6666666666667</ele><time>2026-04-06T13:27:19.965Z</time></trkpt><trkpt lat="44.07531974889516" lon="10.925717659956144"><ele>576.3333333333334</ele><time>2026-04-06T13:27:21.965Z</time></trkpt><trkpt lat="44.0753923782301" lon="10.925775409707539"><ele>576.0</ele><time>2026-04-06T13:27:23.965Z</time></trkpt><trkpt lat="44.075445412924836" lon="10.925840578816938"><ele>575.6666666666666</ele><time>2026-04-06T13:27:25.965Z</time></trkpt><trkpt lat="44.0755073081218" lon="10.92588643112545"><ele>575.3333333333333</ele><time>2026-04-06T13:27:27.965Z</time></trkpt><trkpt lat="44.075601700622094" lon="10.925948849180752"><ele>575.0</ele><time>2026-04-06T13:27:30.965Z</time></trkpt><trkpt lat="44.075670310358134" lon="10.925967521645129"><ele>575.0</ele><time>2026-04-06T13:27:32.965Z</time></trkpt><trkpt lat="44.07573609240597" lon="10.925997746731083"><ele>575.0</ele><time>2026-04-06T13:27:34.965Z</time></trkpt><trkpt lat="44.075817198654754" lon="10.926031992701516"><ele>575.0</ele><time>2026-04-06T13:27:36.965Z</time></trkpt><trkpt lat="44.07590261295585" lon="10.926075063167922"><ele>575.0</ele><time>2026-04-06T13:27:39.965Z</time></trkpt><trkpt lat="44.075970385712964" lon="10.926099294250573"><ele>575.0</ele><time>2026-04-06T13:27:41.965Z</time></trkpt><trkpt lat="44.07605197586385" lon="10.926153061488563"><ele>575.0</ele><time>2026-04-06T13:27:44.965Z</time></trkpt><trkpt lat="44.07608426869502" lon="10.92625071778307"><ele>575.2857142857142</ele><time>2026-04-06T13:27:46.965Z</time></trkpt><trkpt lat="44.07611294657443" lon="10.92634177467773"><ele>575.5714285714286</ele><time>2026-04-06T13:27:48.965Z</time></trkpt><trkpt lat="44.07614735936448" lon="10.926422857219771"><ele>575.8571428571429</ele><time>2026-04-06T13:27:50.965Z</time></trkpt><trkpt lat="44.076194580077704" lon="10.926488132410242"><ele>576.1428571428571</ele><time>2026-04-06T13:27:52.965Z</time></trkpt><trkpt lat="44.07626510747805" lon="10.926559450531512"><ele>576.4285714285714</ele><time>2026-04-06T13:27:55.965Z</time></trkpt><trkpt lat="44.0763146652586" lon="10.926615308270863"><ele>576.7142857142857</ele><time>2026-04-06T13:27:57.965Z</time></trkpt><trkpt lat="44.07636641738442" lon="10.92668011609811"><ele>577.0</ele><time>2026-04-06T13:27:59.965Z</time></trkpt><trkpt lat="44.07642276985298" lon="10.92673894766341"><ele>577.7142857142857</ele><time>2026-04-06T13:28:01.965Z</time></trkpt><trkpt lat="44.076512290015344" lon="10.926773577416027"><ele>578.4285714285714</ele><time>2026-04-06T13:28:04.965Z</time></trkpt><trkpt lat="44.076581187640976" lon="10.926767094422344"><ele>579.1428571428571</ele><time>2026-04-06T13:28:06.965Z</time></trkpt><trkpt lat="44.076648657072816" lon="10.926764710967289"><ele>579.8571428571429</ele><time>2026-04-06T13:28:08.965Z</time></trkpt><trkpt lat="44.07671182902082" lon="10.926760298235905"><ele>580.5714285714286</ele><time>2026-04-06T13:28:10.965Z</time></trkpt><trkpt lat="44.076778531126614" lon="10.926783053835772"><ele>581.2857142857142</ele><time>2026-04-06T13:28:12.965Z</time></trkpt><trkpt lat="44.07686583485348" lon="10.926797345413584"><ele>582.0</ele><time>2026-04-06T13:28:14.965Z</time></trkpt><trkpt lat="44.07693994699738" lon="10.92678118606483"><ele>582.0</ele><time>2026-04-06T13:28:16.965Z</time></trkpt><trkpt lat="44.077028377766375" lon="10.92677957785388"><ele>582.0</ele><time>2026-04-06T13:28:18.965Z</time></trkpt><trkpt lat="44.077105466972384" lon="10.926765501506795"><ele>582.0</ele><time>2026-04-06T13:28:20.965Z</time></trkpt><trkpt lat="44.07717597264593" lon="10.926745775639327"><ele>582.0</ele><time>2026-04-06T13:28:22.965Z</time></trkpt><trkpt lat="44.077258576284976" lon="10.926762250165813"><ele>582.0</ele><time>2026-04-06T13:28:24.965Z</time></trkpt><trkpt lat="44.0773581902645" lon="10.926839660190767"><ele>582.0</ele><time>2026-04-06T13:28:26.965Z</time></trkpt><trkpt lat="44.077418729459644" lon="10.92693019951807"><ele>582.0</ele><time>2026-04-06T13:28:28.965Z</time></trkpt><trkpt lat="44.077396117169435" lon="10.927054887937125"><ele>582.0</ele><time>2026-04-06T13:28:31.965Z</time></trkpt><trkpt lat="44.07732184701218" lon="10.92712951144973"><ele>582.0</ele><time>2026-04-06T13:28:35.965Z</time></trkpt><trkpt lat="44.07724551131705" lon="10.927193899388953"><ele>582.0</ele><time>2026-04-06T13:28:38.964Z</time></trkpt><trkpt lat="44.07716373116369" lon="10.927234280971469"><ele>582.0</ele><time>2026-04-06T13:28:41.964Z</time></trkpt><trkpt lat="44.07707987005236" lon="10.927265376336445"><ele>582.0</ele><time>2026-04-06T13:28:44.964Z</time></trkpt><trkpt lat="44.077004973678655" lon="10.927311314392304"><ele>582.0</ele><time>2026-04-06T13:28:47.964Z</time></trkpt><trkpt lat="44.076929586597764" lon="10.927356581427153"><ele>582.0</ele><time>2026-04-06T13:28:49.964Z</time></trkpt><trkpt lat="44.07684157292325" lon="10.927416807314051"><ele>582.0</ele><time>2026-04-06T13:28:52.965Z</time></trkpt><trkpt lat="44.07681216132383" lon="10.927507975157141"><ele>582.0</ele><time>2026-04-06T13:28:54.964Z</time></trkpt><trkpt lat="44.076792264490216" lon="10.927620978036018"><ele>582.0</ele><time>2026-04-06T13:28:56.965Z</time></trkpt><trkpt lat="44.076762995790354" lon="10.927714487037298"><ele>582.0</ele><time>2026-04-06T13:28:58.963Z</time></trkpt><trkpt lat="44.07674078331168" lon="10.927813010867919"><ele>582.5714285714286</ele><time>2026-04-06T13:29:00.964Z</time></trkpt><trkpt lat="44.07672249667101" lon="10.927905009967956"><ele>583.1428571428571</ele><time>2026-04-06T13:29:02.964Z</time></trkpt><trkpt lat="44.07671186064701" lon="10.928005802088885"><ele>583.7142857142857</ele><time>2026-04-06T13:29:04.963Z</time></trkpt><trkpt lat="44.07670485627968" lon="10.928128229218142"><ele>584.2857142857142</ele><time>2026-04-06T13:29:07.963Z</time></trkpt><trkpt lat="44.076713034184486" lon="10.928237091930477"><ele>584.8571428571429</ele><time>2026-04-06T13:29:09.963Z</time></trkpt><trkpt lat="44.07672339945708" lon="10.92833594284464"><ele>585.4285714285713</ele><time>2026-04-06T13:29:11.963Z</time></trkpt><trkpt lat="44.07672882069736" lon="10.928429627385015"><ele>586.0</ele><time>2026-04-06T13:29:13.963Z</time></trkpt><trkpt lat="44.0767480094471" lon="10.928526869025484"><ele>586.0</ele><time>2026-04-06T13:29:15.963Z</time></trkpt><trkpt lat="44.07676094383229" lon="10.928639283513773"><ele>586.0</ele><time>2026-04-06T13:29:18.963Z</time></trkpt><trkpt lat="44.07676667845806" lon="10.928759161043583"><ele>586.0</ele><time>2026-04-06T13:29:21.963Z</time></trkpt><trkpt lat="44.07677185406446" lon="10.928888512475194"><ele>586.0</ele><time>2026-04-06T13:29:24.963Z</time></trkpt><trkpt lat="44.07676290391802" lon="10.928987940961676"><ele>586.0</ele><time>2026-04-06T13:29:26.963Z</time></trkpt><trkpt lat="44.0767605711652" lon="10.929093770440321"><ele>586.0</ele><time>2026-04-06T13:29:28.963Z</time></trkpt><trkpt lat="44.07676002227827" lon="10.929202197451513"><ele>585.6666666666667</ele><time>2026-04-06T13:29:30.963Z</time></trkpt><trkpt lat="44.07675883396608" lon="10.929318059318954"><ele>585.3333333333334</ele><time>2026-04-06T13:29:32.963Z</time></trkpt><trkpt lat="44.076761688723046" lon="10.929443440885915"><ele>585.0</ele><time>2026-04-06T13:29:34.963Z</time></trkpt><trkpt lat="44.076769859546495" lon="10.929554873256299"><ele>584.6666666666666</ele><time>2026-04-06T13:29:36.963Z</time></trkpt><trkpt lat="44.076768519153966" lon="10.92966453885994"><ele>584.3333333333333</ele><time>2026-04-06T13:29:38.963Z</time></trkpt><trkpt lat="44.07676801457982" lon="10.929763222401105"><ele>584.0</ele><time>2026-04-06T13:29:40.963Z</time></trkpt><trkpt lat="44.07675922292882" lon="10.929858850107546"><ele>584.0</ele><time>2026-04-06T13:29:42.963Z</time></trkpt><trkpt lat="44.076770474619195" lon="10.92996607374608"><ele>584.0</ele><time>2026-04-06T13:29:44.963Z</time></trkpt><trkpt lat="44.07677449225938" lon="10.930069111410631"><ele>584.0</ele><time>2026-04-06T13:29:46.963Z</time></trkpt><trkpt lat="44.07677008724867" lon="10.930175403573495"><ele>584.0</ele><time>2026-04-06T13:29:48.963Z</time></trkpt><trkpt lat="44.07677333121949" lon="10.93028282306903"><ele>584.0</ele><time>2026-04-06T13:29:50.963Z</time></trkpt><trkpt lat="44.07677559400625" lon="10.930386523088679"><ele>584.0</ele><time>2026-04-06T13:29:52.963Z</time></trkpt><trkpt lat="44.07678523027592" lon="10.930497038663729"><ele>583.1666666666666</ele><time>2026-04-06T13:29:54.963Z</time></trkpt><trkpt lat="44.07679749962946" lon="10.93060100954202"><ele>582.3333333333333</ele><time>2026-04-06T13:29:56.963Z</time></trkpt><trkpt lat="44.076815252535525" lon="10.930710923264867"><ele>581.5</ele><time>2026-04-06T13:29:58.963Z</time></trkpt><trkpt lat="44.07685739997644" lon="10.93082754008078"><ele>580.6666666666666</ele><time>2026-04-06T13:30:00.963Z</time></trkpt><trkpt lat="44.07689677057614" lon="10.930942037421932"><ele>579.8333333333334</ele><time>2026-04-06T13:30:02.963Z</time></trkpt><trkpt lat="44.07693596544986" lon="10.931057903530592"><ele>579.0</ele><time>2026-04-06T13:30:04.963Z</time></trkpt><trkpt lat="44.07695413825179" lon="10.931173212173887"><ele>577.9999999999999</ele><time>2026-04-06T13:30:06.963Z</time></trkpt><trkpt lat="44.07695008254934" lon="10.931276166657337"><ele>577.0</ele><time>2026-04-06T13:30:08.963Z</time></trkpt><trkpt lat="44.07697381072873" lon="10.931376048287325"><ele>576.0</ele><time>2026-04-06T13:30:10.963Z</time></trkpt><trkpt lat="44.07699944003693" lon="10.931459118656253"><ele>575.0</ele><time>2026-04-06T13:30:12.963Z</time></trkpt><trkpt lat="44.07703102940288" lon="10.931534924859537"><ele>574.0</ele><time>2026-04-06T13:30:14.963Z</time></trkpt><trkpt lat="44.07705879398227" lon="10.931617700664637"><ele>572.9999999999999</ele><time>2026-04-06T13:30:16.963Z</time></trkpt><trkpt lat="44.07709722230664" lon="10.93170018440011"><ele>572.0</ele><time>2026-04-06T13:30:19.963Z</time></trkpt><trkpt lat="44.077128230667434" lon="10.931783662649716"><ele>572.0</ele><time>2026-04-06T13:30:22.963Z</time></trkpt><trkpt lat="44.07717013727671" lon="10.931894512894988"><ele>572.0</ele><time>2026-04-06T13:30:25.963Z</time></trkpt><trkpt lat="44.077226496958446" lon="10.931974340437922"><ele>572.0</ele><time>2026-04-06T13:30:28.963Z</time></trkpt><trkpt lat="44.0772970896105" lon="10.93202416903155"><ele>572.0</ele><time>2026-04-06T13:30:31.963Z</time></trkpt><trkpt lat="44.07735680065712" lon="10.932067965773625"><ele>572.0</ele><time>2026-04-06T13:30:33.963Z</time></trkpt><trkpt lat="44.07741738032953" lon="10.932098690676385"><ele>572.0</ele><time>2026-04-06T13:30:35.963Z</time></trkpt><trkpt lat="44.0774953547217" lon="10.932130240061554"><ele>572.6666666666666</ele><time>2026-04-06T13:30:37.963Z</time></trkpt><trkpt lat="44.07757437000265" lon="10.9321959147502"><ele>573.3333333333333</ele><time>2026-04-06T13:30:39.963Z</time></trkpt><trkpt lat="44.07762655805277" lon="10.932264256205237"><ele>574.0</ele><time>2026-04-06T13:30:41.963Z</time></trkpt><trkpt lat="44.077656605405906" lon="10.93236297937231"><ele>574.6666666666666</ele><time>2026-04-06T13:30:43.963Z</time></trkpt><trkpt lat="44.07769580318943" lon="10.93247216714448"><ele>575.3333333333334</ele><time>2026-04-06T13:30:45.963Z</time></trkpt><trkpt lat="44.07776828695743" lon="10.932580418792503"><ele>576.0</ele><time>2026-04-06T13:30:47.963Z</time></trkpt><trkpt lat="44.07786583059075" lon="10.932655263478278"><ele>573.5</ele><time>2026-04-06T13:30:49.963Z</time></trkpt><trkpt lat="44.07796337822868" lon="10.93274982032776"><ele>571.0</ele><time>2026-04-06T13:30:51.963Z</time></trkpt><trkpt lat="44.078022953820664" lon="10.932818353658941"><ele>568.5</ele><time>2026-04-06T13:30:52.963Z</time></trkpt><trkpt lat="44.07806539700818" lon="10.932897929244897"><ele>566.0</ele><time>2026-04-06T13:30:53.963Z</time></trkpt><trkpt lat="44.07809872711255" lon="10.932990141794965"><ele>563.5</ele><time>2026-04-06T13:30:54.963Z</time></trkpt><trkpt lat="44.07812129970421" lon="10.933093065523245"><ele>561.0</ele><time>2026-04-06T13:30:55.963Z</time></trkpt><trkpt lat="44.07815261599674" lon="10.933193317951105"><ele>561.0</ele><time>2026-04-06T13:30:56.963Z</time></trkpt><trkpt lat="44.07819119760577" lon="10.933290735657526"><ele>561.0</ele><time>2026-04-06T13:30:57.963Z</time></trkpt><trkpt lat="44.07823563588857" lon="10.933389010718502"><ele>561.0</ele><time>2026-04-06T13:30:58.963Z</time></trkpt><trkpt lat="44.07826798320217" lon="10.933505036893544"><ele>561.0</ele><time>2026-04-06T13:30:59.963Z</time></trkpt><trkpt lat="44.07827759540615" lon="10.933623045563436"><ele>561.0</ele><time>2026-04-06T13:31:00.962Z</time></trkpt><trkpt lat="44.07829860338828" lon="10.933736847945656"><ele>561.0</ele><time>2026-04-06T13:31:01.962Z</time></trkpt><trkpt lat="44.078318735793964" lon="10.93385166602181"><ele>561.0</ele><time>2026-04-06T13:31:02.963Z</time></trkpt><trkpt lat="44.078328797769096" lon="10.933967377898965"><ele>561.0</ele><time>2026-04-06T13:31:03.963Z</time></trkpt><trkpt lat="44.078348705262776" lon="10.934089903688664"><ele>561.0</ele><time>2026-04-06T13:31:04.963Z</time></trkpt><trkpt lat="44.07837049877128" lon="10.9342089526741"><ele>561.0</ele><time>2026-04-06T13:31:05.963Z</time></trkpt><trkpt lat="44.07839009307068" lon="10.934325579738763"><ele>561.0</ele><time>2026-04-06T13:31:06.962Z</time></trkpt><trkpt lat="44.078428158200964" lon="10.934429475394209"><ele>561.0</ele><time>2026-04-06T13:31:07.962Z</time></trkpt><trkpt lat="44.07847018080749" lon="10.934525938445482"><ele>561.0</ele><time>2026-04-06T13:31:08.962Z</time></trkpt><trkpt lat="44.078508273356945" lon="10.934623675963257"><ele>561.0</ele><time>2026-04-06T13:31:09.963Z</time></trkpt><trkpt lat="44.07853362646476" lon="10.934720685242294"><ele>561.0</ele><time>2026-04-06T13:31:10.963Z</time></trkpt><trkpt lat="44.07856898394641" lon="10.934813431654593"><ele>561.0</ele><time>2026-04-06T13:31:11.963Z</time></trkpt><trkpt lat="44.07860330420926" lon="10.93490520241205"><ele>561.0</ele><time>2026-04-06T13:31:12.963Z</time></trkpt><trkpt lat="44.07863826546539" lon="10.934996145183394"><ele>561.0</ele><time>2026-04-06T13:31:13.963Z</time></trkpt><trkpt lat="44.07866446992925" lon="10.935077774319982"><ele>561.0</ele><time>2026-04-06T13:31:14.963Z</time></trkpt><trkpt lat="44.07869251633491" lon="10.935166769094105"><ele>560.0</ele><time>2026-04-06T13:31:15.963Z</time></trkpt><trkpt lat="44.07871939782554" lon="10.935249725945704"><ele>559.0</ele><time>2026-04-06T13:31:16.963Z</time></trkpt><trkpt lat="44.07875245350805" lon="10.93532963932087"><ele>558.0</ele><time>2026-04-06T13:31:17.963Z</time></trkpt><trkpt lat="44.07882750654164" lon="10.935475879846761"><ele>557.0</ele><time>2026-04-06T13:31:19.963Z</time></trkpt><trkpt lat="44.07886956231453" lon="10.935541899800691"><ele>556.0</ele><time>2026-04-06T13:31:20.963Z</time></trkpt><trkpt lat="44.07897756794219" lon="10.935614583211304"><ele>555.0</ele><time>2026-04-06T13:31:22.963Z</time></trkpt><trkpt lat="44.07905472063513" lon="10.935609224998615"><ele>556.6666666666666</ele><time>2026-04-06T13:31:23.963Z</time></trkpt><trkpt lat="44.07912190912256" lon="10.935593139064935"><ele>558.3333333333334</ele><time>2026-04-06T13:31:24.963Z</time></trkpt><trkpt lat="44.07918690395772" lon="10.935566878838813"><ele>560.0</ele><time>2026-04-06T13:31:25.963Z</time></trkpt><trkpt lat="44.07925459548247" lon="10.935567377137211"><ele>561.6666666666667</ele><time>2026-04-06T13:31:26.963Z</time></trkpt><trkpt lat="44.079360330452744" lon="10.935512104855158"><ele>563.3333333333334</ele><time>2026-04-06T13:31:28.963Z</time></trkpt><trkpt lat="44.07944663728119" lon="10.935515764902258"><ele>565.0</ele><time>2026-04-06T13:31:30.963Z</time></trkpt><trkpt lat="44.0795219875074" lon="10.935597581621883"><ele>565.0</ele><time>2026-04-06T13:31:31.963Z</time></trkpt><trkpt lat="44.079565598518194" lon="10.935670024253318"><ele>565.0</ele><time>2026-04-06T13:31:32.963Z</time></trkpt><trkpt lat="44.07962440791137" lon="10.935778661824859"><ele>565.0</ele><time>2026-04-06T13:31:34.963Z</time></trkpt><trkpt lat="44.07961589677539" lon="10.9359055140124"><ele>565.0</ele><time>2026-04-06T13:31:36.963Z</time></trkpt><trkpt lat="44.07958258681762" lon="10.936001259205756"><ele>565.0</ele><time>2026-04-06T13:31:38.963Z</time></trkpt><trkpt lat="44.079533713361066" lon="10.936074806845694"><ele>565.0</ele><time>2026-04-06T13:31:40.963Z</time></trkpt><trkpt lat="44.07949204671337" lon="10.936147424657989"><ele>563.6666666666667</ele><time>2026-04-06T13:31:42.963Z</time></trkpt><trkpt lat="44.07944220632116" lon="10.936249822727289"><ele>562.3333333333334</ele><time>2026-04-06T13:31:45.963Z</time></trkpt><trkpt lat="44.07942077733832" lon="10.936367423397863"><ele>561.0</ele><time>2026-04-06T13:31:47.963Z</time></trkpt><trkpt lat="44.07943514213747" lon="10.936494422001934"><ele>559.6666666666666</ele><time>2026-04-06T13:31:49.963Z</time></trkpt><trkpt lat="44.079461977885394" lon="10.936594099821175"><ele>558.3333333333333</ele><time>2026-04-06T13:31:51.963Z</time></trkpt><trkpt lat="44.07950490642724" lon="10.936682173254832"><ele>557.0</ele><time>2026-04-06T13:31:53.963Z</time></trkpt><trkpt lat="44.07955843144807" lon="10.936766351304781"><ele>556.2857142857143</ele><time>2026-04-06T13:31:55.963Z</time></trkpt><trkpt lat="44.079587716778526" lon="10.93684597569477"><ele>555.5714285714286</ele><time>2026-04-06T13:31:57.963Z</time></trkpt><trkpt lat="44.07962882553885" lon="10.93691984426688"><ele>554.8571428571429</ele><time>2026-04-06T13:31:59.963Z</time></trkpt><trkpt lat="44.079663779865236" lon="10.937004665500753"><ele>554.1428571428571</ele><time>2026-04-06T13:32:02.963Z</time></trkpt><trkpt lat="44.079677056663165" lon="10.937118576789041"><ele>553.4285714285714</ele><time>2026-04-06T13:32:05.963Z</time></trkpt><trkpt lat="44.079708072603204" lon="10.937201537695861"><ele>552.7142857142858</ele><time>2026-04-06T13:32:07.963Z</time></trkpt><trkpt lat="44.079758550547446" lon="10.93729882065608"><ele>552.0</ele><time>2026-04-06T13:32:09.963Z</time></trkpt><trkpt lat="44.079822668243445" lon="10.937392297438757"><ele>552.0</ele><time>2026-04-06T13:32:11.963Z</time></trkpt><trkpt lat="44.07987550616082" lon="10.937479759337597"><ele>552.0</ele><time>2026-04-06T13:32:13.963Z</time></trkpt><trkpt lat="44.079924775621016" lon="10.937579941521035"><ele>552.0</ele><time>2026-04-06T13:32:15.963Z</time></trkpt><trkpt lat="44.07997255170435" lon="10.937661107236947"><ele>552.0</ele><time>2026-04-06T13:32:17.963Z</time></trkpt><trkpt lat="44.08001958793834" lon="10.937743368652873"><ele>552.0</ele><time>2026-04-06T13:32:19.963Z</time></trkpt><trkpt lat="44.08006642577537" lon="10.937831103026383"><ele>552.0</ele><time>2026-04-06T13:32:21.963Z</time></trkpt><trkpt lat="44.08010747956048" lon="10.93791161481964"><ele>552.5</ele><time>2026-04-06T13:32:23.963Z</time></trkpt><trkpt lat="44.0801583612594" lon="10.937973440217798"><ele>553.0</ele><time>2026-04-06T13:32:25.963Z</time></trkpt><trkpt lat="44.08022013926491" lon="10.938049282828484"><ele>553.5</ele><time>2026-04-06T13:32:28.963Z</time></trkpt><trkpt lat="44.080292123751995" lon="10.93811847740566"><ele>554.0</ele><time>2026-04-06T13:32:31.963Z</time></trkpt><trkpt lat="44.08036117825813" lon="10.938165746039378"><ele>554.5</ele><time>2026-04-06T13:32:33.963Z</time></trkpt><trkpt lat="44.080415998700744" lon="10.938224437194886"><ele>555.0</ele><time>2026-04-06T13:32:35.963Z</time></trkpt><trkpt lat="44.08046903578068" lon="10.938306932843807"><ele>553.8333333333334</ele><time>2026-04-06T13:32:37.963Z</time></trkpt><trkpt lat="44.08049915067494" lon="10.938397707125745"><ele>552.6666666666666</ele><time>2026-04-06T13:32:39.963Z</time></trkpt><trkpt lat="44.08050076150007" lon="10.938525379365451"><ele>551.5</ele><time>2026-04-06T13:32:42.963Z</time></trkpt><trkpt lat="44.080515979865524" lon="10.938633664158656"><ele>550.3333333333333</ele><time>2026-04-06T13:32:45.963Z</time></trkpt><trkpt lat="44.080535866030175" lon="10.938744919438877"><ele>549.1666666666666</ele><time>2026-04-06T13:32:48.963Z</time></trkpt><trkpt lat="44.08055483385744" lon="10.938836398652308"><ele>548.0</ele><time>2026-04-06T13:32:50.963Z</time></trkpt><trkpt lat="44.080600373460506" lon="10.938919058091285"><ele>548.0</ele><time>2026-04-06T13:32:52.963Z</time></trkpt><trkpt lat="44.08062728156939" lon="10.939015779612802"><ele>548.0</ele><time>2026-04-06T13:32:54.963Z</time></trkpt><trkpt lat="44.08061827234705" lon="10.939108734460754"><ele>548.0</ele><time>2026-04-06T13:32:56.963Z</time></trkpt><trkpt lat="44.08056349384519" lon="10.93921752185814"><ele>548.0</ele><time>2026-04-06T13:32:59.963Z</time></trkpt><trkpt lat="44.08055224423425" lon="10.939316810681156"><ele>548.0</ele><time>2026-04-06T13:33:01.963Z</time></trkpt><trkpt lat="44.08053932489488" lon="10.93941700875956"><ele>548.0</ele><time>2026-04-06T13:33:03.961Z</time></trkpt><trkpt lat="44.08056535770614" lon="10.93952424087637"><ele>548.0000000000001</ele><time>2026-04-06T13:33:05.961Z</time></trkpt><trkpt lat="44.08057741026892" lon="10.939617446789477"><ele>548.0</ele><time>2026-04-06T13:33:07.961Z</time></trkpt><trkpt lat="44.080587903872114" lon="10.939714514445884"><ele>548.0</ele><time>2026-04-06T13:33:09.961Z</time></trkpt><trkpt lat="44.080612368033236" lon="10.939819852041655"><ele>548.0</ele><time>2026-04-06T13:33:11.962Z</time></trkpt><trkpt lat="44.08061511054574" lon="10.939921895610771"><ele>548.0</ele><time>2026-04-06T13:33:13.962Z</time></trkpt><trkpt lat="44.0806259327165" lon="10.940024306103078"><ele>548.0000000000001</ele><time>2026-04-06T13:33:15.961Z</time></trkpt><trkpt lat="44.080646267378164" lon="10.940123837229201"><ele>548.0</ele><time>2026-04-06T13:33:17.961Z</time></trkpt><trkpt lat="44.080675916294986" lon="10.94020804934759"><ele>548.0</ele><time>2026-04-06T13:33:19.961Z</time></trkpt><trkpt lat="44.080651409979176" lon="10.940319900023297"><ele>548.0</ele><time>2026-04-06T13:33:21.961Z</time></trkpt><trkpt lat="44.08064299474581" lon="10.940424213841412"><ele>548.0</ele><time>2026-04-06T13:33:23.961Z</time></trkpt><trkpt lat="44.08063571256553" lon="10.940550804699111"><ele>548.0</ele><time>2026-04-06T13:33:25.961Z</time></trkpt><trkpt lat="44.080627415194925" lon="10.94067608064871"><ele>548.0</ele><time>2026-04-06T13:33:27.961Z</time></trkpt><trkpt lat="44.080614541631874" lon="10.94079975418986"><ele>548.0</ele><time>2026-04-06T13:33:29.961Z</time></trkpt><trkpt lat="44.08061527006703" lon="10.940891925168119"><ele>547.6666666666666</ele><time>2026-04-06T13:33:31.961Z</time></trkpt><trkpt lat="44.080607897578794" lon="10.940985516916708"><ele>547.3333333333333</ele><time>2026-04-06T13:33:33.961Z</time></trkpt><trkpt lat="44.080597281222346" lon="10.94110527313708"><ele>547.0</ele><time>2026-04-06T13:33:36.961Z</time></trkpt><trkpt lat="44.080580697383134" lon="10.941199464109937"><ele>546.6666666666666</ele><time>2026-04-06T13:33:38.961Z</time></trkpt><trkpt lat="44.08056614152979" lon="10.941293099541635"><ele>546.3333333333334</ele><time>2026-04-06T13:33:40.961Z</time></trkpt><trkpt lat="44.08057190305291" lon="10.941408566917783"><ele>546.0</ele><time>2026-04-06T13:33:42.961Z</time></trkpt><trkpt lat="44.080589606144166" lon="10.94152339596357"><ele>546.0</ele><time>2026-04-06T13:33:44.961Z</time></trkpt><trkpt lat="44.08062311613722" lon="10.941633540563913"><ele>546.0</ele><time>2026-04-06T13:33:46.961Z</time></trkpt><trkpt lat="44.080658239412955" lon="10.94174393693405"><ele>546.0</ele><time>2026-04-06T13:33:48.961Z</time></trkpt><trkpt lat="44.080699795799" lon="10.941876526871543"><ele>546.0</ele><time>2026-04-06T13:33:50.961Z</time></trkpt><trkpt lat="44.08074867717597" lon="10.942006280094322"><ele>546.0</ele><time>2026-04-06T13:33:52.961Z</time></trkpt><trkpt lat="44.080800405224394" lon="10.94213021287312"><ele>546.2</ele><time>2026-04-06T13:33:54.961Z</time></trkpt><trkpt lat="44.08083614455259" lon="10.942243227504086"><ele>546.4000000000001</ele><time>2026-04-06T13:33:56.961Z</time></trkpt><trkpt lat="44.08092382680058" lon="10.942350023091668"><ele>546.6</ele><time>2026-04-06T13:33:58.961Z</time></trkpt><trkpt lat="44.08101143851674" lon="10.942444960794363"><ele>546.8000000000001</ele><time>2026-04-06T13:34:00.961Z</time></trkpt><trkpt lat="44.0810840415742" lon="10.942535097096272"><ele>547.0</ele><time>2026-04-06T13:34:02.961Z</time></trkpt><trkpt lat="44.0811732173946" lon="10.942610205919715"><ele>547.0</ele><time>2026-04-06T13:34:04.961Z</time></trkpt><trkpt lat="44.08125161177155" lon="10.942723761164066"><ele>547.0</ele><time>2026-04-06T13:34:06.961Z</time></trkpt><trkpt lat="44.08132478840632" lon="10.94282916681855"><ele>547.0</ele><time>2026-04-06T13:34:08.961Z</time></trkpt><trkpt lat="44.08140038647347" lon="10.94289853790002"><ele>547.0</ele><time>2026-04-06T13:34:10.961Z</time></trkpt><trkpt lat="44.081465136129836" lon="10.942974818264767"><ele>547.0</ele><time>2026-04-06T13:34:12.961Z</time></trkpt><trkpt lat="44.08152775905754" lon="10.943044156337741"><ele>547.3333333333334</ele><time>2026-04-06T13:34:14.961Z</time></trkpt><trkpt lat="44.08159896004953" lon="10.943081536216843"><ele>547.6666666666667</ele><time>2026-04-06T13:34:16.961Z</time></trkpt><trkpt lat="44.08167220133686" lon="10.943135817868622"><ele>548.0</ele><time>2026-04-06T13:34:18.961Z</time></trkpt><trkpt lat="44.081776376533504" lon="10.94317480624721"><ele>548.3333333333334</ele><time>2026-04-06T13:34:20.961Z</time></trkpt><trkpt lat="44.08185287814003" lon="10.943159688842321"><ele>548.6666666666666</ele><time>2026-04-06T13:34:22.961Z</time></trkpt><trkpt lat="44.08193791714799" lon="10.943131417758803"><ele>549.0</ele><time>2026-04-06T13:34:24.961Z</time></trkpt><trkpt lat="44.08201683455648" lon="10.943117352591164"><ele>549.0</ele><time>2026-04-06T13:34:26.961Z</time></trkpt><trkpt lat="44.082095680208525" lon="10.943183082847279"><ele>549.0</ele><time>2026-04-06T13:34:28.961Z</time></trkpt><trkpt lat="44.08214012036454" lon="10.943276945070565"><ele>549.0</ele><time>2026-04-06T13:34:30.961Z</time></trkpt><trkpt lat="44.082198382397166" lon="10.943363240065343"><ele>549.0</ele><time>2026-04-06T13:34:32.961Z</time></trkpt><trkpt lat="44.08227416719123" lon="10.943439809157399"><ele>549.0</ele><time>2026-04-06T13:34:34.961Z</time></trkpt><trkpt lat="44.08235611849067" lon="10.943494431481934"><ele>549.0</ele><time>2026-04-06T13:34:36.961Z</time></trkpt><trkpt lat="44.082484155428034" lon="10.943551237182941"><ele>546.6</ele><time>2026-04-06T13:34:38.961Z</time></trkpt><trkpt lat="44.082595495813415" lon="10.943610467202403"><ele>544.2</ele><time>2026-04-06T13:34:40.961Z</time></trkpt><trkpt lat="44.08268987041372" lon="10.943656003492046"><ele>541.8000000000001</ele><time>2026-04-06T13:34:42.961Z</time></trkpt><trkpt lat="44.082768356215475" lon="10.943707991433032"><ele>539.4</ele><time>2026-04-06T13:34:44.961Z</time></trkpt><trkpt lat="44.08284063336466" lon="10.943724944011382"><ele>537.0</ele><time>2026-04-06T13:34:46.961Z</time></trkpt><trkpt lat="44.08292322805814" lon="10.94378680010207"><ele>536.9999999999999</ele><time>2026-04-06T13:34:49.961Z</time></trkpt><trkpt lat="44.08299229093624" lon="10.943820893519053"><ele>537.0</ele><time>2026-04-06T13:34:52.961Z</time></trkpt><trkpt lat="44.08307704647873" lon="10.943851685660324"><ele>537.0</ele><time>2026-04-06T13:34:55.961Z</time></trkpt><trkpt lat="44.08314253290259" lon="10.943905713214892"><ele>537.0</ele><time>2026-04-06T13:34:58.961Z</time></trkpt><trkpt lat="44.083200917243126" lon="10.943946066683798"><ele>537.0</ele><time>2026-04-06T13:35:01.961Z</time></trkpt><trkpt lat="44.08326969913897" lon="10.943917364399335"><ele>536.9999999999999</ele><time>2026-04-06T13:35:07.961Z</time></trkpt><trkpt lat="44.08333110864241" lon="10.943939631834736"><ele>537.0</ele><time>2026-04-06T13:35:56.96Z</time></trkpt><trkpt lat="44.08337713831222" lon="10.94399946544403"><ele>538.4285714285713</ele><time>2026-04-06T13:36:01.96Z</time></trkpt><trkpt lat="44.08344371393194" lon="10.943980010017755"><ele>539.8571428571429</ele><time>2026-04-06T13:36:51.96Z</time></trkpt><trkpt lat="44.083500130192846" lon="10.944034507390324"><ele>541.2857142857142</ele><time>2026-04-06T13:38:13.959Z</time></trkpt><trkpt lat="44.08356401280247" lon="10.944021165873641"><ele>542.7142857142857</ele><time>2026-04-06T13:38:32.959Z</time></trkpt><trkpt lat="44.08351907047243" lon="10.943943963682129"><ele>544.1428571428571</ele><time>2026-04-06T13:38:40.959Z</time></trkpt><trkpt lat="44.08345667543844" lon="10.943904776728967"><ele>545.5714285714286</ele><time>2026-04-06T13:38:45.959Z</time></trkpt><trkpt lat="44.08338242769738" lon="10.94391759903794"><ele>547.0</ele><time>2026-04-06T13:38:49.959Z</time></trkpt><trkpt lat="44.083303863862966" lon="10.943877356765903"><ele>545.5714285714286</ele><time>2026-04-06T13:38:54.959Z</time></trkpt><trkpt lat="44.08322918098928" lon="10.943849336405538"><ele>544.1428571428571</ele><time>2026-04-06T13:38:58.959Z</time></trkpt><trkpt lat="44.08316083103456" lon="10.943852628117405"><ele>542.7142857142857</ele><time>2026-04-06T13:39:01.958Z</time></trkpt><trkpt lat="44.08308913094467" lon="10.94383988707808"><ele>541.2857142857142</ele><time>2026-04-06T13:39:05.958Z</time></trkpt><trkpt lat="44.08316397457739" lon="10.943800761697045"><ele>539.8571428571429</ele><time>2026-04-06T13:43:46.955Z</time></trkpt><trkpt lat="44.08314338085199" lon="10.943712291835196"><ele>538.4285714285713</ele><time>2026-04-06T13:44:18.954Z</time></trkpt><trkpt lat="44.08314868075421" lon="10.943814630170277"><ele>537.0</ele><time>2026-04-06T13:46:20.954Z</time></trkpt><trkpt lat="44.083211571641186" lon="10.943848641428188"><ele>537.0</ele><time>2026-04-06T13:46:24.954Z</time></trkpt><trkpt lat="44.08314926417389" lon="10.943762312370456"><ele>537.0</ele><time>2026-04-06T13:46:32.954Z</time></trkpt><trkpt lat="44.08306449570645" lon="10.943747692704157"><ele>537.0</ele><time>2026-04-06T13:46:35.954Z</time></trkpt><trkpt lat="44.082986324833904" lon="10.943720651745817"><ele>537.0</ele><time>2026-04-06T13:46:38.954Z</time></trkpt><trkpt lat="44.08290750713956" lon="10.943684501745322"><ele>537.0</ele><time>2026-04-06T13:46:41.954Z</time></trkpt><trkpt lat="44.08282241130801" lon="10.94363871684659"><ele>537.0</ele><time>2026-04-06T13:46:44.954Z</time></trkpt><trkpt lat="44.082748097385846" lon="10.943598487993352"><ele>537.0</ele><time>2026-04-06T13:46:47.954Z</time></trkpt><trkpt lat="44.08267475852043" lon="10.943546239284592"><ele>537.0</ele><time>2026-04-06T13:46:50.954Z</time></trkpt><trkpt lat="44.08259957676231" lon="10.943499639150296"><ele>537.0</ele><time>2026-04-06T13:46:53.954Z</time></trkpt><trkpt lat="44.08251495637929" lon="10.943466352854658"><ele>537.0</ele><time>2026-04-06T13:46:56.954Z</time></trkpt><trkpt lat="44.08243818653846" lon="10.943409136635255"><ele>537.0</ele><time>2026-04-06T13:46:59.954Z</time></trkpt><trkpt lat="44.082367444955224" lon="10.943342807161725"><ele>537.0</ele><time>2026-04-06T13:47:02.954Z</time></trkpt><trkpt lat="44.08233209568681" lon="10.943262936500583"><ele>539.0</ele><time>2026-04-06T13:47:04.954Z</time></trkpt><trkpt lat="44.08227330830937" lon="10.94316770013352"><ele>541.0</ele><time>2026-04-06T13:47:07.954Z</time></trkpt><trkpt lat="44.08220715733971" lon="10.943082413307053"><ele>543.0</ele><time>2026-04-06T13:47:10.954Z</time></trkpt><trkpt lat="44.082139484270115" lon="10.943046432603492"><ele>545.0</ele><time>2026-04-06T13:47:13.954Z</time></trkpt><trkpt lat="44.08206139561038" lon="10.943087013950242"><ele>547.0</ele><time>2026-04-06T13:47:17.954Z</time></trkpt><trkpt lat="44.08199210665476" lon="10.943120196598219"><ele>549.0</ele><time>2026-04-06T13:47:20.954Z</time></trkpt><trkpt lat="44.081917458154535" lon="10.943107487647286"><ele>549.0</ele><time>2026-04-06T13:47:22.954Z</time></trkpt><trkpt lat="44.08182606487191" lon="10.943075848389238"><ele>549.0</ele><time>2026-04-06T13:47:24.954Z</time></trkpt><trkpt lat="44.08175806635316" lon="10.943031965190265"><ele>549.0</ele><time>2026-04-06T13:47:26.954Z</time></trkpt><trkpt lat="44.081698651736495" lon="10.942994038837178"><ele>549.0</ele><time>2026-04-06T13:47:28.954Z</time></trkpt><trkpt lat="44.08163204785434" lon="10.94295758834748"><ele>549.0</ele><time>2026-04-06T13:47:31.953Z</time></trkpt><trkpt lat="44.081547884753014" lon="10.942909819698578"><ele>549.0</ele><time>2026-04-06T13:47:34.953Z</time></trkpt><trkpt lat="44.081463417148335" lon="10.942819586632536"><ele>548.7142857142857</ele><time>2026-04-06T13:47:37.953Z</time></trkpt><trkpt lat="44.08139254463992" lon="10.942739736141496"><ele>548.4285714285714</ele><time>2026-04-06T13:47:40.953Z</time></trkpt><trkpt lat="44.08132672569136" lon="10.942705772368738"><ele>548.1428571428571</ele><time>2026-04-06T13:47:42.953Z</time></trkpt><trkpt lat="44.0812772921527" lon="10.942647173606602"><ele>547.8571428571429</ele><time>2026-04-06T13:47:44.953Z</time></trkpt><trkpt lat="44.081213045356954" lon="10.94260133721555"><ele>547.5714285714286</ele><time>2026-04-06T13:47:47.952Z</time></trkpt><trkpt lat="44.081137153324626" lon="10.942568400040068"><ele>547.2857142857142</ele><time>2026-04-06T13:47:50.953Z</time></trkpt><trkpt lat="44.081071965725734" lon="10.942538630905482"><ele>547.0</ele><time>2026-04-06T13:47:52.953Z</time></trkpt><trkpt lat="44.081016039038644" lon="10.942493967518518"><ele>548.0</ele><time>2026-04-06T13:47:55.953Z</time></trkpt><trkpt lat="44.08095847785178" lon="10.942408718506044"><ele>549.0</ele><time>2026-04-06T13:47:58.953Z</time></trkpt><trkpt lat="44.080919858879334" lon="10.94231320463996"><ele>550.0</ele><time>2026-04-06T13:48:01.953Z</time></trkpt><trkpt lat="44.080889929919344" lon="10.942217221434182"><ele>551.0</ele><time>2026-04-06T13:48:04.953Z</time></trkpt><trkpt lat="44.08084737874676" lon="10.942094236091732"><ele>552.0</ele><time>2026-04-06T13:48:07.952Z</time></trkpt><trkpt lat="44.080850750963094" lon="10.941978843907703"><ele>553.0</ele><time>2026-04-06T13:48:10.952Z</time></trkpt><trkpt lat="44.08083946435369" lon="10.94188555807"><ele>553.0</ele><time>2026-04-06T13:48:12.952Z</time></trkpt><trkpt lat="44.080822215432896" lon="10.94178497255713"><ele>553.0</ele><time>2026-04-06T13:48:14.952Z</time></trkpt><trkpt lat="44.08079270792732" lon="10.941707553166133"><ele>553.0</ele><time>2026-04-06T13:48:16.952Z</time></trkpt><trkpt lat="44.08075847278787" lon="10.941617454267586"><ele>553.0</ele><time>2026-04-06T13:48:19.952Z</time></trkpt><trkpt lat="44.08071687738007" lon="10.941467967177378"><ele>553.0</ele><time>2026-04-06T13:48:22.952Z</time></trkpt><trkpt lat="44.080723738268794" lon="10.94134033706593"><ele>553.0</ele><time>2026-04-06T13:48:25.952Z</time></trkpt><trkpt lat="44.08073815259802" lon="10.941199374839767"><ele>552.2857142857143</ele><time>2026-04-06T13:48:27.952Z</time></trkpt><trkpt lat="44.08074364730803" lon="10.941099169396898"><ele>551.5714285714286</ele><time>2026-04-06T13:48:30.952Z</time></trkpt><trkpt lat="44.080734378138025" lon="10.94100292773992"><ele>550.8571428571429</ele><time>2026-04-06T13:48:32.952Z</time></trkpt><trkpt lat="44.08072451340277" lon="10.940899183255555"><ele>550.1428571428571</ele><time>2026-04-06T13:48:34.952Z</time></trkpt><trkpt lat="44.08071688900425" lon="10.940783588557627"><ele>549.4285714285714</ele><time>2026-04-06T13:48:36.952Z</time></trkpt><trkpt lat="44.08070534006391" lon="10.940690096456473"><ele>548.7142857142858</ele><time>2026-04-06T13:48:38.952Z</time></trkpt><trkpt lat="44.08068496611691" lon="10.940586967128832"><ele>548.0</ele><time>2026-04-06T13:48:40.952Z</time></trkpt><trkpt lat="44.08067204222905" lon="10.940476804059653"><ele>548.0</ele><time>2026-04-06T13:48:42.952Z</time></trkpt><trkpt lat="44.080664516721505" lon="10.940382581399236"><ele>548.0</ele><time>2026-04-06T13:48:44.952Z</time></trkpt><trkpt lat="44.08065639545026" lon="10.940269534050884"><ele>548.0</ele><time>2026-04-06T13:48:47.952Z</time></trkpt><trkpt lat="44.080644152805405" lon="10.940177868075809"><ele>548.0</ele><time>2026-04-06T13:48:49.952Z</time></trkpt><trkpt lat="44.08063526625304" lon="10.940072612489988"><ele>548.0</ele><time>2026-04-06T13:48:51.952Z</time></trkpt><trkpt lat="44.080646988636474" lon="10.939948890119975"><ele>548.0</ele><time>2026-04-06T13:48:54.952Z</time></trkpt><trkpt lat="44.08066055606263" lon="10.9398544729868"><ele>547.5</ele><time>2026-04-06T13:48:56.952Z</time></trkpt><trkpt lat="44.080691817625315" lon="10.939741085420115"><ele>547.0</ele><time>2026-04-06T13:48:59.952Z</time></trkpt><trkpt lat="44.080690484115365" lon="10.93964504380903"><ele>546.5</ele><time>2026-04-06T13:49:01.952Z</time></trkpt><trkpt lat="44.08066496089226" lon="10.939557696929837"><ele>546.0</ele><time>2026-04-06T13:49:03.952Z</time></trkpt><trkpt lat="44.080609971261396" lon="10.939468271820695"><ele>545.5</ele><time>2026-04-06T13:49:05.952Z</time></trkpt><trkpt lat="44.08057382162559" lon="10.939375600669557"><ele>545.0</ele><time>2026-04-06T13:49:07.952Z</time></trkpt><trkpt lat="44.08055483794764" lon="10.939238779944144"><ele>545.5</ele><time>2026-04-06T13:49:09.952Z</time></trkpt><trkpt lat="44.08055872124685" lon="10.939118971404387"><ele>546.0</ele><time>2026-04-06T13:49:11.952Z</time></trkpt><trkpt lat="44.080557041621255" lon="10.938990470012046"><ele>546.5</ele><time>2026-04-06T13:49:13.952Z</time></trkpt><trkpt lat="44.08052244359923" lon="10.938873909146011"><ele>547.0</ele><time>2026-04-06T13:49:15.952Z</time></trkpt><trkpt lat="44.08047558853045" lon="10.938769792353266"><ele>547.5</ele><time>2026-04-06T13:49:17.952Z</time></trkpt><trkpt lat="44.08040840834136" lon="10.938701233702934"><ele>548.0</ele><time>2026-04-06T13:49:19.952Z</time></trkpt><trkpt lat="44.080357909443975" lon="10.93861858591713"><ele>548.0</ele><time>2026-04-06T13:49:22.952Z</time></trkpt><trkpt lat="44.080280271580655" lon="10.938546377155653"><ele>548.0</ele><time>2026-04-06T13:49:24.952Z</time></trkpt><trkpt lat="44.08020937709986" lon="10.938453075230045"><ele>548.0</ele><time>2026-04-06T13:49:26.952Z</time></trkpt><trkpt lat="44.08017600819995" lon="10.938337442634767"><ele>548.0</ele><time>2026-04-06T13:49:28.952Z</time></trkpt><trkpt lat="44.08015240728612" lon="10.938231933201578"><ele>548.0</ele><time>2026-04-06T13:49:30.952Z</time></trkpt><trkpt lat="44.08009832721606" lon="10.938123350716792"><ele>548.5</ele><time>2026-04-06T13:49:32.952Z</time></trkpt><trkpt lat="44.080062825728156" lon="10.938005121447292"><ele>549.0</ele><time>2026-04-06T13:49:34.952Z</time></trkpt><trkpt lat="44.0800256038524" lon="10.937886256665701"><ele>549.5</ele><time>2026-04-06T13:49:36.952Z</time></trkpt><trkpt lat="44.07997433108158" lon="10.937757058168955"><ele>550.0</ele><time>2026-04-06T13:49:38.952Z</time></trkpt><trkpt lat="44.079922225194615" lon="10.937653466374497"><ele>550.5</ele><time>2026-04-06T13:49:40.952Z</time></trkpt><trkpt lat="44.07988292830494" lon="10.937580242978028"><ele>551.0</ele><time>2026-04-06T13:49:42.952Z</time></trkpt><trkpt lat="44.07984932928816" lon="10.93742876747754"><ele>551.1666666666666</ele><time>2026-04-06T13:49:44.952Z</time></trkpt><trkpt lat="44.0797950468912" lon="10.937317149834044"><ele>551.3333333333333</ele><time>2026-04-06T13:49:46.952Z</time></trkpt><trkpt lat="44.079760163794994" lon="10.93720107594417"><ele>551.5</ele><time>2026-04-06T13:49:49.952Z</time></trkpt><trkpt lat="44.07969849408733" lon="10.937113300356916"><ele>551.6666666666666</ele><time>2026-04-06T13:49:51.951Z</time></trkpt><trkpt lat="44.07964017832472" lon="10.937024909217714"><ele>551.8333333333334</ele><time>2026-04-06T13:49:53.951Z</time></trkpt><trkpt lat="44.07958420691556" lon="10.936941825406354"><ele>552.0</ele><time>2026-04-06T13:49:55.952Z</time></trkpt><trkpt lat="44.079563028582825" lon="10.936782065080372"><ele>553.0</ele><time>2026-04-06T13:49:57.952Z</time></trkpt><trkpt lat="44.079566240659176" lon="10.936621477133379"><ele>554.0</ele><time>2026-04-06T13:49:59.951Z</time></trkpt><trkpt lat="44.07957641169927" lon="10.936484479103244"><ele>555.0</ele><time>2026-04-06T13:50:01.952Z</time></trkpt><trkpt lat="44.07959598321911" lon="10.93639998364475"><ele>556.0</ele><time>2026-04-06T13:50:03.951Z</time></trkpt><trkpt lat="44.07962738092652" lon="10.93628778976134"><ele>557.0</ele><time>2026-04-06T13:50:05.951Z</time></trkpt><trkpt lat="44.07967537902801" lon="10.93618820347698"><ele>557.0</ele><time>2026-04-06T13:50:07.951Z</time></trkpt><trkpt lat="44.079714998476796" lon="10.936076669952238"><ele>557.0</ele><time>2026-04-06T13:50:09.951Z</time></trkpt><trkpt lat="44.079733619840596" lon="10.93595765000834"><ele>557.0</ele><time>2026-04-06T13:50:11.951Z</time></trkpt><trkpt lat="44.079697496592566" lon="10.935824604401716"><ele>557.0</ele><time>2026-04-06T13:50:13.951Z</time></trkpt><trkpt lat="44.07963027877003" lon="10.935698871579119"><ele>557.0</ele><time>2026-04-06T13:50:15.951Z</time></trkpt><trkpt lat="44.079566863779135" lon="10.935595151837264"><ele>558.3333333333333</ele><time>2026-04-06T13:50:17.951Z</time></trkpt><trkpt lat="44.07950391637418" lon="10.935514203104734"><ele>559.6666666666666</ele><time>2026-04-06T13:50:19.951Z</time></trkpt><trkpt lat="44.07943246778972" lon="10.935531187753847"><ele>561.0</ele><time>2026-04-06T13:50:22.951Z</time></trkpt><trkpt lat="44.07934183928461" lon="10.935552429011722"><ele>562.3333333333334</ele><time>2026-04-06T13:50:24.951Z</time></trkpt><trkpt lat="44.079268112773896" lon="10.935598376939334"><ele>563.6666666666667</ele><time>2026-04-06T13:50:27.951Z</time></trkpt><trkpt lat="44.07918294299261" lon="10.935634661498964"><ele>565.0</ele><time>2026-04-06T13:50:30.951Z</time></trkpt><trkpt lat="44.079121504773525" lon="10.935609108416783"><ele>563.5714285714286</ele><time>2026-04-06T13:50:32.951Z</time></trkpt><trkpt lat="44.0790382741567" lon="10.935582167489466"><ele>562.1428571428571</ele><time>2026-04-06T13:50:34.951Z</time></trkpt><trkpt lat="44.07897342547957" lon="10.935553176556963"><ele>560.7142857142858</ele><time>2026-04-06T13:50:36.951Z</time></trkpt><trkpt lat="44.07892649404669" lon="10.935489039080771"><ele>559.2857142857142</ele><time>2026-04-06T13:50:38.951Z</time></trkpt><trkpt lat="44.07887491838141" lon="10.935401211538949"><ele>557.8571428571429</ele><time>2026-04-06T13:50:41.951Z</time></trkpt><trkpt lat="44.0788349543995" lon="10.935331472472855"><ele>556.4285714285714</ele><time>2026-04-06T13:50:43.951Z</time></trkpt><trkpt lat="44.07879232026422" lon="10.935257533466796"><ele>555.0</ele><time>2026-04-06T13:50:45.951Z</time></trkpt><trkpt lat="44.07875479929247" lon="10.935145617615945"><ele>556.0</ele><time>2026-04-06T13:50:48.951Z</time></trkpt><trkpt lat="44.07870681088928" lon="10.935037524169223"><ele>557.0</ele><time>2026-04-06T13:50:51.951Z</time></trkpt><trkpt lat="44.07867293203557" lon="10.934928231365676"><ele>558.0</ele><time>2026-04-06T13:50:54.951Z</time></trkpt><trkpt lat="44.07862730222165" lon="10.934831136813527"><ele>559.0</ele><time>2026-04-06T13:50:57.951Z</time></trkpt><trkpt lat="44.078586287742446" lon="10.934722523902273"><ele>560.0</ele><time>2026-04-06T13:51:00.951Z</time></trkpt><trkpt lat="44.0785488076004" lon="10.93464220944264"><ele>561.0</ele><time>2026-04-06T13:51:02.951Z</time></trkpt><trkpt lat="44.078495691823086" lon="10.93454774836908"><ele>561.0</ele><time>2026-04-06T13:51:05.951Z</time></trkpt><trkpt lat="44.078448180699816" lon="10.934439277996653"><ele>561.0</ele><time>2026-04-06T13:51:08.951Z</time></trkpt><trkpt lat="44.0784271122415" lon="10.934350771470557"><ele>561.0</ele><time>2026-04-06T13:51:10.951Z</time></trkpt><trkpt lat="44.07840901723859" lon="10.934252563554464"><ele>561.0</ele><time>2026-04-06T13:51:12.951Z</time></trkpt><trkpt lat="44.07838113287699" lon="10.934151833697188"><ele>561.0</ele><time>2026-04-06T13:51:14.951Z</time></trkpt><trkpt lat="44.07835376822413" lon="10.934058140591215"><ele>561.0</ele><time>2026-04-06T13:51:16.951Z</time></trkpt><trkpt lat="44.07833072412289" lon="10.933965247007945"><ele>561.0</ele><time>2026-04-06T13:51:18.951Z</time></trkpt><trkpt lat="44.07831984608942" lon="10.933839232708287"><ele>561.0</ele><time>2026-04-06T13:51:21.951Z</time></trkpt><trkpt lat="44.07829925328109" lon="10.933735904018725"><ele>561.0</ele><time>2026-04-06T13:51:24.951Z</time></trkpt><trkpt lat="44.07827224431264" lon="10.933608213932994"><ele>561.0</ele><time>2026-04-06T13:51:28.951Z</time></trkpt><trkpt lat="44.078242099567916" lon="10.933526448994822"><ele>561.0</ele><time>2026-04-06T13:51:31.951Z</time></trkpt><trkpt lat="44.07820560040785" lon="10.933437193464615"><ele>561.0</ele><time>2026-04-06T13:51:34.951Z</time></trkpt><trkpt lat="44.078166958164594" lon="10.933354024054335"><ele>561.0</ele><time>2026-04-06T13:51:37.951Z</time></trkpt><trkpt lat="44.07811973334806" lon="10.933257562302133"><ele>561.0</ele><time>2026-04-06T13:51:40.951Z</time></trkpt><trkpt lat="44.078095091547965" lon="10.933173267644564"><ele>561.0</ele><time>2026-04-06T13:51:42.951Z</time></trkpt><trkpt lat="44.07809008892919" lon="10.933082429104457"><ele>561.0</ele><time>2026-04-06T13:51:44.951Z</time></trkpt><trkpt lat="44.07807571346418" lon="10.932972915695357"><ele>561.0</ele><time>2026-04-06T13:51:47.951Z</time></trkpt><trkpt lat="44.07802609259132" lon="10.932914966984288"><ele>561.0</ele><time>2026-04-06T13:51:49.951Z</time></trkpt><trkpt lat="44.077959124698154" lon="10.93285699695572"><ele>561.0</ele><time>2026-04-06T13:51:54.951Z</time></trkpt><trkpt lat="44.07789150953573" lon="10.93277256766603"><ele>561.0</ele><time>2026-04-06T13:51:57.95Z</time></trkpt><trkpt lat="44.077838546429255" lon="10.93269161217503"><ele>561.0</ele><time>2026-04-06T13:52:00.95Z</time></trkpt><trkpt lat="44.07780798038871" lon="10.932596288163188"><ele>561.0</ele><time>2026-04-06T13:52:02.95Z</time></trkpt><trkpt lat="44.077778213143" lon="10.932490007075419"><ele>561.0</ele><time>2026-04-06T13:52:05.95Z</time></trkpt><trkpt lat="44.07772307407746" lon="10.932393959522365"><ele>561.0</ele><time>2026-04-06T13:52:08.95Z</time></trkpt><trkpt lat="44.07766262318158" lon="10.932342062878634"><ele>561.0</ele><time>2026-04-06T13:52:11.95Z</time></trkpt><trkpt lat="44.07759296577703" lon="10.932305797027707"><ele>562.8333333333334</ele><time>2026-04-06T13:52:14.95Z</time></trkpt><trkpt lat="44.07752118510869" lon="10.932260362168773"><ele>564.6666666666666</ele><time>2026-04-06T13:52:17.95Z</time></trkpt><trkpt lat="44.077457736742375" lon="10.93221541600104"><ele>566.5</ele><time>2026-04-06T13:52:19.95Z</time></trkpt><trkpt lat="44.07737938239571" lon="10.932143471433555"><ele>568.3333333333333</ele><time>2026-04-06T13:52:22.95Z</time></trkpt><trkpt lat="44.07731788593808" lon="10.932056905119023"><ele>570.1666666666666</ele><time>2026-04-06T13:52:25.95Z</time></trkpt><trkpt lat="44.07725685092645" lon="10.931958939946941"><ele>572.0</ele><time>2026-04-06T13:52:28.95Z</time></trkpt><trkpt lat="44.07721092559953" lon="10.931870870644811"><ele>572.0</ele><time>2026-04-06T13:52:31.95Z</time></trkpt><trkpt lat="44.07716884142201" lon="10.9317872692733"><ele>572.0</ele><time>2026-04-06T13:52:34.95Z</time></trkpt><trkpt lat="44.07715157243496" lon="10.93167537317989"><ele>572.0</ele><time>2026-04-06T13:52:36.95Z</time></trkpt><trkpt lat="44.0771255860111" lon="10.931562860452019"><ele>572.0</ele><time>2026-04-06T13:52:38.95Z</time></trkpt><trkpt lat="44.077102418898896" lon="10.931416865750746"><ele>572.0</ele><time>2026-04-06T13:52:40.95Z</time></trkpt><trkpt lat="44.07708524472702" lon="10.931289571637118"><ele>572.0</ele><time>2026-04-06T13:52:42.95Z</time></trkpt><trkpt lat="44.07705852783499" lon="10.931167735642473"><ele>571.3333333333333</ele><time>2026-04-06T13:52:44.95Z</time></trkpt><trkpt lat="44.0770035983628" lon="10.931051213610637"><ele>570.6666666666666</ele><time>2026-04-06T13:52:46.95Z</time></trkpt><trkpt lat="44.07696342918059" lon="10.930967979923553"><ele>570.0</ele><time>2026-04-06T13:52:48.95Z</time></trkpt><trkpt lat="44.076925777187746" lon="10.93086476475178"><ele>569.3333333333334</ele><time>2026-04-06T13:52:50.95Z</time></trkpt><trkpt lat="44.07688003195556" lon="10.93076831903773"><ele>568.6666666666667</ele><time>2026-04-06T13:52:52.95Z</time></trkpt><trkpt lat="44.0768582806145" lon="10.930653418987381"><ele>568.0</ele><time>2026-04-06T13:52:54.95Z</time></trkpt><trkpt lat="44.07685540887784" lon="10.930537586432088"><ele>569.8333333333334</ele><time>2026-04-06T13:52:56.95Z</time></trkpt><trkpt lat="44.07683823001601" lon="10.930418679523484"><ele>571.6666666666667</ele><time>2026-04-06T13:52:58.95Z</time></trkpt><trkpt lat="44.07683281223947" lon="10.9303039495429"><ele>573.5</ele><time>2026-04-06T13:53:00.949Z</time></trkpt><trkpt lat="44.076829376449766" lon="10.930171939452718"><ele>575.3333333333334</ele><time>2026-04-06T13:53:02.949Z</time></trkpt><trkpt lat="44.0768206681632" lon="10.930058770632858"><ele>577.1666666666666</ele><time>2026-04-06T13:53:04.949Z</time></trkpt><trkpt lat="44.076813737054415" lon="10.929942559221567"><ele>579.0</ele><time>2026-04-06T13:53:06.949Z</time></trkpt><trkpt lat="44.07680216426956" lon="10.929828659518495"><ele>579.8333333333334</ele><time>2026-04-06T13:53:08.949Z</time></trkpt><trkpt lat="44.076815586211794" lon="10.929700405444077"><ele>580.6666666666666</ele><time>2026-04-06T13:53:10.949Z</time></trkpt><trkpt lat="44.07681614435314" lon="10.929584617146764"><ele>581.5</ele><time>2026-04-06T13:53:12.949Z</time></trkpt><trkpt lat="44.07681627193228" lon="10.92945468463202"><ele>582.3333333333333</ele><time>2026-04-06T13:53:14.949Z</time></trkpt><trkpt lat="44.076810158814936" lon="10.929336480304467"><ele>583.1666666666666</ele><time>2026-04-06T13:53:16.949Z</time></trkpt><trkpt lat="44.07680814031302" lon="10.929238131562409"><ele>584.0</ele><time>2026-04-06T13:53:18.949Z</time></trkpt><trkpt lat="44.07681317073819" lon="10.929122759511053"><ele>584.3333333333333</ele><time>2026-04-06T13:53:20.949Z</time></trkpt><trkpt lat="44.07680833105783" lon="10.92901569086673"><ele>584.6666666666666</ele><time>2026-04-06T13:53:22.949Z</time></trkpt><trkpt lat="44.076803968476035" lon="10.92890402839861"><ele>585.0</ele><time>2026-04-06T13:53:24.949Z</time></trkpt><trkpt lat="44.076790828749886" lon="10.928809594120812"><ele>585.3333333333334</ele><time>2026-04-06T13:53:26.949Z</time></trkpt><trkpt lat="44.076751044577655" lon="10.928706561953678"><ele>585.6666666666667</ele><time>2026-04-06T13:53:29.949Z</time></trkpt><trkpt lat="44.07672547718859" lon="10.928621365661506"><ele>586.0</ele><time>2026-04-06T13:53:31.949Z</time></trkpt><trkpt lat="44.07669299285633" lon="10.928522900565602"><ele>586.0</ele><time>2026-04-06T13:53:33.949Z</time></trkpt><trkpt lat="44.0766716112698" lon="10.928439549758831"><ele>586.0</ele><time>2026-04-06T13:53:35.949Z</time></trkpt><trkpt lat="44.07666323147339" lon="10.928334200864857"><ele>586.0</ele><time>2026-04-06T13:53:37.949Z</time></trkpt><trkpt lat="44.0766580759431" lon="10.928212533345365"><ele>586.0</ele><time>2026-04-06T13:53:39.949Z</time></trkpt><trkpt lat="44.07666331090292" lon="10.928081610273582"><ele>586.0</ele><time>2026-04-06T13:53:41.949Z</time></trkpt><trkpt lat="44.07666934428775" lon="10.927944842336906"><ele>586.0</ele><time>2026-04-06T13:53:43.949Z</time></trkpt><trkpt lat="44.07671212864971" lon="10.927820307654924"><ele>586.0</ele><time>2026-04-06T13:53:45.949Z</time></trkpt><trkpt lat="44.07676512679622" lon="10.927726790714438"><ele>586.0</ele><time>2026-04-06T13:53:47.949Z</time></trkpt><trkpt lat="44.076839191827894" lon="10.9276609950423"><ele>586.0</ele><time>2026-04-06T13:53:49.949Z</time></trkpt><trkpt lat="44.076915928128045" lon="10.927615447147378"><ele>586.0</ele><time>2026-04-06T13:53:51.949Z</time></trkpt><trkpt lat="44.07699773515082" lon="10.927571208361302"><ele>586.0</ele><time>2026-04-06T13:53:54.949Z</time></trkpt><trkpt lat="44.077063144874685" lon="10.927533078555406"><ele>586.0</ele><time>2026-04-06T13:53:56.949Z</time></trkpt><trkpt lat="44.077132631300735" lon="10.927478439241556"><ele>585.3333333333334</ele><time>2026-04-06T13:53:58.949Z</time></trkpt><trkpt lat="44.077186264006066" lon="10.9274318294609"><ele>584.6666666666667</ele><time>2026-04-06T13:54:00.949Z</time></trkpt><trkpt lat="44.07726370602263" lon="10.92734547989187"><ele>584.0</ele><time>2026-04-06T13:54:02.949Z</time></trkpt><trkpt lat="44.077322053332125" lon="10.92725994888797"><ele>583.3333333333334</ele><time>2026-04-06T13:54:04.949Z</time></trkpt><trkpt lat="44.077392635214785" lon="10.927165523286149"><ele>582.6666666666666</ele><time>2026-04-06T13:54:07.949Z</time></trkpt><trkpt lat="44.07741846374496" lon="10.927035831349636"><ele>582.0</ele><time>2026-04-06T13:54:09.948Z</time></trkpt><trkpt lat="44.0774195652065" lon="10.926926629773739"><ele>582.0</ele><time>2026-04-06T13:54:11.949Z</time></trkpt><trkpt lat="44.07737755653577" lon="10.926825166380388"><ele>582.0</ele><time>2026-04-06T13:54:13.949Z</time></trkpt><trkpt lat="44.077333538293445" lon="10.926737255721555"><ele>582.0</ele><time>2026-04-06T13:54:15.949Z</time></trkpt><trkpt lat="44.07726364162962" lon="10.92680835133727"><ele>582.0</ele><time>2026-04-06T13:54:20.949Z</time></trkpt><trkpt lat="44.077188756422906" lon="10.92685937103149"><ele>582.0</ele><time>2026-04-06T13:54:24.949Z</time></trkpt><trkpt lat="44.07713786941239" lon="10.926923439044506"><ele>582.0</ele><time>2026-04-06T13:54:27.949Z</time></trkpt><trkpt lat="44.07706772014003" lon="10.92698020186646"><ele>582.0</ele><time>2026-04-06T13:54:29.949Z</time></trkpt><trkpt lat="44.07697915578045" lon="10.927014468332326"><ele>582.0</ele><time>2026-04-06T13:54:33.949Z</time></trkpt><trkpt lat="44.076915043817195" lon="10.927025748053858"><ele>582.0</ele><time>2026-04-06T13:54:35.949Z</time></trkpt><trkpt lat="44.07683448805561" lon="10.927029769676183"><ele>582.0</ele><time>2026-04-06T13:54:37.949Z</time></trkpt><trkpt lat="44.0767545648589" lon="10.927009301071335"><ele>582.0</ele><time>2026-04-06T13:54:39.949Z</time></trkpt><trkpt lat="44.07665862976573" lon="10.926956770785893"><ele>582.0</ele><time>2026-04-06T13:54:41.949Z</time></trkpt><trkpt lat="44.07655261338839" lon="10.926832464390682"><ele>581.0</ele><time>2026-04-06T13:54:43.949Z</time></trkpt><trkpt lat="44.07646840153805" lon="10.926718442149314"><ele>580.0</ele><time>2026-04-06T13:54:45.949Z</time></trkpt><trkpt lat="44.07640015866093" lon="10.926631224079657"><ele>579.0</ele><time>2026-04-06T13:54:47.948Z</time></trkpt><trkpt lat="44.076356139694305" lon="10.926546834588695"><ele>578.0</ele><time>2026-04-06T13:54:48.948Z</time></trkpt><trkpt lat="44.07632157229171" lon="10.926454096528301"><ele>577.0</ele><time>2026-04-06T13:54:49.948Z</time></trkpt><trkpt lat="44.07627356411277" lon="10.926332477562859"><ele>577.0</ele><time>2026-04-06T13:54:51.948Z</time></trkpt><trkpt lat="44.07619589941406" lon="10.926218710094274"><ele>577.0</ele><time>2026-04-06T13:54:53.948Z</time></trkpt><trkpt lat="44.07611144842555" lon="10.92619229962436"><ele>577.0</ele><time>2026-04-06T13:54:55.948Z</time></trkpt><trkpt lat="44.07602543992071" lon="10.926178720038058"><ele>577.0</ele><time>2026-04-06T13:54:56.948Z</time></trkpt><trkpt lat="44.07591440239806" lon="10.92614391621832"><ele>577.0</ele><time>2026-04-06T13:54:58.948Z</time></trkpt><trkpt lat="44.0758201832222" lon="10.926099926919713"><ele>576.6</ele><time>2026-04-06T13:55:00.948Z</time></trkpt><trkpt lat="44.075731022927336" lon="10.926028819687044"><ele>576.2</ele><time>2026-04-06T13:55:02.948Z</time></trkpt><trkpt lat="44.075645400652604" lon="10.925953459931897"><ele>575.8</ele><time>2026-04-06T13:55:04.948Z</time></trkpt><trkpt lat="44.07556585421698" lon="10.92586265827485"><ele>575.4</ele><time>2026-04-06T13:55:06.948Z</time></trkpt><trkpt lat="44.07548969128149" lon="10.925792037337706"><ele>575.0</ele><time>2026-04-06T13:55:08.948Z</time></trkpt><trkpt lat="44.075412883327346" lon="10.925773534325572"><ele>575.4</ele><time>2026-04-06T13:55:10.948Z</time></trkpt><trkpt lat="44.0753414328106" lon="10.925793756213968"><ele>575.8</ele><time>2026-04-06T13:55:12.948Z</time></trkpt><trkpt lat="44.075257693328716" lon="10.925810762808066"><ele>576.2</ele><time>2026-04-06T13:55:14.948Z</time></trkpt><trkpt lat="44.07516257879395" lon="10.925805039792865"><ele>576.6</ele><time>2026-04-06T13:55:16.948Z</time></trkpt><trkpt lat="44.07503828935276" lon="10.925785108671727"><ele>577.0</ele><time>2026-04-06T13:55:18.948Z</time></trkpt><trkpt lat="44.07492078305753" lon="10.925709576423426"><ele>577.0</ele><time>2026-04-06T13:55:20.948Z</time></trkpt><trkpt lat="44.07482210868111" lon="10.92565648254062"><ele>577.0</ele><time>2026-04-06T13:55:22.948Z</time></trkpt><trkpt lat="44.074733909702324" lon="10.925610987804227"><ele>577.0</ele><time>2026-04-06T13:55:24.948Z</time></trkpt><trkpt lat="44.0746404028567" lon="10.925644460652576"><ele>577.0</ele><time>2026-04-06T13:55:26.948Z</time></trkpt><trkpt lat="44.07452948832464" lon="10.925650010280501"><ele>577.0</ele><time>2026-04-06T13:55:28.948Z</time></trkpt><trkpt lat="44.0744213908413" lon="10.925617329084773"><ele>577.0</ele><time>2026-04-06T13:55:30.948Z</time></trkpt><trkpt lat="44.0743054803338" lon="10.925568286796938"><ele>577.0</ele><time>2026-04-06T13:55:32.948Z</time></trkpt><trkpt lat="44.07423661033454" lon="10.925563232242222"><ele>577.0</ele><time>2026-04-06T13:55:33.948Z</time></trkpt><trkpt lat="44.07416599147926" lon="10.925564350638702"><ele>577.0</ele><time>2026-04-06T13:55:34.948Z</time></trkpt><trkpt lat="44.07405265124673" lon="10.925561492873745"><ele>577.0</ele><time>2026-04-06T13:55:36.948Z</time></trkpt><trkpt lat="44.07394630373079" lon="10.925521147848613"><ele>576.8333333333334</ele><time>2026-04-06T13:55:38.948Z</time></trkpt><trkpt lat="44.07388382327412" lon="10.925500688190636"><ele>576.6666666666667</ele><time>2026-04-06T13:55:39.948Z</time></trkpt><trkpt lat="44.07377877569537" lon="10.925500786812991"><ele>576.5</ele><time>2026-04-06T13:55:41.948Z</time></trkpt><trkpt lat="44.073700085026594" lon="10.925520862646568"><ele>576.3333333333334</ele><time>2026-04-06T13:55:43.948Z</time></trkpt><trkpt lat="44.07363032699695" lon="10.925521060586144"><ele>576.1666666666666</ele><time>2026-04-06T13:55:44.948Z</time></trkpt><trkpt lat="44.0735113036556" lon="10.925482669324756"><ele>576.0</ele><time>2026-04-06T13:55:46.948Z</time></trkpt><trkpt lat="44.073416744296836" lon="10.925386324516824"><ele>576.0</ele><time>2026-04-06T13:55:48.948Z</time></trkpt><trkpt lat="44.07334520943712" lon="10.9252842789753"><ele>576.0</ele><time>2026-04-06T13:55:50.948Z</time></trkpt><trkpt lat="44.07325815732674" lon="10.925193265652217"><ele>576.0</ele><time>2026-04-06T13:55:52.948Z</time></trkpt><trkpt lat="44.073162753492575" lon="10.925135980163596"><ele>576.0</ele><time>2026-04-06T13:55:54.948Z</time></trkpt><trkpt lat="44.07308460217222" lon="10.9250640773761"><ele>576.0</ele><time>2026-04-06T13:55:56.948Z</time></trkpt><trkpt lat="44.07300060496277" lon="10.924975253928853"><ele>576.4</ele><time>2026-04-06T13:55:58.948Z</time></trkpt><trkpt lat="44.0729221934216" lon="10.924911339516617"><ele>576.8</ele><time>2026-04-06T13:56:00.948Z</time></trkpt><trkpt lat="44.07283759199728" lon="10.924825149094866"><ele>577.1999999999999</ele><time>2026-04-06T13:56:02.948Z</time></trkpt><trkpt lat="44.072754051752575" lon="10.924758372731716"><ele>577.6</ele><time>2026-04-06T13:56:04.948Z</time></trkpt><trkpt lat="44.072677821416306" lon="10.924635392720788"><ele>578.0</ele><time>2026-04-06T13:56:06.948Z</time></trkpt><trkpt lat="44.07260570361111" lon="10.924531970418279"><ele>578.0</ele><time>2026-04-06T13:56:08.948Z</time></trkpt><trkpt lat="44.072520758842984" lon="10.924433606333663"><ele>578.0</ele><time>2026-04-06T13:56:10.948Z</time></trkpt><trkpt lat="44.07244098841427" lon="10.924340683820272"><ele>578.0</ele><time>2026-04-06T13:56:12.947Z</time></trkpt><trkpt lat="44.07236591837341" lon="10.924259902837969"><ele>578.0</ele><time>2026-04-06T13:56:14.948Z</time></trkpt><trkpt lat="44.072311859724486" lon="10.924194636177145"><ele>578.0</ele><time>2026-04-06T13:56:16.948Z</time></trkpt><trkpt lat="44.07224205154848" lon="10.924138976382315"><ele>578.5</ele><time>2026-04-06T13:56:18.947Z</time></trkpt><trkpt lat="44.072160313297154" lon="10.924081266931596"><ele>579.0</ele><time>2026-04-06T13:56:20.947Z</time></trkpt><trkpt lat="44.07208669152166" lon="10.924024518580879"><ele>579.5</ele><time>2026-04-06T13:56:22.947Z</time></trkpt><trkpt lat="44.072007212675544" lon="10.923976532794612"><ele>580.0</ele><time>2026-04-06T13:56:24.947Z</time></trkpt><trkpt lat="44.071923629057906" lon="10.923926820083244"><ele>580.5</ele><time>2026-04-06T13:56:26.947Z</time></trkpt><trkpt lat="44.07185083346108" lon="10.92386864878926"><ele>581.0</ele><time>2026-04-06T13:56:28.947Z</time></trkpt><trkpt lat="44.07177644225667" lon="10.923828013639485"><ele>581.0</ele><time>2026-04-06T13:56:30.947Z</time></trkpt><trkpt lat="44.07170637351171" lon="10.923773267047416"><ele>581.0</ele><time>2026-04-06T13:56:32.947Z</time></trkpt><trkpt lat="44.07164232233033" lon="10.923727474931233"><ele>581.0</ele><time>2026-04-06T13:56:34.947Z</time></trkpt><trkpt lat="44.07157328721967" lon="10.923680959244006"><ele>581.0</ele><time>2026-04-06T13:56:36.947Z</time></trkpt><trkpt lat="44.07151082913157" lon="10.92364461934797"><ele>581.0</ele><time>2026-04-06T13:56:38.947Z</time></trkpt><trkpt lat="44.07144095285575" lon="10.923612648555515"><ele>581.0</ele><time>2026-04-06T13:56:40.947Z</time></trkpt><trkpt lat="44.07138267551829" lon="10.923577869228096"><ele>581.0</ele><time>2026-04-06T13:56:42.947Z</time></trkpt><trkpt lat="44.07131844516999" lon="10.92356212752651"><ele>582.3333333333333</ele><time>2026-04-06T13:56:44.947Z</time></trkpt><trkpt lat="44.071243176322355" lon="10.9235252865548"><ele>583.6666666666666</ele><time>2026-04-06T13:56:46.947Z</time></trkpt><trkpt lat="44.071165426890744" lon="10.923499732199824"><ele>585.0</ele><time>2026-04-06T13:56:48.947Z</time></trkpt><trkpt lat="44.07110434159843" lon="10.923468164392926"><ele>586.3333333333334</ele><time>2026-04-06T13:56:50.947Z</time></trkpt><trkpt lat="44.07103576131345" lon="10.923436814695746"><ele>587.6666666666667</ele><time>2026-04-06T13:56:52.947Z</time></trkpt><trkpt lat="44.07095120306818" lon="10.923405646226923"><ele>589.0</ele><time>2026-04-06T13:56:54.947Z</time></trkpt><trkpt lat="44.070871730156924" lon="10.92338592928066"><ele>589.0</ele><time>2026-04-06T13:56:56.947Z</time></trkpt><trkpt lat="44.070799553558544" lon="10.923357991272658"><ele>589.0</ele><time>2026-04-06T13:56:58.947Z</time></trkpt><trkpt lat="44.07069701433398" lon="10.923329857134203"><ele>589.0</ele><time>2026-04-06T13:57:00.947Z</time></trkpt><trkpt lat="44.07061021333242" lon="10.923297527084571"><ele>589.0</ele><time>2026-04-06T13:57:02.947Z</time></trkpt><trkpt lat="44.070521809504264" lon="10.923282064430717"><ele>589.0</ele><time>2026-04-06T13:57:04.947Z</time></trkpt><trkpt lat="44.07042525461234" lon="10.923240152544972"><ele>589.4</ele><time>2026-04-06T13:57:06.947Z</time></trkpt><trkpt lat="44.070332523943165" lon="10.92319647061096"><ele>589.8</ele><time>2026-04-06T13:57:08.947Z</time></trkpt><trkpt lat="44.07023698405016" lon="10.923167467119917"><ele>590.2</ele><time>2026-04-06T13:57:10.947Z</time></trkpt><trkpt lat="44.07016037242425" lon="10.9230836994704"><ele>590.6</ele><time>2026-04-06T13:57:12.947Z</time></trkpt><trkpt lat="44.07009012293407" lon="10.92302833945141"><ele>591.0</ele><time>2026-04-06T13:57:14.947Z</time></trkpt><trkpt lat="44.07002542231464" lon="10.922935483195324"><ele>591.0</ele><time>2026-04-06T13:57:16.947Z</time></trkpt><trkpt lat="44.06995576987141" lon="10.92285305450207"><ele>591.0</ele><time>2026-04-06T13:57:18.947Z</time></trkpt><trkpt lat="44.06988671624471" lon="10.922759509567975"><ele>591.0</ele><time>2026-04-06T13:57:20.947Z</time></trkpt><trkpt lat="44.06981197408553" lon="10.922652038093753"><ele>591.0</ele><time>2026-04-06T13:57:22.947Z</time></trkpt><trkpt lat="44.069751505449645" lon="10.922555645593654"><ele>591.0</ele><time>2026-04-06T13:57:24.947Z</time></trkpt><trkpt lat="44.069682747058174" lon="10.922473001470525"><ele>591.0</ele><time>2026-04-06T13:57:26.947Z</time></trkpt><trkpt lat="44.06962940978018" lon="10.922370675979257"><ele>591.0</ele><time>2026-04-06T13:57:28.947Z</time></trkpt><trkpt lat="44.06957956015994" lon="10.922276547769393"><ele>591.0</ele><time>2026-04-06T13:57:30.947Z</time></trkpt><trkpt lat="44.069532844903975" lon="10.922202322714764"><ele>591.0</ele><time>2026-04-06T13:57:32.947Z</time></trkpt><trkpt lat="44.0694819897596" lon="10.922111948578621"><ele>591.0</ele><time>2026-04-06T13:57:34.947Z</time></trkpt><trkpt lat="44.06939402077606" lon="10.922040915808847"><ele>591.0</ele><time>2026-04-06T13:57:37.947Z</time></trkpt><trkpt lat="44.069300099482916" lon="10.922004508644557"><ele>591.0</ele><time>2026-04-06T13:57:40.947Z</time></trkpt><trkpt lat="44.06923099328254" lon="10.921962413648362"><ele>591.0</ele><time>2026-04-06T13:57:42.947Z</time></trkpt><trkpt lat="44.06914465565669" lon="10.921927704469127"><ele>591.0</ele><time>2026-04-06T13:57:45.947Z</time></trkpt><trkpt lat="44.06908428032926" lon="10.9218551272736"><ele>591.0</ele><time>2026-04-06T13:57:47.947Z</time></trkpt><trkpt lat="44.069040140856245" lon="10.921774910452626"><ele>591.0</ele><time>2026-04-06T13:57:49.947Z</time></trkpt><trkpt lat="44.06897259345468" lon="10.921661796506944"><ele>591.0</ele><time>2026-04-06T13:57:52.947Z</time></trkpt><trkpt lat="44.068920839428664" lon="10.92159471213988"><ele>592.1666666666666</ele><time>2026-04-06T13:57:54.947Z</time></trkpt><trkpt lat="44.068865013473065" lon="10.921493256219335"><ele>593.3333333333334</ele><time>2026-04-06T13:57:56.947Z</time></trkpt><trkpt lat="44.0688233302281" lon="10.921355139443355"><ele>594.5</ele><time>2026-04-06T13:57:58.947Z</time></trkpt><trkpt lat="44.068789650549455" lon="10.921250438899985"><ele>595.6666666666667</ele><time>2026-04-06T13:58:00.947Z</time></trkpt><trkpt lat="44.06874219527244" lon="10.921161070518096"><ele>596.8333333333334</ele><time>2026-04-06T13:58:02.947Z</time></trkpt><trkpt lat="44.06870497449385" lon="10.921061527985438"><ele>598.0</ele><time>2026-04-06T13:58:04.947Z</time></trkpt><trkpt lat="44.0686463471891" lon="10.92098854063077"><ele>598.0</ele><time>2026-04-06T13:58:06.947Z</time></trkpt><trkpt lat="44.06860293120706" lon="10.920922593414469"><ele>598.0</ele><time>2026-04-06T13:58:08.947Z</time></trkpt><trkpt lat="44.068546941110945" lon="10.920837165842519"><ele>598.0</ele><time>2026-04-06T13:58:10.947Z</time></trkpt><trkpt lat="44.06849780655397" lon="10.920737333862103"><ele>598.0</ele><time>2026-04-06T13:58:12.947Z</time></trkpt><trkpt lat="44.06845498974343" lon="10.920659858341532"><ele>598.0</ele><time>2026-04-06T13:58:14.948Z</time></trkpt><trkpt lat="44.06838785544377" lon="10.920592614212282"><ele>598.0</ele><time>2026-04-06T13:58:16.948Z</time></trkpt><trkpt lat="44.06832143236597" lon="10.92054317645312"><ele>597.2857142857142</ele><time>2026-04-06T13:58:18.948Z</time></trkpt><trkpt lat="44.06824942250064" lon="10.920502038371454"><ele>596.5714285714286</ele><time>2026-04-06T13:58:20.948Z</time></trkpt><trkpt lat="44.06818715148802" lon="10.920457188744972"><ele>595.8571428571429</ele><time>2026-04-06T13:58:22.948Z</time></trkpt><trkpt lat="44.068118089954986" lon="10.920407090048167"><ele>595.1428571428571</ele><time>2026-04-06T13:58:24.948Z</time></trkpt><trkpt lat="44.06804151418693" lon="10.920363203483246"><ele>594.4285714285714</ele><time>2026-04-06T13:58:26.949Z</time></trkpt><trkpt lat="44.067981673567054" lon="10.920332969551046"><ele>593.7142857142857</ele><time>2026-04-06T13:58:28.949Z</time></trkpt><trkpt lat="44.06791343916647" lon="10.920336912782522"><ele>593.0</ele><time>2026-04-06T13:58:30.949Z</time></trkpt><trkpt lat="44.067840061847484" lon="10.92031457756624"><ele>593.0</ele><time>2026-04-06T13:58:32.949Z</time></trkpt><trkpt lat="44.06777625513599" lon="10.920314604527311"><ele>593.0</ele><time>2026-04-06T13:58:34.949Z</time></trkpt><trkpt lat="44.067698266133306" lon="10.920294494883512"><ele>593.0</ele><time>2026-04-06T13:58:36.949Z</time></trkpt><trkpt lat="44.067616525063144" lon="10.920293419054373"><ele>593.0</ele><time>2026-04-06T13:58:38.949Z</time></trkpt><trkpt lat="44.067516860557724" lon="10.920252397362397"><ele>593.0</ele><time>2026-04-06T13:58:41.949Z</time></trkpt><trkpt lat="44.06745455651735" lon="10.920225599339593"><ele>593.0</ele><time>2026-04-06T13:58:43.949Z</time></trkpt><trkpt lat="44.067383680362724" lon="10.920209604498282"><ele>593.0</ele><time>2026-04-06T13:58:45.949Z</time></trkpt><trkpt lat="44.067319351835955" lon="10.920168471354724"><ele>593.0</ele><time>2026-04-06T13:58:47.949Z</time></trkpt><trkpt lat="44.0672315859871" lon="10.920159433777872"><ele>593.0</ele><time>2026-04-06T13:58:49.949Z</time></trkpt><trkpt lat="44.06714858754435" lon="10.920135757202852"><ele>593.0</ele><time>2026-04-06T13:58:51.949Z</time></trkpt><trkpt lat="44.067060096232574" lon="10.920121869157827"><ele>593.0</ele><time>2026-04-06T13:58:53.949Z</time></trkpt><trkpt lat="44.06697748707475" lon="10.920101675755937"><ele>593.0</ele><time>2026-04-06T13:58:55.949Z</time></trkpt><trkpt lat="44.06690076616225" lon="10.92005552494761"><ele>592.9999999999999</ele><time>2026-04-06T13:58:57.949Z</time></trkpt><trkpt lat="44.06682353404983" lon="10.920003678184145"><ele>593.0</ele><time>2026-04-06T13:58:59.949Z</time></trkpt><trkpt lat="44.06676070438036" lon="10.91995636259024"><ele>593.0</ele><time>2026-04-06T13:59:01.949Z</time></trkpt><trkpt lat="44.06670474705524" lon="10.919888541602758"><ele>593.0</ele><time>2026-04-06T13:59:03.949Z</time></trkpt><trkpt lat="44.06663906614455" lon="10.919859019975545"><ele>593.0</ele><time>2026-04-06T13:59:05.949Z</time></trkpt><trkpt lat="44.06658584669499" lon="10.919811011007617"><ele>592.9999999999999</ele><time>2026-04-06T13:59:07.949Z</time></trkpt><trkpt lat="44.06653120948785" lon="10.919759397929369"><ele>593.0</ele><time>2026-04-06T13:59:09.949Z</time></trkpt><trkpt lat="44.066466779348715" lon="10.919723122280244"><ele>595.1666666666666</ele><time>2026-04-06T13:59:11.949Z</time></trkpt><trkpt lat="44.06641058835524" lon="10.919683340797881"><ele>597.3333333333333</ele><time>2026-04-06T13:59:13.949Z</time></trkpt><trkpt lat="44.06632399959677" lon="10.919637983788856"><ele>599.5</ele><time>2026-04-06T13:59:16.949Z</time></trkpt><trkpt lat="44.066263713181584" lon="10.919608804990839"><ele>601.6666666666666</ele><time>2026-04-06T13:59:18.949Z</time></trkpt><trkpt lat="44.06620161711705" lon="10.919594216716758"><ele>603.8333333333334</ele><time>2026-04-06T13:59:20.949Z</time></trkpt><trkpt lat="44.0661155112592" lon="10.919559548314684"><ele>606.0</ele><time>2026-04-06T13:59:23.949Z</time></trkpt><trkpt lat="44.06603632627734" lon="10.919488550495243"><ele>606.0</ele><time>2026-04-06T13:59:26.949Z</time></trkpt><trkpt lat="44.06597561105609" lon="10.919452251527627"><ele>606.0</ele><time>2026-04-06T13:59:28.949Z</time></trkpt><trkpt lat="44.06590429181471" lon="10.919369686220007"><ele>606.0</ele><time>2026-04-06T13:59:31.949Z</time></trkpt><trkpt lat="44.06586404518809" lon="10.919301769834192"><ele>606.0</ele><time>2026-04-06T13:59:33.949Z</time></trkpt><trkpt lat="44.06580999491359" lon="10.91925626446519"><ele>606.0</ele><time>2026-04-06T13:59:35.949Z</time></trkpt><trkpt lat="44.06574839115306" lon="10.919212920115532"><ele>606.0</ele><time>2026-04-06T13:59:37.949Z</time></trkpt><trkpt lat="44.06569521099609" lon="10.919125216351581"><ele>606.0</ele><time>2026-04-06T13:59:40.949Z</time></trkpt><trkpt lat="44.06562139184355" lon="10.919018341899472"><ele>604.3333333333334</ele><time>2026-04-06T13:59:43.949Z</time></trkpt><trkpt lat="44.065576790980636" lon="10.918926317016574"><ele>602.6666666666666</ele><time>2026-04-06T13:59:45.949Z</time></trkpt><trkpt lat="44.065492448704184" lon="10.918862063084662"><ele>601.0</ele><time>2026-04-06T13:59:48.949Z</time></trkpt><trkpt lat="44.06543613392061" lon="10.918815336101593"><ele>599.3333333333333</ele><time>2026-04-06T13:59:50.949Z</time></trkpt><trkpt lat="44.06537972885928" lon="10.918762684393876"><ele>597.6666666666666</ele><time>2026-04-06T13:59:52.949Z</time></trkpt><trkpt lat="44.0652888176898" lon="10.91871617267091"><ele>596.0</ele><time>2026-04-06T13:59:55.949Z</time></trkpt><trkpt lat="44.06522552067571" lon="10.918637056913969"><ele>596.0</ele><time>2026-04-06T13:59:57.949Z</time></trkpt><trkpt lat="44.065168441809334" lon="10.918586673872769"><ele>596.0</ele><time>2026-04-06T13:59:59.949Z</time></trkpt><trkpt lat="44.0650965868197" lon="10.918515498778168"><ele>596.0</ele><time>2026-04-06T14:00:02.949Z</time></trkpt><trkpt lat="44.06502891984484" lon="10.918476933666986"><ele>596.0</ele><time>2026-04-06T14:00:04.949Z</time></trkpt><trkpt lat="44.064958944227136" lon="10.91841826544661"><ele>596.0</ele><time>2026-04-06T14:00:07.949Z</time></trkpt><trkpt lat="44.06488246727763" lon="10.918387359191485"><ele>596.0</ele><time>2026-04-06T14:00:10.949Z</time></trkpt><trkpt lat="44.064792121342826" lon="10.918331274918984"><ele>595.6666666666666</ele><time>2026-04-06T14:00:13.949Z</time></trkpt><trkpt lat="44.06471159878865" lon="10.918270335055112"><ele>595.3333333333333</ele><time>2026-04-06T14:00:15.949Z</time></trkpt><trkpt lat="44.06463685912774" lon="10.918223755751638"><ele>595.0</ele><time>2026-04-06T14:00:17.949Z</time></trkpt><trkpt lat="44.064566228720466" lon="10.918178083624856"><ele>594.6666666666666</ele><time>2026-04-06T14:00:19.948Z</time></trkpt><trkpt lat="44.06450953308714" lon="10.918117521269288"><ele>594.3333333333334</ele><time>2026-04-06T14:00:21.948Z</time></trkpt><trkpt lat="44.064444689089186" lon="10.918064838152533"><ele>594.0</ele><time>2026-04-06T14:00:23.948Z</time></trkpt><trkpt lat="44.064368095129566" lon="10.918047116846179"><ele>594.0</ele><time>2026-04-06T14:00:25.948Z</time></trkpt><trkpt lat="44.064302259772425" lon="10.917970732382388"><ele>594.0</ele><time>2026-04-06T14:00:27.947Z</time></trkpt><trkpt lat="44.06422963166503" lon="10.917934204272182"><ele>594.0</ele><time>2026-04-06T14:00:29.948Z</time></trkpt><trkpt lat="44.06415521376179" lon="10.917899952872304"><ele>594.0</ele><time>2026-04-06T14:00:31.948Z</time></trkpt><trkpt lat="44.064071413943786" lon="10.917842337211814"><ele>594.0</ele><time>2026-04-06T14:00:34.948Z</time></trkpt><trkpt lat="44.06400493136392" lon="10.91783133003674"><ele>594.0</ele><time>2026-04-06T14:00:36.948Z</time></trkpt><trkpt lat="44.0639350934327" lon="10.917794829407727"><ele>595.1666666666666</ele><time>2026-04-06T14:00:38.948Z</time></trkpt><trkpt lat="44.06387804852566" lon="10.91773020051689"><ele>596.3333333333334</ele><time>2026-04-06T14:00:40.948Z</time></trkpt><trkpt lat="44.06382141614991" lon="10.917665910414476"><ele>597.5</ele><time>2026-04-06T14:00:42.948Z</time></trkpt><trkpt lat="44.06376371575861" lon="10.91759597454571"><ele>598.6666666666667</ele><time>2026-04-06T14:00:44.948Z</time></trkpt><trkpt lat="44.06370747039713" lon="10.917522192728255"><ele>599.8333333333334</ele><time>2026-04-06T14:00:46.948Z</time></trkpt><trkpt lat="44.063654762577016" lon="10.91745584515329"><ele>601.0</ele><time>2026-04-06T14:00:48.948Z</time></trkpt><trkpt lat="44.06360862588362" lon="10.917357016383574"><ele>601.0</ele><time>2026-04-06T14:00:50.948Z</time></trkpt><trkpt lat="44.063534481813576" lon="10.917338989006538"><ele>601.0</ele><time>2026-04-06T14:00:52.948Z</time></trkpt><trkpt lat="44.06345343044452" lon="10.917347023606505"><ele>601.0</ele><time>2026-04-06T14:00:55.948Z</time></trkpt><trkpt lat="44.06337675903265" lon="10.91725742793383"><ele>601.0</ele><time>2026-04-06T14:00:58.947Z</time></trkpt><trkpt lat="44.0633417057434" lon="10.917178337956402"><ele>601.0</ele><time>2026-04-06T14:01:00.947Z</time></trkpt><trkpt lat="44.063288449036975" lon="10.917087496033467"><ele>601.0</ele><time>2026-04-06T14:01:02.947Z</time></trkpt><trkpt lat="44.063244972011255" lon="10.917014616230471"><ele>601.4285714285714</ele><time>2026-04-06T14:01:04.947Z</time></trkpt><trkpt lat="44.06317822295816" lon="10.916965370834722"><ele>601.8571428571429</ele><time>2026-04-06T14:01:07.947Z</time></trkpt><trkpt lat="44.06309698856243" lon="10.916942078661492"><ele>602.2857142857143</ele><time>2026-04-06T14:01:10.947Z</time></trkpt><trkpt lat="44.063031689271504" lon="10.916930140331749"><ele>602.7142857142858</ele><time>2026-04-06T14:01:12.947Z</time></trkpt><trkpt lat="44.06296210783725" lon="10.916917833681136"><ele>603.1428571428571</ele><time>2026-04-06T14:01:14.947Z</time></trkpt><trkpt lat="44.06289483381058" lon="10.916915295719196"><ele>603.5714285714287</ele><time>2026-04-06T14:01:16.947Z</time></trkpt><trkpt lat="44.062822967639335" lon="10.916931496035659"><ele>604.0</ele><time>2026-04-06T14:01:18.947Z</time></trkpt><trkpt lat="44.06274895747734" lon="10.91694972328172"><ele>604.0</ele><time>2026-04-06T14:01:20.947Z</time></trkpt><trkpt lat="44.062658550680105" lon="10.916939678898087"><ele>604.0</ele><time>2026-04-06T14:01:23.947Z</time></trkpt><trkpt lat="44.06258512153491" lon="10.916935150233142"><ele>604.0</ele><time>2026-04-06T14:01:26.947Z</time></trkpt><trkpt lat="44.06249949737933" lon="10.91692749426342"><ele>604.0</ele><time>2026-04-06T14:01:29.947Z</time></trkpt><trkpt lat="44.06240767576394" lon="10.9169316079724"><ele>604.0</ele><time>2026-04-06T14:01:32.947Z</time></trkpt><trkpt lat="44.06233057722296" lon="10.916940179096589"><ele>604.0</ele><time>2026-04-06T14:01:35.947Z</time></trkpt><trkpt lat="44.062259059455435" lon="10.916999718111896"><ele>604.5</ele><time>2026-04-06T14:01:37.947Z</time></trkpt><trkpt lat="44.06218150415285" lon="10.917024546162722"><ele>605.0</ele><time>2026-04-06T14:01:40.947Z</time></trkpt><trkpt lat="44.06211412344975" lon="10.91702130739509"><ele>605.5</ele><time>2026-04-06T14:01:42.947Z</time></trkpt><trkpt lat="44.06204215160335" lon="10.917017507196816"><ele>606.0</ele><time>2026-04-06T14:01:44.947Z</time></trkpt><trkpt lat="44.06194580907688" lon="10.917018129610724"><ele>606.5</ele><time>2026-04-06T14:01:47.947Z</time></trkpt><trkpt lat="44.06185771185013" lon="10.916994555744939"><ele>607.0</ele><time>2026-04-06T14:01:49.947Z</time></trkpt><trkpt lat="44.06176817941573" lon="10.916985832505793"><ele>606.9999999999999</ele><time>2026-04-06T14:01:52.947Z</time></trkpt><trkpt lat="44.06170468656736" lon="10.916979086856825"><ele>607.0</ele><time>2026-04-06T14:01:54.947Z</time></trkpt><trkpt lat="44.061637856069645" lon="10.916964303473526"><ele>607.0</ele><time>2026-04-06T14:01:56.947Z</time></trkpt><trkpt lat="44.06155211795462" lon="10.916940183101662"><ele>607.0</ele><time>2026-04-06T14:01:59.947Z</time></trkpt><trkpt lat="44.061485620452494" lon="10.91693794986149"><ele>607.0</ele><time>2026-04-06T14:02:01.947Z</time></trkpt><trkpt lat="44.06141899704159" lon="10.916906558899992"><ele>606.9999999999999</ele><time>2026-04-06T14:02:03.947Z</time></trkpt><trkpt lat="44.061355657988614" lon="10.916867606540114"><ele>607.0</ele><time>2026-04-06T14:02:05.947Z</time></trkpt><trkpt lat="44.06126475275165" lon="10.916835209260046"><ele>607.6666666666667</ele><time>2026-04-06T14:02:08.947Z</time></trkpt><trkpt lat="44.06119274825743" lon="10.916786003317371"><ele>608.3333333333334</ele><time>2026-04-06T14:02:10.947Z</time></trkpt><trkpt lat="44.061117382965165" lon="10.916739265103917"><ele>609.0</ele><time>2026-04-06T14:02:13.947Z</time></trkpt><trkpt lat="44.06106383343614" lon="10.916655954343826"><ele>609.6666666666666</ele><time>2026-04-06T14:02:15.947Z</time></trkpt><trkpt lat="44.06102556605172" lon="10.916574061101054"><ele>610.3333333333333</ele><time>2026-04-06T14:02:17.947Z</time></trkpt><trkpt lat="44.06097448985628" lon="10.916449679187085"><ele>611.0</ele><time>2026-04-06T14:02:20.947Z</time></trkpt><trkpt lat="44.0609520600791" lon="10.916338428920971"><ele>611.0</ele><time>2026-04-06T14:02:22.947Z</time></trkpt><trkpt lat="44.06094449148655" lon="10.91623277918183"><ele>611.0</ele><time>2026-04-06T14:02:24.947Z</time></trkpt><trkpt lat="44.060952860176045" lon="10.916136127550715"><ele>611.0</ele><time>2026-04-06T14:02:26.946Z</time></trkpt><trkpt lat="44.060962233519604" lon="10.916008857701389"><ele>611.0</ele><time>2026-04-06T14:02:29.947Z</time></trkpt><trkpt lat="44.06096597770475" lon="10.915919407470122"><ele>611.0</ele><time>2026-04-06T14:02:31.946Z</time></trkpt><trkpt lat="44.060955502766326" lon="10.915825748224286"><ele>611.0</ele><time>2026-04-06T14:02:33.946Z</time></trkpt><trkpt lat="44.06094868419523" lon="10.915687767747011"><ele>612.5714285714287</ele><time>2026-04-06T14:02:36.947Z</time></trkpt><trkpt lat="44.06093811466582" lon="10.915599083859425"><ele>614.1428571428571</ele><time>2026-04-06T14:02:38.947Z</time></trkpt><trkpt lat="44.0609049258447" lon="10.915520811902185"><ele>615.7142857142858</ele><time>2026-04-06T14:02:40.947Z</time></trkpt><trkpt lat="44.06086620331839" lon="10.915419574975207"><ele>617.2857142857143</ele><time>2026-04-06T14:02:43.947Z</time></trkpt><trkpt lat="44.06081832558664" lon="10.915351655096826"><ele>618.8571428571429</ele><time>2026-04-06T14:02:46.947Z</time></trkpt><trkpt lat="44.060757451040075" lon="10.915270281855097"><ele>620.4285714285714</ele><time>2026-04-06T14:02:48.947Z</time></trkpt><trkpt lat="44.060692005020734" lon="10.915197742617089"><ele>622.0</ele><time>2026-04-06T14:02:50.947Z</time></trkpt><trkpt lat="44.06064429321277" lon="10.915108227400346"><ele>620.7142857142857</ele><time>2026-04-06T14:02:52.947Z</time></trkpt><trkpt lat="44.06060122328087" lon="10.915043392544753"><ele>619.4285714285714</ele><time>2026-04-06T14:02:54.947Z</time></trkpt><trkpt lat="44.06054817423359" lon="10.914986670363252"><ele>618.1428571428571</ele><time>2026-04-06T14:02:56.947Z</time></trkpt><trkpt lat="44.060480833085265" lon="10.914925635460724"><ele>616.8571428571429</ele><time>2026-04-06T14:02:58.947Z</time></trkpt><trkpt lat="44.06043108398975" lon="10.914854178948001"><ele>615.5714285714286</ele><time>2026-04-06T14:03:00.947Z</time></trkpt><trkpt lat="44.06037618721679" lon="10.9147808484428"><ele>614.2857142857143</ele><time>2026-04-06T14:03:02.947Z</time></trkpt><trkpt lat="44.06032489947916" lon="10.914688754190875"><ele>613.0</ele><time>2026-04-06T14:03:04.947Z</time></trkpt><trkpt lat="44.0602842360035" lon="10.914609528508992"><ele>613.0</ele><time>2026-04-06T14:03:06.947Z</time></trkpt><trkpt lat="44.06022469383163" lon="10.914528543902396"><ele>613.0</ele><time>2026-04-06T14:03:08.947Z</time></trkpt><trkpt lat="44.060163705837" lon="10.914406651128283"><ele>613.0</ele><time>2026-04-06T14:03:10.947Z</time></trkpt><trkpt lat="44.06010443810838" lon="10.914300825418527"><ele>613.0</ele><time>2026-04-06T14:03:12.947Z</time></trkpt><trkpt lat="44.06003085597446" lon="10.914187781346"><ele>613.0</ele><time>2026-04-06T14:03:14.947Z</time></trkpt><trkpt lat="44.05997193780499" lon="10.914068928062362"><ele>614.1666666666667</ele><time>2026-04-06T14:03:16.947Z</time></trkpt><trkpt lat="44.059948008871714" lon="10.913966157329702"><ele>615.3333333333334</ele><time>2026-04-06T14:03:17.947Z</time></trkpt><trkpt lat="44.05990702644601" lon="10.913833805390837"><ele>616.5</ele><time>2026-04-06T14:03:19.947Z</time></trkpt><trkpt lat="44.059873005520146" lon="10.913705565743689"><ele>617.6666666666666</ele><time>2026-04-06T14:03:21.947Z</time></trkpt><trkpt lat="44.05982366869188" lon="10.913646677059988"><ele>618.8333333333333</ele><time>2026-04-06T14:03:22.947Z</time></trkpt><trkpt lat="44.05976520087681" lon="10.91353345397512"><ele>620.0</ele><time>2026-04-06T14:03:24.947Z</time></trkpt><trkpt lat="44.059692071626735" lon="10.913422937573444"><ele>618.0</ele><time>2026-04-06T14:03:26.947Z</time></trkpt><trkpt lat="44.059621297102986" lon="10.913295744925525"><ele>616.0</ele><time>2026-04-06T14:03:28.947Z</time></trkpt><trkpt lat="44.05956431455798" lon="10.91318412057896"><ele>614.0</ele><time>2026-04-06T14:03:30.947Z</time></trkpt><trkpt lat="44.059496913483144" lon="10.91306444096166"><ele>612.0</ele><time>2026-04-06T14:03:32.947Z</time></trkpt><trkpt lat="44.05945095900338" lon="10.912958221494417"><ele>610.0</ele><time>2026-04-06T14:03:34.947Z</time></trkpt><trkpt lat="44.0594077896427" lon="10.91282632013911"><ele>610.0</ele><time>2026-04-06T14:03:36.947Z</time></trkpt><trkpt lat="44.059358997214176" lon="10.912698518105302"><ele>610.0</ele><time>2026-04-06T14:03:38.947Z</time></trkpt><trkpt lat="44.059317196314105" lon="10.912582525460047"><ele>610.0</ele><time>2026-04-06T14:03:40.946Z</time></trkpt><trkpt lat="44.0593039001466" lon="10.91244519288641"><ele>610.0</ele><time>2026-04-06T14:03:42.946Z</time></trkpt><trkpt lat="44.059275517975664" lon="10.912311327531599"><ele>610.0</ele><time>2026-04-06T14:03:44.946Z</time></trkpt><trkpt lat="44.059261935997306" lon="10.912186893150364"><ele>609.8333333333334</ele><time>2026-04-06T14:03:46.946Z</time></trkpt><trkpt lat="44.05923772575239" lon="10.912058805242731"><ele>609.6666666666667</ele><time>2026-04-06T14:03:48.946Z</time></trkpt><trkpt lat="44.059229692381194" lon="10.911956489326487"><ele>609.5</ele><time>2026-04-06T14:03:50.946Z</time></trkpt><trkpt lat="44.05922521992744" lon="10.911836572861798"><ele>609.3333333333334</ele><time>2026-04-06T14:03:52.946Z</time></trkpt><trkpt lat="44.05918393150617" lon="10.911725674635408"><ele>609.1666666666666</ele><time>2026-04-06T14:03:55.946Z</time></trkpt><trkpt lat="44.059127908893444" lon="10.9116514269567"><ele>609.0</ele><time>2026-04-06T14:04:00.946Z</time></trkpt><trkpt lat="44.05904818116785" lon="10.911567508726202"><ele>609.5714285714286</ele><time>2026-04-06T14:04:04.946Z</time></trkpt><trkpt lat="44.0589869639399" lon="10.911534336463582"><ele>610.1428571428571</ele><time>2026-04-06T14:04:06.946Z</time></trkpt><trkpt lat="44.05893671587538" lon="10.911472065362974"><ele>610.7142857142858</ele><time>2026-04-06T14:04:08.946Z</time></trkpt><trkpt lat="44.05885188300889" lon="10.911416558907042"><ele>611.2857142857142</ele><time>2026-04-06T14:04:11.946Z</time></trkpt><trkpt lat="44.05878864761102" lon="10.911371754770789"><ele>611.8571428571429</ele><time>2026-04-06T14:04:13.946Z</time></trkpt><trkpt lat="44.05873214590939" lon="10.91132110452127"><ele>612.4285714285714</ele><time>2026-04-06T14:04:15.946Z</time></trkpt><trkpt lat="44.05868383305944" lon="10.911252329523185"><ele>613.0</ele><time>2026-04-06T14:04:17.946Z</time></trkpt><trkpt lat="44.058646365437" lon="10.911153839231487"><ele>613.0</ele><time>2026-04-06T14:04:19.946Z</time></trkpt><trkpt lat="44.05861386152519" lon="10.911064469805387"><ele>613.0</ele><time>2026-04-06T14:04:22.946Z</time></trkpt><trkpt lat="44.05859183555964" lon="10.91098026958546"><ele>613.0</ele><time>2026-04-06T14:04:24.946Z</time></trkpt><trkpt lat="44.05857286882285" lon="10.910870414862444"><ele>613.0</ele><time>2026-04-06T14:04:26.946Z</time></trkpt><trkpt lat="44.05853241103459" lon="10.910755338316026"><ele>613.0</ele><time>2026-04-06T14:04:28.946Z</time></trkpt><trkpt lat="44.05849476697731" lon="10.910639719658683"><ele>613.0</ele><time>2026-04-06T14:04:30.946Z</time></trkpt><trkpt lat="44.05846602815976" lon="10.910531382622858"><ele>612.8333333333334</ele><time>2026-04-06T14:04:32.946Z</time></trkpt><trkpt lat="44.0584257927409" lon="10.910417602899056"><ele>612.6666666666667</ele><time>2026-04-06T14:04:34.946Z</time></trkpt><trkpt lat="44.05840404057114" lon="10.910314764089593"><ele>612.5</ele><time>2026-04-06T14:04:36.946Z</time></trkpt><trkpt lat="44.058362430942076" lon="10.910242032264282"><ele>612.3333333333334</ele><time>2026-04-06T14:04:38.945Z</time></trkpt><trkpt lat="44.05831776978235" lon="10.910125273017282"><ele>612.1666666666666</ele><time>2026-04-06T14:04:41.946Z</time></trkpt><trkpt lat="44.05829003727091" lon="10.910041768084081"><ele>612.0</ele><time>2026-04-06T14:04:43.945Z</time></trkpt><trkpt lat="44.05825244138485" lon="10.909950359384013"><ele>615.0</ele><time>2026-04-06T14:04:45.945Z</time></trkpt><trkpt lat="44.05821855490216" lon="10.909849611838107"><ele>618.0</ele><time>2026-04-06T14:04:48.945Z</time></trkpt><trkpt lat="44.0581697114546" lon="10.909769898001993"><ele>621.0</ele><time>2026-04-06T14:04:51.945Z</time></trkpt><trkpt lat="44.0581537917165" lon="10.909679214849122"><ele>624.0</ele><time>2026-04-06T14:04:53.945Z</time></trkpt><trkpt lat="44.058105035672476" lon="10.90959311755164"><ele>627.0</ele><time>2026-04-06T14:04:55.945Z</time></trkpt><trkpt lat="44.058067909331605" lon="10.909512803458489"><ele>630.0</ele><time>2026-04-06T14:04:57.945Z</time></trkpt><trkpt lat="44.05802480142881" lon="10.909414079451278"><ele>630.0</ele><time>2026-04-06T14:04:59.945Z</time></trkpt><trkpt lat="44.05798485090952" lon="10.909336693059771"><ele>630.0</ele><time>2026-04-06T14:05:01.945Z</time></trkpt><trkpt lat="44.05792883894459" lon="10.909258874338088"><ele>630.0</ele><time>2026-04-06T14:05:03.945Z</time></trkpt><trkpt lat="44.05788059504003" lon="10.90917869987556"><ele>630.0</ele><time>2026-04-06T14:05:05.945Z</time></trkpt><trkpt lat="44.057816709866806" lon="10.909087433660273"><ele>630.0</ele><time>2026-04-06T14:05:07.945Z</time></trkpt><trkpt lat="44.05776214606985" lon="10.909001912476535"><ele>630.0</ele><time>2026-04-06T14:05:09.945Z</time></trkpt><trkpt lat="44.05770516578738" lon="10.908923266829406"><ele>628.8333333333334</ele><time>2026-04-06T14:05:11.945Z</time></trkpt><trkpt lat="44.057644387079414" lon="10.908841116017303"><ele>627.6666666666666</ele><time>2026-04-06T14:05:14.945Z</time></trkpt><trkpt lat="44.05758975458425" lon="10.908781414178115"><ele>626.5</ele><time>2026-04-06T14:05:16.945Z</time></trkpt><trkpt lat="44.057539298703276" lon="10.908715231014043"><ele>625.3333333333333</ele><time>2026-04-06T14:05:18.945Z</time></trkpt><trkpt lat="44.057495341371144" lon="10.908648302087645"><ele>624.1666666666666</ele><time>2026-04-06T14:05:20.945Z</time></trkpt><trkpt lat="44.05745090894645" lon="10.9085688332361"><ele>623.0</ele><time>2026-04-06T14:05:22.945Z</time></trkpt><trkpt lat="44.057384073749354" lon="10.908465131480419"><ele>621.3333333333333</ele><time>2026-04-06T14:05:25.945Z</time></trkpt><trkpt lat="44.05729182891135" lon="10.908407485451304"><ele>619.6666666666666</ele><time>2026-04-06T14:05:27.945Z</time></trkpt><trkpt lat="44.05723563884312" lon="10.908343587925554"><ele>618.0</ele><time>2026-04-06T14:05:29.945Z</time></trkpt><trkpt lat="44.057140238254085" lon="10.908325413489429"><ele>616.3333333333334</ele><time>2026-04-06T14:05:31.945Z</time></trkpt><trkpt lat="44.05708766587287" lon="10.908268929298966"><ele>614.6666666666667</ele><time>2026-04-06T14:05:33.945Z</time></trkpt><trkpt lat="44.05700783797814" lon="10.908206652626752"><ele>613.0</ele><time>2026-04-06T14:05:35.945Z</time></trkpt><trkpt lat="44.056933204468926" lon="10.908139015012907"><ele>613.0</ele><time>2026-04-06T14:05:37.945Z</time></trkpt><trkpt lat="44.056874768098666" lon="10.908055467926738"><ele>613.0</ele><time>2026-04-06T14:05:39.945Z</time></trkpt><trkpt lat="44.05682580636491" lon="10.90796214219372"><ele>613.0</ele><time>2026-04-06T14:05:41.945Z</time></trkpt><trkpt lat="44.056765617075456" lon="10.907892902778897"><ele>613.0</ele><time>2026-04-06T14:05:43.945Z</time></trkpt><trkpt lat="44.05669853704996" lon="10.907820304719769"><ele>613.0</ele><time>2026-04-06T14:05:45.945Z</time></trkpt><trkpt lat="44.05663579285562" lon="10.907753287261984"><ele>613.0</ele><time>2026-04-06T14:05:47.945Z</time></trkpt><trkpt lat="44.05656905755265" lon="10.907679040314388"><ele>613.0</ele><time>2026-04-06T14:05:49.945Z</time></trkpt><trkpt lat="44.05651593363373" lon="10.907607629997543"><ele>613.0</ele><time>2026-04-06T14:05:51.945Z</time></trkpt><trkpt lat="44.056434142556256" lon="10.907541781458486"><ele>613.0</ele><time>2026-04-06T14:05:54.945Z</time></trkpt><trkpt lat="44.056378219929776" lon="10.907492616177837"><ele>613.0</ele><time>2026-04-06T14:05:56.945Z</time></trkpt><trkpt lat="44.056320824128626" lon="10.907443615761181"><ele>613.0</ele><time>2026-04-06T14:05:58.945Z</time></trkpt><trkpt lat="44.056252207632745" lon="10.907387951604331"><ele>613.0</ele><time>2026-04-06T14:06:01.945Z</time></trkpt><trkpt lat="44.0561940363561" lon="10.907340757527725"><ele>613.0</ele><time>2026-04-06T14:06:03.945Z</time></trkpt><trkpt lat="44.056129581883575" lon="10.907282998511226"><ele>613.0</ele><time>2026-04-06T14:06:06.945Z</time></trkpt><trkpt lat="44.05605464317809" lon="10.907238229864655"><ele>613.0</ele><time>2026-04-06T14:06:09.945Z</time></trkpt><trkpt lat="44.05598501441949" lon="10.90718293221514"><ele>613.0</ele><time>2026-04-06T14:06:12.945Z</time></trkpt><trkpt lat="44.05591601534529" lon="10.907130069296748"><ele>613.0</ele><time>2026-04-06T14:06:15.945Z</time></trkpt><trkpt lat="44.055846543009345" lon="10.907088474200531"><ele>613.0</ele><time>2026-04-06T14:06:18.945Z</time></trkpt><trkpt lat="44.05577661972032" lon="10.907033929605982"><ele>613.0</ele><time>2026-04-06T14:06:22.945Z</time></trkpt><trkpt lat="44.0557254238867" lon="10.906980305342952"><ele>613.4285714285714</ele><time>2026-04-06T14:06:30.945Z</time></trkpt><trkpt lat="44.055666473672225" lon="10.906913516859769"><ele>613.8571428571429</ele><time>2026-04-06T14:07:33.944Z</time></trkpt><trkpt lat="44.05559426776108" lon="10.906887705246422"><ele>614.2857142857142</ele><time>2026-04-06T14:07:37.944Z</time></trkpt><trkpt lat="44.05553179328767" lon="10.906870907150617"><ele>614.7142857142858</ele><time>2026-04-06T14:07:40.944Z</time></trkpt><trkpt lat="44.055466532012154" lon="10.90683868169677"><ele>615.1428571428571</ele><time>2026-04-06T14:07:43.944Z</time></trkpt><trkpt lat="44.05539256158464" lon="10.906824896914076"><ele>615.5714285714286</ele><time>2026-04-06T14:07:46.944Z</time></trkpt><trkpt lat="44.05531579273718" lon="10.906838552878357"><ele>616.0</ele><time>2026-04-06T14:07:49.944Z</time></trkpt><trkpt lat="44.055229678483144" lon="10.906835280647739"><ele>616.0</ele><time>2026-04-06T14:07:52.944Z</time></trkpt><trkpt lat="44.05515967035338" lon="10.906811411356653"><ele>616.0</ele><time>2026-04-06T14:07:55.944Z</time></trkpt><trkpt lat="44.055088483694306" lon="10.906773526107916"><ele>616.0</ele><time>2026-04-06T14:07:58.944Z</time></trkpt><trkpt lat="44.0550132447384" lon="10.906734196284898"><ele>616.0</ele><time>2026-04-06T14:08:01.944Z</time></trkpt><trkpt lat="44.05493791109515" lon="10.90669247038163"><ele>616.0</ele><time>2026-04-06T14:08:04.944Z</time></trkpt><trkpt lat="44.054864873716625" lon="10.906636789802748"><ele>616.0</ele><time>2026-04-06T14:08:07.944Z</time></trkpt><trkpt lat="44.05480328827461" lon="10.906555122889626"><ele>616.0</ele><time>2026-04-06T14:08:10.944Z</time></trkpt><trkpt lat="44.05475866880638" lon="10.906452024941641"><ele>616.0</ele><time>2026-04-06T14:08:13.944Z</time></trkpt><trkpt lat="44.05471774486899" lon="10.906359567511865"><ele>616.0</ele><time>2026-04-06T14:08:16.944Z</time></trkpt><trkpt lat="44.05466523855138" lon="10.906270471116295"><ele>616.0</ele><time>2026-04-06T14:08:19.944Z</time></trkpt><trkpt lat="44.05459852004281" lon="10.906184967124183"><ele>616.0</ele><time>2026-04-06T14:08:22.944Z</time></trkpt><trkpt lat="44.05454344702873" lon="10.906135961947276"><ele>616.0</ele><time>2026-04-06T14:08:24.944Z</time></trkpt><trkpt lat="44.05446718243911" lon="10.906061847721338"><ele>616.0</ele><time>2026-04-06T14:08:27.944Z</time></trkpt><trkpt lat="44.05441004736957" lon="10.906013146577138"><ele>616.0</ele><time>2026-04-06T14:08:29.944Z</time></trkpt><trkpt lat="44.05433013967319" lon="10.905948695137267"><ele>616.0</ele><time>2026-04-06T14:08:32.944Z</time></trkpt><trkpt lat="44.05427279050847" lon="10.90590172963192"><ele>616.0</ele><time>2026-04-06T14:08:34.944Z</time></trkpt><trkpt lat="44.05421738310352" lon="10.905857493780742"><ele>616.0</ele><time>2026-04-06T14:08:36.944Z</time></trkpt><trkpt lat="44.05414505898231" lon="10.905799751833069"><ele>616.0</ele><time>2026-04-06T14:08:39.944Z</time></trkpt><trkpt lat="44.054089418767234" lon="10.90575342199604"><ele>616.0</ele><time>2026-04-06T14:08:41.944Z</time></trkpt><trkpt lat="44.05401683205668" lon="10.905691432281158"><ele>616.3333333333334</ele><time>2026-04-06T14:08:44.944Z</time></trkpt><trkpt lat="44.0539495756869" lon="10.905619481296906"><ele>616.6666666666667</ele><time>2026-04-06T14:08:47.944Z</time></trkpt><trkpt lat="44.05389486637308" lon="10.905563411596408"><ele>617.0</ele><time>2026-04-06T14:08:49.944Z</time></trkpt><trkpt lat="44.05382753117032" lon="10.905494152876384"><ele>617.3333333333334</ele><time>2026-04-06T14:08:52.944Z</time></trkpt><trkpt lat="44.0537536729196" lon="10.905441871689849"><ele>617.6666666666666</ele><time>2026-04-06T14:08:55.943Z</time></trkpt><trkpt lat="44.05368145089353" lon="10.905378328366696"><ele>618.0</ele><time>2026-04-06T14:08:58.943Z</time></trkpt><trkpt lat="44.053620968024205" lon="10.905324179822204"><ele>618.0</ele><time>2026-04-06T14:09:01.943Z</time></trkpt><trkpt lat="44.05354416485883" lon="10.90526073129623"><ele>618.0</ele><time>2026-04-06T14:09:04.943Z</time></trkpt><trkpt lat="44.05348917668702" lon="10.905214052706903"><ele>618.0</ele><time>2026-04-06T14:09:06.943Z</time></trkpt><trkpt lat="44.05342218581798" lon="10.905168445643241"><ele>618.0</ele><time>2026-04-06T14:09:08.943Z</time></trkpt><trkpt lat="44.05336023156528" lon="10.905103849962506"><ele>618.0</ele><time>2026-04-06T14:09:11.943Z</time></trkpt><trkpt lat="44.053285646744285" lon="10.905040522784738"><ele>618.0</ele><time>2026-04-06T14:09:14.943Z</time></trkpt><trkpt lat="44.053212546226504" lon="10.904989940247383"><ele>619.3333333333334</ele><time>2026-04-06T14:09:17.943Z</time></trkpt><trkpt lat="44.05312965831891" lon="10.904945625354813"><ele>620.6666666666666</ele><time>2026-04-06T14:09:20.943Z</time></trkpt><trkpt lat="44.053061968375836" lon="10.904928366015945"><ele>622.0</ele><time>2026-04-06T14:09:27.943Z</time></trkpt><trkpt lat="44.05300893944209" lon="10.904849673112672"><ele>623.3333333333333</ele><time>2026-04-06T14:09:30.943Z</time></trkpt><trkpt lat="44.05291037647955" lon="10.904769991738792"><ele>624.6666666666666</ele><time>2026-04-06T14:09:32.943Z</time></trkpt><trkpt lat="44.05287355735463" lon="10.904675728820465"><ele>626.0</ele><time>2026-04-06T14:09:36.943Z</time></trkpt><trkpt lat="44.05281320619171" lon="10.9046470500654"><ele>626.0</ele><time>2026-04-06T14:09:40.943Z</time></trkpt><trkpt lat="44.05275636407008" lon="10.90460375704657"><ele>626.0</ele><time>2026-04-06T14:09:44.943Z</time></trkpt><trkpt lat="44.05268324750891" lon="10.90454707591526"><ele>626.0</ele><time>2026-04-06T14:09:47.943Z</time></trkpt><trkpt lat="44.05260414418063" lon="10.904524880930106"><ele>626.0</ele><time>2026-04-06T14:09:49.943Z</time></trkpt><trkpt lat="44.05253986940771" lon="10.904469986788653"><ele>626.0</ele><time>2026-04-06T14:09:53.943Z</time></trkpt><trkpt lat="44.05246730203931" lon="10.904436166115763"><ele>626.0</ele><time>2026-04-06T14:09:56.943Z</time></trkpt><trkpt lat="44.05239429502863" lon="10.904410632681241"><ele>630.3333333333333</ele><time>2026-04-06T14:09:59.943Z</time></trkpt><trkpt lat="44.05232288549949" lon="10.904406674859727"><ele>634.6666666666666</ele><time>2026-04-06T14:10:02.943Z</time></trkpt><trkpt lat="44.05223965985536" lon="10.904393184518774"><ele>639.0</ele><time>2026-04-06T14:10:04.943Z</time></trkpt><trkpt lat="44.05214855456371" lon="10.904384383944574"><ele>643.3333333333334</ele><time>2026-04-06T14:10:07.943Z</time></trkpt><trkpt lat="44.05208319820631" lon="10.904355737580333"><ele>647.6666666666667</ele><time>2026-04-06T14:10:10.943Z</time></trkpt><trkpt lat="44.05201642187128" lon="10.904326781364734"><ele>652.0</ele><time>2026-04-06T14:10:13.943Z</time></trkpt><trkpt lat="44.05194757747009" lon="10.904298560157155"><ele>652.0</ele><time>2026-04-06T14:10:17.943Z</time></trkpt><trkpt lat="44.05187804929988" lon="10.904290968748144"><ele>652.0</ele><time>2026-04-06T14:10:20.943Z</time></trkpt><trkpt lat="44.051816205154914" lon="10.904271206034585"><ele>652.0</ele><time>2026-04-06T14:10:24.943Z</time></trkpt><trkpt lat="44.05175043996948" lon="10.904240371056803"><ele>652.0</ele><time>2026-04-06T14:10:27.943Z</time></trkpt><trkpt lat="44.05169091915853" lon="10.904211168836952"><ele>652.0</ele><time>2026-04-06T14:10:30.943Z</time></trkpt><trkpt lat="44.05161651318426" lon="10.904182441335523"><ele>652.0</ele><time>2026-04-06T14:10:33.943Z</time></trkpt><trkpt lat="44.05153191095287" lon="10.90415569181386"><ele>652.0</ele><time>2026-04-06T14:10:37.943Z</time></trkpt><trkpt lat="44.05146767995384" lon="10.904113255570751"><ele>649.3333333333334</ele><time>2026-04-06T14:10:40.943Z</time></trkpt><trkpt lat="44.05138338519941" lon="10.904094349673272"><ele>646.6666666666667</ele><time>2026-04-06T14:10:43.943Z</time></trkpt><trkpt lat="44.05130613266498" lon="10.904071346711369"><ele>644.0</ele><time>2026-04-06T14:10:47.943Z</time></trkpt><trkpt lat="44.05124592627994" lon="10.904042438561692"><ele>641.3333333333334</ele><time>2026-04-06T14:10:50.943Z</time></trkpt><trkpt lat="44.051168965370344" lon="10.904018458366208"><ele>638.6666666666666</ele><time>2026-04-06T14:10:53.942Z</time></trkpt><trkpt lat="44.05109141329447" lon="10.903985998742366"><ele>636.0</ele><time>2026-04-06T14:10:57.943Z</time></trkpt><trkpt lat="44.05103082099192" lon="10.903959150467912"><ele>636.0</ele><time>2026-04-06T14:11:00.942Z</time></trkpt><trkpt lat="44.050965440716936" lon="10.903916747067006"><ele>636.0</ele><time>2026-04-06T14:11:04.942Z</time></trkpt><trkpt lat="44.050894426864474" lon="10.90388048552237"><ele>636.0</ele><time>2026-04-06T14:11:08.942Z</time></trkpt><trkpt lat="44.0508431466007" lon="10.90381912348141"><ele>636.0</ele><time>2026-04-06T14:11:11.942Z</time></trkpt><trkpt lat="44.05079213537864" lon="10.903765866977777"><ele>636.0</ele><time>2026-04-06T14:11:14.942Z</time></trkpt><trkpt lat="44.050660001750394" lon="10.90373455787841"><ele>636.0</ele><time>2026-04-06T14:11:39.942Z</time></trkpt><trkpt lat="44.05059232204297" lon="10.903738775549353"><ele>635.7142857142857</ele><time>2026-04-06T14:12:28.942Z</time></trkpt><trkpt lat="44.050629357870264" lon="10.903666004892248"><ele>635.4285714285714</ele><time>2026-04-06T14:12:52.942Z</time></trkpt><trkpt lat="44.050603208679746" lon="10.903571530526538"><ele>635.1428571428571</ele><time>2026-04-06T14:12:58.942Z</time></trkpt><trkpt lat="44.05057285026169" lon="10.90347633716855"><ele>634.8571428571429</ele><time>2026-04-06T14:13:02.942Z</time></trkpt><trkpt lat="44.05056037215136" lon="10.903379170531187"><ele>634.5714285714286</ele><time>2026-04-06T14:13:06.941Z</time></trkpt><trkpt lat="44.050544819762976" lon="10.903289201213692"><ele>634.2857142857143</ele><time>2026-04-06T14:13:10.941Z</time></trkpt><trkpt lat="44.050492289069794" lon="10.903202226753528"><ele>634.0</ele><time>2026-04-06T14:13:13.941Z</time></trkpt><trkpt lat="44.0504483433926" lon="10.903127098307145"><ele>634.0</ele><time>2026-04-06T14:13:16.941Z</time></trkpt><trkpt lat="44.050397644347456" lon="10.903056508915721"><ele>634.0</ele><time>2026-04-06T14:13:19.941Z</time></trkpt><trkpt lat="44.050358373831656" lon="10.902959291844189"><ele>634.0</ele><time>2026-04-06T14:13:22.941Z</time></trkpt><trkpt lat="44.050316115011036" lon="10.902862158988436"><ele>634.0</ele><time>2026-04-06T14:13:25.941Z</time></trkpt><trkpt lat="44.050265115226374" lon="10.902750535621553"><ele>634.0</ele><time>2026-04-06T14:13:28.941Z</time></trkpt><trkpt lat="44.05021571405357" lon="10.902676247071833"><ele>634.0</ele><time>2026-04-06T14:13:31.941Z</time></trkpt><trkpt lat="44.05015775008688" lon="10.90259171815868"><ele>633.4285714285714</ele><time>2026-04-06T14:13:34.941Z</time></trkpt><trkpt lat="44.05009210442415" lon="10.902494754355999"><ele>632.8571428571429</ele><time>2026-04-06T14:13:37.941Z</time></trkpt><trkpt lat="44.05005865733357" lon="10.902409329430911"><ele>632.2857142857142</ele><time>2026-04-06T14:13:39.941Z</time></trkpt><trkpt lat="44.05002054502816" lon="10.9023311219604"><ele>631.7142857142858</ele><time>2026-04-06T14:13:41.941Z</time></trkpt><trkpt lat="44.04997923534734" lon="10.902264025972118"><ele>631.1428571428571</ele><time>2026-04-06T14:13:43.941Z</time></trkpt><trkpt lat="44.04992895204454" lon="10.902195169516675"><ele>630.5714285714286</ele><time>2026-04-06T14:13:45.941Z</time></trkpt><trkpt lat="44.04988648596693" lon="10.902128767321852"><ele>630.0</ele><time>2026-04-06T14:13:47.941Z</time></trkpt><trkpt lat="44.04987594199023" lon="10.90203720541645"><ele>629.8333333333334</ele><time>2026-04-06T14:13:49.941Z</time></trkpt><trkpt lat="44.049835260415925" lon="10.901938408069034"><ele>629.6666666666666</ele><time>2026-04-06T14:13:52.941Z</time></trkpt><trkpt lat="44.049768180609476" lon="10.90186878806016"><ele>629.5</ele><time>2026-04-06T14:13:55.941Z</time></trkpt><trkpt lat="44.049709717830915" lon="10.901781112506193"><ele>629.3333333333333</ele><time>2026-04-06T14:13:58.941Z</time></trkpt><trkpt lat="44.04964627034798" lon="10.901702542204244"><ele>629.1666666666666</ele><time>2026-04-06T14:14:01.941Z</time></trkpt><trkpt lat="44.04958771197322" lon="10.901629364044075"><ele>629.0</ele><time>2026-04-06T14:14:04.941Z</time></trkpt><trkpt lat="44.04952860952943" lon="10.901533560175913"><ele>629.0</ele><time>2026-04-06T14:14:08.94Z</time></trkpt><trkpt lat="44.04949047266378" lon="10.901462071721873"><ele>629.0</ele><time>2026-04-06T14:14:10.934Z</time></trkpt><trkpt lat="44.04944806144099" lon="10.901365057589906"><ele>629.0</ele><time>2026-04-06T14:14:13.927Z</time></trkpt><trkpt lat="44.049410036193464" lon="10.901278178427637"><ele>629.0</ele><time>2026-04-06T14:14:17.919Z</time></trkpt><trkpt lat="44.04941692022729" lon="10.901388705492602"><ele>629.0</ele><time>2026-04-06T14:14:24.909Z</time></trkpt><trkpt lat="44.049464810064464" lon="10.901471033314147"><ele>629.0</ele><time>2026-04-06T14:14:26.907Z</time></trkpt><trkpt lat="44.04952385544307" lon="10.901560005481123"><ele>629.0</ele><time>2026-04-06T14:14:28.905Z</time></trkpt><trkpt lat="44.0495748145614" lon="10.901655565331005"><ele>629.0</ele><time>2026-04-06T14:14:30.903Z</time></trkpt><trkpt lat="44.049622798807725" lon="10.901730546908997"><ele>629.0</ele><time>2026-04-06T14:14:32.902Z</time></trkpt><trkpt lat="44.04968996682943" lon="10.90182524656808"><ele>629.0</ele><time>2026-04-06T14:14:35.9Z</time></trkpt><trkpt lat="44.04974366958331" lon="10.901891455853432"><ele>629.0</ele><time>2026-04-06T14:14:37.899Z</time></trkpt><trkpt lat="44.049785316519056" lon="10.901958869524513"><ele>629.0</ele><time>2026-04-06T14:14:39.898Z</time></trkpt><trkpt lat="44.04983807563957" lon="10.902028502835236"><ele>629.0</ele><time>2026-04-06T14:14:42.897Z</time></trkpt><trkpt lat="44.04976245080082" lon="10.902040373664658"><ele>629.0</ele><time>2026-04-06T14:14:47.895Z</time></trkpt><trkpt lat="44.04972798167319" lon="10.901959665994651"><ele>629.0</ele><time>2026-04-06T14:14:49.895Z</time></trkpt><trkpt lat="44.04968109248215" lon="10.901870331950077"><ele>629.0</ele><time>2026-04-06T14:14:53.894Z</time></trkpt><trkpt lat="44.04962990813474" lon="10.901785730661183"><ele>629.0</ele><time>2026-04-06T14:14:56.894Z</time></trkpt><trkpt lat="44.04957102495904" lon="10.901699923414402"><ele>629.0</ele><time>2026-04-06T14:14:59.893Z</time></trkpt><trkpt lat="44.049523655060206" lon="10.901638983320007"><ele>629.0</ele><time>2026-04-06T14:15:01.893Z</time></trkpt><trkpt lat="44.049480300369076" lon="10.901572401946913"><ele>629.0</ele><time>2026-04-06T14:15:03.893Z</time></trkpt><trkpt lat="44.049434565135066" lon="10.901508698264761"><ele>629.0</ele><time>2026-04-06T14:15:05.893Z</time></trkpt><trkpt lat="44.04937958447804" lon="10.901421896511641"><ele>629.0</ele><time>2026-04-06T14:15:08.893Z</time></trkpt><trkpt lat="44.04933074452582" lon="10.901363077344174"><ele>629.0</ele><time>2026-04-06T14:15:10.892Z</time></trkpt><trkpt lat="44.04928589398349" lon="10.901295777319907"><ele>629.0</ele><time>2026-04-06T14:15:12.892Z</time></trkpt><trkpt lat="44.049228462532" lon="10.901232554715413"><ele>629.0</ele><time>2026-04-06T14:15:14.892Z</time></trkpt><trkpt lat="44.04918204494245" lon="10.90117066238176"><ele>629.4285714285714</ele><time>2026-04-06T14:15:16.892Z</time></trkpt><trkpt lat="44.049124434333635" lon="10.90111150679261"><ele>629.8571428571429</ele><time>2026-04-06T14:15:18.892Z</time></trkpt><trkpt lat="44.04906678522472" lon="10.901050874264087"><ele>630.2857142857143</ele><time>2026-04-06T14:15:20.892Z</time></trkpt><trkpt lat="44.04900703265262" lon="10.900985204661735"><ele>630.7142857142858</ele><time>2026-04-06T14:15:22.892Z</time></trkpt><trkpt lat="44.04894719164963" lon="10.900931769155727"><ele>631.1428571428571</ele><time>2026-04-06T14:15:24.891Z</time></trkpt><trkpt lat="44.04888347509191" lon="10.900888753674773"><ele>631.5714285714287</ele><time>2026-04-06T14:15:26.891Z</time></trkpt><trkpt lat="44.04882866149723" lon="10.900845157964962"><ele>632.0</ele><time>2026-04-06T14:15:28.891Z</time></trkpt><trkpt lat="44.048763984672696" lon="10.9007922418778"><ele>632.0000000000001</ele><time>2026-04-06T14:15:30.891Z</time></trkpt><trkpt lat="44.04871195354035" lon="10.900738581357812"><ele>632.0</ele><time>2026-04-06T14:15:32.891Z</time></trkpt><trkpt lat="44.04864838797674" lon="10.900691881867852"><ele>632.0</ele><time>2026-04-06T14:15:34.891Z</time></trkpt><trkpt lat="44.04856931954188" lon="10.90064786072611"><ele>632.0</ele><time>2026-04-06T14:15:37.891Z</time></trkpt><trkpt lat="44.04849783874398" lon="10.900626733275438"><ele>632.0</ele><time>2026-04-06T14:15:39.891Z</time></trkpt><trkpt lat="44.04843300195185" lon="10.90059672685167"><ele>632.0000000000001</ele><time>2026-04-06T14:15:41.891Z</time></trkpt><trkpt lat="44.04836903609851" lon="10.900597058812195"><ele>632.0</ele><time>2026-04-06T14:15:43.891Z</time></trkpt><trkpt lat="44.04830035304716" lon="10.900565446698696"><ele>632.8000000000001</ele><time>2026-04-06T14:15:45.891Z</time></trkpt><trkpt lat="44.04822190742434" lon="10.90054201227544"><ele>633.6</ele><time>2026-04-06T14:15:47.891Z</time></trkpt><trkpt lat="44.04813805792885" lon="10.900496493918501"><ele>634.4000000000001</ele><time>2026-04-06T14:15:49.891Z</time></trkpt><trkpt lat="44.048053672711646" lon="10.900483521483261"><ele>635.2</ele><time>2026-04-06T14:15:51.891Z</time></trkpt><trkpt lat="44.047967747415726" lon="10.900444043818204"><ele>636.0</ele><time>2026-04-06T14:15:53.891Z</time></trkpt><trkpt lat="44.04786819233838" lon="10.900399932199374"><ele>636.0</ele><time>2026-04-06T14:15:55.891Z</time></trkpt><trkpt lat="44.04777842581873" lon="10.900370803743774"><ele>636.0</ele><time>2026-04-06T14:15:57.891Z</time></trkpt><trkpt lat="44.047679939178884" lon="10.900345014232961"><ele>636.0</ele><time>2026-04-06T14:15:59.891Z</time></trkpt><trkpt lat="44.04757778588069" lon="10.900305340994986"><ele>636.0</ele><time>2026-04-06T14:16:01.891Z</time></trkpt><trkpt lat="44.04748867126614" lon="10.900265025342538"><ele>636.0</ele><time>2026-04-06T14:16:03.891Z</time></trkpt><trkpt lat="44.04738778624123" lon="10.900229396940723"><ele>637.2</ele><time>2026-04-06T14:16:05.891Z</time></trkpt><trkpt lat="44.047297328210135" lon="10.90019988183216"><ele>638.4000000000001</ele><time>2026-04-06T14:16:07.89Z</time></trkpt><trkpt lat="44.047213338456345" lon="10.9001525826849"><ele>639.6</ele><time>2026-04-06T14:16:09.89Z</time></trkpt><trkpt lat="44.04712151991872" lon="10.900115998433714"><ele>640.8000000000001</ele><time>2026-04-06T14:16:11.89Z</time></trkpt><trkpt lat="44.04702946392721" lon="10.900090079319734"><ele>642.0</ele><time>2026-04-06T14:16:13.89Z</time></trkpt><trkpt lat="44.04694331306211" lon="10.900051192845606"><ele>642.0</ele><time>2026-04-06T14:16:15.89Z</time></trkpt><trkpt lat="44.0468515378249" lon="10.900017878275296"><ele>642.0</ele><time>2026-04-06T14:16:17.89Z</time></trkpt><trkpt lat="44.046767699008925" lon="10.899979332916809"><ele>642.0</ele><time>2026-04-06T14:16:19.89Z</time></trkpt><trkpt lat="44.04668625466708" lon="10.899927606905084"><ele>642.0</ele><time>2026-04-06T14:16:21.89Z</time></trkpt><trkpt lat="44.046616044511275" lon="10.899846066443082"><ele>642.0</ele><time>2026-04-06T14:16:23.89Z</time></trkpt><trkpt lat="44.0465439121808" lon="10.899780542179824"><ele>643.2</ele><time>2026-04-06T14:16:25.89Z</time></trkpt><trkpt lat="44.046492730095935" lon="10.899651745826276"><ele>644.4000000000001</ele><time>2026-04-06T14:16:27.89Z</time></trkpt><trkpt lat="44.04645646383168" lon="10.89955021434775"><ele>645.5999999999999</ele><time>2026-04-06T14:16:29.89Z</time></trkpt><trkpt lat="44.04642901318583" lon="10.899395977926565"><ele>646.8</ele><time>2026-04-06T14:16:31.89Z</time></trkpt><trkpt lat="44.046405147453136" lon="10.899250596701933"><ele>648.0</ele><time>2026-04-06T14:16:33.89Z</time></trkpt><trkpt lat="44.04639126295853" lon="10.89913553951384"><ele>648.0</ele><time>2026-04-06T14:16:35.89Z</time></trkpt><trkpt lat="44.046407383109475" lon="10.899028807060787"><ele>648.0</ele><time>2026-04-06T14:16:37.89Z</time></trkpt><trkpt lat="44.04641911754094" lon="10.898903363989689"><ele>648.0</ele><time>2026-04-06T14:16:39.89Z</time></trkpt><trkpt lat="44.046448971542695" lon="10.89876208400909"><ele>648.0</ele><time>2026-04-06T14:16:41.89Z</time></trkpt><trkpt lat="44.04645877798991" lon="10.898607404322318"><ele>648.0</ele><time>2026-04-06T14:16:43.89Z</time></trkpt><trkpt lat="44.04645729367987" lon="10.898449178882519"><ele>646.8</ele><time>2026-04-06T14:16:45.89Z</time></trkpt><trkpt lat="44.04645010151143" lon="10.898297827866909"><ele>645.5999999999999</ele><time>2026-04-06T14:16:47.89Z</time></trkpt><trkpt lat="44.04645603061004" lon="10.898155867083636"><ele>644.4000000000001</ele><time>2026-04-06T14:16:49.89Z</time></trkpt><trkpt lat="44.04644295831666" lon="10.898010134708501"><ele>643.2</ele><time>2026-04-06T14:16:51.89Z</time></trkpt><trkpt lat="44.04642753056861" lon="10.897869805590258"><ele>642.0</ele><time>2026-04-06T14:16:53.89Z</time></trkpt><trkpt lat="44.04640756021508" lon="10.897739875917782"><ele>642.0</ele><time>2026-04-06T14:16:55.89Z</time></trkpt><trkpt lat="44.04638232943239" lon="10.897605625168945"><ele>642.0</ele><time>2026-04-06T14:16:57.89Z</time></trkpt><trkpt lat="44.046351503196696" lon="10.897481471466099"><ele>642.0</ele><time>2026-04-06T14:16:59.89Z</time></trkpt><trkpt lat="44.04631414389182" lon="10.897384661334918"><ele>642.0</ele><time>2026-04-06T14:17:01.89Z</time></trkpt><trkpt lat="44.04626655642143" lon="10.897283963279888"><ele>642.0</ele><time>2026-04-06T14:17:03.89Z</time></trkpt><trkpt lat="44.046218958548906" lon="10.897175467909788"><ele>641.8333333333334</ele><time>2026-04-06T14:17:05.889Z</time></trkpt><trkpt lat="44.04616349995016" lon="10.897068475713107"><ele>641.6666666666666</ele><time>2026-04-06T14:17:07.889Z</time></trkpt><trkpt lat="44.04611197352961" lon="10.896986782061164"><ele>641.5</ele><time>2026-04-06T14:17:09.889Z</time></trkpt><trkpt lat="44.04605097385193" lon="10.896911143796439"><ele>641.3333333333333</ele><time>2026-04-06T14:17:11.889Z</time></trkpt><trkpt lat="44.04599179140041" lon="10.89682901427373"><ele>641.1666666666666</ele><time>2026-04-06T14:17:13.889Z</time></trkpt><trkpt lat="44.045954253709716" lon="10.896742708222403"><ele>641.0</ele><time>2026-04-06T14:17:15.889Z</time></trkpt><trkpt lat="44.04588353500514" lon="10.896614346691388"><ele>642.3333333333333</ele><time>2026-04-06T14:17:17.89Z</time></trkpt><trkpt lat="44.04583699673772" lon="10.89655519906144"><ele>643.6666666666666</ele><time>2026-04-06T14:17:18.889Z</time></trkpt><trkpt lat="44.045787901941964" lon="10.896498575703466"><ele>645.0</ele><time>2026-04-06T14:17:19.889Z</time></trkpt><trkpt lat="44.045741079495386" lon="10.896433764008517"><ele>646.3333333333334</ele><time>2026-04-06T14:17:20.889Z</time></trkpt><trkpt lat="44.04566717983247" lon="10.896342441823355"><ele>647.6666666666667</ele><time>2026-04-06T14:17:22.889Z</time></trkpt><trkpt lat="44.045590849692374" lon="10.896275786705406"><ele>649.0</ele><time>2026-04-06T14:17:24.889Z</time></trkpt><trkpt lat="44.045500928848355" lon="10.896180350552601"><ele>649.4000000000001</ele><time>2026-04-06T14:17:26.889Z</time></trkpt><trkpt lat="44.04541503974315" lon="10.896094110113204"><ele>649.8</ele><time>2026-04-06T14:17:28.889Z</time></trkpt><trkpt lat="44.04531834192806" lon="10.895999692910058"><ele>650.2</ele><time>2026-04-06T14:17:30.889Z</time></trkpt><trkpt lat="44.04522946672393" lon="10.89591663543747"><ele>650.5999999999999</ele><time>2026-04-06T14:17:32.889Z</time></trkpt><trkpt lat="44.045164867462255" lon="10.895841746147516"><ele>651.0</ele><time>2026-04-06T14:17:34.889Z</time></trkpt><trkpt lat="44.04508044341897" lon="10.895772556875995"><ele>651.0</ele><time>2026-04-06T14:17:36.889Z</time></trkpt><trkpt lat="44.04502646897761" lon="10.895683337228402"><ele>651.0</ele><time>2026-04-06T14:17:38.888Z</time></trkpt><trkpt lat="44.04498198728109" lon="10.895576630176981"><ele>651.0</ele><time>2026-04-06T14:17:40.888Z</time></trkpt><trkpt lat="44.04494315849097" lon="10.89544396908396"><ele>651.0</ele><time>2026-04-06T14:17:42.888Z</time></trkpt><trkpt lat="44.044898250955185" lon="10.895296335390626"><ele>651.0</ele><time>2026-04-06T14:17:44.888Z</time></trkpt><trkpt lat="44.044852348268826" lon="10.895166798107415"><ele>650.1999999999999</ele><time>2026-04-06T14:17:46.888Z</time></trkpt><trkpt lat="44.04480068723468" lon="10.895040462645744"><ele>649.4</ele><time>2026-04-06T14:17:48.888Z</time></trkpt><trkpt lat="44.04475358486647" lon="10.89492506361221"><ele>648.6</ele><time>2026-04-06T14:17:50.888Z</time></trkpt><trkpt lat="44.04467449575821" lon="10.894823809148615"><ele>647.8</ele><time>2026-04-06T14:17:52.888Z</time></trkpt><trkpt lat="44.04462207885441" lon="10.8947668619349"><ele>647.0</ele><time>2026-04-06T14:17:53.888Z</time></trkpt><trkpt lat="44.04453536386814" lon="10.894657015279602"><ele>647.0</ele><time>2026-04-06T14:17:55.888Z</time></trkpt><trkpt lat="44.04445849310402" lon="10.894542852391139"><ele>647.0</ele><time>2026-04-06T14:17:57.888Z</time></trkpt><trkpt lat="44.0443743073787" lon="10.894433544133197"><ele>647.0</ele><time>2026-04-06T14:17:59.888Z</time></trkpt><trkpt lat="44.04429419755985" lon="10.89432493742765"><ele>647.0</ele><time>2026-04-06T14:18:01.888Z</time></trkpt><trkpt lat="44.044256754224584" lon="10.894247164284325"><ele>647.0</ele><time>2026-04-06T14:18:02.888Z</time></trkpt><trkpt lat="44.04417323955668" lon="10.894137544369832"><ele>647.5</ele><time>2026-04-06T14:18:04.888Z</time></trkpt><trkpt lat="44.0440838266982" lon="10.894029738756824"><ele>648.0</ele><time>2026-04-06T14:18:06.888Z</time></trkpt><trkpt lat="44.04399939751576" lon="10.893945607056251"><ele>648.5</ele><time>2026-04-06T14:18:08.888Z</time></trkpt><trkpt lat="44.04391233211621" lon="10.893826902051243"><ele>649.0</ele><time>2026-04-06T14:18:10.888Z</time></trkpt><trkpt lat="44.04382862389721" lon="10.893728688331516"><ele>649.0</ele><time>2026-04-06T14:18:12.888Z</time></trkpt><trkpt lat="44.04374330572508" lon="10.893659064236191"><ele>649.0</ele><time>2026-04-06T14:18:14.888Z</time></trkpt><trkpt lat="44.043660045169645" lon="10.893575226924977"><ele>649.0</ele><time>2026-04-06T14:18:16.888Z</time></trkpt><trkpt lat="44.04357976086515" lon="10.893491714930002"><ele>649.0</ele><time>2026-04-06T14:18:18.888Z</time></trkpt><trkpt lat="44.04350105261" lon="10.893407272101472"><ele>649.0</ele><time>2026-04-06T14:18:20.888Z</time></trkpt><trkpt lat="44.043430907781" lon="10.893290141028412"><ele>649.5</ele><time>2026-04-06T14:18:22.888Z</time></trkpt><trkpt lat="44.04337250790475" lon="10.893198701882815"><ele>650.0</ele><time>2026-04-06T14:18:24.888Z</time></trkpt><trkpt lat="44.043317044985926" lon="10.893102940751882"><ele>650.5</ele><time>2026-04-06T14:18:26.888Z</time></trkpt><trkpt lat="44.04325695081003" lon="10.893019219601792"><ele>651.0</ele><time>2026-04-06T14:18:28.888Z</time></trkpt><trkpt lat="44.043200351594784" lon="10.892914258156996"><ele>651.5</ele><time>2026-04-06T14:18:30.888Z</time></trkpt><trkpt lat="44.04313535893477" lon="10.892826959195375"><ele>652.0</ele><time>2026-04-06T14:18:32.888Z</time></trkpt><trkpt lat="44.04308868725896" lon="10.89271216946772"><ele>651.6</ele><time>2026-04-06T14:18:34.888Z</time></trkpt><trkpt lat="44.043018637682565" lon="10.892603696097773"><ele>651.2</ele><time>2026-04-06T14:18:36.888Z</time></trkpt><trkpt lat="44.042960143526756" lon="10.892502518305188"><ele>650.8</ele><time>2026-04-06T14:18:38.888Z</time></trkpt><trkpt lat="44.04288457071902" lon="10.892439371853303"><ele>650.4</ele><time>2026-04-06T14:18:40.888Z</time></trkpt><trkpt lat="44.04283492453511" lon="10.892335525312681"><ele>650.0</ele><time>2026-04-06T14:18:42.888Z</time></trkpt><trkpt lat="44.04276531453098" lon="10.892239634107407"><ele>650.0</ele><time>2026-04-06T14:18:44.887Z</time></trkpt><trkpt lat="44.0426969470304" lon="10.892150963548838"><ele>650.0</ele><time>2026-04-06T14:18:46.887Z</time></trkpt><trkpt lat="44.042643540377085" lon="10.892092973731438"><ele>650.0</ele><time>2026-04-06T14:18:48.887Z</time></trkpt><trkpt lat="44.042581603734824" lon="10.892002991380318"><ele>650.0</ele><time>2026-04-06T14:18:50.887Z</time></trkpt><trkpt lat="44.04252279810256" lon="10.89191136168635"><ele>650.0</ele><time>2026-04-06T14:18:52.887Z</time></trkpt><trkpt lat="44.04246888443695" lon="10.891800431042908"><ele>650.0</ele><time>2026-04-06T14:18:55.887Z</time></trkpt><trkpt lat="44.042437985012064" lon="10.891686112567733"><ele>649.5</ele><time>2026-04-06T14:18:57.887Z</time></trkpt><trkpt lat="44.04243299571356" lon="10.891592918011108"><ele>649.0</ele><time>2026-04-06T14:18:58.887Z</time></trkpt><trkpt lat="44.04241930419781" lon="10.891506474120042"><ele>648.5</ele><time>2026-04-06T14:18:59.887Z</time></trkpt><trkpt lat="44.04243799993315" lon="10.89133941592348"><ele>648.0</ele><time>2026-04-06T14:19:01.887Z</time></trkpt><trkpt lat="44.04245144217872" lon="10.891215839203882"><ele>647.5</ele><time>2026-04-06T14:19:03.887Z</time></trkpt><trkpt lat="44.04249324303763" lon="10.891117999006966"><ele>647.0</ele><time>2026-04-06T14:19:05.887Z</time></trkpt><trkpt lat="44.042531516346266" lon="10.891023442833053"><ele>648.8333333333333</ele><time>2026-04-06T14:19:07.887Z</time></trkpt><trkpt lat="44.04256108469909" lon="10.890923127387278"><ele>650.6666666666666</ele><time>2026-04-06T14:19:09.887Z</time></trkpt><trkpt lat="44.04261171418286" lon="10.8908330695334"><ele>652.5</ele><time>2026-04-06T14:19:11.887Z</time></trkpt><trkpt lat="44.04264555047644" lon="10.890749649351704"><ele>654.3333333333334</ele><time>2026-04-06T14:19:13.887Z</time></trkpt><trkpt lat="44.042685606401214" lon="10.890675156835556"><ele>656.1666666666667</ele><time>2026-04-06T14:19:15.887Z</time></trkpt><trkpt lat="44.04270989911608" lon="10.89052542849917"><ele>658.0</ele><time>2026-04-06T14:19:17.887Z</time></trkpt><trkpt lat="44.04275976799376" lon="10.89038066248848"><ele>658.0</ele><time>2026-04-06T14:19:19.887Z</time></trkpt><trkpt lat="44.04280792127727" lon="10.890238560039007"><ele>658.0</ele><time>2026-04-06T14:19:21.887Z</time></trkpt><trkpt lat="44.04283609102806" lon="10.890159564859976"><ele>658.0</ele><time>2026-04-06T14:19:22.887Z</time></trkpt><trkpt lat="44.042885725897676" lon="10.890017514800672"><ele>658.0</ele><time>2026-04-06T14:19:24.887Z</time></trkpt><trkpt lat="44.04291225620342" lon="10.889856728737858"><ele>658.0</ele><time>2026-04-06T14:19:26.887Z</time></trkpt><trkpt lat="44.042929034676106" lon="10.889696909287212"><ele>656.5</ele><time>2026-04-06T14:19:28.887Z</time></trkpt><trkpt lat="44.04293073868744" lon="10.889535006018205"><ele>655.0</ele><time>2026-04-06T14:19:30.886Z</time></trkpt><trkpt lat="44.04292121804735" lon="10.889373310348818"><ele>653.5</ele><time>2026-04-06T14:19:32.886Z</time></trkpt><trkpt lat="44.04289586920071" lon="10.889206713118249"><ele>652.0</ele><time>2026-04-06T14:19:34.886Z</time></trkpt><trkpt lat="44.04285916184536" lon="10.88905286218539"><ele>651.8</ele><time>2026-04-06T14:19:36.886Z</time></trkpt><trkpt lat="44.042829284841396" lon="10.888912060749995"><ele>651.6</ele><time>2026-04-06T14:19:38.886Z</time></trkpt><trkpt lat="44.04279364059785" lon="10.888771258542938"><ele>651.4</ele><time>2026-04-06T14:19:40.886Z</time></trkpt><trkpt lat="44.04275552715421" lon="10.888620417028113"><ele>651.1999999999999</ele><time>2026-04-06T14:19:42.886Z</time></trkpt><trkpt lat="44.04270760411094" lon="10.888480102877448"><ele>651.0</ele><time>2026-04-06T14:19:44.886Z</time></trkpt><trkpt lat="44.04264659525418" lon="10.88834987999637"><ele>651.5999999999999</ele><time>2026-04-06T14:19:46.886Z</time></trkpt><trkpt lat="44.042576129583814" lon="10.888211680071251"><ele>652.2</ele><time>2026-04-06T14:19:48.886Z</time></trkpt><trkpt lat="44.04252306887599" lon="10.888103600288675"><ele>652.8</ele><time>2026-04-06T14:19:50.886Z</time></trkpt><trkpt lat="44.042468468475306" lon="10.887982617011954"><ele>653.4000000000001</ele><time>2026-04-06T14:19:52.886Z</time></trkpt><trkpt lat="44.042409602892725" lon="10.887851229230337"><ele>654.0</ele><time>2026-04-06T14:19:54.886Z</time></trkpt><trkpt lat="44.04235562937641" lon="10.88773065081971"><ele>654.4000000000001</ele><time>2026-04-06T14:19:56.886Z</time></trkpt><trkpt lat="44.04228943910473" lon="10.887603687573696"><ele>654.8</ele><time>2026-04-06T14:19:58.886Z</time></trkpt><trkpt lat="44.04222034585416" lon="10.887483607746544"><ele>655.2</ele><time>2026-04-06T14:20:00.886Z</time></trkpt><trkpt lat="44.04215987729093" lon="10.887360286189194"><ele>655.5999999999999</ele><time>2026-04-06T14:20:02.886Z</time></trkpt><trkpt lat="44.04210128195937" lon="10.887245215587038"><ele>656.0</ele><time>2026-04-06T14:20:04.886Z</time></trkpt><trkpt lat="44.04204265892145" lon="10.887137693166082"><ele>656.0</ele><time>2026-04-06T14:20:06.886Z</time></trkpt><trkpt lat="44.04198125566347" lon="10.887044857697475"><ele>656.0</ele><time>2026-04-06T14:20:08.886Z</time></trkpt><trkpt lat="44.04191679199211" lon="10.886939806274338"><ele>656.0</ele><time>2026-04-06T14:20:10.886Z</time></trkpt><trkpt lat="44.041856735572345" lon="10.886846869759465"><ele>656.0</ele><time>2026-04-06T14:20:12.886Z</time></trkpt><trkpt lat="44.04178449388693" lon="10.886773371176778"><ele>656.0</ele><time>2026-04-06T14:20:14.886Z</time></trkpt><trkpt lat="44.041716665274535" lon="10.886692807863195"><ele>656.8333333333333</ele><time>2026-04-06T14:20:16.886Z</time></trkpt><trkpt lat="44.041663813971525" lon="10.886605049518959"><ele>657.6666666666666</ele><time>2026-04-06T14:20:18.886Z</time></trkpt><trkpt lat="44.04159848043334" lon="10.886523072679456"><ele>658.5</ele><time>2026-04-06T14:20:20.886Z</time></trkpt><trkpt lat="44.04153554416138" lon="10.886457576163025"><ele>659.3333333333334</ele><time>2026-04-06T14:20:22.886Z</time></trkpt><trkpt lat="44.0414650710083" lon="10.886398944857007"><ele>660.1666666666667</ele><time>2026-04-06T14:20:24.886Z</time></trkpt><trkpt lat="44.04140646085704" lon="10.886322039991406"><ele>661.0</ele><time>2026-04-06T14:20:26.886Z</time></trkpt><trkpt lat="44.04132817325288" lon="10.886266947570377"><ele>661.3333333333334</ele><time>2026-04-06T14:20:28.886Z</time></trkpt><trkpt lat="44.04125829775278" lon="10.886207145753906"><ele>661.6666666666667</ele><time>2026-04-06T14:20:30.886Z</time></trkpt><trkpt lat="44.04119297030796" lon="10.88617543550378"><ele>662.0</ele><time>2026-04-06T14:20:32.886Z</time></trkpt><trkpt lat="44.04109844531709" lon="10.886138493438455"><ele>662.3333333333334</ele><time>2026-04-06T14:20:35.885Z</time></trkpt><trkpt lat="44.04102217874522" lon="10.886097138184923"><ele>662.6666666666666</ele><time>2026-04-06T14:20:37.885Z</time></trkpt><trkpt lat="44.04093228762473" lon="10.886066594415485"><ele>663.0</ele><time>2026-04-06T14:20:39.885Z</time></trkpt><trkpt lat="44.04085089591272" lon="10.886029550764686"><ele>662.0</ele><time>2026-04-06T14:20:41.885Z</time></trkpt><trkpt lat="44.04075921957414" lon="10.885988520194182"><ele>661.0</ele><time>2026-04-06T14:20:43.885Z</time></trkpt><trkpt lat="44.04067918839169" lon="10.885939831814248"><ele>660.0</ele><time>2026-04-06T14:20:45.885Z</time></trkpt><trkpt lat="44.04059626653132" lon="10.885887256916739"><ele>659.0</ele><time>2026-04-06T14:20:47.885Z</time></trkpt><trkpt lat="44.04051061168155" lon="10.885833207016194"><ele>658.0</ele><time>2026-04-06T14:20:49.885Z</time></trkpt><trkpt lat="44.040451371834514" lon="10.885721147156902"><ele>658.0</ele><time>2026-04-06T14:20:51.885Z</time></trkpt><trkpt lat="44.04041245688209" lon="10.885594004890683"><ele>658.0</ele><time>2026-04-06T14:20:53.885Z</time></trkpt><trkpt lat="44.040384399234476" lon="10.885465824509456"><ele>658.0</ele><time>2026-04-06T14:20:55.885Z</time></trkpt><trkpt lat="44.04035833869983" lon="10.885337735429813"><ele>658.0</ele><time>2026-04-06T14:20:57.885Z</time></trkpt><trkpt lat="44.040342529370086" lon="10.885204603643542"><ele>658.0</ele><time>2026-04-06T14:20:59.885Z</time></trkpt><trkpt lat="44.040329589129314" lon="10.885070681842686"><ele>658.0</ele><time>2026-04-06T14:21:01.885Z</time></trkpt><trkpt lat="44.040318270418034" lon="10.884936181466626"><ele>658.0</ele><time>2026-04-06T14:21:03.885Z</time></trkpt><trkpt lat="44.04030227825563" lon="10.884801895823966"><ele>658.0</ele><time>2026-04-06T14:21:05.885Z</time></trkpt><trkpt lat="44.04023931734928" lon="10.884706833225277"><ele>658.0</ele><time>2026-04-06T14:21:07.885Z</time></trkpt><trkpt lat="44.04018928615118" lon="10.884613767572374"><ele>658.0</ele><time>2026-04-06T14:21:09.885Z</time></trkpt><trkpt lat="44.04013272567535" lon="10.884539839971785"><ele>658.0</ele><time>2026-04-06T14:21:12.885Z</time></trkpt><trkpt lat="44.0400726405684" lon="10.884452411160503"><ele>658.0</ele><time>2026-04-06T14:21:15.885Z</time></trkpt><trkpt lat="44.04003143564009" lon="10.884363110471888"><ele>658.0</ele><time>2026-04-06T14:21:17.886Z</time></trkpt><trkpt lat="44.039996369753474" lon="10.884269815329693"><ele>658.0</ele><time>2026-04-06T14:21:19.885Z</time></trkpt><trkpt lat="44.03994334061599" lon="10.88410795796042"><ele>658.0</ele><time>2026-04-06T14:21:21.885Z</time></trkpt><trkpt lat="44.03991232190149" lon="10.883957053567725"><ele>658.0</ele><time>2026-04-06T14:21:23.885Z</time></trkpt><trkpt lat="44.039867333465494" lon="10.883799286617583"><ele>658.0</ele><time>2026-04-06T14:21:25.885Z</time></trkpt><trkpt lat="44.039820501777264" lon="10.883675093758479"><ele>658.0</ele><time>2026-04-06T14:21:27.885Z</time></trkpt><trkpt lat="44.039779922715844" lon="10.883537591131871"><ele>658.0</ele><time>2026-04-06T14:21:29.885Z</time></trkpt><trkpt lat="44.03973271167298" lon="10.883426847448087"><ele>658.0</ele><time>2026-04-06T14:21:31.885Z</time></trkpt><trkpt lat="44.03969339006412" lon="10.883344177782597"><ele>658.0</ele><time>2026-04-06T14:21:33.885Z</time></trkpt><trkpt lat="44.03966994957875" lon="10.883245004780973"><ele>658.0</ele><time>2026-04-06T14:21:35.885Z</time></trkpt><trkpt lat="44.0396083086247" lon="10.88313641990865"><ele>658.0</ele><time>2026-04-06T14:21:38.885Z</time></trkpt><trkpt lat="44.039512694982065" lon="10.883054721659464"><ele>658.0</ele><time>2026-04-06T14:21:40.885Z</time></trkpt><trkpt lat="44.0394560384413" lon="10.882968672832712"><ele>658.0</ele><time>2026-04-06T14:21:42.885Z</time></trkpt><trkpt lat="44.03943874816148" lon="10.88284021301171"><ele>658.0</ele><time>2026-04-06T14:21:44.885Z</time></trkpt><trkpt lat="44.039405993559214" lon="10.882722620863271"><ele>658.0</ele><time>2026-04-06T14:21:46.885Z</time></trkpt><trkpt lat="44.03939726191512" lon="10.882615720376313"><ele>658.5</ele><time>2026-04-06T14:21:48.885Z</time></trkpt><trkpt lat="44.039355319496906" lon="10.882518711386561"><ele>659.0</ele><time>2026-04-06T14:21:50.885Z</time></trkpt><trkpt lat="44.03930536599361" lon="10.882421604875669"><ele>659.5</ele><time>2026-04-06T14:21:52.885Z</time></trkpt><trkpt lat="44.03930595437674" lon="10.882307875984779"><ele>660.0</ele><time>2026-04-06T14:21:54.885Z</time></trkpt><trkpt lat="44.03927934343659" lon="10.882205485022704"><ele>660.5</ele><time>2026-04-06T14:21:56.885Z</time></trkpt><trkpt lat="44.039258212777476" lon="10.882101381705072"><ele>661.0</ele><time>2026-04-06T14:21:58.885Z</time></trkpt><trkpt lat="44.03924205370537" lon="10.88200104129329"><ele>661.0</ele><time>2026-04-06T14:22:00.885Z</time></trkpt><trkpt lat="44.03924416301949" lon="10.881878440154939"><ele>661.0</ele><time>2026-04-06T14:22:02.885Z</time></trkpt><trkpt lat="44.039242817498724" lon="10.881744084052904"><ele>661.0</ele><time>2026-04-06T14:22:04.884Z</time></trkpt><trkpt lat="44.03922619454598" lon="10.88162257871606"><ele>661.0</ele><time>2026-04-06T14:22:06.884Z</time></trkpt><trkpt lat="44.03920579428711" lon="10.881494587141649"><ele>661.0</ele><time>2026-04-06T14:22:08.884Z</time></trkpt><trkpt lat="44.03917436957113" lon="10.881383184792458"><ele>661.8333333333334</ele><time>2026-04-06T14:22:10.884Z</time></trkpt><trkpt lat="44.039149134097435" lon="10.881287974837324"><ele>662.6666666666667</ele><time>2026-04-06T14:22:12.884Z</time></trkpt><trkpt lat="44.03910321736574" lon="10.88118117742035"><ele>663.5</ele><time>2026-04-06T14:22:14.884Z</time></trkpt><trkpt lat="44.03907432054148" lon="10.881057374808341"><ele>664.3333333333334</ele><time>2026-04-06T14:22:16.884Z</time></trkpt><trkpt lat="44.03906633651781" lon="10.88095358914622"><ele>665.1666666666666</ele><time>2026-04-06T14:22:18.884Z</time></trkpt><trkpt lat="44.03904691048263" lon="10.880829201209282"><ele>666.0</ele><time>2026-04-06T14:22:20.884Z</time></trkpt><trkpt lat="44.03904671696031" lon="10.880724787858902"><ele>666.0</ele><time>2026-04-06T14:22:22.884Z</time></trkpt><trkpt lat="44.039052090771044" lon="10.880594586843044"><ele>666.0</ele><time>2026-04-06T14:22:25.884Z</time></trkpt><trkpt lat="44.039048951500035" lon="10.880494621474021"><ele>666.0</ele><time>2026-04-06T14:22:27.884Z</time></trkpt><trkpt lat="44.03905376410525" lon="10.880395059044806"><ele>666.0</ele><time>2026-04-06T14:22:29.884Z</time></trkpt><trkpt lat="44.0390495122526" lon="10.88029010304326"><ele>666.0</ele><time>2026-04-06T14:22:31.884Z</time></trkpt><trkpt lat="44.039042751348546" lon="10.880194266671172"><ele>666.0</ele><time>2026-04-06T14:22:33.884Z</time></trkpt><trkpt lat="44.03904874694077" lon="10.880103787725762"><ele>666.0</ele><time>2026-04-06T14:22:35.884Z</time></trkpt><trkpt lat="44.03904855456342" lon="10.879999727417797"><ele>666.7142857142858</ele><time>2026-04-06T14:22:37.884Z</time></trkpt><trkpt lat="44.03906145720528" lon="10.879888398504981"><ele>667.4285714285713</ele><time>2026-04-06T14:22:39.884Z</time></trkpt><trkpt lat="44.039046979101904" lon="10.879789710871975"><ele>668.1428571428571</ele><time>2026-04-06T14:22:41.884Z</time></trkpt><trkpt lat="44.039061037623206" lon="10.8797001834912"><ele>668.8571428571429</ele><time>2026-04-06T14:22:43.884Z</time></trkpt><trkpt lat="44.03905734018851" lon="10.879602767852305"><ele>669.5714285714287</ele><time>2026-04-06T14:22:46.884Z</time></trkpt><trkpt lat="44.0390493130381" lon="10.87948017801347"><ele>670.2857142857142</ele><time>2026-04-06T14:22:50.884Z</time></trkpt><trkpt lat="44.03905943469596" lon="10.8793917021773"><ele>671.0</ele><time>2026-04-06T14:22:52.884Z</time></trkpt><trkpt lat="44.039080049771265" lon="10.879302451964783"><ele>672.0</ele><time>2026-04-06T14:22:54.884Z</time></trkpt><trkpt lat="44.03907854756731" lon="10.879178728481557"><ele>673.0</ele><time>2026-04-06T14:22:56.884Z</time></trkpt><trkpt lat="44.03906968476276" lon="10.87906146597956"><ele>674.0</ele><time>2026-04-06T14:22:58.884Z</time></trkpt><trkpt lat="44.03907488209801" lon="10.878962256399845"><ele>675.0</ele><time>2026-04-06T14:23:00.884Z</time></trkpt><trkpt lat="44.039084972736205" lon="10.878844040354938"><ele>676.0</ele><time>2026-04-06T14:23:03.884Z</time></trkpt><trkpt lat="44.03910252459835" lon="10.878711918519246"><ele>677.0</ele><time>2026-04-06T14:23:06.884Z</time></trkpt><trkpt lat="44.03910423385203" lon="10.878591436091101"><ele>677.0</ele><time>2026-04-06T14:23:08.883Z</time></trkpt><trkpt lat="44.03912447566576" lon="10.878465151697284"><ele>677.0</ele><time>2026-04-06T14:23:10.883Z</time></trkpt><trkpt lat="44.03914432185655" lon="10.878340447229638"><ele>677.0</ele><time>2026-04-06T14:23:12.883Z</time></trkpt><trkpt lat="44.039135838665395" lon="10.878191951236321"><ele>677.0</ele><time>2026-04-06T14:23:14.883Z</time></trkpt><trkpt lat="44.03912696201854" lon="10.878039103711245"><ele>677.0</ele><time>2026-04-06T14:23:16.883Z</time></trkpt><trkpt lat="44.03910883026717" lon="10.877897122620514"><ele>677.0</ele><time>2026-04-06T14:23:18.883Z</time></trkpt><trkpt lat="44.03908577115663" lon="10.877751637784803"><ele>677.0</ele><time>2026-04-06T14:23:20.883Z</time></trkpt><trkpt lat="44.039074653377774" lon="10.877620589905847"><ele>677.0</ele><time>2026-04-06T14:23:22.883Z</time></trkpt><trkpt lat="44.03906969302842" lon="10.877507698794869"><ele>677.0</ele><time>2026-04-06T14:23:24.883Z</time></trkpt><trkpt lat="44.03906688266078" lon="10.877400324889528"><ele>677.0</ele><time>2026-04-06T14:23:26.883Z</time></trkpt><trkpt lat="44.0390811503075" lon="10.877272103209355"><ele>677.0</ele><time>2026-04-06T14:23:29.883Z</time></trkpt><trkpt lat="44.03909758699663" lon="10.8771742294492"><ele>677.0</ele><time>2026-04-06T14:23:31.882Z</time></trkpt><trkpt lat="44.03912022621706" lon="10.877076018288399"><ele>677.0</ele><time>2026-04-06T14:23:33.883Z</time></trkpt><trkpt lat="44.03912185072197" lon="10.876958738410984"><ele>677.0</ele><time>2026-04-06T14:23:36.883Z</time></trkpt><trkpt lat="44.039093576455734" lon="10.87684981281844"><ele>677.0</ele><time>2026-04-06T14:23:39.883Z</time></trkpt><trkpt lat="44.039030989740496" lon="10.876758841589952"><ele>677.0</ele><time>2026-04-06T14:23:42.883Z</time></trkpt><trkpt lat="44.03899592013923" lon="10.876676235188093"><ele>676.0</ele><time>2026-04-06T14:23:44.883Z</time></trkpt><trkpt lat="44.038939588542505" lon="10.87657912055693"><ele>675.0</ele><time>2026-04-06T14:23:47.883Z</time></trkpt><trkpt lat="44.0389108959378" lon="10.876484601935228"><ele>674.0</ele><time>2026-04-06T14:23:50.883Z</time></trkpt><trkpt lat="44.038874466642774" lon="10.876373453435184"><ele>673.0</ele><time>2026-04-06T14:23:53.883Z</time></trkpt><trkpt lat="44.038833597089464" lon="10.876306508167247"><ele>672.0</ele><time>2026-04-06T14:23:55.883Z</time></trkpt><trkpt lat="44.038786944505155" lon="10.876223886891507"><ele>671.0</ele><time>2026-04-06T14:23:57.883Z</time></trkpt><trkpt lat="44.03881034318506" lon="10.876126299519418"><ele>671.0</ele><time>2026-04-06T14:24:00.882Z</time></trkpt><trkpt lat="44.038861665050696" lon="10.87607291589284"><ele>671.0</ele><time>2026-04-06T14:24:02.882Z</time></trkpt><trkpt lat="44.03893353793109" lon="10.876013005467177"><ele>671.0</ele><time>2026-04-06T14:24:05.882Z</time></trkpt><trkpt lat="44.0390030423362" lon="10.875941001028913"><ele>671.0</ele><time>2026-04-06T14:24:08.882Z</time></trkpt><trkpt lat="44.03907420401171" lon="10.875878392230877"><ele>671.0</ele><time>2026-04-06T14:24:11.882Z</time></trkpt><trkpt lat="44.03911256798737" lon="10.875782917761141"><ele>671.0</ele><time>2026-04-06T14:24:14.882Z</time></trkpt><trkpt lat="44.03905348838817" lon="10.875704869325451"><ele>671.0</ele><time>2026-04-06T14:24:17.882Z</time></trkpt><trkpt lat="44.038995365525984" lon="10.875624125384897"><ele>671.0</ele><time>2026-04-06T14:24:20.882Z</time></trkpt><trkpt lat="44.038965129839035" lon="10.875542848025663"><ele>671.0</ele><time>2026-04-06T14:24:23.882Z</time></trkpt><trkpt lat="44.03892649158685" lon="10.87544573731123"><ele>671.0</ele><time>2026-04-06T14:24:26.882Z</time></trkpt><trkpt lat="44.038864182067194" lon="10.875347529097962"><ele>671.0</ele><time>2026-04-06T14:24:29.882Z</time></trkpt><trkpt lat="44.0388239063735" lon="10.875257658915908"><ele>671.0</ele><time>2026-04-06T14:24:31.882Z</time></trkpt><trkpt lat="44.03879589926563" lon="10.875175580578015"><ele>671.5</ele><time>2026-04-06T14:24:33.882Z</time></trkpt><trkpt lat="44.03880694154498" lon="10.875069680964613"><ele>672.0</ele><time>2026-04-06T14:24:36.882Z</time></trkpt><trkpt lat="44.03880723849819" lon="10.874947733989707"><ele>672.5</ele><time>2026-04-06T14:24:39.882Z</time></trkpt><trkpt lat="44.03875253077329" lon="10.874853880989862"><ele>673.0</ele><time>2026-04-06T14:24:42.882Z</time></trkpt><trkpt lat="44.03870617623878" lon="10.8747798692244"><ele>673.5</ele><time>2026-04-06T14:24:44.882Z</time></trkpt><trkpt lat="44.03865741042172" lon="10.874708647294693"><ele>674.0</ele><time>2026-04-06T14:24:46.882Z</time></trkpt><trkpt lat="44.03859007014811" lon="10.874609290625735"><ele>674.0</ele><time>2026-04-06T14:24:48.882Z</time></trkpt><trkpt lat="44.03856539170646" lon="10.874517873675943"><ele>674.0</ele><time>2026-04-06T14:24:50.882Z</time></trkpt><trkpt lat="44.0385795302489" lon="10.874407093284892"><ele>674.0</ele><time>2026-04-06T14:24:53.882Z</time></trkpt><trkpt lat="44.03862817086262" lon="10.874311205553875"><ele>674.0</ele><time>2026-04-06T14:24:56.882Z</time></trkpt><trkpt lat="44.03861023973995" lon="10.8742158721958"><ele>674.0</ele><time>2026-04-06T14:24:59.882Z</time></trkpt><trkpt lat="44.03855628138164" lon="10.87415751599966"><ele>674.0</ele><time>2026-04-06T14:25:02.881Z</time></trkpt><trkpt lat="44.038492954651346" lon="10.874062308855606"><ele>674.2857142857143</ele><time>2026-04-06T14:25:05.881Z</time></trkpt><trkpt lat="44.038449926706114" lon="10.87399571713341"><ele>674.5714285714286</ele><time>2026-04-06T14:25:07.881Z</time></trkpt><trkpt lat="44.03841237341993" lon="10.87392216560752"><ele>674.8571428571429</ele><time>2026-04-06T14:25:09.881Z</time></trkpt><trkpt lat="44.038400469793395" lon="10.87380755235553"><ele>675.1428571428571</ele><time>2026-04-06T14:25:11.881Z</time></trkpt><trkpt lat="44.038429676665245" lon="10.87371863543962"><ele>675.4285714285714</ele><time>2026-04-06T14:25:13.881Z</time></trkpt><trkpt lat="44.03846799416598" lon="10.87364617566797"><ele>675.7142857142858</ele><time>2026-04-06T14:25:15.881Z</time></trkpt><trkpt lat="44.03851253178347" lon="10.873556686298093"><ele>676.0</ele><time>2026-04-06T14:25:18.881Z</time></trkpt><trkpt lat="44.038559503434165" lon="10.873495061218927"><ele>676.8571428571429</ele><time>2026-04-06T14:25:21.881Z</time></trkpt><trkpt lat="44.03861159567602" lon="10.87343418777718"><ele>677.7142857142857</ele><time>2026-04-06T14:25:24.881Z</time></trkpt><trkpt lat="44.03865686679444" lon="10.873350507988059"><ele>678.5714285714286</ele><time>2026-04-06T14:25:27.881Z</time></trkpt><trkpt lat="44.038706055282304" lon="10.873259359840386"><ele>679.4285714285714</ele><time>2026-04-06T14:25:30.881Z</time></trkpt><trkpt lat="44.03874876224252" lon="10.873184292026544"><ele>680.2857142857143</ele><time>2026-04-06T14:25:33.88Z</time></trkpt><trkpt lat="44.038767157344175" lon="10.87308332885569"><ele>681.1428571428571</ele><time>2026-04-06T14:25:36.881Z</time></trkpt><trkpt lat="44.03875740785261" lon="10.872987361341657"><ele>682.0</ele><time>2026-04-06T14:25:39.88Z</time></trkpt><trkpt lat="44.03878907252026" lon="10.872873050916107"><ele>682.0</ele><time>2026-04-06T14:25:43.881Z</time></trkpt><trkpt lat="44.03885251852406" lon="10.87287540300387"><ele>682.0</ele><time>2026-04-06T14:25:49.881Z</time></trkpt><trkpt lat="44.03886133099675" lon="10.872769814839723"><ele>682.0</ele><time>2026-04-06T14:26:28.88Z</time></trkpt><trkpt lat="44.03880749561488" lon="10.872710120197222"><ele>682.0</ele><time>2026-04-06T14:28:22.877Z</time></trkpt><trkpt lat="44.03872502803455" lon="10.872687844277081"><ele>682.0</ele><time>2026-04-06T14:28:24.877Z</time></trkpt><trkpt lat="44.03863040865432" lon="10.872631156671543"><ele>682.0</ele><time>2026-04-06T14:28:26.877Z</time></trkpt><trkpt lat="44.03853719973173" lon="10.872528417707933"><ele>682.6666666666667</ele><time>2026-04-06T14:28:28.877Z</time></trkpt><trkpt lat="44.03846452832212" lon="10.87238633641447"><ele>683.3333333333334</ele><time>2026-04-06T14:28:30.877Z</time></trkpt><trkpt lat="44.03843717522804" lon="10.872300457128329"><ele>684.0</ele><time>2026-04-06T14:28:31.877Z</time></trkpt><trkpt lat="44.038408599955126" lon="10.872210468433243"><ele>684.6666666666666</ele><time>2026-04-06T14:28:32.877Z</time></trkpt><trkpt lat="44.03837664878258" lon="10.87212021699792"><ele>685.3333333333333</ele><time>2026-04-06T14:28:33.877Z</time></trkpt><trkpt lat="44.03834234197161" lon="10.872025610023995"><ele>686.0</ele><time>2026-04-06T14:28:34.877Z</time></trkpt><trkpt lat="44.03830206712903" lon="10.87193298695547"><ele>684.6666666666666</ele><time>2026-04-06T14:28:35.877Z</time></trkpt><trkpt lat="44.03826812029482" lon="10.871839973649674"><ele>683.3333333333333</ele><time>2026-04-06T14:28:36.877Z</time></trkpt><trkpt lat="44.0382248953464" lon="10.871747266954943"><ele>682.0</ele><time>2026-04-06T14:28:37.877Z</time></trkpt><trkpt lat="44.03818963410267" lon="10.87164838631641"><ele>680.6666666666666</ele><time>2026-04-06T14:28:38.877Z</time></trkpt><trkpt lat="44.03817020812144" lon="10.87154787391559"><ele>679.3333333333334</ele><time>2026-04-06T14:28:39.877Z</time></trkpt><trkpt lat="44.038147925784116" lon="10.8714551245399"><ele>678.0</ele><time>2026-04-06T14:28:40.877Z</time></trkpt><trkpt lat="44.038117695507445" lon="10.871356227071706"><ele>678.0</ele><time>2026-04-06T14:28:41.877Z</time></trkpt><trkpt lat="44.03809883384673" lon="10.871259668016782"><ele>678.0</ele><time>2026-04-06T14:28:42.877Z</time></trkpt><trkpt lat="44.03809121467591" lon="10.871169185364137"><ele>678.0</ele><time>2026-04-06T14:28:43.877Z</time></trkpt><trkpt lat="44.038110672685384" lon="10.871003633013393"><ele>678.0</ele><time>2026-04-06T14:28:45.877Z</time></trkpt><trkpt lat="44.03813348221805" lon="10.870889057320865"><ele>678.0</ele><time>2026-04-06T14:28:47.877Z</time></trkpt><trkpt lat="44.03814534161504" lon="10.870781497470857"><ele>678.0</ele><time>2026-04-06T14:28:49.877Z</time></trkpt><trkpt lat="44.038161173688" lon="10.870680682482035"><ele>678.1666666666666</ele><time>2026-04-06T14:28:51.877Z</time></trkpt><trkpt lat="44.03817064598499" lon="10.870559773634493"><ele>678.3333333333334</ele><time>2026-04-06T14:28:53.877Z</time></trkpt><trkpt lat="44.03818149620751" lon="10.87043664821749"><ele>678.5</ele><time>2026-04-06T14:28:55.877Z</time></trkpt><trkpt lat="44.03818944995791" lon="10.870320547682274"><ele>678.6666666666667</ele><time>2026-04-06T14:28:57.877Z</time></trkpt><trkpt lat="44.03819252763641" lon="10.870214616257106"><ele>678.8333333333334</ele><time>2026-04-06T14:28:59.877Z</time></trkpt><trkpt lat="44.03819765581663" lon="10.870112127787092"><ele>679.0</ele><time>2026-04-06T14:29:01.877Z</time></trkpt><trkpt lat="44.03820691745582" lon="10.87000269665869"><ele>679.6666666666667</ele><time>2026-04-06T14:29:03.877Z</time></trkpt><trkpt lat="44.03820940069727" lon="10.869891252495352"><ele>680.3333333333334</ele><time>2026-04-06T14:29:05.877Z</time></trkpt><trkpt lat="44.03820324761353" lon="10.869764863088383"><ele>681.0</ele><time>2026-04-06T14:29:07.877Z</time></trkpt><trkpt lat="44.0381685468858" lon="10.869655082968373"><ele>681.6666666666666</ele><time>2026-04-06T14:29:09.877Z</time></trkpt><trkpt lat="44.038156344032174" lon="10.869526352797038"><ele>682.3333333333333</ele><time>2026-04-06T14:29:11.877Z</time></trkpt><trkpt lat="44.038152724094445" lon="10.869408370283457"><ele>683.0</ele><time>2026-04-06T14:29:13.877Z</time></trkpt><trkpt lat="44.038150005105464" lon="10.869272438407812"><ele>683.5</ele><time>2026-04-06T14:29:15.877Z</time></trkpt><trkpt lat="44.03813780647269" lon="10.869141113820369"><ele>684.0</ele><time>2026-04-06T14:29:17.876Z</time></trkpt><trkpt lat="44.03814523704644" lon="10.869016154386332"><ele>684.5</ele><time>2026-04-06T14:29:19.876Z</time></trkpt><trkpt lat="44.038153962031636" lon="10.86889177497634"><ele>685.0</ele><time>2026-04-06T14:29:21.876Z</time></trkpt><trkpt lat="44.03816919251285" lon="10.86876771912109"><ele>685.5</ele><time>2026-04-06T14:29:23.876Z</time></trkpt><trkpt lat="44.03817647765334" lon="10.868652531724932"><ele>686.0</ele><time>2026-04-06T14:29:25.876Z</time></trkpt><trkpt lat="44.03818891963651" lon="10.868541001635213"><ele>686.2857142857143</ele><time>2026-04-06T14:29:27.876Z</time></trkpt><trkpt lat="44.03820032171697" lon="10.868439159284772"><ele>686.5714285714286</ele><time>2026-04-06T14:29:29.876Z</time></trkpt><trkpt lat="44.03817716161661" lon="10.868340519487091"><ele>686.8571428571429</ele><time>2026-04-06T14:29:31.876Z</time></trkpt><trkpt lat="44.03819146430616" lon="10.868241613170268"><ele>687.1428571428571</ele><time>2026-04-06T14:29:33.876Z</time></trkpt><trkpt lat="44.03820484090827" lon="10.868153285445029"><ele>687.4285714285714</ele><time>2026-04-06T14:29:35.876Z</time></trkpt><trkpt lat="44.03826286396696" lon="10.868098140205507"><ele>687.7142857142858</ele><time>2026-04-06T14:29:39.876Z</time></trkpt><trkpt lat="44.03832453013206" lon="10.868163172990354"><ele>688.0</ele><time>2026-04-06T14:29:42.877Z</time></trkpt><trkpt lat="44.038373012754136" lon="10.868221762441394"><ele>688.0000000000001</ele><time>2026-04-06T14:29:45.877Z</time></trkpt><trkpt lat="44.03843586771985" lon="10.868226898719827"><ele>688.0</ele><time>2026-04-06T14:29:49.876Z</time></trkpt><trkpt lat="44.03847836362882" lon="10.868153134781316"><ele>688.0</ele><time>2026-04-06T14:29:54.877Z</time></trkpt><trkpt lat="44.03852840000529" lon="10.868088236970673"><ele>688.0</ele><time>2026-04-06T14:29:57.876Z</time></trkpt><trkpt lat="44.03852496929607" lon="10.86798676770032"><ele>688.0</ele><time>2026-04-06T14:30:06.876Z</time></trkpt><trkpt lat="44.03850852364415" lon="10.867882228283063"><ele>688.0000000000001</ele><time>2026-04-06T14:33:48.831Z</time></trkpt><trkpt lat="44.03847015970705" lon="10.867772903064918"><ele>688.0</ele><time>2026-04-06T14:34:37.831Z</time></trkpt><trkpt lat="44.03846671243968" lon="10.867880012458848"><ele>688.0</ele><time>2026-04-06T14:37:27.827Z</time></trkpt><trkpt lat="44.03849252866556" lon="10.867976580928454"><ele>688.0</ele><time>2026-04-06T14:43:46.817Z</time></trkpt><trkpt lat="44.03846460641891" lon="10.868068487712796"><ele>688.0</ele><time>2026-04-06T14:44:17.816Z</time></trkpt><trkpt lat="44.03839407822657" lon="10.868092732633764"><ele>688.0</ele><time>2026-04-06T14:44:22.816Z</time></trkpt><trkpt lat="44.03832201799091" lon="10.868049097713364"><ele>688.0</ele><time>2026-04-06T14:44:25.816Z</time></trkpt><trkpt lat="44.038280089791684" lon="10.867962777937276"><ele>688.0</ele><time>2026-04-06T14:44:29.816Z</time></trkpt><trkpt lat="44.038270694018586" lon="10.867849129466872"><ele>688.3333333333334</ele><time>2026-04-06T14:44:32.816Z</time></trkpt><trkpt lat="44.03826411747636" lon="10.867736110623552"><ele>688.6666666666667</ele><time>2026-04-06T14:44:35.816Z</time></trkpt><trkpt lat="44.038292454442725" lon="10.867640707773528"><ele>689.0</ele><time>2026-04-06T14:44:38.816Z</time></trkpt><trkpt lat="44.03829341400293" lon="10.867538740510547"><ele>689.3333333333334</ele><time>2026-04-06T14:44:41.816Z</time></trkpt><trkpt lat="44.0383013266263" lon="10.86741539580026"><ele>689.6666666666666</ele><time>2026-04-06T14:44:44.816Z</time></trkpt><trkpt lat="44.03831566577322" lon="10.867289834667504"><ele>690.0</ele><time>2026-04-06T14:44:47.816Z</time></trkpt><trkpt lat="44.03832933885572" lon="10.867197078551674"><ele>690.6666666666666</ele><time>2026-04-06T14:44:49.816Z</time></trkpt><trkpt lat="44.03836616283913" lon="10.86709096389677"><ele>691.3333333333334</ele><time>2026-04-06T14:44:52.816Z</time></trkpt><trkpt lat="44.0383854619224" lon="10.867001057228846"><ele>692.0</ele><time>2026-04-06T14:44:55.816Z</time></trkpt><trkpt lat="44.03838577480834" lon="10.86689298329663"><ele>692.6666666666667</ele><time>2026-04-06T14:44:58.816Z</time></trkpt><trkpt lat="44.03838411416388" lon="10.866800062934773"><ele>693.3333333333334</ele><time>2026-04-06T14:45:01.816Z</time></trkpt><trkpt lat="44.03838787444466" lon="10.866685437777397"><ele>694.0</ele><time>2026-04-06T14:45:04.816Z</time></trkpt><trkpt lat="44.038389157670736" lon="10.866584332016462"><ele>694.6666666666667</ele><time>2026-04-06T14:45:07.816Z</time></trkpt><trkpt lat="44.038404995469925" lon="10.866473390352311"><ele>695.3333333333334</ele><time>2026-04-06T14:45:10.816Z</time></trkpt><trkpt lat="44.038400497750686" lon="10.866362223623657"><ele>696.0</ele><time>2026-04-06T14:45:13.816Z</time></trkpt><trkpt lat="44.03839540118394" lon="10.866228902505604"><ele>696.6666666666666</ele><time>2026-04-06T14:45:16.815Z</time></trkpt><trkpt lat="44.038409035384014" lon="10.866132643634135"><ele>697.3333333333333</ele><time>2026-04-06T14:45:19.815Z</time></trkpt><trkpt lat="44.03840309127208" lon="10.865997038147686"><ele>698.0</ele><time>2026-04-06T14:45:22.815Z</time></trkpt><trkpt lat="44.03842605132709" lon="10.865912100619292"><ele>698.0</ele><time>2026-04-06T14:45:25.815Z</time></trkpt><trkpt lat="44.03845345544981" lon="10.865788751575083"><ele>698.0</ele><time>2026-04-06T14:45:27.815Z</time></trkpt><trkpt lat="44.03846959599895" lon="10.865672653516578"><ele>698.0</ele><time>2026-04-06T14:45:30.815Z</time></trkpt><trkpt lat="44.0384603126175" lon="10.865566660767504"><ele>698.0</ele><time>2026-04-06T14:45:33.815Z</time></trkpt><trkpt lat="44.038481438021826" lon="10.865467645239551"><ele>698.0</ele><time>2026-04-06T14:45:36.815Z</time></trkpt><trkpt lat="44.03849444363033" lon="10.865377682011063"><ele>698.0</ele><time>2026-04-06T14:45:38.815Z</time></trkpt><trkpt lat="44.038518577207206" lon="10.865253573757247"><ele>698.0</ele><time>2026-04-06T14:45:41.815Z</time></trkpt><trkpt lat="44.038525709389205" lon="10.86513566840954"><ele>698.0</ele><time>2026-04-06T14:45:45.815Z</time></trkpt><trkpt lat="44.03854057500125" lon="10.865048424108853"><ele>698.0</ele><time>2026-04-06T14:45:47.815Z</time></trkpt><trkpt lat="44.03855961561547" lon="10.864936746456436"><ele>698.0</ele><time>2026-04-06T14:45:50.815Z</time></trkpt><trkpt lat="44.03857182366319" lon="10.864845431739425"><ele>698.0</ele><time>2026-04-06T14:45:52.815Z</time></trkpt><trkpt lat="44.038577663390136" lon="10.864729454204312"><ele>698.0</ele><time>2026-04-06T14:45:55.815Z</time></trkpt><trkpt lat="44.03859187001669" lon="10.864612094165771"><ele>697.9999999999999</ele><time>2026-04-06T14:45:58.815Z</time></trkpt><trkpt lat="44.03860282461446" lon="10.864519463382685"><ele>698.0</ele><time>2026-04-06T14:46:00.814Z</time></trkpt><trkpt lat="44.038638286360545" lon="10.864389079478345"><ele>698.0</ele><time>2026-04-06T14:46:03.814Z</time></trkpt><trkpt lat="44.03865611891759" lon="10.864291814700604"><ele>698.0</ele><time>2026-04-06T14:46:05.814Z</time></trkpt><trkpt lat="44.03866768304442" lon="10.8642056548267"><ele>698.0</ele><time>2026-04-06T14:46:07.814Z</time></trkpt><trkpt lat="44.03867716700867" lon="10.86410530978036"><ele>697.9999999999999</ele><time>2026-04-06T14:46:09.815Z</time></trkpt><trkpt lat="44.03869417242034" lon="10.864014471504982"><ele>698.0</ele><time>2026-04-06T14:46:11.816Z</time></trkpt><trkpt lat="44.03870223962412" lon="10.86389493699466"><ele>698.0</ele><time>2026-04-06T14:46:14.817Z</time></trkpt><trkpt lat="44.0387114773844" lon="10.863808121837671"><ele>698.0</ele><time>2026-04-06T14:46:16.818Z</time></trkpt><trkpt lat="44.03872721177594" lon="10.863715336689944"><ele>698.0</ele><time>2026-04-06T14:46:18.819Z</time></trkpt><trkpt lat="44.038730817560534" lon="10.863616667612972"><ele>698.0</ele><time>2026-04-06T14:46:20.819Z</time></trkpt><trkpt lat="44.03872809182179" lon="10.863498510159971"><ele>698.0</ele><time>2026-04-06T14:46:22.82Z</time></trkpt><trkpt lat="44.03873833987554" lon="10.863387083336232"><ele>698.0</ele><time>2026-04-06T14:46:24.82Z</time></trkpt><trkpt lat="44.03874910783641" lon="10.863257570090733"><ele>697.5999999999999</ele><time>2026-04-06T14:46:26.821Z</time></trkpt><trkpt lat="44.03874867108046" lon="10.863123094770755"><ele>697.1999999999999</ele><time>2026-04-06T14:46:28.821Z</time></trkpt><trkpt lat="44.038732131369336" lon="10.862973705484682"><ele>696.8</ele><time>2026-04-06T14:46:30.821Z</time></trkpt><trkpt lat="44.03872331212818" lon="10.86282769816519"><ele>696.4</ele><time>2026-04-06T14:46:32.821Z</time></trkpt><trkpt lat="44.038705014756985" lon="10.862682330903704"><ele>696.0</ele><time>2026-04-06T14:46:34.821Z</time></trkpt><trkpt lat="44.03867579336341" lon="10.862543318065567"><ele>695.5</ele><time>2026-04-06T14:46:36.822Z</time></trkpt><trkpt lat="44.03866181082513" lon="10.862381339837707"><ele>695.0</ele><time>2026-04-06T14:46:38.821Z</time></trkpt><trkpt lat="44.03864729749038" lon="10.862215413577017"><ele>694.5</ele><time>2026-04-06T14:46:40.822Z</time></trkpt><trkpt lat="44.038647844588624" lon="10.862040125496806"><ele>694.0</ele><time>2026-04-06T14:46:42.822Z</time></trkpt><trkpt lat="44.038665227385955" lon="10.861866800898532"><ele>693.8000000000001</ele><time>2026-04-06T14:46:44.822Z</time></trkpt><trkpt lat="44.03869591035615" lon="10.861695813908334"><ele>693.6</ele><time>2026-04-06T14:46:46.822Z</time></trkpt><trkpt lat="44.038758993525725" lon="10.861537664579542"><ele>693.4</ele><time>2026-04-06T14:46:48.822Z</time></trkpt><trkpt lat="44.038789063666265" lon="10.861444954183696"><ele>693.2</ele><time>2026-04-06T14:46:49.822Z</time></trkpt><trkpt lat="44.03882803651457" lon="10.861375768521679"><ele>693.0</ele><time>2026-04-06T14:46:50.822Z</time></trkpt><trkpt lat="44.03887367090311" lon="10.861307545668433"><ele>693.0</ele><time>2026-04-06T14:46:51.822Z</time></trkpt><trkpt lat="44.0389191375131" lon="10.861219272674129"><ele>693.0</ele><time>2026-04-06T14:46:52.822Z</time></trkpt><trkpt lat="44.038946466177975" lon="10.861110466974603"><ele>693.0</ele><time>2026-04-06T14:46:53.822Z</time></trkpt><trkpt lat="44.03897565222023" lon="10.860950920144708"><ele>693.0</ele><time>2026-04-06T14:46:55.822Z</time></trkpt><trkpt lat="44.038957224132524" lon="10.860852246595462"><ele>693.0</ele><time>2026-04-06T14:46:56.822Z</time></trkpt><trkpt lat="44.03892791729821" lon="10.86075908402937"><ele>693.0</ele><time>2026-04-06T14:46:57.822Z</time></trkpt><trkpt lat="44.03889841326898" lon="10.860678485644126"><ele>693.0</ele><time>2026-04-06T14:46:58.822Z</time></trkpt><trkpt lat="44.03886543248479" lon="10.86053323197745"><ele>693.0</ele><time>2026-04-06T14:47:00.822Z</time></trkpt><trkpt lat="44.03884060294737" lon="10.860384877608409"><ele>693.0</ele><time>2026-04-06T14:47:02.822Z</time></trkpt><trkpt lat="44.038820397377584" lon="10.860252646462248"><ele>693.0</ele><time>2026-04-06T14:47:04.822Z</time></trkpt><trkpt lat="44.038818169296086" lon="10.860117349022577"><ele>693.0</ele><time>2026-04-06T14:47:06.822Z</time></trkpt><trkpt lat="44.03881740736311" lon="10.859994744713791"><ele>694.1666666666666</ele><time>2026-04-06T14:47:08.822Z</time></trkpt><trkpt lat="44.0388252458607" lon="10.859892324463187"><ele>695.3333333333334</ele><time>2026-04-06T14:47:10.822Z</time></trkpt><trkpt lat="44.038819242198485" lon="10.859785455426698"><ele>696.5</ele><time>2026-04-06T14:47:12.822Z</time></trkpt><trkpt lat="44.03882425842091" lon="10.85968093385187"><ele>697.6666666666667</ele><time>2026-04-06T14:47:14.822Z</time></trkpt><trkpt lat="44.03881497665059" lon="10.859571450555187"><ele>698.8333333333334</ele><time>2026-04-06T14:47:16.822Z</time></trkpt><trkpt lat="44.03881240333055" lon="10.85947650277119"><ele>700.0</ele><time>2026-04-06T14:47:18.822Z</time></trkpt><trkpt lat="44.03880721481717" lon="10.859332035299104"><ele>701.8</ele><time>2026-04-06T14:47:20.822Z</time></trkpt><trkpt lat="44.03878094503941" lon="10.859219662142332"><ele>703.6</ele><time>2026-04-06T14:47:22.822Z</time></trkpt><trkpt lat="44.03874537267175" lon="10.859098025800495"><ele>705.4000000000001</ele><time>2026-04-06T14:47:24.822Z</time></trkpt><trkpt lat="44.038728507780924" lon="10.858969174594504"><ele>707.2</ele><time>2026-04-06T14:47:26.822Z</time></trkpt><trkpt lat="44.03871112682652" lon="10.85886021045587"><ele>709.0</ele><time>2026-04-06T14:47:28.822Z</time></trkpt><trkpt lat="44.038689539361975" lon="10.858726544192994"><ele>709.0</ele><time>2026-04-06T14:47:30.822Z</time></trkpt><trkpt lat="44.038678253194306" lon="10.858596268684911"><ele>709.0</ele><time>2026-04-06T14:47:32.822Z</time></trkpt><trkpt lat="44.03864725880918" lon="10.858452790964149"><ele>709.0</ele><time>2026-04-06T14:47:34.822Z</time></trkpt><trkpt lat="44.03862527427061" lon="10.858341191182662"><ele>709.0</ele><time>2026-04-06T14:47:36.822Z</time></trkpt><trkpt lat="44.03859709632447" lon="10.858251493833585"><ele>709.0</ele><time>2026-04-06T14:47:38.822Z</time></trkpt><trkpt lat="44.03857292434297" lon="10.858126634851706"><ele>709.0</ele><time>2026-04-06T14:47:40.822Z</time></trkpt><trkpt lat="44.03853712095984" lon="10.858012363577888"><ele>708.8333333333334</ele><time>2026-04-06T14:47:42.822Z</time></trkpt><trkpt lat="44.03851440998458" lon="10.857890434663405"><ele>708.6666666666667</ele><time>2026-04-06T14:47:44.821Z</time></trkpt><trkpt lat="44.03847078832869" lon="10.857795190226735"><ele>708.5</ele><time>2026-04-06T14:47:47.821Z</time></trkpt><trkpt lat="44.0384514169438" lon="10.857701467455744"><ele>708.3333333333334</ele><time>2026-04-06T14:47:49.821Z</time></trkpt><trkpt lat="44.03842508030721" lon="10.857575603366751"><ele>708.1666666666666</ele><time>2026-04-06T14:47:51.821Z</time></trkpt><trkpt lat="44.03840491933051" lon="10.8574726641433"><ele>708.0</ele><time>2026-04-06T14:47:53.821Z</time></trkpt><trkpt lat="44.038355991077324" lon="10.85736394074142"><ele>709.5</ele><time>2026-04-06T14:47:55.821Z</time></trkpt><trkpt lat="44.038296854452064" lon="10.85729445550035"><ele>711.0</ele><time>2026-04-06T14:47:57.821Z</time></trkpt><trkpt lat="44.03822384959867" lon="10.857213614060647"><ele>712.5</ele><time>2026-04-06T14:47:59.821Z</time></trkpt><trkpt lat="44.038156594274945" lon="10.857149653866422"><ele>714.0</ele><time>2026-04-06T14:48:01.821Z</time></trkpt><trkpt lat="44.038088753656865" lon="10.857082486136331"><ele>715.5</ele><time>2026-04-06T14:48:03.821Z</time></trkpt><trkpt lat="44.03802156477784" lon="10.856974759786143"><ele>717.0</ele><time>2026-04-06T14:48:05.821Z</time></trkpt><trkpt lat="44.037977419386095" lon="10.856847880863635"><ele>716.6666666666666</ele><time>2026-04-06T14:48:07.821Z</time></trkpt><trkpt lat="44.03795284600162" lon="10.85672776776928"><ele>716.3333333333334</ele><time>2026-04-06T14:48:09.821Z</time></trkpt><trkpt lat="44.03794376289647" lon="10.85660648340478"><ele>716.0</ele><time>2026-04-06T14:48:11.821Z</time></trkpt><trkpt lat="44.037922563501496" lon="10.85649354576508"><ele>715.6666666666667</ele><time>2026-04-06T14:48:13.821Z</time></trkpt><trkpt lat="44.03791616954879" lon="10.856370289395693"><ele>715.3333333333334</ele><time>2026-04-06T14:48:15.821Z</time></trkpt><trkpt lat="44.03789227583439" lon="10.856284521310625"><ele>715.0</ele><time>2026-04-06T14:48:17.821Z</time></trkpt><trkpt lat="44.03787495895169" lon="10.856182738136477"><ele>715.0</ele><time>2026-04-06T14:48:19.821Z</time></trkpt><trkpt lat="44.03788324392987" lon="10.856070600815544"><ele>715.0</ele><time>2026-04-06T14:48:21.821Z</time></trkpt><trkpt lat="44.03787161114034" lon="10.855951138738886"><ele>715.0</ele><time>2026-04-06T14:48:23.821Z</time></trkpt><trkpt lat="44.0378474587272" lon="10.855823070399314"><ele>715.0</ele><time>2026-04-06T14:48:26.821Z</time></trkpt><trkpt lat="44.03784761426582" lon="10.855735304177848"><ele>715.0</ele><time>2026-04-06T14:48:28.821Z</time></trkpt><trkpt lat="44.03784520932869" lon="10.855616013124509"><ele>715.0</ele><time>2026-04-06T14:48:30.821Z</time></trkpt><trkpt lat="44.037826683726166" lon="10.855500870168765"><ele>715.0</ele><time>2026-04-06T14:48:32.82Z</time></trkpt><trkpt lat="44.037801755476714" lon="10.85537756800995"><ele>715.0</ele><time>2026-04-06T14:48:34.82Z</time></trkpt><trkpt lat="44.037794866879246" lon="10.855251083675743"><ele>715.0</ele><time>2026-04-06T14:48:36.82Z</time></trkpt><trkpt lat="44.03777979191588" lon="10.855090941843542"><ele>715.0</ele><time>2026-04-06T14:48:38.82Z</time></trkpt><trkpt lat="44.03775872164464" lon="10.854949995902423"><ele>715.0</ele><time>2026-04-06T14:48:40.82Z</time></trkpt><trkpt lat="44.03771536463755" lon="10.854819822099214"><ele>714.6</ele><time>2026-04-06T14:48:42.82Z</time></trkpt><trkpt lat="44.03766971945883" lon="10.85469721915883"><ele>714.2</ele><time>2026-04-06T14:48:44.82Z</time></trkpt><trkpt lat="44.03761596492376" lon="10.85458412872948"><ele>713.8</ele><time>2026-04-06T14:48:46.819Z</time></trkpt><trkpt lat="44.03757933214859" lon="10.854471775952268"><ele>713.4</ele><time>2026-04-06T14:48:48.82Z</time></trkpt><trkpt lat="44.03752055040386" lon="10.854353760750364"><ele>713.0</ele><time>2026-04-06T14:48:50.82Z</time></trkpt><trkpt lat="44.037472825723476" lon="10.854243736329922"><ele>714.0</ele><time>2026-04-06T14:48:52.82Z</time></trkpt><trkpt lat="44.03740758563902" lon="10.854137531561086"><ele>715.0</ele><time>2026-04-06T14:48:54.82Z</time></trkpt><trkpt lat="44.03739197998932" lon="10.854013001757748"><ele>716.0</ele><time>2026-04-06T14:48:56.82Z</time></trkpt><trkpt lat="44.03739071545114" lon="10.853897125431233"><ele>717.0</ele><time>2026-04-06T14:48:58.82Z</time></trkpt><trkpt lat="44.03741970736065" lon="10.8537808232124"><ele>718.0</ele><time>2026-04-06T14:49:00.82Z</time></trkpt><trkpt lat="44.037452841257966" lon="10.853641618864927"><ele>716.0</ele><time>2026-04-06T14:49:02.82Z</time></trkpt><trkpt lat="44.037527510676654" lon="10.853516623927394"><ele>714.0</ele><time>2026-04-06T14:49:04.82Z</time></trkpt><trkpt lat="44.0375959574667" lon="10.853441227991127"><ele>712.0</ele><time>2026-04-06T14:49:06.82Z</time></trkpt><trkpt lat="44.03767440598679" lon="10.85337744350405"><ele>710.0</ele><time>2026-04-06T14:49:08.82Z</time></trkpt><trkpt lat="44.03773443507859" lon="10.853291362337131"><ele>708.0</ele><time>2026-04-06T14:49:10.82Z</time></trkpt><trkpt lat="44.037795499550114" lon="10.85318607680342"><ele>708.0</ele><time>2026-04-06T14:49:12.819Z</time></trkpt><trkpt lat="44.03782754404155" lon="10.853055601420465"><ele>708.0</ele><time>2026-04-06T14:49:14.819Z</time></trkpt><trkpt lat="44.03784429414668" lon="10.852936571695729"><ele>708.0</ele><time>2026-04-06T14:49:16.819Z</time></trkpt><trkpt lat="44.037839536200245" lon="10.852797634943325"><ele>708.0</ele><time>2026-04-06T14:49:18.819Z</time></trkpt><trkpt lat="44.037819677896714" lon="10.852665033641804"><ele>708.0</ele><time>2026-04-06T14:49:20.819Z</time></trkpt><trkpt lat="44.037800008184014" lon="10.852525149904581"><ele>708.8</ele><time>2026-04-06T14:49:22.819Z</time></trkpt><trkpt lat="44.03775166573908" lon="10.852398213284419"><ele>709.5999999999999</ele><time>2026-04-06T14:49:24.819Z</time></trkpt><trkpt lat="44.037720113414295" lon="10.85227041875449"><ele>710.4000000000001</ele><time>2026-04-06T14:49:26.819Z</time></trkpt><trkpt lat="44.03768813340843" lon="10.852147873863146"><ele>711.2</ele><time>2026-04-06T14:49:28.819Z</time></trkpt><trkpt lat="44.037661315615274" lon="10.852031268170826"><ele>712.0</ele><time>2026-04-06T14:49:30.819Z</time></trkpt><trkpt lat="44.037628760904646" lon="10.851907837356165"><ele>712.0</ele><time>2026-04-06T14:49:32.819Z</time></trkpt><trkpt lat="44.037611888368694" lon="10.851790316798962"><ele>712.0</ele><time>2026-04-06T14:49:34.819Z</time></trkpt><trkpt lat="44.037590035487725" lon="10.851649098198257"><ele>712.0</ele><time>2026-04-06T14:49:36.819Z</time></trkpt><trkpt lat="44.037587865895865" lon="10.851522260063957"><ele>712.0</ele><time>2026-04-06T14:49:38.819Z</time></trkpt><trkpt lat="44.03758901973665" lon="10.851397166972973"><ele>712.0</ele><time>2026-04-06T14:49:40.819Z</time></trkpt><trkpt lat="44.03761505396735" lon="10.851272973134954"><ele>712.0</ele><time>2026-04-06T14:49:42.819Z</time></trkpt><trkpt lat="44.03764496409169" lon="10.851129725448626"><ele>712.0</ele><time>2026-04-06T14:49:44.819Z</time></trkpt><trkpt lat="44.03768169758307" lon="10.850996984057439"><ele>712.0</ele><time>2026-04-06T14:49:46.819Z</time></trkpt><trkpt lat="44.0377119437982" lon="10.850858583378388"><ele>712.0</ele><time>2026-04-06T14:49:48.819Z</time></trkpt><trkpt lat="44.03775028823773" lon="10.850737397778081"><ele>712.0</ele><time>2026-04-06T14:49:50.819Z</time></trkpt><trkpt lat="44.03777829537847" lon="10.85064088062556"><ele>712.1666666666667</ele><time>2026-04-06T14:49:52.819Z</time></trkpt><trkpt lat="44.0378073772797" lon="10.850519017043954"><ele>712.3333333333334</ele><time>2026-04-06T14:49:54.819Z</time></trkpt><trkpt lat="44.03783196734718" lon="10.850421097165798"><ele>712.5</ele><time>2026-04-06T14:49:56.819Z</time></trkpt><trkpt lat="44.03786423811167" lon="10.850322828633422"><ele>712.6666666666666</ele><time>2026-04-06T14:49:58.819Z</time></trkpt><trkpt lat="44.03788428561116" lon="10.850221163782491"><ele>712.8333333333333</ele><time>2026-04-06T14:50:00.818Z</time></trkpt><trkpt lat="44.037917964567406" lon="10.850135253621694"><ele>713.0</ele><time>2026-04-06T14:50:02.818Z</time></trkpt><trkpt lat="44.037954416471116" lon="10.850011491449381"><ele>713.0</ele><time>2026-04-06T14:50:04.818Z</time></trkpt><trkpt lat="44.03800289793237" lon="10.849913194612043"><ele>713.0</ele><time>2026-04-06T14:50:06.818Z</time></trkpt><trkpt lat="44.038044955247685" lon="10.849804524167904"><ele>713.0</ele><time>2026-04-06T14:50:08.818Z</time></trkpt><trkpt lat="44.03809165035347" lon="10.849725473760685"><ele>713.0</ele><time>2026-04-06T14:50:10.818Z</time></trkpt><trkpt lat="44.03813886480122" lon="10.849634333967256"><ele>713.0</ele><time>2026-04-06T14:50:12.818Z</time></trkpt><trkpt lat="44.038183975362614" lon="10.849546496999254"><ele>713.0</ele><time>2026-04-06T14:50:14.818Z</time></trkpt><trkpt lat="44.03821464899485" lon="10.849444650405278"><ele>713.0</ele><time>2026-04-06T14:50:16.818Z</time></trkpt><trkpt lat="44.03826475091689" lon="10.849342968875584"><ele>713.0</ele><time>2026-04-06T14:50:18.818Z</time></trkpt><trkpt lat="44.03831090089291" lon="10.849246456562215"><ele>713.0</ele><time>2026-04-06T14:50:20.818Z</time></trkpt><trkpt lat="44.03835992023771" lon="10.849144251236007"><ele>713.0</ele><time>2026-04-06T14:50:22.818Z</time></trkpt><trkpt lat="44.03840943603474" lon="10.84905150565587"><ele>713.0</ele><time>2026-04-06T14:50:24.818Z</time></trkpt><trkpt lat="44.038461919794905" lon="10.84896627438398"><ele>713.0</ele><time>2026-04-06T14:50:26.818Z</time></trkpt><trkpt lat="44.03851484852825" lon="10.8488696079788"><ele>714.0</ele><time>2026-04-06T14:50:28.818Z</time></trkpt><trkpt lat="44.03856997812385" lon="10.848787555154319"><ele>715.0</ele><time>2026-04-06T14:50:30.818Z</time></trkpt><trkpt lat="44.03862297399992" lon="10.848696325718999"><ele>716.0</ele><time>2026-04-06T14:50:32.818Z</time></trkpt><trkpt lat="44.03867712943178" lon="10.848599772675982"><ele>717.0</ele><time>2026-04-06T14:50:34.818Z</time></trkpt><trkpt lat="44.03872130167625" lon="10.848497286878075"><ele>718.0</ele><time>2026-04-06T14:50:36.818Z</time></trkpt><trkpt lat="44.038764459607606" lon="10.84840783427556"><ele>719.0</ele><time>2026-04-06T14:50:38.818Z</time></trkpt><trkpt lat="44.03880396202848" lon="10.848307711741711"><ele>719.0</ele><time>2026-04-06T14:50:40.818Z</time></trkpt><trkpt lat="44.03883791291775" lon="10.848203557494635"><ele>719.0</ele><time>2026-04-06T14:50:42.818Z</time></trkpt><trkpt lat="44.03889883254488" lon="10.84809990653964"><ele>719.0</ele><time>2026-04-06T14:50:44.817Z</time></trkpt><trkpt lat="44.03894710346579" lon="10.848018457955526"><ele>719.0</ele><time>2026-04-06T14:50:46.817Z</time></trkpt><trkpt lat="44.03898825188208" lon="10.8479255691388"><ele>719.0</ele><time>2026-04-06T14:50:48.817Z</time></trkpt><trkpt lat="44.03903386119679" lon="10.847827825272729"><ele>719.0</ele><time>2026-04-06T14:50:50.817Z</time></trkpt><trkpt lat="44.03907405784211" lon="10.847745335920072"><ele>719.0</ele><time>2026-04-06T14:50:52.817Z</time></trkpt><trkpt lat="44.03910527904303" lon="10.84764174049434"><ele>719.0</ele><time>2026-04-06T14:50:54.817Z</time></trkpt><trkpt lat="44.03913177073164" lon="10.84752084386164"><ele>719.0</ele><time>2026-04-06T14:50:56.817Z</time></trkpt><trkpt lat="44.03916654193015" lon="10.847408070207404"><ele>719.0</ele><time>2026-04-06T14:50:58.817Z</time></trkpt><trkpt lat="44.03919990896003" lon="10.847331120190393"><ele>719.0</ele><time>2026-04-06T14:51:00.817Z</time></trkpt><trkpt lat="44.03924241414466" lon="10.847248185549589"><ele>719.0</ele><time>2026-04-06T14:51:12.817Z</time></trkpt><trkpt lat="44.03929066944697" lon="10.84717179271143"><ele>719.8571428571428</ele><time>2026-04-06T14:51:41.816Z</time></trkpt><trkpt lat="44.03932953848293" lon="10.847092417313029"><ele>720.7142857142857</ele><time>2026-04-06T14:51:46.816Z</time></trkpt><trkpt lat="44.0393816853199" lon="10.847039050144916"><ele>721.5714285714286</ele><time>2026-04-06T14:51:49.816Z</time></trkpt><trkpt lat="44.03943493585001" lon="10.846970682757597"><ele>722.4285714285713</ele><time>2026-04-06T14:51:51.816Z</time></trkpt><trkpt lat="44.03949515710203" lon="10.846897132013101"><ele>723.2857142857143</ele><time>2026-04-06T14:51:53.816Z</time></trkpt><trkpt lat="44.039551336887925" lon="10.846810795048984"><ele>724.1428571428571</ele><time>2026-04-06T14:51:55.816Z</time></trkpt><trkpt lat="44.039592622359386" lon="10.846741623096651"><ele>725.0</ele><time>2026-04-06T14:51:57.816Z</time></trkpt><trkpt lat="44.03965361009467" lon="10.846639473577527"><ele>725.0</ele><time>2026-04-06T14:52:00.816Z</time></trkpt><trkpt lat="44.039697718123506" lon="10.846557469270358"><ele>725.0</ele><time>2026-04-06T14:52:02.816Z</time></trkpt><trkpt lat="44.039739233039526" lon="10.846460816099126"><ele>725.0</ele><time>2026-04-06T14:52:05.816Z</time></trkpt><trkpt lat="44.039778096496725" lon="10.846374838248762"><ele>725.0</ele><time>2026-04-06T14:52:07.816Z</time></trkpt><trkpt lat="44.03980686597387" lon="10.846288358035247"><ele>725.0</ele><time>2026-04-06T14:52:09.816Z</time></trkpt><trkpt lat="44.03983460719565" lon="10.846201781185416"><ele>725.0</ele><time>2026-04-06T14:52:11.816Z</time></trkpt><trkpt lat="44.03986150793982" lon="10.846096793442818"><ele>725.0</ele><time>2026-04-06T14:52:14.815Z</time></trkpt><trkpt lat="44.03989681271831" lon="10.84600822843659"><ele>725.5</ele><time>2026-04-06T14:52:16.815Z</time></trkpt><trkpt lat="44.03994181554561" lon="10.845907391244848"><ele>726.0</ele><time>2026-04-06T14:52:19.815Z</time></trkpt><trkpt lat="44.03997315520047" lon="10.845812323341145"><ele>726.5</ele><time>2026-04-06T14:52:21.815Z</time></trkpt><trkpt lat="44.040010222288544" lon="10.845737217640579"><ele>727.0</ele><time>2026-04-06T14:52:23.815Z</time></trkpt><trkpt lat="44.04005820393321" lon="10.845673233837218"><ele>727.5</ele><time>2026-04-06T14:52:25.815Z</time></trkpt><trkpt lat="44.04011230212886" lon="10.845571814077347"><ele>728.0</ele><time>2026-04-06T14:52:27.815Z</time></trkpt><trkpt lat="44.04017370159027" lon="10.845462560047828"><ele>728.5</ele><time>2026-04-06T14:52:29.815Z</time></trkpt><trkpt lat="44.04021518257961" lon="10.845359491304084"><ele>729.0</ele><time>2026-04-06T14:52:31.815Z</time></trkpt><trkpt lat="44.040257597433765" lon="10.845260759699373"><ele>729.5</ele><time>2026-04-06T14:52:33.815Z</time></trkpt><trkpt lat="44.04030145942824" lon="10.845161509527491"><ele>730.0</ele><time>2026-04-06T14:52:35.815Z</time></trkpt><trkpt lat="44.04033882958823" lon="10.84505214048648"><ele>730.5</ele><time>2026-04-06T14:52:37.815Z</time></trkpt><trkpt lat="44.04037545032626" lon="10.844916657900628"><ele>731.0</ele><time>2026-04-06T14:52:39.815Z</time></trkpt><trkpt lat="44.04039981918475" lon="10.844784814997542"><ele>731.0</ele><time>2026-04-06T14:52:41.815Z</time></trkpt><trkpt lat="44.040419810124185" lon="10.84469752310179"><ele>731.0</ele><time>2026-04-06T14:52:42.815Z</time></trkpt><trkpt lat="44.040431158911055" lon="10.844547057962808"><ele>731.0</ele><time>2026-04-06T14:52:44.815Z</time></trkpt><trkpt lat="44.04042317541471" lon="10.844400381831335"><ele>731.0</ele><time>2026-04-06T14:52:46.815Z</time></trkpt><trkpt lat="44.040410333828376" lon="10.844276533308602"><ele>731.0</ele><time>2026-04-06T14:52:48.815Z</time></trkpt><trkpt lat="44.040391720958866" lon="10.844169497927494"><ele>731.0</ele><time>2026-04-06T14:52:51.814Z</time></trkpt><trkpt lat="44.040354591771774" lon="10.844051808354813"><ele>731.5714285714286</ele><time>2026-04-06T14:52:54.814Z</time></trkpt><trkpt lat="44.040326725532715" lon="10.843943351543809"><ele>732.1428571428571</ele><time>2026-04-06T14:52:56.814Z</time></trkpt><trkpt lat="44.040307114985275" lon="10.843858565060009"><ele>732.7142857142858</ele><time>2026-04-06T14:52:58.814Z</time></trkpt><trkpt lat="44.04030497565138" lon="10.8437598914185"><ele>733.2857142857142</ele><time>2026-04-06T14:53:00.815Z</time></trkpt><trkpt lat="44.040304716560456" lon="10.8436702743966"><ele>733.8571428571429</ele><time>2026-04-06T14:53:02.814Z</time></trkpt><trkpt lat="44.04028878013679" lon="10.843581863729703"><ele>734.4285714285714</ele><time>2026-04-06T14:53:04.814Z</time></trkpt><trkpt lat="44.04023487336696" lon="10.843470683267622"><ele>735.0</ele><time>2026-04-06T14:53:07.814Z</time></trkpt><trkpt lat="44.0402020783845" lon="10.84338089903845"><ele>735.3333333333334</ele><time>2026-04-06T14:53:09.814Z</time></trkpt><trkpt lat="44.040149747506554" lon="10.84328964151951"><ele>735.6666666666666</ele><time>2026-04-06T14:53:12.814Z</time></trkpt><trkpt lat="44.04009767207911" lon="10.843198799033425"><ele>736.0</ele><time>2026-04-06T14:53:14.814Z</time></trkpt><trkpt lat="44.04004944357342" lon="10.843091596673931"><ele>736.3333333333333</ele><time>2026-04-06T14:53:16.814Z</time></trkpt><trkpt lat="44.040037862240276" lon="10.842996948411091"><ele>736.6666666666666</ele><time>2026-04-06T14:53:18.814Z</time></trkpt><trkpt lat="44.04004492905168" lon="10.842882768265419"><ele>737.0</ele><time>2026-04-06T14:53:21.814Z</time></trkpt><trkpt lat="44.04005665373524" lon="10.842754272875606"><ele>737.0</ele><time>2026-04-06T14:53:24.814Z</time></trkpt><trkpt lat="44.040061857258735" lon="10.842644530685716"><ele>737.0</ele><time>2026-04-06T14:53:27.814Z</time></trkpt><trkpt lat="44.04003507213581" lon="10.842543590847836"><ele>737.0</ele><time>2026-04-06T14:53:29.814Z</time></trkpt><trkpt lat="44.03997531952561" lon="10.842435272976607"><ele>737.0</ele><time>2026-04-06T14:53:32.814Z</time></trkpt><trkpt lat="44.03990091059496" lon="10.842348549548179"><ele>737.0</ele><time>2026-04-06T14:53:35.814Z</time></trkpt><trkpt lat="44.03983015986695" lon="10.842279532405177"><ele>737.0</ele><time>2026-04-06T14:53:37.814Z</time></trkpt><trkpt lat="44.03977708052054" lon="10.842211327768732"><ele>740.1666666666666</ele><time>2026-04-06T14:53:39.814Z</time></trkpt><trkpt lat="44.03973143200877" lon="10.842142502626706"><ele>743.3333333333333</ele><time>2026-04-06T14:53:41.814Z</time></trkpt><trkpt lat="44.03968828839686" lon="10.842030812262083"><ele>746.5</ele><time>2026-04-06T14:53:44.814Z</time></trkpt><trkpt lat="44.03969782092302" lon="10.841929485929786"><ele>749.6666666666666</ele><time>2026-04-06T14:53:47.814Z</time></trkpt><trkpt lat="44.03968406639691" lon="10.841821389145647"><ele>752.8333333333334</ele><time>2026-04-06T14:53:50.813Z</time></trkpt><trkpt lat="44.03968117991749" lon="10.84172126754291"><ele>756.0</ele><time>2026-04-06T14:53:52.813Z</time></trkpt><trkpt lat="44.03965472800448" lon="10.841622461281435"><ele>756.6666666666666</ele><time>2026-04-06T14:53:55.813Z</time></trkpt><trkpt lat="44.039637994248075" lon="10.841507770388796"><ele>757.3333333333334</ele><time>2026-04-06T14:53:58.813Z</time></trkpt><trkpt lat="44.039600731273076" lon="10.8414247579603"><ele>758.0</ele><time>2026-04-06T14:54:01.813Z</time></trkpt><trkpt lat="44.03955686587134" lon="10.841322785546918"><ele>758.6666666666667</ele><time>2026-04-06T14:54:04.813Z</time></trkpt><trkpt lat="44.03954773838242" lon="10.841217231382233"><ele>759.3333333333334</ele><time>2026-04-06T14:54:07.813Z</time></trkpt><trkpt lat="44.03952701358867" lon="10.841119189745037"><ele>760.0</ele><time>2026-04-06T14:54:10.813Z</time></trkpt><trkpt lat="44.039509661005525" lon="10.841007369333095"><ele>760.6666666666667</ele><time>2026-04-06T14:54:13.813Z</time></trkpt><trkpt lat="44.039501158707864" lon="10.840902816800716"><ele>761.3333333333334</ele><time>2026-04-06T14:54:16.813Z</time></trkpt><trkpt lat="44.03948493980699" lon="10.840795278050214"><ele>762.0</ele><time>2026-04-06T14:54:19.813Z</time></trkpt><trkpt lat="44.0394762824467" lon="10.840684393250228"><ele>762.6666666666666</ele><time>2026-04-06T14:54:22.813Z</time></trkpt><trkpt lat="44.039457073647796" lon="10.84058991175798"><ele>763.3333333333333</ele><time>2026-04-06T14:54:25.813Z</time></trkpt><trkpt lat="44.0394292616464" lon="10.840471219190997"><ele>764.0</ele><time>2026-04-06T14:54:28.813Z</time></trkpt><trkpt lat="44.03941236500416" lon="10.840350737512612"><ele>764.0</ele><time>2026-04-06T14:54:31.813Z</time></trkpt><trkpt lat="44.03937760977458" lon="10.840240114760979"><ele>764.0</ele><time>2026-04-06T14:54:34.813Z</time></trkpt><trkpt lat="44.03935340759245" lon="10.840128760305152"><ele>764.0</ele><time>2026-04-06T14:54:37.812Z</time></trkpt><trkpt lat="44.03932914548721" lon="10.840037736494924"><ele>764.0</ele><time>2026-04-06T14:54:39.812Z</time></trkpt><trkpt lat="44.03929871646008" lon="10.839910466703312"><ele>764.0</ele><time>2026-04-06T14:54:42.812Z</time></trkpt><trkpt lat="44.039264498360026" lon="10.839803749647743"><ele>764.0</ele><time>2026-04-06T14:54:45.812Z</time></trkpt><trkpt lat="44.03922820369968" lon="10.839721512479793"><ele>764.5</ele><time>2026-04-06T14:54:48.812Z</time></trkpt><trkpt lat="44.03913781667365" lon="10.83969713664734"><ele>765.0</ele><time>2026-04-06T14:54:51.812Z</time></trkpt><trkpt lat="44.03908857394993" lon="10.83975445066334"><ele>765.5</ele><time>2026-04-06T14:54:54.811Z</time></trkpt><trkpt lat="44.03908542550161" lon="10.839854612830857"><ele>766.0</ele><time>2026-04-06T14:54:57.812Z</time></trkpt><trkpt lat="44.03910457697534" lon="10.839960414992458"><ele>766.5</ele><time>2026-04-06T14:55:00.812Z</time></trkpt><trkpt lat="44.03912405734278" lon="10.840066933578239"><ele>767.0</ele><time>2026-04-06T14:55:03.812Z</time></trkpt><trkpt lat="44.0391182358533" lon="10.84017528212481"><ele>770.5</ele><time>2026-04-06T14:55:06.812Z</time></trkpt><trkpt lat="44.039100281516724" lon="10.84028393305605"><ele>774.0</ele><time>2026-04-06T14:55:09.811Z</time></trkpt><trkpt lat="44.03907996051364" lon="10.840376199812571"><ele>777.5</ele><time>2026-04-06T14:55:12.811Z</time></trkpt><trkpt lat="44.0390775539365" lon="10.840465353516585"><ele>781.0</ele><time>2026-04-06T14:55:14.811Z</time></trkpt><trkpt lat="44.03905211150043" lon="10.840593097748727"><ele>784.5000000000001</ele><time>2026-04-06T14:55:17.811Z</time></trkpt><trkpt lat="44.03902182234787" lon="10.840689714150658"><ele>788.0</ele><time>2026-04-06T14:55:20.811Z</time></trkpt><trkpt lat="44.03896814446812" lon="10.840792892766583"><ele>788.0000000000001</ele><time>2026-04-06T14:55:23.811Z</time></trkpt><trkpt lat="44.03892865171089" lon="10.840904630624264"><ele>788.0</ele><time>2026-04-06T14:55:26.811Z</time></trkpt><trkpt lat="44.038877061503335" lon="10.840991593217344"><ele>788.0</ele><time>2026-04-06T14:55:29.811Z</time></trkpt><trkpt lat="44.03881197547914" lon="10.841060046561992"><ele>788.0</ele><time>2026-04-06T14:55:32.811Z</time></trkpt><trkpt lat="44.038735699932616" lon="10.841118938334889"><ele>788.0000000000001</ele><time>2026-04-06T14:55:35.811Z</time></trkpt><trkpt lat="44.03868680914535" lon="10.841214370820582"><ele>788.0</ele><time>2026-04-06T14:55:38.811Z</time></trkpt><trkpt lat="44.03862520943856" lon="10.841295095431892"><ele>788.0000000000001</ele><time>2026-04-06T14:55:41.811Z</time></trkpt><trkpt lat="44.038564169930645" lon="10.84134718401907"><ele>788.0</ele><time>2026-04-06T14:55:43.811Z</time></trkpt><trkpt lat="44.03849785560729" lon="10.841410183155388"><ele>788.0</ele><time>2026-04-06T14:55:46.811Z</time></trkpt><trkpt lat="44.03841984732607" lon="10.8414818093509"><ele>788.0</ele><time>2026-04-06T14:55:49.811Z</time></trkpt><trkpt lat="44.038334818876045" lon="10.841538622904087"><ele>788.0000000000001</ele><time>2026-04-06T14:55:52.811Z</time></trkpt><trkpt lat="44.03826040880066" lon="10.841598606034694"><ele>788.0</ele><time>2026-04-06T14:55:55.811Z</time></trkpt><trkpt lat="44.03818362569611" lon="10.841657872735347"><ele>788.0000000000001</ele><time>2026-04-06T14:55:58.81Z</time></trkpt><trkpt lat="44.03810270056375" lon="10.841720807333495"><ele>788.0</ele><time>2026-04-06T14:56:01.81Z</time></trkpt><trkpt lat="44.03802304278033" lon="10.841793374340947"><ele>788.0</ele><time>2026-04-06T14:56:04.81Z</time></trkpt><trkpt lat="44.037963352822366" lon="10.84184317961936"><ele>788.0</ele><time>2026-04-06T14:56:06.81Z</time></trkpt><trkpt lat="44.037917736068174" lon="10.841905429950986"><ele>788.0000000000001</ele><time>2026-04-06T14:56:08.81Z</time></trkpt><trkpt lat="44.03788164980595" lon="10.841979811313731"><ele>788.0</ele><time>2026-04-06T14:56:10.81Z</time></trkpt><trkpt lat="44.037851863652776" lon="10.842066890230406"><ele>787.8333333333334</ele><time>2026-04-06T14:56:12.81Z</time></trkpt><trkpt lat="44.03781987888192" lon="10.84215643308789"><ele>787.6666666666667</ele><time>2026-04-06T14:56:14.81Z</time></trkpt><trkpt lat="44.03776401013284" lon="10.842235447250292"><ele>787.5</ele><time>2026-04-06T14:56:17.81Z</time></trkpt><trkpt lat="44.037720629724035" lon="10.84232363490238"><ele>787.3333333333333</ele><time>2026-04-06T14:56:20.81Z</time></trkpt><trkpt lat="44.03769046838859" lon="10.842432374852748"><ele>787.1666666666666</ele><time>2026-04-06T14:56:23.81Z</time></trkpt><trkpt lat="44.0377026917898" lon="10.842539272696335"><ele>787.0</ele><time>2026-04-06T14:56:26.81Z</time></trkpt><trkpt lat="44.03769451641151" lon="10.842661136702072"><ele>786.4285714285714</ele><time>2026-04-06T14:56:31.81Z</time></trkpt><trkpt lat="44.03765352468108" lon="10.842730031848225"><ele>785.8571428571429</ele><time>2026-04-06T14:56:37.81Z</time></trkpt><trkpt lat="44.03770154869674" lon="10.84280935009736"><ele>785.2857142857142</ele><time>2026-04-06T14:58:15.807Z</time></trkpt><trkpt lat="44.037724372148055" lon="10.842900884471455"><ele>784.7142857142858</ele><time>2026-04-06T14:58:44.807Z</time></trkpt><trkpt lat="44.037641625058455" lon="10.842876545716251"><ele>784.1428571428572</ele><time>2026-04-06T15:00:58.804Z</time></trkpt><trkpt lat="44.03770717399106" lon="10.842844200369106"><ele>783.5714285714286</ele><time>2026-04-06T15:02:22.795Z</time></trkpt><trkpt lat="44.03772184171865" lon="10.842743721130304"><ele>783.0</ele><time>2026-04-06T15:02:32.792Z</time></trkpt><trkpt lat="44.03772776925295" lon="10.842631843093145"><ele>783.5714285714286</ele><time>2026-04-06T15:02:36.792Z</time></trkpt><trkpt lat="44.037719730680955" lon="10.842513628628394"><ele>784.1428571428572</ele><time>2026-04-06T15:02:39.791Z</time></trkpt><trkpt lat="44.037722148073776" lon="10.84242203931698"><ele>784.7142857142858</ele><time>2026-04-06T15:02:43.791Z</time></trkpt><trkpt lat="44.03765514065385" lon="10.842418666285216"><ele>785.2857142857142</ele><time>2026-04-06T15:02:46.791Z</time></trkpt><trkpt lat="44.03758675399716" lon="10.842425969421857"><ele>785.8571428571429</ele><time>2026-04-06T15:02:51.79Z</time></trkpt><trkpt lat="44.037523603174456" lon="10.842401198755216"><ele>786.4285714285714</ele><time>2026-04-06T15:02:55.79Z</time></trkpt><trkpt lat="44.0375203881557" lon="10.84251216552545"><ele>787.0</ele><time>2026-04-06T15:05:09.787Z</time></trkpt><trkpt lat="44.0375021895129" lon="10.842597888339682"><ele>786.3333333333333</ele><time>2026-04-06T15:05:12.787Z</time></trkpt><trkpt lat="44.03753924263615" lon="10.842710211121215"><ele>785.6666666666666</ele><time>2026-04-06T15:05:28.786Z</time></trkpt><trkpt lat="44.037524468655455" lon="10.842817508949537"><ele>785.0</ele><time>2026-04-06T15:05:55.785Z</time></trkpt><trkpt lat="44.03747760699486" lon="10.84275083382495"><ele>784.3333333333333</ele><time>2026-04-06T15:07:32.782Z</time></trkpt><trkpt lat="44.03742656270244" lon="10.842823124715423"><ele>783.6666666666666</ele><time>2026-04-06T15:08:46.781Z</time></trkpt><trkpt lat="44.037296537266265" lon="10.842817663906892"><ele>783.0</ele><time>2026-04-06T15:11:47.777Z</time></trkpt><trkpt lat="44.03736331590372" lon="10.84284664281892"><ele>796.0</ele><time>2026-04-06T15:12:12.775Z</time></trkpt></trkseg></trk></gpx>